<?xml version="1.0" encoding="UTF-8" standalone="no" ?>
<gpx xmlns="http://www.topografix.com/GPX/1/1" xmlns:xsi="http://www.w3.org/2001/XMLSchema-instance" xsi:schemaLocation="http://www.topografix.com/GPX/1/1 http://www.topografix.com/GPX/1/1/gpx.xsd" version="1.1" creator="VisuGPX - https://www.visugpx.com">
  <metadata>
    <name>Jogging</name>
    <desc><![CDATA[Retour timide à la course à pieds]]></desc>
  </metadata>
  <trk>
    <name><![CDATA[Rue Antoine Coysevox]]></name>
    <desc><![CDATA[]]></desc>
    <trkseg>
      <trkpt lat="47.52689" lon="6.77231">
        <ele>368.7</ele>
        <time>2014-10-28T13:38:30.000Z</time>
      </trkpt>
      <trkpt lat="47.52691" lon="6.77226">
        <ele>373.9</ele>
        <time>2014-10-28T13:38:36.000Z</time>
      </trkpt>
      <trkpt lat="47.52692" lon="6.77226">
        <ele>374.9</ele>
        <time>2014-10-28T13:38:37.000Z</time>
      </trkpt>
      <trkpt lat="47.52696" lon="6.77224">
        <ele>375.7</ele>
        <time>2014-10-28T13:38:40.000Z</time>
      </trkpt>
      <trkpt lat="47.52697" lon="6.77224">
        <ele>376.5</ele>
        <time>2014-10-28T13:38:41.000Z</time>
      </trkpt>
      <trkpt lat="47.52701" lon="6.77221">
        <ele>379.3</ele>
        <time>2014-10-28T13:38:53.000Z</time>
      </trkpt>
      <trkpt lat="47.52701" lon="6.77221">
        <ele>379.6</ele>
        <time>2014-10-28T13:38:54.000Z</time>
      </trkpt>
      <trkpt lat="47.52704" lon="6.77218">
        <ele>380.9</ele>
        <time>2014-10-28T13:38:57.000Z</time>
      </trkpt>
      <trkpt lat="47.52705" lon="6.77217">
        <ele>380.9</ele>
        <time>2014-10-28T13:38:58.000Z</time>
      </trkpt>
      <trkpt lat="47.52709" lon="6.77216">
        <ele>381.8</ele>
        <time>2014-10-28T13:39:04.000Z</time>
      </trkpt>
      <trkpt lat="47.5271" lon="6.77216">
        <ele>381.9</ele>
        <time>2014-10-28T13:39:05.000Z</time>
      </trkpt>
      <trkpt lat="47.52714" lon="6.77212">
        <ele>382.5</ele>
        <time>2014-10-28T13:39:12.000Z</time>
      </trkpt>
      <trkpt lat="47.52714" lon="6.77211">
        <ele>383.2</ele>
        <time>2014-10-28T13:39:13.000Z</time>
      </trkpt>
      <trkpt lat="47.52718" lon="6.77209">
        <ele>374.6</ele>
        <time>2014-10-28T13:39:17.000Z</time>
      </trkpt>
      <trkpt lat="47.52719" lon="6.7721">
        <ele>374.7</ele>
        <time>2014-10-28T13:39:18.000Z</time>
      </trkpt>
      <trkpt lat="47.52722" lon="6.77209">
        <ele>376.2</ele>
        <time>2014-10-28T13:39:20.000Z</time>
      </trkpt>
      <trkpt lat="47.52724" lon="6.77209">
        <ele>376.7</ele>
        <time>2014-10-28T13:39:21.000Z</time>
      </trkpt>
      <trkpt lat="47.52727" lon="6.77208">
        <ele>377.4</ele>
        <time>2014-10-28T13:39:23.000Z</time>
      </trkpt>
      <trkpt lat="47.5273" lon="6.77207">
        <ele>377.8</ele>
        <time>2014-10-28T13:39:24.000Z</time>
      </trkpt>
      <trkpt lat="47.52733" lon="6.77204">
        <ele>378.6</ele>
        <time>2014-10-28T13:39:27.000Z</time>
      </trkpt>
      <trkpt lat="47.52734" lon="6.77204">
        <ele>377.6</ele>
        <time>2014-10-28T13:39:28.000Z</time>
      </trkpt>
      <trkpt lat="47.52737" lon="6.772">
        <ele>380.7</ele>
        <time>2014-10-28T13:39:33.000Z</time>
      </trkpt>
      <trkpt lat="47.52738" lon="6.772">
        <ele>380.6</ele>
        <time>2014-10-28T13:39:34.000Z</time>
      </trkpt>
      <trkpt lat="47.52741" lon="6.77198">
        <ele>378.9</ele>
        <time>2014-10-28T13:39:39.000Z</time>
      </trkpt>
      <trkpt lat="47.52742" lon="6.77198">
        <ele>378.4</ele>
        <time>2014-10-28T13:39:40.000Z</time>
      </trkpt>
      <trkpt lat="47.52746" lon="6.77197">
        <ele>376.3</ele>
        <time>2014-10-28T13:39:43.000Z</time>
      </trkpt>
      <trkpt lat="47.52748" lon="6.77197">
        <ele>375.2</ele>
        <time>2014-10-28T13:39:44.000Z</time>
      </trkpt>
      <trkpt lat="47.52752" lon="6.77195">
        <ele>376.4</ele>
        <time>2014-10-28T13:39:47.000Z</time>
      </trkpt>
      <trkpt lat="47.52754" lon="6.77195">
        <ele>376.2</ele>
        <time>2014-10-28T13:39:48.000Z</time>
      </trkpt>
      <trkpt lat="47.52758" lon="6.77194">
        <ele>376</ele>
        <time>2014-10-28T13:39:51.000Z</time>
      </trkpt>
      <trkpt lat="47.52759" lon="6.77193">
        <ele>376.2</ele>
        <time>2014-10-28T13:39:52.000Z</time>
      </trkpt>
      <trkpt lat="47.52762" lon="6.77189">
        <ele>377.3</ele>
        <time>2014-10-28T13:39:57.000Z</time>
      </trkpt>
      <trkpt lat="47.52762" lon="6.77188">
        <ele>378</ele>
        <time>2014-10-28T13:39:58.000Z</time>
      </trkpt>
      <trkpt lat="47.52766" lon="6.77187">
        <ele>377</ele>
        <time>2014-10-28T13:40:02.000Z</time>
      </trkpt>
      <trkpt lat="47.52767" lon="6.77187">
        <ele>377</ele>
        <time>2014-10-28T13:40:03.000Z</time>
      </trkpt>
      <trkpt lat="47.52771" lon="6.77186">
        <ele>378</ele>
        <time>2014-10-28T13:40:06.000Z</time>
      </trkpt>
      <trkpt lat="47.52772" lon="6.77186">
        <ele>377.5</ele>
        <time>2014-10-28T13:40:07.000Z</time>
      </trkpt>
      <trkpt lat="47.52776" lon="6.77184">
        <ele>378.1</ele>
        <time>2014-10-28T13:40:11.000Z</time>
      </trkpt>
      <trkpt lat="47.52778" lon="6.77184">
        <ele>377.4</ele>
        <time>2014-10-28T13:40:12.000Z</time>
      </trkpt>
      <trkpt lat="47.5278" lon="6.77183">
        <ele>378.2</ele>
        <time>2014-10-28T13:40:14.000Z</time>
      </trkpt>
      <trkpt lat="47.52784" lon="6.77183">
        <ele>373.4</ele>
        <time>2014-10-28T13:40:17.000Z</time>
      </trkpt>
      <trkpt lat="47.52797" lon="6.77182">
        <ele>373.3</ele>
        <time>2014-10-28T13:40:30.000Z</time>
      </trkpt>
      <trkpt lat="47.528" lon="6.77178">
        <ele>373.4</ele>
        <time>2014-10-28T13:40:34.000Z</time>
      </trkpt>
      <trkpt lat="47.52801" lon="6.77177">
        <ele>373.8</ele>
        <time>2014-10-28T13:40:35.000Z</time>
      </trkpt>
      <trkpt lat="47.52805" lon="6.77175">
        <ele>375.2</ele>
        <time>2014-10-28T13:40:51.000Z</time>
      </trkpt>
      <trkpt lat="47.52806" lon="6.77176">
        <ele>375.7</ele>
        <time>2014-10-28T13:40:52.000Z</time>
      </trkpt>
      <trkpt lat="47.52809" lon="6.77174">
        <ele>374.7</ele>
        <time>2014-10-28T13:40:55.000Z</time>
      </trkpt>
      <trkpt lat="47.5281" lon="6.77173">
        <ele>373.8</ele>
        <time>2014-10-28T13:40:56.000Z</time>
      </trkpt>
      <trkpt lat="47.52813" lon="6.77171">
        <ele>375.4</ele>
        <time>2014-10-28T13:40:58.000Z</time>
      </trkpt>
      <trkpt lat="47.52815" lon="6.7717">
        <ele>375.1</ele>
        <time>2014-10-28T13:40:59.000Z</time>
      </trkpt>
      <trkpt lat="47.52818" lon="6.77169">
        <ele>375.4</ele>
        <time>2014-10-28T13:41:01.052Z</time>
      </trkpt>
      <trkpt lat="47.52819" lon="6.77169">
        <ele>377</ele>
        <time>2014-10-28T13:41:02.000Z</time>
      </trkpt>
      <trkpt lat="47.52823" lon="6.77169">
        <ele>377</ele>
        <time>2014-10-28T13:41:05.000Z</time>
      </trkpt>
      <trkpt lat="47.52825" lon="6.77168">
        <ele>377</ele>
        <time>2014-10-28T13:41:06.000Z</time>
      </trkpt>
      <trkpt lat="47.52828" lon="6.77166">
        <ele>373.5</ele>
        <time>2014-10-28T13:41:07.000Z</time>
      </trkpt>
      <trkpt lat="47.52831" lon="6.77163">
        <ele>372.1</ele>
        <time>2014-10-28T13:41:08.000Z</time>
      </trkpt>
      <trkpt lat="47.52834" lon="6.7716">
        <ele>372.1</ele>
        <time>2014-10-28T13:41:09.000Z</time>
      </trkpt>
      <trkpt lat="47.52837" lon="6.77156">
        <ele>372.8</ele>
        <time>2014-10-28T13:41:10.000Z</time>
      </trkpt>
      <trkpt lat="47.52839" lon="6.77152">
        <ele>372.9</ele>
        <time>2014-10-28T13:41:11.000Z</time>
      </trkpt>
      <trkpt lat="47.52841" lon="6.7715">
        <ele>373.4</ele>
        <time>2014-10-28T13:41:12.000Z</time>
      </trkpt>
      <trkpt lat="47.52843" lon="6.77147">
        <ele>374</ele>
        <time>2014-10-28T13:41:13.000Z</time>
      </trkpt>
      <trkpt lat="47.52846" lon="6.77145">
        <ele>374.9</ele>
        <time>2014-10-28T13:41:14.000Z</time>
      </trkpt>
      <trkpt lat="47.52852" lon="6.77142">
        <ele>366.6</ele>
        <time>2014-10-28T13:41:17.000Z</time>
      </trkpt>
      <trkpt lat="47.52855" lon="6.77146">
        <ele>367.7</ele>
        <time>2014-10-28T13:41:20.000Z</time>
      </trkpt>
      <trkpt lat="47.52855" lon="6.77147">
        <ele>368</ele>
        <time>2014-10-28T13:41:21.000Z</time>
      </trkpt>
      <trkpt lat="47.52858" lon="6.77143">
        <ele>367.6</ele>
        <time>2014-10-28T13:41:24.000Z</time>
      </trkpt>
      <trkpt lat="47.5286" lon="6.77141">
        <ele>367.7</ele>
        <time>2014-10-28T13:41:25.000Z</time>
      </trkpt>
      <trkpt lat="47.52862" lon="6.77137">
        <ele>367.7</ele>
        <time>2014-10-28T13:41:26.000Z</time>
      </trkpt>
      <trkpt lat="47.52865" lon="6.77133">
        <ele>367.6</ele>
        <time>2014-10-28T13:41:27.000Z</time>
      </trkpt>
      <trkpt lat="47.52868" lon="6.7713">
        <ele>367.6</ele>
        <time>2014-10-28T13:41:28.000Z</time>
      </trkpt>
      <trkpt lat="47.52871" lon="6.77126">
        <ele>367.8</ele>
        <time>2014-10-28T13:41:29.000Z</time>
      </trkpt>
      <trkpt lat="47.52873" lon="6.77121">
        <ele>368.1</ele>
        <time>2014-10-28T13:41:30.000Z</time>
      </trkpt>
      <trkpt lat="47.52876" lon="6.77117">
        <ele>368.4</ele>
        <time>2014-10-28T13:41:31.000Z</time>
      </trkpt>
      <trkpt lat="47.52879" lon="6.77113">
        <ele>370.2</ele>
        <time>2014-10-28T13:41:32.000Z</time>
      </trkpt>
      <trkpt lat="47.52881" lon="6.7711">
        <ele>373.2</ele>
        <time>2014-10-28T13:41:33.000Z</time>
      </trkpt>
      <trkpt lat="47.52882" lon="6.77106">
        <ele>374.4</ele>
        <time>2014-10-28T13:41:34.000Z</time>
      </trkpt>
      <trkpt lat="47.52883" lon="6.77103">
        <ele>374.8</ele>
        <time>2014-10-28T13:41:35.000Z</time>
      </trkpt>
      <trkpt lat="47.52883" lon="6.77099">
        <ele>375.3</ele>
        <time>2014-10-28T13:41:36.000Z</time>
      </trkpt>
      <trkpt lat="47.52884" lon="6.77096">
        <ele>376.6</ele>
        <time>2014-10-28T13:41:37.000Z</time>
      </trkpt>
      <trkpt lat="47.52884" lon="6.77092">
        <ele>376.9</ele>
        <time>2014-10-28T13:41:38.000Z</time>
      </trkpt>
      <trkpt lat="47.52884" lon="6.77089">
        <ele>376.8</ele>
        <time>2014-10-28T13:41:39.000Z</time>
      </trkpt>
      <trkpt lat="47.52884" lon="6.77083">
        <ele>378</ele>
        <time>2014-10-28T13:41:41.000Z</time>
      </trkpt>
      <trkpt lat="47.52884" lon="6.7708">
        <ele>378.7</ele>
        <time>2014-10-28T13:41:42.000Z</time>
      </trkpt>
      <trkpt lat="47.52883" lon="6.77075">
        <ele>379.2</ele>
        <time>2014-10-28T13:41:44.000Z</time>
      </trkpt>
      <trkpt lat="47.52882" lon="6.77072">
        <ele>379.6</ele>
        <time>2014-10-28T13:41:45.000Z</time>
      </trkpt>
      <trkpt lat="47.52882" lon="6.77066">
        <ele>377.8</ele>
        <time>2014-10-28T13:41:48.000Z</time>
      </trkpt>
      <trkpt lat="47.52883" lon="6.77065">
        <ele>377.8</ele>
        <time>2014-10-28T13:41:49.000Z</time>
      </trkpt>
      <trkpt lat="47.52886" lon="6.77062">
        <ele>378.3</ele>
        <time>2014-10-28T13:41:51.000Z</time>
      </trkpt>
      <trkpt lat="47.52887" lon="6.77062">
        <ele>381.7</ele>
        <time>2014-10-28T13:41:52.000Z</time>
      </trkpt>
      <trkpt lat="47.52891" lon="6.77061">
        <ele>383.2</ele>
        <time>2014-10-28T13:41:54.000Z</time>
      </trkpt>
      <trkpt lat="47.52893" lon="6.7706">
        <ele>383</ele>
        <time>2014-10-28T13:41:55.000Z</time>
      </trkpt>
      <trkpt lat="47.52897" lon="6.77058">
        <ele>379.7</ele>
        <time>2014-10-28T13:41:57.000Z</time>
      </trkpt>
      <trkpt lat="47.52898" lon="6.77058">
        <ele>380.6</ele>
        <time>2014-10-28T13:41:58.000Z</time>
      </trkpt>
      <trkpt lat="47.52902" lon="6.77057">
        <ele>380.1</ele>
        <time>2014-10-28T13:42:00.000Z</time>
      </trkpt>
      <trkpt lat="47.52903" lon="6.77057">
        <ele>379.9</ele>
        <time>2014-10-28T13:42:01.000Z</time>
      </trkpt>
      <trkpt lat="47.52907" lon="6.77056">
        <ele>379.5</ele>
        <time>2014-10-28T13:42:03.000Z</time>
      </trkpt>
      <trkpt lat="47.52909" lon="6.77055">
        <ele>379.5</ele>
        <time>2014-10-28T13:42:04.000Z</time>
      </trkpt>
      <trkpt lat="47.52913" lon="6.77053">
        <ele>379</ele>
        <time>2014-10-28T13:42:06.000Z</time>
      </trkpt>
      <trkpt lat="47.52915" lon="6.77051">
        <ele>378.8</ele>
        <time>2014-10-28T13:42:07.000Z</time>
      </trkpt>
      <trkpt lat="47.52918" lon="6.77049">
        <ele>378.8</ele>
        <time>2014-10-28T13:42:08.000Z</time>
      </trkpt>
      <trkpt lat="47.5292" lon="6.77047">
        <ele>379.3</ele>
        <time>2014-10-28T13:42:09.000Z</time>
      </trkpt>
      <trkpt lat="47.52922" lon="6.77045">
        <ele>378.8</ele>
        <time>2014-10-28T13:42:10.000Z</time>
      </trkpt>
      <trkpt lat="47.52925" lon="6.77043">
        <ele>377.7</ele>
        <time>2014-10-28T13:42:11.000Z</time>
      </trkpt>
      <trkpt lat="47.52927" lon="6.7704">
        <ele>376</ele>
        <time>2014-10-28T13:42:12.000Z</time>
      </trkpt>
      <trkpt lat="47.52929" lon="6.77038">
        <ele>375.6</ele>
        <time>2014-10-28T13:42:13.000Z</time>
      </trkpt>
      <trkpt lat="47.52933" lon="6.77033">
        <ele>370.5</ele>
        <time>2014-10-28T13:42:16.000Z</time>
      </trkpt>
      <trkpt lat="47.52935" lon="6.77031">
        <ele>370.5</ele>
        <time>2014-10-28T13:42:18.000Z</time>
      </trkpt>
      <trkpt lat="47.52936" lon="6.77029">
        <ele>371.3</ele>
        <time>2014-10-28T13:42:19.000Z</time>
      </trkpt>
      <trkpt lat="47.52938" lon="6.77023">
        <ele>374.7</ele>
        <time>2014-10-28T13:42:21.000Z</time>
      </trkpt>
      <trkpt lat="47.52938" lon="6.7702">
        <ele>375.7</ele>
        <time>2014-10-28T13:42:22.000Z</time>
      </trkpt>
      <trkpt lat="47.52938" lon="6.77014">
        <ele>376.4</ele>
        <time>2014-10-28T13:42:24.000Z</time>
      </trkpt>
      <trkpt lat="47.52937" lon="6.77012">
        <ele>375.5</ele>
        <time>2014-10-28T13:42:25.000Z</time>
      </trkpt>
      <trkpt lat="47.52935" lon="6.77007">
        <ele>373.9</ele>
        <time>2014-10-28T13:42:28.000Z</time>
      </trkpt>
      <trkpt lat="47.52933" lon="6.77005">
        <ele>373.4</ele>
        <time>2014-10-28T13:42:29.000Z</time>
      </trkpt>
      <trkpt lat="47.5293" lon="6.77003">
        <ele>375.2</ele>
        <time>2014-10-28T13:42:31.000Z</time>
      </trkpt>
      <trkpt lat="47.52929" lon="6.77003">
        <ele>376.2</ele>
        <time>2014-10-28T13:42:32.000Z</time>
      </trkpt>
      <trkpt lat="47.52925" lon="6.77003">
        <ele>378.7</ele>
        <time>2014-10-28T13:42:35.000Z</time>
      </trkpt>
      <trkpt lat="47.52924" lon="6.77003">
        <ele>379.2</ele>
        <time>2014-10-28T13:42:36.000Z</time>
      </trkpt>
      <trkpt lat="47.52923" lon="6.76997">
        <ele>376.6</ele>
        <time>2014-10-28T13:42:40.000Z</time>
      </trkpt>
      <trkpt lat="47.52923" lon="6.76994">
        <ele>376.2</ele>
        <time>2014-10-28T13:42:41.000Z</time>
      </trkpt>
      <trkpt lat="47.52924" lon="6.76992">
        <ele>375.9</ele>
        <time>2014-10-28T13:42:42.000Z</time>
      </trkpt>
      <trkpt lat="47.52926" lon="6.76988">
        <ele>376.3</ele>
        <time>2014-10-28T13:42:43.000Z</time>
      </trkpt>
      <trkpt lat="47.52927" lon="6.76985">
        <ele>376.3</ele>
        <time>2014-10-28T13:42:44.000Z</time>
      </trkpt>
      <trkpt lat="47.52928" lon="6.76981">
        <ele>376</ele>
        <time>2014-10-28T13:42:45.000Z</time>
      </trkpt>
      <trkpt lat="47.5293" lon="6.76978">
        <ele>375.7</ele>
        <time>2014-10-28T13:42:46.000Z</time>
      </trkpt>
      <trkpt lat="47.52931" lon="6.76975">
        <ele>375.9</ele>
        <time>2014-10-28T13:42:47.000Z</time>
      </trkpt>
      <trkpt lat="47.52932" lon="6.76972">
        <ele>376.2</ele>
        <time>2014-10-28T13:42:48.000Z</time>
      </trkpt>
      <trkpt lat="47.52934" lon="6.76969">
        <ele>376.3</ele>
        <time>2014-10-28T13:42:49.000Z</time>
      </trkpt>
      <trkpt lat="47.52935" lon="6.76966">
        <ele>375.9</ele>
        <time>2014-10-28T13:42:50.000Z</time>
      </trkpt>
      <trkpt lat="47.52936" lon="6.76963">
        <ele>375.7</ele>
        <time>2014-10-28T13:42:51.000Z</time>
      </trkpt>
      <trkpt lat="47.52937" lon="6.76958">
        <ele>375.2</ele>
        <time>2014-10-28T13:42:53.000Z</time>
      </trkpt>
      <trkpt lat="47.52938" lon="6.76955">
        <ele>375.2</ele>
        <time>2014-10-28T13:42:54.000Z</time>
      </trkpt>
      <trkpt lat="47.52939" lon="6.7695">
        <ele>376.6</ele>
        <time>2014-10-28T13:42:57.000Z</time>
      </trkpt>
      <trkpt lat="47.5294" lon="6.76948">
        <ele>376</ele>
        <time>2014-10-28T13:42:58.000Z</time>
      </trkpt>
      <trkpt lat="47.52941" lon="6.76944">
        <ele>377.1</ele>
        <time>2014-10-28T13:43:00.000Z</time>
      </trkpt>
      <trkpt lat="47.52941" lon="6.76941">
        <ele>378.3</ele>
        <time>2014-10-28T13:43:01.000Z</time>
      </trkpt>
      <trkpt lat="47.52941" lon="6.76938">
        <ele>378.2</ele>
        <time>2014-10-28T13:43:02.000Z</time>
      </trkpt>
      <trkpt lat="47.52941" lon="6.76934">
        <ele>378</ele>
        <time>2014-10-28T13:43:03.000Z</time>
      </trkpt>
      <trkpt lat="47.5294" lon="6.7693">
        <ele>377.5</ele>
        <time>2014-10-28T13:43:04.000Z</time>
      </trkpt>
      <trkpt lat="47.5294" lon="6.76927">
        <ele>376.8</ele>
        <time>2014-10-28T13:43:05.000Z</time>
      </trkpt>
      <trkpt lat="47.5294" lon="6.7692">
        <ele>377.4</ele>
        <time>2014-10-28T13:43:07.000Z</time>
      </trkpt>
      <trkpt lat="47.5294" lon="6.76917">
        <ele>377.5</ele>
        <time>2014-10-28T13:43:08.000Z</time>
      </trkpt>
      <trkpt lat="47.52941" lon="6.76912">
        <ele>378.6</ele>
        <time>2014-10-28T13:43:10.000Z</time>
      </trkpt>
      <trkpt lat="47.52943" lon="6.7691">
        <ele>379.6</ele>
        <time>2014-10-28T13:43:11.000Z</time>
      </trkpt>
      <trkpt lat="47.52946" lon="6.76909">
        <ele>379.7</ele>
        <time>2014-10-28T13:43:12.000Z</time>
      </trkpt>
      <trkpt lat="47.52949" lon="6.76909">
        <ele>380.1</ele>
        <time>2014-10-28T13:43:13.000Z</time>
      </trkpt>
      <trkpt lat="47.52951" lon="6.7691">
        <ele>376.7</ele>
        <time>2014-10-28T13:43:14.000Z</time>
      </trkpt>
      <trkpt lat="47.5296" lon="6.76924">
        <ele>376.6</ele>
        <time>2014-10-28T13:43:22.000Z</time>
      </trkpt>
      <trkpt lat="47.52963" lon="6.76928">
        <ele>379.4</ele>
        <time>2014-10-28T13:43:25.000Z</time>
      </trkpt>
      <trkpt lat="47.52964" lon="6.76931">
        <ele>379.6</ele>
        <time>2014-10-28T13:43:26.000Z</time>
      </trkpt>
      <trkpt lat="47.52964" lon="6.76936">
        <ele>379.4</ele>
        <time>2014-10-28T13:43:28.000Z</time>
      </trkpt>
      <trkpt lat="47.52964" lon="6.76939">
        <ele>379.3</ele>
        <time>2014-10-28T13:43:29.000Z</time>
      </trkpt>
      <trkpt lat="47.52965" lon="6.76945">
        <ele>378.2</ele>
        <time>2014-10-28T13:43:31.000Z</time>
      </trkpt>
      <trkpt lat="47.52966" lon="6.76948">
        <ele>378.3</ele>
        <time>2014-10-28T13:43:32.000Z</time>
      </trkpt>
      <trkpt lat="47.52968" lon="6.7695">
        <ele>378.1</ele>
        <time>2014-10-28T13:43:33.000Z</time>
      </trkpt>
      <trkpt lat="47.52971" lon="6.76952">
        <ele>376.4</ele>
        <time>2014-10-28T13:43:34.000Z</time>
      </trkpt>
      <trkpt lat="47.52973" lon="6.76953">
        <ele>376.8</ele>
        <time>2014-10-28T13:43:35.000Z</time>
      </trkpt>
      <trkpt lat="47.52976" lon="6.76953">
        <ele>375.6</ele>
        <time>2014-10-28T13:43:36.000Z</time>
      </trkpt>
      <trkpt lat="47.52979" lon="6.76953">
        <ele>374.8</ele>
        <time>2014-10-28T13:43:37.000Z</time>
      </trkpt>
      <trkpt lat="47.52982" lon="6.76952">
        <ele>374.8</ele>
        <time>2014-10-28T13:43:38.000Z</time>
      </trkpt>
      <trkpt lat="47.52985" lon="6.76951">
        <ele>375.2</ele>
        <time>2014-10-28T13:43:39.000Z</time>
      </trkpt>
      <trkpt lat="47.52987" lon="6.76949">
        <ele>376.4</ele>
        <time>2014-10-28T13:43:40.000Z</time>
      </trkpt>
      <trkpt lat="47.52989" lon="6.76947">
        <ele>375.9</ele>
        <time>2014-10-28T13:43:41.000Z</time>
      </trkpt>
      <trkpt lat="47.5299" lon="6.76945">
        <ele>376</ele>
        <time>2014-10-28T13:43:42.000Z</time>
      </trkpt>
      <trkpt lat="47.52993" lon="6.7694">
        <ele>375.7</ele>
        <time>2014-10-28T13:43:44.000Z</time>
      </trkpt>
      <trkpt lat="47.52995" lon="6.76937">
        <ele>375.1</ele>
        <time>2014-10-28T13:43:45.000Z</time>
      </trkpt>
      <trkpt lat="47.52997" lon="6.76932">
        <ele>375.1</ele>
        <time>2014-10-28T13:43:47.000Z</time>
      </trkpt>
      <trkpt lat="47.52998" lon="6.76929">
        <ele>375.4</ele>
        <time>2014-10-28T13:43:48.000Z</time>
      </trkpt>
      <trkpt lat="47.53" lon="6.76924">
        <ele>376.4</ele>
        <time>2014-10-28T13:43:50.000Z</time>
      </trkpt>
      <trkpt lat="47.53001" lon="6.76923">
        <ele>375.9</ele>
        <time>2014-10-28T13:43:51.000Z</time>
      </trkpt>
      <trkpt lat="47.53005" lon="6.76919">
        <ele>377.8</ele>
        <time>2014-10-28T13:43:53.000Z</time>
      </trkpt>
      <trkpt lat="47.53006" lon="6.76919">
        <ele>378.2</ele>
        <time>2014-10-28T13:43:54.000Z</time>
      </trkpt>
      <trkpt lat="47.53011" lon="6.7692">
        <ele>377.2</ele>
        <time>2014-10-28T13:43:57.000Z</time>
      </trkpt>
      <trkpt lat="47.53012" lon="6.76923">
        <ele>376.4</ele>
        <time>2014-10-28T13:43:58.000Z</time>
      </trkpt>
      <trkpt lat="47.53012" lon="6.76927">
        <ele>374.7</ele>
        <time>2014-10-28T13:43:59.000Z</time>
      </trkpt>
      <trkpt lat="47.53012" lon="6.76931">
        <ele>374.6</ele>
        <time>2014-10-28T13:44:00.000Z</time>
      </trkpt>
      <trkpt lat="47.53012" lon="6.76935">
        <ele>374.6</ele>
        <time>2014-10-28T13:44:01.000Z</time>
      </trkpt>
      <trkpt lat="47.53011" lon="6.76938">
        <ele>375</ele>
        <time>2014-10-28T13:44:02.000Z</time>
      </trkpt>
      <trkpt lat="47.5301" lon="6.76942">
        <ele>375.1</ele>
        <time>2014-10-28T13:44:03.000Z</time>
      </trkpt>
      <trkpt lat="47.53009" lon="6.76945">
        <ele>375.2</ele>
        <time>2014-10-28T13:44:04.000Z</time>
      </trkpt>
      <trkpt lat="47.53008" lon="6.76947">
        <ele>375.9</ele>
        <time>2014-10-28T13:44:05.000Z</time>
      </trkpt>
      <trkpt lat="47.53007" lon="6.7695">
        <ele>375.7</ele>
        <time>2014-10-28T13:44:06.000Z</time>
      </trkpt>
      <trkpt lat="47.53005" lon="6.76956">
        <ele>376.9</ele>
        <time>2014-10-28T13:44:08.000Z</time>
      </trkpt>
      <trkpt lat="47.53004" lon="6.76958">
        <ele>376.9</ele>
        <time>2014-10-28T13:44:09.000Z</time>
      </trkpt>
      <trkpt lat="47.53003" lon="6.76962">
        <ele>377.7</ele>
        <time>2014-10-28T13:44:11.000Z</time>
      </trkpt>
      <trkpt lat="47.53003" lon="6.76964">
        <ele>378.5</ele>
        <time>2014-10-28T13:44:12.000Z</time>
      </trkpt>
      <trkpt lat="47.53002" lon="6.76966">
        <ele>378.7</ele>
        <time>2014-10-28T13:44:13.000Z</time>
      </trkpt>
      <trkpt lat="47.53001" lon="6.76973">
        <ele>379</ele>
        <time>2014-10-28T13:44:16.000Z</time>
      </trkpt>
      <trkpt lat="47.52999" lon="6.76977">
        <ele>378.4</ele>
        <time>2014-10-28T13:44:18.000Z</time>
      </trkpt>
      <trkpt lat="47.52997" lon="6.7698">
        <ele>378.9</ele>
        <time>2014-10-28T13:44:19.000Z</time>
      </trkpt>
      <trkpt lat="47.52994" lon="6.76983">
        <ele>377.6</ele>
        <time>2014-10-28T13:44:21.000Z</time>
      </trkpt>
      <trkpt lat="47.52993" lon="6.76985">
        <ele>377.8</ele>
        <time>2014-10-28T13:44:22.000Z</time>
      </trkpt>
      <trkpt lat="47.52989" lon="6.76989">
        <ele>377.8</ele>
        <time>2014-10-28T13:44:25.000Z</time>
      </trkpt>
      <trkpt lat="47.52988" lon="6.7699">
        <ele>378.7</ele>
        <time>2014-10-28T13:44:26.000Z</time>
      </trkpt>
      <trkpt lat="47.52986" lon="6.76993">
        <ele>379.7</ele>
        <time>2014-10-28T13:44:29.000Z</time>
      </trkpt>
      <trkpt lat="47.52985" lon="6.76995">
        <ele>379.9</ele>
        <time>2014-10-28T13:44:30.000Z</time>
      </trkpt>
      <trkpt lat="47.52987" lon="6.77001">
        <ele>379.8</ele>
        <time>2014-10-28T13:44:32.000Z</time>
      </trkpt>
      <trkpt lat="47.52988" lon="6.77003">
        <ele>379.4</ele>
        <time>2014-10-28T13:44:33.000Z</time>
      </trkpt>
      <trkpt lat="47.52991" lon="6.77006">
        <ele>380.4</ele>
        <time>2014-10-28T13:44:35.000Z</time>
      </trkpt>
      <trkpt lat="47.52994" lon="6.77006">
        <ele>380.1</ele>
        <time>2014-10-28T13:44:36.000Z</time>
      </trkpt>
      <trkpt lat="47.52996" lon="6.77005">
        <ele>379.5</ele>
        <time>2014-10-28T13:44:37.000Z</time>
      </trkpt>
      <trkpt lat="47.52998" lon="6.77004">
        <ele>379.7</ele>
        <time>2014-10-28T13:44:38.000Z</time>
      </trkpt>
      <trkpt lat="47.53002" lon="6.77004">
        <ele>377.9</ele>
        <time>2014-10-28T13:44:40.000Z</time>
      </trkpt>
      <trkpt lat="47.53004" lon="6.77004">
        <ele>377.5</ele>
        <time>2014-10-28T13:44:41.000Z</time>
      </trkpt>
      <trkpt lat="47.53008" lon="6.77004">
        <ele>377.6</ele>
        <time>2014-10-28T13:44:43.000Z</time>
      </trkpt>
      <trkpt lat="47.53009" lon="6.77004">
        <ele>377.8</ele>
        <time>2014-10-28T13:44:44.000Z</time>
      </trkpt>
      <trkpt lat="47.53013" lon="6.77004">
        <ele>377.6</ele>
        <time>2014-10-28T13:44:47.000Z</time>
      </trkpt>
      <trkpt lat="47.53015" lon="6.77003">
        <ele>377.8</ele>
        <time>2014-10-28T13:44:48.000Z</time>
      </trkpt>
      <trkpt lat="47.53019" lon="6.77">
        <ele>380.8</ele>
        <time>2014-10-28T13:44:51.000Z</time>
      </trkpt>
      <trkpt lat="47.5302" lon="6.76999">
        <ele>381.6</ele>
        <time>2014-10-28T13:44:52.000Z</time>
      </trkpt>
      <trkpt lat="47.53023" lon="6.76995">
        <ele>380.9</ele>
        <time>2014-10-28T13:44:54.000Z</time>
      </trkpt>
      <trkpt lat="47.53024" lon="6.76993">
        <ele>380.9</ele>
        <time>2014-10-28T13:44:55.000Z</time>
      </trkpt>
      <trkpt lat="47.53025" lon="6.76988">
        <ele>380</ele>
        <time>2014-10-28T13:44:57.000Z</time>
      </trkpt>
      <trkpt lat="47.53026" lon="6.76985">
        <ele>380.6</ele>
        <time>2014-10-28T13:44:58.000Z</time>
      </trkpt>
      <trkpt lat="47.53025" lon="6.7698">
        <ele>378.6</ele>
        <time>2014-10-28T13:45:00.000Z</time>
      </trkpt>
      <trkpt lat="47.53025" lon="6.76977">
        <ele>375.2</ele>
        <time>2014-10-28T13:45:01.000Z</time>
      </trkpt>
      <trkpt lat="47.53024" lon="6.76974">
        <ele>373.3</ele>
        <time>2014-10-28T13:45:02.000Z</time>
      </trkpt>
      <trkpt lat="47.53024" lon="6.7697">
        <ele>372.3</ele>
        <time>2014-10-28T13:45:03.000Z</time>
      </trkpt>
      <trkpt lat="47.53024" lon="6.76964">
        <ele>371.1</ele>
        <time>2014-10-28T13:45:05.000Z</time>
      </trkpt>
      <trkpt lat="47.53024" lon="6.76962">
        <ele>371.4</ele>
        <time>2014-10-28T13:45:06.000Z</time>
      </trkpt>
      <trkpt lat="47.53026" lon="6.76957">
        <ele>369.7</ele>
        <time>2014-10-28T13:45:08.000Z</time>
      </trkpt>
      <trkpt lat="47.53027" lon="6.76955">
        <ele>370.4</ele>
        <time>2014-10-28T13:45:09.000Z</time>
      </trkpt>
      <trkpt lat="47.53029" lon="6.76949">
        <ele>370.7</ele>
        <time>2014-10-28T13:45:11.000Z</time>
      </trkpt>
      <trkpt lat="47.5303" lon="6.76946">
        <ele>371.2</ele>
        <time>2014-10-28T13:45:12.000Z</time>
      </trkpt>
      <trkpt lat="47.53031" lon="6.7694">
        <ele>371.5</ele>
        <time>2014-10-28T13:45:14.000Z</time>
      </trkpt>
      <trkpt lat="47.53032" lon="6.76933">
        <ele>370.6</ele>
        <time>2014-10-28T13:45:17.000Z</time>
      </trkpt>
      <trkpt lat="47.53033" lon="6.76926">
        <ele>369.9</ele>
        <time>2014-10-28T13:45:20.000Z</time>
      </trkpt>
      <trkpt lat="47.53033" lon="6.76924">
        <ele>370.1</ele>
        <time>2014-10-28T13:45:21.000Z</time>
      </trkpt>
      <trkpt lat="47.53035" lon="6.76919">
        <ele>372.2</ele>
        <time>2014-10-28T13:45:23.000Z</time>
      </trkpt>
      <trkpt lat="47.53036" lon="6.76917">
        <ele>372.6</ele>
        <time>2014-10-28T13:45:24.000Z</time>
      </trkpt>
      <trkpt lat="47.53038" lon="6.76912">
        <ele>374.7</ele>
        <time>2014-10-28T13:45:26.000Z</time>
      </trkpt>
      <trkpt lat="47.53039" lon="6.7691">
        <ele>374.9</ele>
        <time>2014-10-28T13:45:27.000Z</time>
      </trkpt>
      <trkpt lat="47.53041" lon="6.76904">
        <ele>376.1</ele>
        <time>2014-10-28T13:45:29.000Z</time>
      </trkpt>
      <trkpt lat="47.53041" lon="6.76901">
        <ele>377.6</ele>
        <time>2014-10-28T13:45:30.000Z</time>
      </trkpt>
      <trkpt lat="47.53042" lon="6.76897">
        <ele>378.8</ele>
        <time>2014-10-28T13:45:32.000Z</time>
      </trkpt>
      <trkpt lat="47.53044" lon="6.76894">
        <ele>381.1</ele>
        <time>2014-10-28T13:45:33.000Z</time>
      </trkpt>
      <trkpt lat="47.53045" lon="6.76891">
        <ele>381.9</ele>
        <time>2014-10-28T13:45:34.000Z</time>
      </trkpt>
      <trkpt lat="47.53047" lon="6.76889">
        <ele>381.7</ele>
        <time>2014-10-28T13:45:35.000Z</time>
      </trkpt>
      <trkpt lat="47.5305" lon="6.76887">
        <ele>381.5</ele>
        <time>2014-10-28T13:45:36.000Z</time>
      </trkpt>
      <trkpt lat="47.53052" lon="6.76886">
        <ele>381.2</ele>
        <time>2014-10-28T13:45:37.000Z</time>
      </trkpt>
      <trkpt lat="47.53056" lon="6.76883">
        <ele>383.3</ele>
        <time>2014-10-28T13:45:40.000Z</time>
      </trkpt>
      <trkpt lat="47.53057" lon="6.76882">
        <ele>382.5</ele>
        <time>2014-10-28T13:45:41.000Z</time>
      </trkpt>
      <trkpt lat="47.53056" lon="6.76876">
        <ele>383.1</ele>
        <time>2014-10-28T13:45:43.000Z</time>
      </trkpt>
      <trkpt lat="47.53055" lon="6.76873">
        <ele>383.8</ele>
        <time>2014-10-28T13:45:44.000Z</time>
      </trkpt>
      <trkpt lat="47.53054" lon="6.76867">
        <ele>384.6</ele>
        <time>2014-10-28T13:45:46.000Z</time>
      </trkpt>
      <trkpt lat="47.53056" lon="6.76865">
        <ele>385.3</ele>
        <time>2014-10-28T13:45:47.000Z</time>
      </trkpt>
      <trkpt lat="47.53058" lon="6.76863">
        <ele>384.3</ele>
        <time>2014-10-28T13:45:48.000Z</time>
      </trkpt>
      <trkpt lat="47.5306" lon="6.76863">
        <ele>384.5</ele>
        <time>2014-10-28T13:45:49.000Z</time>
      </trkpt>
      <trkpt lat="47.53064" lon="6.76862">
        <ele>385.1</ele>
        <time>2014-10-28T13:45:52.000Z</time>
      </trkpt>
      <trkpt lat="47.53066" lon="6.76862">
        <ele>384.4</ele>
        <time>2014-10-28T13:45:53.000Z</time>
      </trkpt>
      <trkpt lat="47.5307" lon="6.76861">
        <ele>384.3</ele>
        <time>2014-10-28T13:45:56.000Z</time>
      </trkpt>
      <trkpt lat="47.53071" lon="6.76861">
        <ele>384.3</ele>
        <time>2014-10-28T13:45:57.000Z</time>
      </trkpt>
      <trkpt lat="47.53074" lon="6.76859">
        <ele>383.9</ele>
        <time>2014-10-28T13:46:00.000Z</time>
      </trkpt>
      <trkpt lat="47.53076" lon="6.76858">
        <ele>382.4</ele>
        <time>2014-10-28T13:46:01.000Z</time>
      </trkpt>
      <trkpt lat="47.53078" lon="6.76857">
        <ele>381.6</ele>
        <time>2014-10-28T13:46:02.000Z</time>
      </trkpt>
      <trkpt lat="47.53081" lon="6.76855">
        <ele>382</ele>
        <time>2014-10-28T13:46:03.000Z</time>
      </trkpt>
      <trkpt lat="47.53084" lon="6.76854">
        <ele>382.2</ele>
        <time>2014-10-28T13:46:04.000Z</time>
      </trkpt>
      <trkpt lat="47.53087" lon="6.76852">
        <ele>381.8</ele>
        <time>2014-10-28T13:46:05.000Z</time>
      </trkpt>
      <trkpt lat="47.53089" lon="6.7685">
        <ele>382</ele>
        <time>2014-10-28T13:46:06.000Z</time>
      </trkpt>
      <trkpt lat="47.53091" lon="6.76849">
        <ele>381.8</ele>
        <time>2014-10-28T13:46:07.000Z</time>
      </trkpt>
      <trkpt lat="47.53094" lon="6.76847">
        <ele>381.6</ele>
        <time>2014-10-28T13:46:08.000Z</time>
      </trkpt>
      <trkpt lat="47.53096" lon="6.76846">
        <ele>381.5</ele>
        <time>2014-10-28T13:46:09.000Z</time>
      </trkpt>
      <trkpt lat="47.53098" lon="6.76845">
        <ele>381.1</ele>
        <time>2014-10-28T13:46:10.000Z</time>
      </trkpt>
      <trkpt lat="47.531" lon="6.76844">
        <ele>381.6</ele>
        <time>2014-10-28T13:46:11.000Z</time>
      </trkpt>
      <trkpt lat="47.53103" lon="6.76843">
        <ele>381.3</ele>
        <time>2014-10-28T13:46:12.000Z</time>
      </trkpt>
      <trkpt lat="47.53106" lon="6.76843">
        <ele>380.7</ele>
        <time>2014-10-28T13:46:13.000Z</time>
      </trkpt>
      <trkpt lat="47.53125" lon="6.76859">
        <ele>380.7</ele>
        <time>2014-10-28T13:46:20.766Z</time>
      </trkpt>
      <trkpt lat="47.53127" lon="6.76863">
        <ele>381</ele>
        <time>2014-10-28T13:46:22.000Z</time>
      </trkpt>
      <trkpt lat="47.53127" lon="6.76867">
        <ele>383.2</ele>
        <time>2014-10-28T13:46:23.000Z</time>
      </trkpt>
      <trkpt lat="47.53126" lon="6.76871">
        <ele>384.1</ele>
        <time>2014-10-28T13:46:24.000Z</time>
      </trkpt>
      <trkpt lat="47.53126" lon="6.76875">
        <ele>383.1</ele>
        <time>2014-10-28T13:46:25.000Z</time>
      </trkpt>
      <trkpt lat="47.53126" lon="6.76881">
        <ele>383.1</ele>
        <time>2014-10-28T13:46:27.000Z</time>
      </trkpt>
      <trkpt lat="47.53127" lon="6.76884">
        <ele>383.4</ele>
        <time>2014-10-28T13:46:28.000Z</time>
      </trkpt>
      <trkpt lat="47.53129" lon="6.76889">
        <ele>383</ele>
        <time>2014-10-28T13:46:30.000Z</time>
      </trkpt>
      <trkpt lat="47.53129" lon="6.76892">
        <ele>383.8</ele>
        <time>2014-10-28T13:46:31.000Z</time>
      </trkpt>
      <trkpt lat="47.5313" lon="6.76896">
        <ele>384.4</ele>
        <time>2014-10-28T13:46:32.000Z</time>
      </trkpt>
      <trkpt lat="47.53131" lon="6.76899">
        <ele>384.9</ele>
        <time>2014-10-28T13:46:33.000Z</time>
      </trkpt>
      <trkpt lat="47.53132" lon="6.76904">
        <ele>386.8</ele>
        <time>2014-10-28T13:46:35.000Z</time>
      </trkpt>
      <trkpt lat="47.53132" lon="6.76907">
        <ele>387.6</ele>
        <time>2014-10-28T13:46:36.000Z</time>
      </trkpt>
      <trkpt lat="47.53133" lon="6.76913">
        <ele>389.5</ele>
        <time>2014-10-28T13:46:39.000Z</time>
      </trkpt>
      <trkpt lat="47.53134" lon="6.76914">
        <ele>390</ele>
        <time>2014-10-28T13:46:40.000Z</time>
      </trkpt>
      <trkpt lat="47.53135" lon="6.76918">
        <ele>391.7</ele>
        <time>2014-10-28T13:46:42.000Z</time>
      </trkpt>
      <trkpt lat="47.53135" lon="6.76921">
        <ele>391.6</ele>
        <time>2014-10-28T13:46:43.000Z</time>
      </trkpt>
      <trkpt lat="47.53137" lon="6.76927">
        <ele>389.9</ele>
        <time>2014-10-28T13:46:46.000Z</time>
      </trkpt>
      <trkpt lat="47.53137" lon="6.76928">
        <ele>389.1</ele>
        <time>2014-10-28T13:46:47.000Z</time>
      </trkpt>
      <trkpt lat="47.53141" lon="6.76928">
        <ele>388.5</ele>
        <time>2014-10-28T13:46:51.000Z</time>
      </trkpt>
      <trkpt lat="47.53142" lon="6.76927">
        <ele>387.8</ele>
        <time>2014-10-28T13:46:52.000Z</time>
      </trkpt>
      <trkpt lat="47.53146" lon="6.76925">
        <ele>387.6</ele>
        <time>2014-10-28T13:46:55.000Z</time>
      </trkpt>
      <trkpt lat="47.53147" lon="6.76924">
        <ele>387.8</ele>
        <time>2014-10-28T13:46:56.000Z</time>
      </trkpt>
      <trkpt lat="47.53151" lon="6.76921">
        <ele>387</ele>
        <time>2014-10-28T13:46:59.000Z</time>
      </trkpt>
      <trkpt lat="47.53151" lon="6.7692">
        <ele>386.8</ele>
        <time>2014-10-28T13:47:00.000Z</time>
      </trkpt>
      <trkpt lat="47.53151" lon="6.76915">
        <ele>390.1</ele>
        <time>2014-10-28T13:47:04.000Z</time>
      </trkpt>
      <trkpt lat="47.53151" lon="6.76913">
        <ele>389.6</ele>
        <time>2014-10-28T13:47:05.000Z</time>
      </trkpt>
      <trkpt lat="47.53152" lon="6.76908">
        <ele>389.4</ele>
        <time>2014-10-28T13:47:07.000Z</time>
      </trkpt>
      <trkpt lat="47.53153" lon="6.76906">
        <ele>389.9</ele>
        <time>2014-10-28T13:47:08.000Z</time>
      </trkpt>
      <trkpt lat="47.53155" lon="6.76902">
        <ele>389.9</ele>
        <time>2014-10-28T13:47:10.000Z</time>
      </trkpt>
      <trkpt lat="47.53156" lon="6.769">
        <ele>389.9</ele>
        <time>2014-10-28T13:47:11.000Z</time>
      </trkpt>
      <trkpt lat="47.53158" lon="6.76895">
        <ele>396</ele>
        <time>2014-10-28T13:47:13.000Z</time>
      </trkpt>
      <trkpt lat="47.53159" lon="6.76893">
        <ele>396.7</ele>
        <time>2014-10-28T13:47:14.000Z</time>
      </trkpt>
      <trkpt lat="47.53157" lon="6.76879">
        <ele>397</ele>
        <time>2014-10-28T13:47:22.000Z</time>
      </trkpt>
      <trkpt lat="47.53171" lon="6.76834">
        <ele>395.9</ele>
        <time>2014-10-28T13:47:49.000Z</time>
      </trkpt>
      <trkpt lat="47.53175" lon="6.76835">
        <ele>394.9</ele>
        <time>2014-10-28T13:47:50.000Z</time>
      </trkpt>
      <trkpt lat="47.53177" lon="6.76835">
        <ele>393.2</ele>
        <time>2014-10-28T13:47:51.000Z</time>
      </trkpt>
      <trkpt lat="47.5318" lon="6.76836">
        <ele>392.6</ele>
        <time>2014-10-28T13:47:52.000Z</time>
      </trkpt>
      <trkpt lat="47.53183" lon="6.76837">
        <ele>394.2</ele>
        <time>2014-10-28T13:47:53.000Z</time>
      </trkpt>
      <trkpt lat="47.53186" lon="6.76838">
        <ele>394</ele>
        <time>2014-10-28T13:47:54.000Z</time>
      </trkpt>
      <trkpt lat="47.53189" lon="6.76839">
        <ele>394.4</ele>
        <time>2014-10-28T13:47:55.000Z</time>
      </trkpt>
      <trkpt lat="47.53191" lon="6.7684">
        <ele>392</ele>
        <time>2014-10-28T13:47:56.000Z</time>
      </trkpt>
      <trkpt lat="47.53194" lon="6.7684">
        <ele>392.3</ele>
        <time>2014-10-28T13:47:57.000Z</time>
      </trkpt>
      <trkpt lat="47.53197" lon="6.76844">
        <ele>390.2</ele>
        <time>2014-10-28T13:48:00.000Z</time>
      </trkpt>
      <trkpt lat="47.53198" lon="6.76845">
        <ele>388.1</ele>
        <time>2014-10-28T13:48:01.000Z</time>
      </trkpt>
      <trkpt lat="47.53201" lon="6.76844">
        <ele>386.1</ele>
        <time>2014-10-28T13:48:07.000Z</time>
      </trkpt>
      <trkpt lat="47.53202" lon="6.76841">
        <ele>386.5</ele>
        <time>2014-10-28T13:48:08.000Z</time>
      </trkpt>
      <trkpt lat="47.53203" lon="6.76836">
        <ele>386</ele>
        <time>2014-10-28T13:48:11.000Z</time>
      </trkpt>
      <trkpt lat="47.53204" lon="6.76834">
        <ele>386.1</ele>
        <time>2014-10-28T13:48:12.000Z</time>
      </trkpt>
      <trkpt lat="47.53205" lon="6.76832">
        <ele>386</ele>
        <time>2014-10-28T13:48:13.000Z</time>
      </trkpt>
      <trkpt lat="47.53207" lon="6.76815">
        <ele>383.3</ele>
        <time>2014-10-28T13:48:22.000Z</time>
      </trkpt>
      <trkpt lat="47.53202" lon="6.76815">
        <ele>382.7</ele>
        <time>2014-10-28T13:48:26.000Z</time>
      </trkpt>
      <trkpt lat="47.53201" lon="6.76814">
        <ele>382.4</ele>
        <time>2014-10-28T13:48:27.000Z</time>
      </trkpt>
      <trkpt lat="47.53197" lon="6.76813">
        <ele>382.3</ele>
        <time>2014-10-28T13:48:29.000Z</time>
      </trkpt>
      <trkpt lat="47.53195" lon="6.76812">
        <ele>382.8</ele>
        <time>2014-10-28T13:48:30.000Z</time>
      </trkpt>
      <trkpt lat="47.53191" lon="6.7681">
        <ele>382.5</ele>
        <time>2014-10-28T13:48:33.000Z</time>
      </trkpt>
      <trkpt lat="47.5319" lon="6.76809">
        <ele>382.1</ele>
        <time>2014-10-28T13:48:34.000Z</time>
      </trkpt>
      <trkpt lat="47.53187" lon="6.76807">
        <ele>381.9</ele>
        <time>2014-10-28T13:48:36.000Z</time>
      </trkpt>
      <trkpt lat="47.53186" lon="6.76805">
        <ele>381.1</ele>
        <time>2014-10-28T13:48:37.000Z</time>
      </trkpt>
      <trkpt lat="47.53183" lon="6.76801">
        <ele>381.7</ele>
        <time>2014-10-28T13:48:39.000Z</time>
      </trkpt>
      <trkpt lat="47.53182" lon="6.76799">
        <ele>381.4</ele>
        <time>2014-10-28T13:48:40.000Z</time>
      </trkpt>
      <trkpt lat="47.53182" lon="6.76793">
        <ele>379.8</ele>
        <time>2014-10-28T13:48:42.000Z</time>
      </trkpt>
      <trkpt lat="47.53182" lon="6.7679">
        <ele>380.5</ele>
        <time>2014-10-28T13:48:43.000Z</time>
      </trkpt>
      <trkpt lat="47.53182" lon="6.76784">
        <ele>377.5</ele>
        <time>2014-10-28T13:48:46.000Z</time>
      </trkpt>
      <trkpt lat="47.53182" lon="6.76782">
        <ele>376.9</ele>
        <time>2014-10-28T13:48:47.000Z</time>
      </trkpt>
      <trkpt lat="47.5318" lon="6.76777">
        <ele>376.9</ele>
        <time>2014-10-28T13:48:49.000Z</time>
      </trkpt>
      <trkpt lat="47.53179" lon="6.76774">
        <ele>376.2</ele>
        <time>2014-10-28T13:48:50.000Z</time>
      </trkpt>
      <trkpt lat="47.53178" lon="6.76771">
        <ele>374.5</ele>
        <time>2014-10-28T13:48:51.000Z</time>
      </trkpt>
      <trkpt lat="47.53176" lon="6.76768">
        <ele>374.2</ele>
        <time>2014-10-28T13:48:52.000Z</time>
      </trkpt>
      <trkpt lat="47.53175" lon="6.76766">
        <ele>374.3</ele>
        <time>2014-10-28T13:48:53.000Z</time>
      </trkpt>
      <trkpt lat="47.53173" lon="6.76763">
        <ele>377</ele>
        <time>2014-10-28T13:48:54.000Z</time>
      </trkpt>
      <trkpt lat="47.53171" lon="6.7676">
        <ele>377.8</ele>
        <time>2014-10-28T13:48:55.000Z</time>
      </trkpt>
      <trkpt lat="47.53169" lon="6.76757">
        <ele>375.7</ele>
        <time>2014-10-28T13:48:56.000Z</time>
      </trkpt>
      <trkpt lat="47.53167" lon="6.76754">
        <ele>376.5</ele>
        <time>2014-10-28T13:48:57.000Z</time>
      </trkpt>
      <trkpt lat="47.53165" lon="6.76751">
        <ele>377.4</ele>
        <time>2014-10-28T13:48:58.000Z</time>
      </trkpt>
      <trkpt lat="47.53164" lon="6.76748">
        <ele>376.7</ele>
        <time>2014-10-28T13:48:59.000Z</time>
      </trkpt>
      <trkpt lat="47.53162" lon="6.76744">
        <ele>376.9</ele>
        <time>2014-10-28T13:49:00.000Z</time>
      </trkpt>
      <trkpt lat="47.53159" lon="6.7674">
        <ele>379.5</ele>
        <time>2014-10-28T13:49:02.000Z</time>
      </trkpt>
      <trkpt lat="47.53158" lon="6.76739">
        <ele>380.1</ele>
        <time>2014-10-28T13:49:03.000Z</time>
      </trkpt>
      <trkpt lat="47.53154" lon="6.76741">
        <ele>376.2</ele>
        <time>2014-10-28T13:49:06.000Z</time>
      </trkpt>
      <trkpt lat="47.53153" lon="6.76742">
        <ele>376.3</ele>
        <time>2014-10-28T13:49:07.000Z</time>
      </trkpt>
      <trkpt lat="47.53149" lon="6.76742">
        <ele>377.8</ele>
        <time>2014-10-28T13:49:10.000Z</time>
      </trkpt>
      <trkpt lat="47.53147" lon="6.76742">
        <ele>378.7</ele>
        <time>2014-10-28T13:49:11.000Z</time>
      </trkpt>
      <trkpt lat="47.53143" lon="6.76741">
        <ele>379.3</ele>
        <time>2014-10-28T13:49:13.000Z</time>
      </trkpt>
      <trkpt lat="47.53142" lon="6.7674">
        <ele>379.1</ele>
        <time>2014-10-28T13:49:14.000Z</time>
      </trkpt>
      <trkpt lat="47.5314" lon="6.76739">
        <ele>379</ele>
        <time>2014-10-28T13:49:15.000Z</time>
      </trkpt>
      <trkpt lat="47.53133" lon="6.76731">
        <ele>380.1</ele>
        <time>2014-10-28T13:49:23.000Z</time>
      </trkpt>
      <trkpt lat="47.53131" lon="6.7673">
        <ele>381.5</ele>
        <time>2014-10-28T13:49:25.000Z</time>
      </trkpt>
      <trkpt lat="47.53129" lon="6.7673">
        <ele>380.7</ele>
        <time>2014-10-28T13:49:26.000Z</time>
      </trkpt>
      <trkpt lat="47.53125" lon="6.7673">
        <ele>380.4</ele>
        <time>2014-10-28T13:49:28.000Z</time>
      </trkpt>
      <trkpt lat="47.53123" lon="6.7673">
        <ele>381</ele>
        <time>2014-10-28T13:49:29.000Z</time>
      </trkpt>
      <trkpt lat="47.5312" lon="6.7673">
        <ele>379.1</ele>
        <time>2014-10-28T13:49:31.000Z</time>
      </trkpt>
      <trkpt lat="47.53118" lon="6.76731">
        <ele>382</ele>
        <time>2014-10-28T13:49:32.000Z</time>
      </trkpt>
      <trkpt lat="47.53115" lon="6.76733">
        <ele>381.7</ele>
        <time>2014-10-28T13:49:34.000Z</time>
      </trkpt>
      <trkpt lat="47.53113" lon="6.76734">
        <ele>383.2</ele>
        <time>2014-10-28T13:49:35.000Z</time>
      </trkpt>
      <trkpt lat="47.53111" lon="6.76738">
        <ele>382.2</ele>
        <time>2014-10-28T13:49:37.000Z</time>
      </trkpt>
      <trkpt lat="47.5311" lon="6.7674">
        <ele>383.8</ele>
        <time>2014-10-28T13:49:38.000Z</time>
      </trkpt>
      <trkpt lat="47.53107" lon="6.76745">
        <ele>383.1</ele>
        <time>2014-10-28T13:49:41.000Z</time>
      </trkpt>
      <trkpt lat="47.53106" lon="6.76746">
        <ele>383.3</ele>
        <time>2014-10-28T13:49:42.000Z</time>
      </trkpt>
      <trkpt lat="47.53104" lon="6.76752">
        <ele>385.1</ele>
        <time>2014-10-28T13:49:46.000Z</time>
      </trkpt>
      <trkpt lat="47.53103" lon="6.76754">
        <ele>384.5</ele>
        <time>2014-10-28T13:49:47.000Z</time>
      </trkpt>
      <trkpt lat="47.53101" lon="6.76758">
        <ele>383.5</ele>
        <time>2014-10-28T13:49:49.000Z</time>
      </trkpt>
      <trkpt lat="47.531" lon="6.7676">
        <ele>383.2</ele>
        <time>2014-10-28T13:49:50.000Z</time>
      </trkpt>
      <trkpt lat="47.53098" lon="6.76765">
        <ele>382.8</ele>
        <time>2014-10-28T13:49:52.000Z</time>
      </trkpt>
      <trkpt lat="47.53096" lon="6.76766">
        <ele>379.6</ele>
        <time>2014-10-28T13:49:53.000Z</time>
      </trkpt>
      <trkpt lat="47.53093" lon="6.76768">
        <ele>380.6</ele>
        <time>2014-10-28T13:49:55.000Z</time>
      </trkpt>
      <trkpt lat="47.53091" lon="6.76768">
        <ele>380.3</ele>
        <time>2014-10-28T13:49:56.000Z</time>
      </trkpt>
      <trkpt lat="47.53088" lon="6.7677">
        <ele>380.3</ele>
        <time>2014-10-28T13:49:58.000Z</time>
      </trkpt>
      <trkpt lat="47.53087" lon="6.76772">
        <ele>380.2</ele>
        <time>2014-10-28T13:49:59.000Z</time>
      </trkpt>
      <trkpt lat="47.53085" lon="6.76773">
        <ele>379.6</ele>
        <time>2014-10-28T13:50:00.000Z</time>
      </trkpt>
      <trkpt lat="47.53083" lon="6.76775">
        <ele>378.8</ele>
        <time>2014-10-28T13:50:01.000Z</time>
      </trkpt>
      <trkpt lat="47.53081" lon="6.76776">
        <ele>378.6</ele>
        <time>2014-10-28T13:50:02.000Z</time>
      </trkpt>
      <trkpt lat="47.53078" lon="6.76778">
        <ele>377.7</ele>
        <time>2014-10-28T13:50:03.000Z</time>
      </trkpt>
      <trkpt lat="47.53075" lon="6.7678">
        <ele>377.8</ele>
        <time>2014-10-28T13:50:04.000Z</time>
      </trkpt>
      <trkpt lat="47.53073" lon="6.76782">
        <ele>378.5</ele>
        <time>2014-10-28T13:50:05.000Z</time>
      </trkpt>
      <trkpt lat="47.5307" lon="6.76785">
        <ele>379.1</ele>
        <time>2014-10-28T13:50:06.000Z</time>
      </trkpt>
      <trkpt lat="47.53069" lon="6.76787">
        <ele>379.2</ele>
        <time>2014-10-28T13:50:07.000Z</time>
      </trkpt>
      <trkpt lat="47.5307" lon="6.76792">
        <ele>382.9</ele>
        <time>2014-10-28T13:50:14.000Z</time>
      </trkpt>
      <trkpt lat="47.53078" lon="6.76783">
        <ele>385.1</ele>
        <time>2014-10-28T13:50:23.000Z</time>
      </trkpt>
      <trkpt lat="47.53082" lon="6.76784">
        <ele>382.6</ele>
        <time>2014-10-28T13:50:26.000Z</time>
      </trkpt>
      <trkpt lat="47.53084" lon="6.76784">
        <ele>381.7</ele>
        <time>2014-10-28T13:50:27.000Z</time>
      </trkpt>
      <trkpt lat="47.53086" lon="6.76783">
        <ele>381.1</ele>
        <time>2014-10-28T13:50:28.000Z</time>
      </trkpt>
      <trkpt lat="47.53088" lon="6.76783">
        <ele>380.9</ele>
        <time>2014-10-28T13:50:29.000Z</time>
      </trkpt>
      <trkpt lat="47.53092" lon="6.76785">
        <ele>380.9</ele>
        <time>2014-10-28T13:50:31.000Z</time>
      </trkpt>
      <trkpt lat="47.53093" lon="6.76787">
        <ele>381.5</ele>
        <time>2014-10-28T13:50:32.000Z</time>
      </trkpt>
      <trkpt lat="47.53094" lon="6.7679">
        <ele>380.8</ele>
        <time>2014-10-28T13:50:33.000Z</time>
      </trkpt>
      <trkpt lat="47.53096" lon="6.76794">
        <ele>380.2</ele>
        <time>2014-10-28T13:50:34.000Z</time>
      </trkpt>
      <trkpt lat="47.53098" lon="6.76798">
        <ele>383.2</ele>
        <time>2014-10-28T13:50:36.000Z</time>
      </trkpt>
      <trkpt lat="47.53099" lon="6.768">
        <ele>383.7</ele>
        <time>2014-10-28T13:50:37.000Z</time>
      </trkpt>
      <trkpt lat="47.53102" lon="6.76804">
        <ele>385.6</ele>
        <time>2014-10-28T13:50:39.000Z</time>
      </trkpt>
      <trkpt lat="47.53105" lon="6.76806">
        <ele>386</ele>
        <time>2014-10-28T13:50:40.000Z</time>
      </trkpt>
      <trkpt lat="47.53108" lon="6.76811">
        <ele>385.4</ele>
        <time>2014-10-28T13:50:42.000Z</time>
      </trkpt>
      <trkpt lat="47.53108" lon="6.76814">
        <ele>385.7</ele>
        <time>2014-10-28T13:50:43.000Z</time>
      </trkpt>
      <trkpt lat="47.53109" lon="6.76817">
        <ele>384.8</ele>
        <time>2014-10-28T13:50:44.000Z</time>
      </trkpt>
      <trkpt lat="47.53108" lon="6.7682">
        <ele>384.6</ele>
        <time>2014-10-28T13:50:45.000Z</time>
      </trkpt>
      <trkpt lat="47.53107" lon="6.76826">
        <ele>383.4</ele>
        <time>2014-10-28T13:50:47.000Z</time>
      </trkpt>
      <trkpt lat="47.53106" lon="6.76829">
        <ele>383.5</ele>
        <time>2014-10-28T13:50:48.000Z</time>
      </trkpt>
      <trkpt lat="47.53104" lon="6.76833">
        <ele>381</ele>
        <time>2014-10-28T13:50:51.000Z</time>
      </trkpt>
      <trkpt lat="47.53103" lon="6.76834">
        <ele>382.1</ele>
        <time>2014-10-28T13:50:52.000Z</time>
      </trkpt>
      <trkpt lat="47.53099" lon="6.76834">
        <ele>381.8</ele>
        <time>2014-10-28T13:50:54.000Z</time>
      </trkpt>
      <trkpt lat="47.53097" lon="6.76833">
        <ele>380.9</ele>
        <time>2014-10-28T13:50:55.000Z</time>
      </trkpt>
      <trkpt lat="47.53094" lon="6.76832">
        <ele>380.7</ele>
        <time>2014-10-28T13:50:57.000Z</time>
      </trkpt>
      <trkpt lat="47.53092" lon="6.76831">
        <ele>378.4</ele>
        <time>2014-10-28T13:50:58.000Z</time>
      </trkpt>
      <trkpt lat="47.53089" lon="6.7683">
        <ele>377.5</ele>
        <time>2014-10-28T13:50:59.000Z</time>
      </trkpt>
      <trkpt lat="47.53087" lon="6.7683">
        <ele>377.6</ele>
        <time>2014-10-28T13:51:00.000Z</time>
      </trkpt>
      <trkpt lat="47.53084" lon="6.76829">
        <ele>377.7</ele>
        <time>2014-10-28T13:51:01.000Z</time>
      </trkpt>
      <trkpt lat="47.53082" lon="6.7683">
        <ele>376</ele>
        <time>2014-10-28T13:51:02.000Z</time>
      </trkpt>
      <trkpt lat="47.53078" lon="6.76833">
        <ele>374.9</ele>
        <time>2014-10-28T13:51:04.000Z</time>
      </trkpt>
      <trkpt lat="47.53076" lon="6.76835">
        <ele>374.9</ele>
        <time>2014-10-28T13:51:05.000Z</time>
      </trkpt>
      <trkpt lat="47.53074" lon="6.76836">
        <ele>376.6</ele>
        <time>2014-10-28T13:51:06.000Z</time>
      </trkpt>
      <trkpt lat="47.53071" lon="6.76836">
        <ele>376.9</ele>
        <time>2014-10-28T13:51:07.000Z</time>
      </trkpt>
      <trkpt lat="47.53069" lon="6.76836">
        <ele>376.8</ele>
        <time>2014-10-28T13:51:08.000Z</time>
      </trkpt>
      <trkpt lat="47.53066" lon="6.76836">
        <ele>376.5</ele>
        <time>2014-10-28T13:51:09.000Z</time>
      </trkpt>
      <trkpt lat="47.53063" lon="6.76835">
        <ele>377</ele>
        <time>2014-10-28T13:51:10.000Z</time>
      </trkpt>
      <trkpt lat="47.53061" lon="6.76835">
        <ele>377.1</ele>
        <time>2014-10-28T13:51:11.000Z</time>
      </trkpt>
      <trkpt lat="47.53058" lon="6.76835">
        <ele>376.8</ele>
        <time>2014-10-28T13:51:12.000Z</time>
      </trkpt>
      <trkpt lat="47.53056" lon="6.76835">
        <ele>376.7</ele>
        <time>2014-10-28T13:51:13.000Z</time>
      </trkpt>
      <trkpt lat="47.53054" lon="6.76835">
        <ele>375.8</ele>
        <time>2014-10-28T13:51:14.000Z</time>
      </trkpt>
      <trkpt lat="47.5305" lon="6.76832">
        <ele>374.9</ele>
        <time>2014-10-28T13:51:17.000Z</time>
      </trkpt>
      <trkpt lat="47.53032" lon="6.7683">
        <ele>374.5</ele>
        <time>2014-10-28T13:51:30.000Z</time>
      </trkpt>
      <trkpt lat="47.53031" lon="6.76836">
        <ele>375.9</ele>
        <time>2014-10-28T13:51:32.000Z</time>
      </trkpt>
      <trkpt lat="47.5303" lon="6.76839">
        <ele>376.4</ele>
        <time>2014-10-28T13:51:33.000Z</time>
      </trkpt>
      <trkpt lat="47.5303" lon="6.76844">
        <ele>380.1</ele>
        <time>2014-10-28T13:51:35.000Z</time>
      </trkpt>
      <trkpt lat="47.5303" lon="6.76846">
        <ele>380.1</ele>
        <time>2014-10-28T13:51:36.000Z</time>
      </trkpt>
      <trkpt lat="47.53032" lon="6.76851">
        <ele>383.2</ele>
        <time>2014-10-28T13:51:39.000Z</time>
      </trkpt>
      <trkpt lat="47.53032" lon="6.76853">
        <ele>383.4</ele>
        <time>2014-10-28T13:51:40.000Z</time>
      </trkpt>
      <trkpt lat="47.53033" lon="6.76858">
        <ele>383.8</ele>
        <time>2014-10-28T13:51:43.000Z</time>
      </trkpt>
      <trkpt lat="47.53033" lon="6.76859">
        <ele>384.1</ele>
        <time>2014-10-28T13:51:44.000Z</time>
      </trkpt>
      <trkpt lat="47.53033" lon="6.76865">
        <ele>386.2</ele>
        <time>2014-10-28T13:51:47.000Z</time>
      </trkpt>
      <trkpt lat="47.53032" lon="6.76868">
        <ele>387.6</ele>
        <time>2014-10-28T13:51:48.000Z</time>
      </trkpt>
      <trkpt lat="47.53031" lon="6.76871">
        <ele>387.5</ele>
        <time>2014-10-28T13:51:49.000Z</time>
      </trkpt>
      <trkpt lat="47.5303" lon="6.76874">
        <ele>389.7</ele>
        <time>2014-10-28T13:51:50.000Z</time>
      </trkpt>
      <trkpt lat="47.53029" lon="6.76878">
        <ele>390.6</ele>
        <time>2014-10-28T13:51:51.000Z</time>
      </trkpt>
      <trkpt lat="47.53027" lon="6.76881">
        <ele>390.8</ele>
        <time>2014-10-28T13:51:52.000Z</time>
      </trkpt>
      <trkpt lat="47.53025" lon="6.76884">
        <ele>391.2</ele>
        <time>2014-10-28T13:51:53.000Z</time>
      </trkpt>
      <trkpt lat="47.53024" lon="6.76886">
        <ele>391.2</ele>
        <time>2014-10-28T13:51:54.000Z</time>
      </trkpt>
      <trkpt lat="47.53021" lon="6.76891">
        <ele>390.7</ele>
        <time>2014-10-28T13:51:56.000Z</time>
      </trkpt>
      <trkpt lat="47.53019" lon="6.76893">
        <ele>389</ele>
        <time>2014-10-28T13:51:57.000Z</time>
      </trkpt>
      <trkpt lat="47.53017" lon="6.76895">
        <ele>388.4</ele>
        <time>2014-10-28T13:51:58.000Z</time>
      </trkpt>
      <trkpt lat="47.53015" lon="6.76897">
        <ele>388.4</ele>
        <time>2014-10-28T13:51:59.000Z</time>
      </trkpt>
      <trkpt lat="47.53013" lon="6.769">
        <ele>387.4</ele>
        <time>2014-10-28T13:52:00.000Z</time>
      </trkpt>
      <trkpt lat="47.5301" lon="6.76902">
        <ele>386.4</ele>
        <time>2014-10-28T13:52:01.000Z</time>
      </trkpt>
      <trkpt lat="47.53008" lon="6.76904">
        <ele>385.4</ele>
        <time>2014-10-28T13:52:02.000Z</time>
      </trkpt>
      <trkpt lat="47.53005" lon="6.76905">
        <ele>384.2</ele>
        <time>2014-10-28T13:52:03.000Z</time>
      </trkpt>
      <trkpt lat="47.53002" lon="6.76905">
        <ele>383.1</ele>
        <time>2014-10-28T13:52:04.000Z</time>
      </trkpt>
      <trkpt lat="47.52998" lon="6.76905">
        <ele>382.3</ele>
        <time>2014-10-28T13:52:05.000Z</time>
      </trkpt>
      <trkpt lat="47.52995" lon="6.76905">
        <ele>382.4</ele>
        <time>2014-10-28T13:52:06.000Z</time>
      </trkpt>
      <trkpt lat="47.52991" lon="6.76905">
        <ele>381.3</ele>
        <time>2014-10-28T13:52:07.000Z</time>
      </trkpt>
      <trkpt lat="47.52988" lon="6.76905">
        <ele>381.8</ele>
        <time>2014-10-28T13:52:08.000Z</time>
      </trkpt>
      <trkpt lat="47.52986" lon="6.76905">
        <ele>382.9</ele>
        <time>2014-10-28T13:52:09.000Z</time>
      </trkpt>
      <trkpt lat="47.52983" lon="6.76905">
        <ele>383.6</ele>
        <time>2014-10-28T13:52:10.000Z</time>
      </trkpt>
      <trkpt lat="47.52981" lon="6.76905">
        <ele>384</ele>
        <time>2014-10-28T13:52:11.000Z</time>
      </trkpt>
      <trkpt lat="47.52977" lon="6.76904">
        <ele>384.4</ele>
        <time>2014-10-28T13:52:13.000Z</time>
      </trkpt>
      <trkpt lat="47.52975" lon="6.76903">
        <ele>384.4</ele>
        <time>2014-10-28T13:52:14.000Z</time>
      </trkpt>
      <trkpt lat="47.52969" lon="6.76901">
        <ele>383.7</ele>
        <time>2014-10-28T13:52:17.000Z</time>
      </trkpt>
      <trkpt lat="47.52966" lon="6.76898">
        <ele>382.8</ele>
        <time>2014-10-28T13:52:19.000Z</time>
      </trkpt>
      <trkpt lat="47.52964" lon="6.76896">
        <ele>381.8</ele>
        <time>2014-10-28T13:52:20.000Z</time>
      </trkpt>
      <trkpt lat="47.5296" lon="6.76894">
        <ele>382.3</ele>
        <time>2014-10-28T13:52:22.000Z</time>
      </trkpt>
      <trkpt lat="47.52959" lon="6.76893">
        <ele>383.9</ele>
        <time>2014-10-28T13:52:23.000Z</time>
      </trkpt>
      <trkpt lat="47.52955" lon="6.76893">
        <ele>385.6</ele>
        <time>2014-10-28T13:52:25.000Z</time>
      </trkpt>
      <trkpt lat="47.52953" lon="6.76893">
        <ele>386.7</ele>
        <time>2014-10-28T13:52:26.000Z</time>
      </trkpt>
      <trkpt lat="47.5295" lon="6.76892">
        <ele>384.3</ele>
        <time>2014-10-28T13:52:27.000Z</time>
      </trkpt>
      <trkpt lat="47.52948" lon="6.76891">
        <ele>385.3</ele>
        <time>2014-10-28T13:52:28.000Z</time>
      </trkpt>
      <trkpt lat="47.52944" lon="6.76892">
        <ele>384.4</ele>
        <time>2014-10-28T13:52:30.000Z</time>
      </trkpt>
      <trkpt lat="47.52941" lon="6.76893">
        <ele>384.2</ele>
        <time>2014-10-28T13:52:31.000Z</time>
      </trkpt>
      <trkpt lat="47.52939" lon="6.76894">
        <ele>384.4</ele>
        <time>2014-10-28T13:52:32.000Z</time>
      </trkpt>
      <trkpt lat="47.52936" lon="6.76895">
        <ele>384.7</ele>
        <time>2014-10-28T13:52:33.000Z</time>
      </trkpt>
      <trkpt lat="47.52933" lon="6.76898">
        <ele>384</ele>
        <time>2014-10-28T13:52:35.000Z</time>
      </trkpt>
      <trkpt lat="47.52931" lon="6.76899">
        <ele>383.6</ele>
        <time>2014-10-28T13:52:36.000Z</time>
      </trkpt>
      <trkpt lat="47.52927" lon="6.76902">
        <ele>383.4</ele>
        <time>2014-10-28T13:52:38.000Z</time>
      </trkpt>
      <trkpt lat="47.52926" lon="6.76903">
        <ele>384</ele>
        <time>2014-10-28T13:52:39.000Z</time>
      </trkpt>
      <trkpt lat="47.52923" lon="6.76908">
        <ele>382.7</ele>
        <time>2014-10-28T13:52:42.000Z</time>
      </trkpt>
      <trkpt lat="47.52923" lon="6.7691">
        <ele>384.4</ele>
        <time>2014-10-28T13:52:43.000Z</time>
      </trkpt>
      <trkpt lat="47.52924" lon="6.76916">
        <ele>384.5</ele>
        <time>2014-10-28T13:52:46.000Z</time>
      </trkpt>
      <trkpt lat="47.52924" lon="6.76918">
        <ele>383.9</ele>
        <time>2014-10-28T13:52:47.000Z</time>
      </trkpt>
      <trkpt lat="47.52926" lon="6.76922">
        <ele>382.8</ele>
        <time>2014-10-28T13:52:49.000Z</time>
      </trkpt>
      <trkpt lat="47.52926" lon="6.76924">
        <ele>382.1</ele>
        <time>2014-10-28T13:52:50.000Z</time>
      </trkpt>
      <trkpt lat="47.52928" lon="6.7693">
        <ele>381.9</ele>
        <time>2014-10-28T13:52:52.000Z</time>
      </trkpt>
      <trkpt lat="47.52928" lon="6.76932">
        <ele>381.9</ele>
        <time>2014-10-28T13:52:53.000Z</time>
      </trkpt>
      <trkpt lat="47.52927" lon="6.76939">
        <ele>381.6</ele>
        <time>2014-10-28T13:52:56.000Z</time>
      </trkpt>
      <trkpt lat="47.52926" lon="6.76941">
        <ele>381.2</ele>
        <time>2014-10-28T13:52:57.000Z</time>
      </trkpt>
      <trkpt lat="47.52924" lon="6.76945">
        <ele>382.1</ele>
        <time>2014-10-28T13:52:59.000Z</time>
      </trkpt>
      <trkpt lat="47.52923" lon="6.76948">
        <ele>381.9</ele>
        <time>2014-10-28T13:53:00.000Z</time>
      </trkpt>
      <trkpt lat="47.52922" lon="6.76951">
        <ele>382.5</ele>
        <time>2014-10-28T13:53:01.000Z</time>
      </trkpt>
      <trkpt lat="47.52921" lon="6.76954">
        <ele>381.6</ele>
        <time>2014-10-28T13:53:02.000Z</time>
      </trkpt>
      <trkpt lat="47.52921" lon="6.7696">
        <ele>381.4</ele>
        <time>2014-10-28T13:53:04.000Z</time>
      </trkpt>
      <trkpt lat="47.52921" lon="6.76963">
        <ele>381.4</ele>
        <time>2014-10-28T13:53:05.000Z</time>
      </trkpt>
      <trkpt lat="47.52922" lon="6.76969">
        <ele>381.2</ele>
        <time>2014-10-28T13:53:07.000Z</time>
      </trkpt>
      <trkpt lat="47.52923" lon="6.76972">
        <ele>381.1</ele>
        <time>2014-10-28T13:53:08.000Z</time>
      </trkpt>
      <trkpt lat="47.52924" lon="6.76978">
        <ele>381.4</ele>
        <time>2014-10-28T13:53:10.000Z</time>
      </trkpt>
      <trkpt lat="47.52924" lon="6.76981">
        <ele>381.7</ele>
        <time>2014-10-28T13:53:11.000Z</time>
      </trkpt>
      <trkpt lat="47.52924" lon="6.76987">
        <ele>381.7</ele>
        <time>2014-10-28T13:53:13.000Z</time>
      </trkpt>
      <trkpt lat="47.52924" lon="6.76989">
        <ele>383.2</ele>
        <time>2014-10-28T13:53:14.000Z</time>
      </trkpt>
      <trkpt lat="47.52927" lon="6.76992">
        <ele>384.8</ele>
        <time>2014-10-28T13:53:17.000Z</time>
      </trkpt>
      <trkpt lat="47.52928" lon="6.76993">
        <ele>385.7</ele>
        <time>2014-10-28T13:53:18.000Z</time>
      </trkpt>
      <trkpt lat="47.52929" lon="6.76997">
        <ele>383.9</ele>
        <time>2014-10-28T13:53:20.000Z</time>
      </trkpt>
      <trkpt lat="47.52929" lon="6.76999">
        <ele>383.8</ele>
        <time>2014-10-28T13:53:21.000Z</time>
      </trkpt>
      <trkpt lat="47.52928" lon="6.77003">
        <ele>385.3</ele>
        <time>2014-10-28T13:53:22.000Z</time>
      </trkpt>
      <trkpt lat="47.52927" lon="6.77007">
        <ele>385.4</ele>
        <time>2014-10-28T13:53:23.000Z</time>
      </trkpt>
      <trkpt lat="47.52925" lon="6.77009">
        <ele>385.2</ele>
        <time>2014-10-28T13:53:24.000Z</time>
      </trkpt>
      <trkpt lat="47.52923" lon="6.77011">
        <ele>384.2</ele>
        <time>2014-10-28T13:53:25.000Z</time>
      </trkpt>
      <trkpt lat="47.52919" lon="6.77012">
        <ele>382.9</ele>
        <time>2014-10-28T13:53:26.000Z</time>
      </trkpt>
      <trkpt lat="47.52916" lon="6.77012">
        <ele>382.3</ele>
        <time>2014-10-28T13:53:27.000Z</time>
      </trkpt>
      <trkpt lat="47.52912" lon="6.77013">
        <ele>382.4</ele>
        <time>2014-10-28T13:53:29.000Z</time>
      </trkpt>
      <trkpt lat="47.52911" lon="6.77014">
        <ele>381.9</ele>
        <time>2014-10-28T13:53:30.000Z</time>
      </trkpt>
      <trkpt lat="47.52909" lon="6.77015">
        <ele>381.1</ele>
        <time>2014-10-28T13:53:31.000Z</time>
      </trkpt>
      <trkpt lat="47.52906" lon="6.77016">
        <ele>380.1</ele>
        <time>2014-10-28T13:53:32.000Z</time>
      </trkpt>
      <trkpt lat="47.52904" lon="6.77018">
        <ele>379.4</ele>
        <time>2014-10-28T13:53:33.000Z</time>
      </trkpt>
      <trkpt lat="47.52901" lon="6.77019">
        <ele>379.6</ele>
        <time>2014-10-28T13:53:34.000Z</time>
      </trkpt>
      <trkpt lat="47.52899" lon="6.77021">
        <ele>379.9</ele>
        <time>2014-10-28T13:53:35.000Z</time>
      </trkpt>
      <trkpt lat="47.52897" lon="6.77023">
        <ele>379.5</ele>
        <time>2014-10-28T13:53:36.000Z</time>
      </trkpt>
      <trkpt lat="47.52895" lon="6.77025">
        <ele>380.2</ele>
        <time>2014-10-28T13:53:37.000Z</time>
      </trkpt>
      <trkpt lat="47.52893" lon="6.77028">
        <ele>376.5</ele>
        <time>2014-10-28T13:53:38.000Z</time>
      </trkpt>
      <trkpt lat="47.52891" lon="6.77031">
        <ele>375.4</ele>
        <time>2014-10-28T13:53:39.000Z</time>
      </trkpt>
      <trkpt lat="47.52889" lon="6.77034">
        <ele>375.6</ele>
        <time>2014-10-28T13:53:40.000Z</time>
      </trkpt>
      <trkpt lat="47.52888" lon="6.77037">
        <ele>374.4</ele>
        <time>2014-10-28T13:53:41.000Z</time>
      </trkpt>
      <trkpt lat="47.52887" lon="6.7704">
        <ele>374.3</ele>
        <time>2014-10-28T13:53:42.000Z</time>
      </trkpt>
      <trkpt lat="47.52886" lon="6.77044">
        <ele>373.8</ele>
        <time>2014-10-28T13:53:43.000Z</time>
      </trkpt>
      <trkpt lat="47.52885" lon="6.77047">
        <ele>374.1</ele>
        <time>2014-10-28T13:53:44.000Z</time>
      </trkpt>
      <trkpt lat="47.52884" lon="6.77053">
        <ele>375.5</ele>
        <time>2014-10-28T13:53:46.000Z</time>
      </trkpt>
      <trkpt lat="47.52884" lon="6.77056">
        <ele>376.5</ele>
        <time>2014-10-28T13:53:47.000Z</time>
      </trkpt>
      <trkpt lat="47.52884" lon="6.7706">
        <ele>376.6</ele>
        <time>2014-10-28T13:53:49.000Z</time>
      </trkpt>
      <trkpt lat="47.52884" lon="6.77063">
        <ele>377.3</ele>
        <time>2014-10-28T13:53:50.000Z</time>
      </trkpt>
      <trkpt lat="47.52885" lon="6.77068">
        <ele>377</ele>
        <time>2014-10-28T13:53:52.000Z</time>
      </trkpt>
      <trkpt lat="47.52886" lon="6.77071">
        <ele>376.5</ele>
        <time>2014-10-28T13:53:53.000Z</time>
      </trkpt>
      <trkpt lat="47.52888" lon="6.77077">
        <ele>376.2</ele>
        <time>2014-10-28T13:53:55.000Z</time>
      </trkpt>
      <trkpt lat="47.52889" lon="6.7708">
        <ele>376.6</ele>
        <time>2014-10-28T13:53:56.000Z</time>
      </trkpt>
      <trkpt lat="47.52891" lon="6.77084">
        <ele>378.5</ele>
        <time>2014-10-28T13:53:58.000Z</time>
      </trkpt>
      <trkpt lat="47.52893" lon="6.77087">
        <ele>379.2</ele>
        <time>2014-10-28T13:53:59.000Z</time>
      </trkpt>
      <trkpt lat="47.52894" lon="6.7709">
        <ele>379.8</ele>
        <time>2014-10-28T13:54:00.000Z</time>
      </trkpt>
      <trkpt lat="47.52895" lon="6.77093">
        <ele>381</ele>
        <time>2014-10-28T13:54:01.000Z</time>
      </trkpt>
      <trkpt lat="47.52896" lon="6.77096">
        <ele>381.5</ele>
        <time>2014-10-28T13:54:02.000Z</time>
      </trkpt>
      <trkpt lat="47.52894" lon="6.77099">
        <ele>378.3</ele>
        <time>2014-10-28T13:54:03.000Z</time>
      </trkpt>
      <trkpt lat="47.52892" lon="6.77102">
        <ele>377.6</ele>
        <time>2014-10-28T13:54:04.000Z</time>
      </trkpt>
      <trkpt lat="47.5289" lon="6.77104">
        <ele>377.3</ele>
        <time>2014-10-28T13:54:05.000Z</time>
      </trkpt>
      <trkpt lat="47.52887" lon="6.77106">
        <ele>375.8</ele>
        <time>2014-10-28T13:54:06.000Z</time>
      </trkpt>
      <trkpt lat="47.52884" lon="6.77108">
        <ele>376.4</ele>
        <time>2014-10-28T13:54:07.000Z</time>
      </trkpt>
      <trkpt lat="47.52882" lon="6.77109">
        <ele>377</ele>
        <time>2014-10-28T13:54:08.000Z</time>
      </trkpt>
      <trkpt lat="47.5288" lon="6.77111">
        <ele>376.8</ele>
        <time>2014-10-28T13:54:09.000Z</time>
      </trkpt>
      <trkpt lat="47.52879" lon="6.77114">
        <ele>377.5</ele>
        <time>2014-10-28T13:54:14.000Z</time>
      </trkpt>
      <trkpt lat="47.52866" lon="6.77126">
        <ele>373.9</ele>
        <time>2014-10-28T13:54:22.000Z</time>
      </trkpt>
      <trkpt lat="47.52862" lon="6.77128">
        <ele>373</ele>
        <time>2014-10-28T13:54:24.000Z</time>
      </trkpt>
      <trkpt lat="47.52859" lon="6.7713">
        <ele>375.2</ele>
        <time>2014-10-28T13:54:25.000Z</time>
      </trkpt>
      <trkpt lat="47.52857" lon="6.77133">
        <ele>375.9</ele>
        <time>2014-10-28T13:54:26.000Z</time>
      </trkpt>
      <trkpt lat="47.52855" lon="6.77135">
        <ele>376.3</ele>
        <time>2014-10-28T13:54:27.000Z</time>
      </trkpt>
      <trkpt lat="47.52853" lon="6.77137">
        <ele>376.2</ele>
        <time>2014-10-28T13:54:28.000Z</time>
      </trkpt>
      <trkpt lat="47.52851" lon="6.77138">
        <ele>376.3</ele>
        <time>2014-10-28T13:54:29.000Z</time>
      </trkpt>
      <trkpt lat="47.52849" lon="6.7714">
        <ele>376.1</ele>
        <time>2014-10-28T13:54:30.000Z</time>
      </trkpt>
      <trkpt lat="47.52847" lon="6.77142">
        <ele>376.1</ele>
        <time>2014-10-28T13:54:31.000Z</time>
      </trkpt>
      <trkpt lat="47.52846" lon="6.77147">
        <ele>375.3</ele>
        <time>2014-10-28T13:54:33.000Z</time>
      </trkpt>
      <trkpt lat="47.52845" lon="6.77148">
        <ele>375.4</ele>
        <time>2014-10-28T13:54:34.000Z</time>
      </trkpt>
      <trkpt lat="47.52847" lon="6.77154">
        <ele>375.6</ele>
        <time>2014-10-28T13:54:40.000Z</time>
      </trkpt>
      <trkpt lat="47.52848" lon="6.77154">
        <ele>376.2</ele>
        <time>2014-10-28T13:54:41.000Z</time>
      </trkpt>
      <trkpt lat="47.52852" lon="6.77154">
        <ele>378.3</ele>
        <time>2014-10-28T13:54:44.000Z</time>
      </trkpt>
      <trkpt lat="47.52854" lon="6.77155">
        <ele>378.1</ele>
        <time>2014-10-28T13:54:45.000Z</time>
      </trkpt>
      <trkpt lat="47.52856" lon="6.77152">
        <ele>377.8</ele>
        <time>2014-10-28T13:54:51.000Z</time>
      </trkpt>
      <trkpt lat="47.52857" lon="6.7715">
        <ele>377.7</ele>
        <time>2014-10-28T13:54:52.000Z</time>
      </trkpt>
      <trkpt lat="47.52858" lon="6.77145">
        <ele>371.4</ele>
        <time>2014-10-28T13:54:55.000Z</time>
      </trkpt>
      <trkpt lat="47.52859" lon="6.77144">
        <ele>371</ele>
        <time>2014-10-28T13:54:56.000Z</time>
      </trkpt>
      <trkpt lat="47.52863" lon="6.77141">
        <ele>369.8</ele>
        <time>2014-10-28T13:54:58.000Z</time>
      </trkpt>
      <trkpt lat="47.52864" lon="6.77139">
        <ele>369.9</ele>
        <time>2014-10-28T13:54:59.000Z</time>
      </trkpt>
      <trkpt lat="47.52867" lon="6.77136">
        <ele>371.3</ele>
        <time>2014-10-28T13:55:01.000Z</time>
      </trkpt>
      <trkpt lat="47.52869" lon="6.77135">
        <ele>371.2</ele>
        <time>2014-10-28T13:55:02.000Z</time>
      </trkpt>
      <trkpt lat="47.52872" lon="6.77132">
        <ele>371.3</ele>
        <time>2014-10-28T13:55:04.000Z</time>
      </trkpt>
      <trkpt lat="47.52873" lon="6.7713">
        <ele>371.7</ele>
        <time>2014-10-28T13:55:05.000Z</time>
      </trkpt>
      <trkpt lat="47.52875" lon="6.77126">
        <ele>373.6</ele>
        <time>2014-10-28T13:55:07.000Z</time>
      </trkpt>
      <trkpt lat="47.52876" lon="6.77124">
        <ele>374</ele>
        <time>2014-10-28T13:55:08.000Z</time>
      </trkpt>
      <trkpt lat="47.52878" lon="6.77119">
        <ele>376.2</ele>
        <time>2014-10-28T13:55:10.000Z</time>
      </trkpt>
      <trkpt lat="47.52879" lon="6.77116">
        <ele>377</ele>
        <time>2014-10-28T13:55:11.000Z</time>
      </trkpt>
      <trkpt lat="47.52881" lon="6.77113">
        <ele>383.3</ele>
        <time>2014-10-28T13:55:13.000Z</time>
      </trkpt>
      <trkpt lat="47.52882" lon="6.77111">
        <ele>384.2</ele>
        <time>2014-10-28T13:55:14.000Z</time>
      </trkpt>
      <trkpt lat="47.52884" lon="6.77096">
        <ele>385.8</ele>
        <time>2014-10-28T13:55:22.000Z</time>
      </trkpt>
      <trkpt lat="47.52885" lon="6.7709">
        <ele>384.4</ele>
        <time>2014-10-28T13:55:25.000Z</time>
      </trkpt>
      <trkpt lat="47.52885" lon="6.77087">
        <ele>385.3</ele>
        <time>2014-10-28T13:55:26.000Z</time>
      </trkpt>
      <trkpt lat="47.52885" lon="6.77082">
        <ele>384.3</ele>
        <time>2014-10-28T13:55:28.000Z</time>
      </trkpt>
      <trkpt lat="47.52884" lon="6.77079">
        <ele>384.3</ele>
        <time>2014-10-28T13:55:29.000Z</time>
      </trkpt>
      <trkpt lat="47.52885" lon="6.77072">
        <ele>384.9</ele>
        <time>2014-10-28T13:55:31.000Z</time>
      </trkpt>
      <trkpt lat="47.52885" lon="6.7707">
        <ele>385.3</ele>
        <time>2014-10-28T13:55:32.000Z</time>
      </trkpt>
      <trkpt lat="47.52887" lon="6.77068">
        <ele>385.8</ele>
        <time>2014-10-28T13:55:33.000Z</time>
      </trkpt>
      <trkpt lat="47.5289" lon="6.77068">
        <ele>386.5</ele>
        <time>2014-10-28T13:55:34.000Z</time>
      </trkpt>
      <trkpt lat="47.52893" lon="6.77068">
        <ele>385.4</ele>
        <time>2014-10-28T13:55:35.000Z</time>
      </trkpt>
      <trkpt lat="47.52896" lon="6.77067">
        <ele>385.2</ele>
        <time>2014-10-28T13:55:36.000Z</time>
      </trkpt>
      <trkpt lat="47.529" lon="6.77066">
        <ele>385.9</ele>
        <time>2014-10-28T13:55:38.000Z</time>
      </trkpt>
      <trkpt lat="47.52901" lon="6.77065">
        <ele>386.3</ele>
        <time>2014-10-28T13:55:39.000Z</time>
      </trkpt>
      <trkpt lat="47.52905" lon="6.77061">
        <ele>386.7</ele>
        <time>2014-10-28T13:55:41.000Z</time>
      </trkpt>
      <trkpt lat="47.52906" lon="6.7706">
        <ele>388.5</ele>
        <time>2014-10-28T13:55:42.000Z</time>
      </trkpt>
      <trkpt lat="47.5291" lon="6.77057">
        <ele>388</ele>
        <time>2014-10-28T13:55:44.000Z</time>
      </trkpt>
      <trkpt lat="47.52911" lon="6.77055">
        <ele>387.3</ele>
        <time>2014-10-28T13:55:45.000Z</time>
      </trkpt>
      <trkpt lat="47.52913" lon="6.77051">
        <ele>389.8</ele>
        <time>2014-10-28T13:55:47.000Z</time>
      </trkpt>
      <trkpt lat="47.52914" lon="6.77048">
        <ele>389.6</ele>
        <time>2014-10-28T13:55:48.000Z</time>
      </trkpt>
      <trkpt lat="47.52916" lon="6.77045">
        <ele>389.4</ele>
        <time>2014-10-28T13:55:49.000Z</time>
      </trkpt>
      <trkpt lat="47.52918" lon="6.77042">
        <ele>389.1</ele>
        <time>2014-10-28T13:55:50.000Z</time>
      </trkpt>
      <trkpt lat="47.52919" lon="6.7704">
        <ele>388.4</ele>
        <time>2014-10-28T13:55:51.000Z</time>
      </trkpt>
      <trkpt lat="47.52921" lon="6.77037">
        <ele>388</ele>
        <time>2014-10-28T13:55:52.000Z</time>
      </trkpt>
      <trkpt lat="47.52923" lon="6.77035">
        <ele>388.3</ele>
        <time>2014-10-28T13:55:53.000Z</time>
      </trkpt>
      <trkpt lat="47.52925" lon="6.77033">
        <ele>387.4</ele>
        <time>2014-10-28T13:55:54.000Z</time>
      </trkpt>
      <trkpt lat="47.52928" lon="6.77031">
        <ele>387.7</ele>
        <time>2014-10-28T13:55:55.000Z</time>
      </trkpt>
      <trkpt lat="47.5293" lon="6.77029">
        <ele>387.6</ele>
        <time>2014-10-28T13:55:56.000Z</time>
      </trkpt>
      <trkpt lat="47.52934" lon="6.77026">
        <ele>384.6</ele>
        <time>2014-10-28T13:55:58.000Z</time>
      </trkpt>
      <trkpt lat="47.52935" lon="6.77025">
        <ele>383.9</ele>
        <time>2014-10-28T13:55:59.000Z</time>
      </trkpt>
      <trkpt lat="47.52939" lon="6.77024">
        <ele>381.4</ele>
        <time>2014-10-28T13:56:01.000Z</time>
      </trkpt>
      <trkpt lat="47.5294" lon="6.77023">
        <ele>382.1</ele>
        <time>2014-10-28T13:56:02.000Z</time>
      </trkpt>
      <trkpt lat="47.52939" lon="6.77016">
        <ele>380.7</ele>
        <time>2014-10-28T13:56:05.000Z</time>
      </trkpt>
      <trkpt lat="47.52939" lon="6.77014">
        <ele>380.3</ele>
        <time>2014-10-28T13:56:06.000Z</time>
      </trkpt>
      <trkpt lat="47.52936" lon="6.77011">
        <ele>380.6</ele>
        <time>2014-10-28T13:56:08.000Z</time>
      </trkpt>
      <trkpt lat="47.52935" lon="6.7701">
        <ele>380.5</ele>
        <time>2014-10-28T13:56:09.000Z</time>
      </trkpt>
      <trkpt lat="47.52931" lon="6.77008">
        <ele>385.6</ele>
        <time>2014-10-28T13:56:11.000Z</time>
      </trkpt>
      <trkpt lat="47.52929" lon="6.77008">
        <ele>385.9</ele>
        <time>2014-10-28T13:56:12.000Z</time>
      </trkpt>
      <trkpt lat="47.52926" lon="6.77007">
        <ele>386.2</ele>
        <time>2014-10-28T13:56:14.000Z</time>
      </trkpt>
      <trkpt lat="47.52922" lon="6.77006">
        <ele>386.5</ele>
        <time>2014-10-28T13:56:17.000Z</time>
      </trkpt>
      <trkpt lat="47.52919" lon="6.77001">
        <ele>385.3</ele>
        <time>2014-10-28T13:56:20.000Z</time>
      </trkpt>
      <trkpt lat="47.52921" lon="6.76998">
        <ele>383.8</ele>
        <time>2014-10-28T13:56:21.000Z</time>
      </trkpt>
      <trkpt lat="47.52922" lon="6.76995">
        <ele>381.5</ele>
        <time>2014-10-28T13:56:22.000Z</time>
      </trkpt>
      <trkpt lat="47.52925" lon="6.76993">
        <ele>380.9</ele>
        <time>2014-10-28T13:56:23.000Z</time>
      </trkpt>
      <trkpt lat="47.52927" lon="6.76989">
        <ele>379.7</ele>
        <time>2014-10-28T13:56:24.000Z</time>
      </trkpt>
      <trkpt lat="47.52929" lon="6.76986">
        <ele>377.9</ele>
        <time>2014-10-28T13:56:25.000Z</time>
      </trkpt>
      <trkpt lat="47.52931" lon="6.76981">
        <ele>378.3</ele>
        <time>2014-10-28T13:56:26.000Z</time>
      </trkpt>
      <trkpt lat="47.52933" lon="6.76977">
        <ele>377.5</ele>
        <time>2014-10-28T13:56:27.000Z</time>
      </trkpt>
      <trkpt lat="47.52935" lon="6.76973">
        <ele>377.3</ele>
        <time>2014-10-28T13:56:28.000Z</time>
      </trkpt>
      <trkpt lat="47.52936" lon="6.76969">
        <ele>376.9</ele>
        <time>2014-10-28T13:56:29.000Z</time>
      </trkpt>
      <trkpt lat="47.52937" lon="6.76965">
        <ele>377</ele>
        <time>2014-10-28T13:56:30.000Z</time>
      </trkpt>
      <trkpt lat="47.52938" lon="6.76962">
        <ele>377</ele>
        <time>2014-10-28T13:56:31.000Z</time>
      </trkpt>
      <trkpt lat="47.5294" lon="6.76956">
        <ele>377.3</ele>
        <time>2014-10-28T13:56:33.000Z</time>
      </trkpt>
      <trkpt lat="47.52941" lon="6.76953">
        <ele>377.4</ele>
        <time>2014-10-28T13:56:34.000Z</time>
      </trkpt>
      <trkpt lat="47.52943" lon="6.76949">
        <ele>377.2</ele>
        <time>2014-10-28T13:56:36.000Z</time>
      </trkpt>
      <trkpt lat="47.52944" lon="6.76947">
        <ele>377.1</ele>
        <time>2014-10-28T13:56:37.000Z</time>
      </trkpt>
      <trkpt lat="47.52943" lon="6.76943">
        <ele>376.7</ele>
        <time>2014-10-28T13:56:39.000Z</time>
      </trkpt>
      <trkpt lat="47.52943" lon="6.7694">
        <ele>376.6</ele>
        <time>2014-10-28T13:56:40.000Z</time>
      </trkpt>
      <trkpt lat="47.52941" lon="6.76935">
        <ele>376.3</ele>
        <time>2014-10-28T13:56:42.000Z</time>
      </trkpt>
      <trkpt lat="47.5294" lon="6.76932">
        <ele>376.4</ele>
        <time>2014-10-28T13:56:43.000Z</time>
      </trkpt>
      <trkpt lat="47.52939" lon="6.76927">
        <ele>377.3</ele>
        <time>2014-10-28T13:56:45.000Z</time>
      </trkpt>
      <trkpt lat="47.52938" lon="6.76924">
        <ele>378.8</ele>
        <time>2014-10-28T13:56:46.000Z</time>
      </trkpt>
      <trkpt lat="47.52939" lon="6.76917">
        <ele>379.6</ele>
        <time>2014-10-28T13:56:48.000Z</time>
      </trkpt>
      <trkpt lat="47.52941" lon="6.76915">
        <ele>378.9</ele>
        <time>2014-10-28T13:56:49.000Z</time>
      </trkpt>
      <trkpt lat="47.52944" lon="6.76914">
        <ele>377.7</ele>
        <time>2014-10-28T13:56:50.000Z</time>
      </trkpt>
      <trkpt lat="47.52946" lon="6.76915">
        <ele>377.4</ele>
        <time>2014-10-28T13:56:51.000Z</time>
      </trkpt>
      <trkpt lat="47.52949" lon="6.76917">
        <ele>377</ele>
        <time>2014-10-28T13:56:52.000Z</time>
      </trkpt>
      <trkpt lat="47.52952" lon="6.76919">
        <ele>377.2</ele>
        <time>2014-10-28T13:56:53.000Z</time>
      </trkpt>
      <trkpt lat="47.52954" lon="6.76921">
        <ele>377</ele>
        <time>2014-10-28T13:56:54.000Z</time>
      </trkpt>
      <trkpt lat="47.52956" lon="6.76922">
        <ele>376.8</ele>
        <time>2014-10-28T13:56:55.000Z</time>
      </trkpt>
      <trkpt lat="47.52958" lon="6.76924">
        <ele>377</ele>
        <time>2014-10-28T13:56:56.000Z</time>
      </trkpt>
      <trkpt lat="47.5296" lon="6.76926">
        <ele>376.8</ele>
        <time>2014-10-28T13:56:57.000Z</time>
      </trkpt>
      <trkpt lat="47.52964" lon="6.76929">
        <ele>377</ele>
        <time>2014-10-28T13:56:59.000Z</time>
      </trkpt>
      <trkpt lat="47.52966" lon="6.7693">
        <ele>375.8</ele>
        <time>2014-10-28T13:57:00.000Z</time>
      </trkpt>
      <trkpt lat="47.52969" lon="6.7693">
        <ele>375.6</ele>
        <time>2014-10-28T13:57:01.000Z</time>
      </trkpt>
      <trkpt lat="47.52972" lon="6.76931">
        <ele>375.4</ele>
        <time>2014-10-28T13:57:02.000Z</time>
      </trkpt>
      <trkpt lat="47.52974" lon="6.76932">
        <ele>375.5</ele>
        <time>2014-10-28T13:57:03.000Z</time>
      </trkpt>
      <trkpt lat="47.52976" lon="6.76934">
        <ele>375.3</ele>
        <time>2014-10-28T13:57:04.000Z</time>
      </trkpt>
      <trkpt lat="47.52979" lon="6.76937">
        <ele>376</ele>
        <time>2014-10-28T13:57:06.000Z</time>
      </trkpt>
      <trkpt lat="47.5298" lon="6.76939">
        <ele>375.8</ele>
        <time>2014-10-28T13:57:07.000Z</time>
      </trkpt>
      <trkpt lat="47.52981" lon="6.76943">
        <ele>371.5</ele>
        <time>2014-10-28T13:57:09.000Z</time>
      </trkpt>
      <trkpt lat="47.52982" lon="6.76945">
        <ele>371.7</ele>
        <time>2014-10-28T13:57:10.000Z</time>
      </trkpt>
      <trkpt lat="47.52986" lon="6.76948">
        <ele>374</ele>
        <time>2014-10-28T13:57:12.000Z</time>
      </trkpt>
      <trkpt lat="47.52988" lon="6.76948">
        <ele>374</ele>
        <time>2014-10-28T13:57:13.000Z</time>
      </trkpt>
      <trkpt lat="47.53004" lon="6.76928">
        <ele>368.9</ele>
        <time>2014-10-28T13:57:22.000Z</time>
      </trkpt>
      <trkpt lat="47.53005" lon="6.76923">
        <ele>368</ele>
        <time>2014-10-28T13:57:24.000Z</time>
      </trkpt>
      <trkpt lat="47.53007" lon="6.76921">
        <ele>371.1</ele>
        <time>2014-10-28T13:57:25.000Z</time>
      </trkpt>
      <trkpt lat="47.53011" lon="6.7692">
        <ele>371.3</ele>
        <time>2014-10-28T13:57:27.000Z</time>
      </trkpt>
      <trkpt lat="47.53014" lon="6.76922">
        <ele>373.6</ele>
        <time>2014-10-28T13:57:28.000Z</time>
      </trkpt>
      <trkpt lat="47.53016" lon="6.76924">
        <ele>374.7</ele>
        <time>2014-10-28T13:57:29.000Z</time>
      </trkpt>
      <trkpt lat="47.53018" lon="6.76927">
        <ele>374.7</ele>
        <time>2014-10-28T13:57:30.000Z</time>
      </trkpt>
      <trkpt lat="47.5302" lon="6.7693">
        <ele>375.6</ele>
        <time>2014-10-28T13:57:31.000Z</time>
      </trkpt>
      <trkpt lat="47.5302" lon="6.76933">
        <ele>375.3</ele>
        <time>2014-10-28T13:57:32.000Z</time>
      </trkpt>
      <trkpt lat="47.53019" lon="6.76939">
        <ele>374.8</ele>
        <time>2014-10-28T13:57:34.000Z</time>
      </trkpt>
      <trkpt lat="47.53018" lon="6.76941">
        <ele>375.6</ele>
        <time>2014-10-28T13:57:35.000Z</time>
      </trkpt>
      <trkpt lat="47.53016" lon="6.76944">
        <ele>376.4</ele>
        <time>2014-10-28T13:57:36.000Z</time>
      </trkpt>
      <trkpt lat="47.53015" lon="6.76947">
        <ele>374.9</ele>
        <time>2014-10-28T13:57:37.000Z</time>
      </trkpt>
      <trkpt lat="47.53013" lon="6.76949">
        <ele>373.8</ele>
        <time>2014-10-28T13:57:38.000Z</time>
      </trkpt>
      <trkpt lat="47.53011" lon="6.76952">
        <ele>374.2</ele>
        <time>2014-10-28T13:57:39.000Z</time>
      </trkpt>
      <trkpt lat="47.53009" lon="6.76957">
        <ele>374.8</ele>
        <time>2014-10-28T13:57:41.000Z</time>
      </trkpt>
      <trkpt lat="47.53008" lon="6.76959">
        <ele>374.8</ele>
        <time>2014-10-28T13:57:42.000Z</time>
      </trkpt>
      <trkpt lat="47.53007" lon="6.76964">
        <ele>375</ele>
        <time>2014-10-28T13:57:44.000Z</time>
      </trkpt>
      <trkpt lat="47.53007" lon="6.76966">
        <ele>374.6</ele>
        <time>2014-10-28T13:57:45.000Z</time>
      </trkpt>
      <trkpt lat="47.53007" lon="6.76972">
        <ele>374.7</ele>
        <time>2014-10-28T13:57:47.000Z</time>
      </trkpt>
      <trkpt lat="47.53006" lon="6.76974">
        <ele>374.8</ele>
        <time>2014-10-28T13:57:48.000Z</time>
      </trkpt>
      <trkpt lat="47.53005" lon="6.76979">
        <ele>375.1</ele>
        <time>2014-10-28T13:57:50.000Z</time>
      </trkpt>
      <trkpt lat="47.53003" lon="6.76981">
        <ele>374.7</ele>
        <time>2014-10-28T13:57:51.000Z</time>
      </trkpt>
      <trkpt lat="47.53" lon="6.76985">
        <ele>374.8</ele>
        <time>2014-10-28T13:57:53.000Z</time>
      </trkpt>
      <trkpt lat="47.52998" lon="6.76986">
        <ele>375</ele>
        <time>2014-10-28T13:57:54.000Z</time>
      </trkpt>
      <trkpt lat="47.52996" lon="6.76988">
        <ele>375</ele>
        <time>2014-10-28T13:57:55.000Z</time>
      </trkpt>
      <trkpt lat="47.52994" lon="6.76989">
        <ele>375.6</ele>
        <time>2014-10-28T13:57:56.000Z</time>
      </trkpt>
      <trkpt lat="47.5299" lon="6.76992">
        <ele>377.2</ele>
        <time>2014-10-28T13:57:58.000Z</time>
      </trkpt>
      <trkpt lat="47.52989" lon="6.76994">
        <ele>378.3</ele>
        <time>2014-10-28T13:57:59.000Z</time>
      </trkpt>
      <trkpt lat="47.52987" lon="6.76998">
        <ele>380.1</ele>
        <time>2014-10-28T13:58:01.000Z</time>
      </trkpt>
      <trkpt lat="47.52987" lon="6.77">
        <ele>380.4</ele>
        <time>2014-10-28T13:58:02.000Z</time>
      </trkpt>
      <trkpt lat="47.52988" lon="6.77005">
        <ele>378.6</ele>
        <time>2014-10-28T13:58:05.000Z</time>
      </trkpt>
      <trkpt lat="47.5299" lon="6.77006">
        <ele>377.8</ele>
        <time>2014-10-28T13:58:06.000Z</time>
      </trkpt>
      <trkpt lat="47.52994" lon="6.77007">
        <ele>377.1</ele>
        <time>2014-10-28T13:58:08.000Z</time>
      </trkpt>
      <trkpt lat="47.52996" lon="6.77007">
        <ele>376.4</ele>
        <time>2014-10-28T13:58:09.000Z</time>
      </trkpt>
      <trkpt lat="47.53" lon="6.77007">
        <ele>376.3</ele>
        <time>2014-10-28T13:58:11.000Z</time>
      </trkpt>
      <trkpt lat="47.53002" lon="6.77007">
        <ele>375.8</ele>
        <time>2014-10-28T13:58:12.000Z</time>
      </trkpt>
      <trkpt lat="47.53005" lon="6.77008">
        <ele>377.1</ele>
        <time>2014-10-28T13:58:14.000Z</time>
      </trkpt>
      <trkpt lat="47.53011" lon="6.77008">
        <ele>378.5</ele>
        <time>2014-10-28T13:58:17.000Z</time>
      </trkpt>
      <trkpt lat="47.53014" lon="6.77006">
        <ele>379.4</ele>
        <time>2014-10-28T13:58:19.000Z</time>
      </trkpt>
      <trkpt lat="47.53015" lon="6.77005">
        <ele>380.5</ele>
        <time>2014-10-28T13:58:20.000Z</time>
      </trkpt>
      <trkpt lat="47.53017" lon="6.77001">
        <ele>384.2</ele>
        <time>2014-10-28T13:58:23.000Z</time>
      </trkpt>
      <trkpt lat="47.53017" lon="6.76999">
        <ele>385.6</ele>
        <time>2014-10-28T13:58:24.000Z</time>
      </trkpt>
      <trkpt lat="47.53019" lon="6.76995">
        <ele>385.8</ele>
        <time>2014-10-28T13:58:26.000Z</time>
      </trkpt>
      <trkpt lat="47.5302" lon="6.76993">
        <ele>386.9</ele>
        <time>2014-10-28T13:58:27.000Z</time>
      </trkpt>
      <trkpt lat="47.53019" lon="6.76987">
        <ele>388.3</ele>
        <time>2014-10-28T13:58:30.000Z</time>
      </trkpt>
      <trkpt lat="47.53018" lon="6.76985">
        <ele>387.7</ele>
        <time>2014-10-28T13:58:31.000Z</time>
      </trkpt>
      <trkpt lat="47.53017" lon="6.76982">
        <ele>384.5</ele>
        <time>2014-10-28T13:58:32.000Z</time>
      </trkpt>
      <trkpt lat="47.53017" lon="6.76978">
        <ele>383.9</ele>
        <time>2014-10-28T13:58:33.000Z</time>
      </trkpt>
      <trkpt lat="47.53017" lon="6.76974">
        <ele>381.6</ele>
        <time>2014-10-28T13:58:34.000Z</time>
      </trkpt>
      <trkpt lat="47.53017" lon="6.76971">
        <ele>382.7</ele>
        <time>2014-10-28T13:58:35.000Z</time>
      </trkpt>
      <trkpt lat="47.53017" lon="6.76964">
        <ele>384.3</ele>
        <time>2014-10-28T13:58:37.000Z</time>
      </trkpt>
      <trkpt lat="47.53017" lon="6.76962">
        <ele>382.1</ele>
        <time>2014-10-28T13:58:38.000Z</time>
      </trkpt>
      <trkpt lat="47.53019" lon="6.76959">
        <ele>380.6</ele>
        <time>2014-10-28T13:58:40.000Z</time>
      </trkpt>
      <trkpt lat="47.5302" lon="6.76956">
        <ele>380.2</ele>
        <time>2014-10-28T13:58:41.000Z</time>
      </trkpt>
      <trkpt lat="47.53021" lon="6.76951">
        <ele>379.1</ele>
        <time>2014-10-28T13:58:43.000Z</time>
      </trkpt>
      <trkpt lat="47.53021" lon="6.76948">
        <ele>382</ele>
        <time>2014-10-28T13:58:44.000Z</time>
      </trkpt>
      <trkpt lat="47.53022" lon="6.76942">
        <ele>383</ele>
        <time>2014-10-28T13:58:46.000Z</time>
      </trkpt>
      <trkpt lat="47.53023" lon="6.7694">
        <ele>382.2</ele>
        <time>2014-10-28T13:58:47.000Z</time>
      </trkpt>
      <trkpt lat="47.53024" lon="6.76935">
        <ele>381.3</ele>
        <time>2014-10-28T13:58:49.000Z</time>
      </trkpt>
      <trkpt lat="47.53025" lon="6.76932">
        <ele>381.4</ele>
        <time>2014-10-28T13:58:50.000Z</time>
      </trkpt>
      <trkpt lat="47.53026" lon="6.76929">
        <ele>380.5</ele>
        <time>2014-10-28T13:58:51.000Z</time>
      </trkpt>
      <trkpt lat="47.53027" lon="6.76926">
        <ele>380.3</ele>
        <time>2014-10-28T13:58:52.000Z</time>
      </trkpt>
      <trkpt lat="47.53029" lon="6.7692">
        <ele>379.9</ele>
        <time>2014-10-28T13:58:54.000Z</time>
      </trkpt>
      <trkpt lat="47.5303" lon="6.76918">
        <ele>379.1</ele>
        <time>2014-10-28T13:58:55.000Z</time>
      </trkpt>
      <trkpt lat="47.53033" lon="6.76913">
        <ele>378</ele>
        <time>2014-10-28T13:58:57.000Z</time>
      </trkpt>
      <trkpt lat="47.53034" lon="6.76911">
        <ele>378</ele>
        <time>2014-10-28T13:58:58.000Z</time>
      </trkpt>
      <trkpt lat="47.53035" lon="6.76906">
        <ele>375.8</ele>
        <time>2014-10-28T13:59:00.000Z</time>
      </trkpt>
      <trkpt lat="47.53036" lon="6.76904">
        <ele>375.9</ele>
        <time>2014-10-28T13:59:01.000Z</time>
      </trkpt>
      <trkpt lat="47.53039" lon="6.76898">
        <ele>379.3</ele>
        <time>2014-10-28T13:59:05.000Z</time>
      </trkpt>
      <trkpt lat="47.5304" lon="6.76897">
        <ele>380.4</ele>
        <time>2014-10-28T13:59:06.000Z</time>
      </trkpt>
      <trkpt lat="47.53043" lon="6.76894">
        <ele>380.9</ele>
        <time>2014-10-28T13:59:08.000Z</time>
      </trkpt>
      <trkpt lat="47.53044" lon="6.76893">
        <ele>380.8</ele>
        <time>2014-10-28T13:59:09.000Z</time>
      </trkpt>
      <trkpt lat="47.53046" lon="6.76889">
        <ele>380.9</ele>
        <time>2014-10-28T13:59:11.000Z</time>
      </trkpt>
      <trkpt lat="47.53047" lon="6.76887">
        <ele>381.7</ele>
        <time>2014-10-28T13:59:12.000Z</time>
      </trkpt>
      <trkpt lat="47.53049" lon="6.76885">
        <ele>382</ele>
        <time>2014-10-28T13:59:13.000Z</time>
      </trkpt>
      <trkpt lat="47.53051" lon="6.76884">
        <ele>382.2</ele>
        <time>2014-10-28T13:59:14.000Z</time>
      </trkpt>
      <trkpt lat="47.53053" lon="6.76882">
        <ele>381.9</ele>
        <time>2014-10-28T13:59:15.000Z</time>
      </trkpt>
      <trkpt lat="47.53057" lon="6.76878">
        <ele>382.7</ele>
        <time>2014-10-28T13:59:18.000Z</time>
      </trkpt>
      <trkpt lat="47.5306" lon="6.76874">
        <ele>383.5</ele>
        <time>2014-10-28T13:59:21.000Z</time>
      </trkpt>
      <trkpt lat="47.53062" lon="6.76873">
        <ele>382.8</ele>
        <time>2014-10-28T13:59:22.000Z</time>
      </trkpt>
      <trkpt lat="47.53066" lon="6.76869">
        <ele>381.7</ele>
        <time>2014-10-28T13:59:24.000Z</time>
      </trkpt>
      <trkpt lat="47.53068" lon="6.76867">
        <ele>380.9</ele>
        <time>2014-10-28T13:59:25.000Z</time>
      </trkpt>
      <trkpt lat="47.53071" lon="6.76866">
        <ele>380</ele>
        <time>2014-10-28T13:59:26.000Z</time>
      </trkpt>
      <trkpt lat="47.53074" lon="6.76864">
        <ele>380</ele>
        <time>2014-10-28T13:59:27.000Z</time>
      </trkpt>
      <trkpt lat="47.53077" lon="6.76862">
        <ele>379.9</ele>
        <time>2014-10-28T13:59:28.000Z</time>
      </trkpt>
      <trkpt lat="47.5308" lon="6.7686">
        <ele>379.7</ele>
        <time>2014-10-28T13:59:29.000Z</time>
      </trkpt>
      <trkpt lat="47.53083" lon="6.76858">
        <ele>379.1</ele>
        <time>2014-10-28T13:59:30.000Z</time>
      </trkpt>
      <trkpt lat="47.53086" lon="6.76855">
        <ele>382.7</ele>
        <time>2014-10-28T13:59:31.000Z</time>
      </trkpt>
      <trkpt lat="47.53089" lon="6.76852">
        <ele>383.5</ele>
        <time>2014-10-28T13:59:32.000Z</time>
      </trkpt>
      <trkpt lat="47.53092" lon="6.76849">
        <ele>385.7</ele>
        <time>2014-10-28T13:59:33.000Z</time>
      </trkpt>
      <trkpt lat="47.53095" lon="6.76846">
        <ele>386.4</ele>
        <time>2014-10-28T13:59:34.000Z</time>
      </trkpt>
      <trkpt lat="47.53098" lon="6.76844">
        <ele>386.9</ele>
        <time>2014-10-28T13:59:35.000Z</time>
      </trkpt>
      <trkpt lat="47.531" lon="6.76842">
        <ele>387.3</ele>
        <time>2014-10-28T13:59:36.000Z</time>
      </trkpt>
      <trkpt lat="47.53103" lon="6.76841">
        <ele>387.1</ele>
        <time>2014-10-28T13:59:37.000Z</time>
      </trkpt>
      <trkpt lat="47.53106" lon="6.76841">
        <ele>387</ele>
        <time>2014-10-28T13:59:38.000Z</time>
      </trkpt>
      <trkpt lat="47.53108" lon="6.76841">
        <ele>386.6</ele>
        <time>2014-10-28T13:59:39.000Z</time>
      </trkpt>
      <trkpt lat="47.5311" lon="6.76841">
        <ele>386.6</ele>
        <time>2014-10-28T13:59:40.000Z</time>
      </trkpt>
      <trkpt lat="47.53113" lon="6.76843">
        <ele>383.8</ele>
        <time>2014-10-28T13:59:41.000Z</time>
      </trkpt>
      <trkpt lat="47.53115" lon="6.76845">
        <ele>382.6</ele>
        <time>2014-10-28T13:59:42.000Z</time>
      </trkpt>
      <trkpt lat="47.53117" lon="6.76847">
        <ele>382</ele>
        <time>2014-10-28T13:59:43.000Z</time>
      </trkpt>
      <trkpt lat="47.53119" lon="6.76849">
        <ele>381.2</ele>
        <time>2014-10-28T13:59:44.000Z</time>
      </trkpt>
      <trkpt lat="47.53121" lon="6.76852">
        <ele>380.2</ele>
        <time>2014-10-28T13:59:45.000Z</time>
      </trkpt>
      <trkpt lat="47.53123" lon="6.76855">
        <ele>379.8</ele>
        <time>2014-10-28T13:59:46.000Z</time>
      </trkpt>
      <trkpt lat="47.53124" lon="6.76858">
        <ele>379.2</ele>
        <time>2014-10-28T13:59:47.000Z</time>
      </trkpt>
      <trkpt lat="47.53125" lon="6.76861">
        <ele>378.1</ele>
        <time>2014-10-28T13:59:48.000Z</time>
      </trkpt>
      <trkpt lat="47.53126" lon="6.76865">
        <ele>377.9</ele>
        <time>2014-10-28T13:59:49.000Z</time>
      </trkpt>
      <trkpt lat="47.53128" lon="6.7687">
        <ele>379.2</ele>
        <time>2014-10-28T13:59:51.000Z</time>
      </trkpt>
      <trkpt lat="47.53129" lon="6.76873">
        <ele>379.6</ele>
        <time>2014-10-28T13:59:52.000Z</time>
      </trkpt>
      <trkpt lat="47.5313" lon="6.76877">
        <ele>379.8</ele>
        <time>2014-10-28T13:59:54.000Z</time>
      </trkpt>
      <trkpt lat="47.5313" lon="6.76879">
        <ele>379.5</ele>
        <time>2014-10-28T13:59:55.000Z</time>
      </trkpt>
      <trkpt lat="47.53131" lon="6.76885">
        <ele>378.8</ele>
        <time>2014-10-28T13:59:57.000Z</time>
      </trkpt>
      <trkpt lat="47.53132" lon="6.76889">
        <ele>378.7</ele>
        <time>2014-10-28T13:59:58.000Z</time>
      </trkpt>
      <trkpt lat="47.53132" lon="6.76893">
        <ele>379.3</ele>
        <time>2014-10-28T13:59:59.000Z</time>
      </trkpt>
      <trkpt lat="47.53133" lon="6.76897">
        <ele>380.9</ele>
        <time>2014-10-28T14:00:00.000Z</time>
      </trkpt>
      <trkpt lat="47.53134" lon="6.76901">
        <ele>381.1</ele>
        <time>2014-10-28T14:00:01.000Z</time>
      </trkpt>
      <trkpt lat="47.53135" lon="6.76905">
        <ele>382.3</ele>
        <time>2014-10-28T14:00:02.000Z</time>
      </trkpt>
      <trkpt lat="47.53136" lon="6.76911">
        <ele>382.3</ele>
        <time>2014-10-28T14:00:04.000Z</time>
      </trkpt>
      <trkpt lat="47.53136" lon="6.76913">
        <ele>383.3</ele>
        <time>2014-10-28T14:00:05.000Z</time>
      </trkpt>
      <trkpt lat="47.53137" lon="6.76918">
        <ele>383.2</ele>
        <time>2014-10-28T14:00:07.000Z</time>
      </trkpt>
      <trkpt lat="47.53137" lon="6.76921">
        <ele>383.6</ele>
        <time>2014-10-28T14:00:08.000Z</time>
      </trkpt>
      <trkpt lat="47.53137" lon="6.76927">
        <ele>383.2</ele>
        <time>2014-10-28T14:00:10.000Z</time>
      </trkpt>
      <trkpt lat="47.53137" lon="6.7693">
        <ele>383.4</ele>
        <time>2014-10-28T14:00:11.000Z</time>
      </trkpt>
      <trkpt lat="47.53138" lon="6.76936">
        <ele>382.4</ele>
        <time>2014-10-28T14:00:14.000Z</time>
      </trkpt>
      <trkpt lat="47.5314" lon="6.76937">
        <ele>381.3</ele>
        <time>2014-10-28T14:00:17.000Z</time>
      </trkpt>
      <trkpt lat="47.53142" lon="6.76934">
        <ele>382.7</ele>
        <time>2014-10-28T14:00:20.000Z</time>
      </trkpt>
      <trkpt lat="47.53143" lon="6.76931">
        <ele>383.2</ele>
        <time>2014-10-28T14:00:21.000Z</time>
      </trkpt>
      <trkpt lat="47.53143" lon="6.76925">
        <ele>384.4</ele>
        <time>2014-10-28T14:00:23.000Z</time>
      </trkpt>
      <trkpt lat="47.53144" lon="6.76922">
        <ele>384.7</ele>
        <time>2014-10-28T14:00:24.000Z</time>
      </trkpt>
      <trkpt lat="47.53145" lon="6.76919">
        <ele>384.9</ele>
        <time>2014-10-28T14:00:25.000Z</time>
      </trkpt>
      <trkpt lat="47.53147" lon="6.76916">
        <ele>385.1</ele>
        <time>2014-10-28T14:00:26.000Z</time>
      </trkpt>
      <trkpt lat="47.53148" lon="6.76913">
        <ele>385.3</ele>
        <time>2014-10-28T14:00:27.000Z</time>
      </trkpt>
      <trkpt lat="47.53149" lon="6.7691">
        <ele>384.9</ele>
        <time>2014-10-28T14:00:28.000Z</time>
      </trkpt>
      <trkpt lat="47.5315" lon="6.76905">
        <ele>384.8</ele>
        <time>2014-10-28T14:00:30.000Z</time>
      </trkpt>
      <trkpt lat="47.53151" lon="6.76903">
        <ele>386.2</ele>
        <time>2014-10-28T14:00:31.000Z</time>
      </trkpt>
      <trkpt lat="47.53153" lon="6.76901">
        <ele>386.7</ele>
        <time>2014-10-28T14:00:32.000Z</time>
      </trkpt>
      <trkpt lat="47.53155" lon="6.76898">
        <ele>386.5</ele>
        <time>2014-10-28T14:00:33.000Z</time>
      </trkpt>
      <trkpt lat="47.53157" lon="6.76896">
        <ele>386.4</ele>
        <time>2014-10-28T14:00:34.000Z</time>
      </trkpt>
      <trkpt lat="47.53159" lon="6.76893">
        <ele>386.3</ele>
        <time>2014-10-28T14:00:35.000Z</time>
      </trkpt>
      <trkpt lat="47.53162" lon="6.7689">
        <ele>385.8</ele>
        <time>2014-10-28T14:00:37.000Z</time>
      </trkpt>
      <trkpt lat="47.53163" lon="6.76889">
        <ele>385.2</ele>
        <time>2014-10-28T14:00:38.000Z</time>
      </trkpt>
      <trkpt lat="47.53164" lon="6.76884">
        <ele>384.2</ele>
        <time>2014-10-28T14:00:41.000Z</time>
      </trkpt>
      <trkpt lat="47.53163" lon="6.76882">
        <ele>383.7</ele>
        <time>2014-10-28T14:00:42.000Z</time>
      </trkpt>
      <trkpt lat="47.5316" lon="6.76878">
        <ele>384.3</ele>
        <time>2014-10-28T14:00:45.000Z</time>
      </trkpt>
      <trkpt lat="47.53159" lon="6.76877">
        <ele>383.9</ele>
        <time>2014-10-28T14:00:46.000Z</time>
      </trkpt>
      <trkpt lat="47.53157" lon="6.76873">
        <ele>387.6</ele>
        <time>2014-10-28T14:00:48.000Z</time>
      </trkpt>
      <trkpt lat="47.53156" lon="6.76871">
        <ele>388.8</ele>
        <time>2014-10-28T14:00:49.000Z</time>
      </trkpt>
      <trkpt lat="47.53153" lon="6.76866">
        <ele>387</ele>
        <time>2014-10-28T14:00:51.000Z</time>
      </trkpt>
      <trkpt lat="47.53152" lon="6.76864">
        <ele>386.4</ele>
        <time>2014-10-28T14:00:52.000Z</time>
      </trkpt>
      <trkpt lat="47.53149" lon="6.76861">
        <ele>384.5</ele>
        <time>2014-10-28T14:00:54.000Z</time>
      </trkpt>
      <trkpt lat="47.53148" lon="6.7686">
        <ele>384.3</ele>
        <time>2014-10-28T14:00:55.000Z</time>
      </trkpt>
      <trkpt lat="47.53146" lon="6.76855">
        <ele>385</ele>
        <time>2014-10-28T14:00:57.000Z</time>
      </trkpt>
      <trkpt lat="47.53145" lon="6.76854">
        <ele>385.5</ele>
        <time>2014-10-28T14:00:58.000Z</time>
      </trkpt>
      <trkpt lat="47.53144" lon="6.76847">
        <ele>386.7</ele>
        <time>2014-10-28T14:01:00.000Z</time>
      </trkpt>
      <trkpt lat="47.53144" lon="6.76844">
        <ele>385.8</ele>
        <time>2014-10-28T14:01:01.000Z</time>
      </trkpt>
      <trkpt lat="47.53146" lon="6.76842">
        <ele>386.2</ele>
        <time>2014-10-28T14:01:02.000Z</time>
      </trkpt>
      <trkpt lat="47.53148" lon="6.7684">
        <ele>385.7</ele>
        <time>2014-10-28T14:01:03.000Z</time>
      </trkpt>
      <trkpt lat="47.5315" lon="6.7684">
        <ele>385</ele>
        <time>2014-10-28T14:01:04.000Z</time>
      </trkpt>
      <trkpt lat="47.53153" lon="6.76841">
        <ele>384.4</ele>
        <time>2014-10-28T14:01:05.000Z</time>
      </trkpt>
      <trkpt lat="47.53157" lon="6.76843">
        <ele>383.8</ele>
        <time>2014-10-28T14:01:07.000Z</time>
      </trkpt>
      <trkpt lat="47.53158" lon="6.76844">
        <ele>384</ele>
        <time>2014-10-28T14:01:08.000Z</time>
      </trkpt>
      <trkpt lat="47.53161" lon="6.76845">
        <ele>382.1</ele>
        <time>2014-10-28T14:01:10.000Z</time>
      </trkpt>
      <trkpt lat="47.53163" lon="6.76847">
        <ele>381.4</ele>
        <time>2014-10-28T14:01:11.000Z</time>
      </trkpt>
      <trkpt lat="47.53167" lon="6.76849">
        <ele>380.8</ele>
        <time>2014-10-28T14:01:13.000Z</time>
      </trkpt>
      <trkpt lat="47.53179" lon="6.76859">
        <ele>376.9</ele>
        <time>2014-10-28T14:01:22.000Z</time>
      </trkpt>
      <trkpt lat="47.53182" lon="6.76859">
        <ele>378.9</ele>
        <time>2014-10-28T14:01:24.000Z</time>
      </trkpt>
      <trkpt lat="47.53184" lon="6.76857">
        <ele>379.5</ele>
        <time>2014-10-28T14:01:25.000Z</time>
      </trkpt>
      <trkpt lat="47.53187" lon="6.76854">
        <ele>379.9</ele>
        <time>2014-10-28T14:01:27.000Z</time>
      </trkpt>
      <trkpt lat="47.53188" lon="6.76852">
        <ele>379.7</ele>
        <time>2014-10-28T14:01:28.000Z</time>
      </trkpt>
      <trkpt lat="47.53191" lon="6.76848">
        <ele>380.5</ele>
        <time>2014-10-28T14:01:30.000Z</time>
      </trkpt>
      <trkpt lat="47.53192" lon="6.76846">
        <ele>380.8</ele>
        <time>2014-10-28T14:01:31.000Z</time>
      </trkpt>
      <trkpt lat="47.53195" lon="6.76842">
        <ele>379.5</ele>
        <time>2014-10-28T14:01:33.000Z</time>
      </trkpt>
      <trkpt lat="47.53197" lon="6.7684">
        <ele>379.3</ele>
        <time>2014-10-28T14:01:34.000Z</time>
      </trkpt>
      <trkpt lat="47.532" lon="6.76836">
        <ele>379.3</ele>
        <time>2014-10-28T14:01:36.000Z</time>
      </trkpt>
      <trkpt lat="47.53202" lon="6.76834">
        <ele>379.1</ele>
        <time>2014-10-28T14:01:37.000Z</time>
      </trkpt>
      <trkpt lat="47.53204" lon="6.76829">
        <ele>379.7</ele>
        <time>2014-10-28T14:01:39.000Z</time>
      </trkpt>
      <trkpt lat="47.53205" lon="6.76827">
        <ele>379.7</ele>
        <time>2014-10-28T14:01:40.000Z</time>
      </trkpt>
      <trkpt lat="47.53205" lon="6.76822">
        <ele>379.6</ele>
        <time>2014-10-28T14:01:42.000Z</time>
      </trkpt>
      <trkpt lat="47.53204" lon="6.7682">
        <ele>379.3</ele>
        <time>2014-10-28T14:01:43.000Z</time>
      </trkpt>
      <trkpt lat="47.53201" lon="6.76816">
        <ele>378.9</ele>
        <time>2014-10-28T14:01:46.000Z</time>
      </trkpt>
      <trkpt lat="47.53199" lon="6.76816">
        <ele>379.4</ele>
        <time>2014-10-28T14:01:47.000Z</time>
      </trkpt>
      <trkpt lat="47.53196" lon="6.76816">
        <ele>379.4</ele>
        <time>2014-10-28T14:01:49.000Z</time>
      </trkpt>
      <trkpt lat="47.53195" lon="6.76815">
        <ele>379.3</ele>
        <time>2014-10-28T14:01:50.000Z</time>
      </trkpt>
      <trkpt lat="47.53191" lon="6.76812">
        <ele>380.6</ele>
        <time>2014-10-28T14:01:53.000Z</time>
      </trkpt>
      <trkpt lat="47.5319" lon="6.76812">
        <ele>380.7</ele>
        <time>2014-10-28T14:01:54.000Z</time>
      </trkpt>
      <trkpt lat="47.53187" lon="6.76809">
        <ele>381.8</ele>
        <time>2014-10-28T14:01:56.000Z</time>
      </trkpt>
      <trkpt lat="47.53185" lon="6.76808">
        <ele>382.1</ele>
        <time>2014-10-28T14:01:57.000Z</time>
      </trkpt>
      <trkpt lat="47.53183" lon="6.76807">
        <ele>382.1</ele>
        <time>2014-10-28T14:01:58.000Z</time>
      </trkpt>
      <trkpt lat="47.53181" lon="6.76805">
        <ele>381.6</ele>
        <time>2014-10-28T14:01:59.000Z</time>
      </trkpt>
      <trkpt lat="47.53179" lon="6.76802">
        <ele>379.8</ele>
        <time>2014-10-28T14:02:00.000Z</time>
      </trkpt>
      <trkpt lat="47.53179" lon="6.76798">
        <ele>378.7</ele>
        <time>2014-10-28T14:02:01.000Z</time>
      </trkpt>
      <trkpt lat="47.53179" lon="6.76794">
        <ele>378.6</ele>
        <time>2014-10-28T14:02:02.000Z</time>
      </trkpt>
      <trkpt lat="47.53179" lon="6.7679">
        <ele>378.8</ele>
        <time>2014-10-28T14:02:03.000Z</time>
      </trkpt>
      <trkpt lat="47.53179" lon="6.76787">
        <ele>377.1</ele>
        <time>2014-10-28T14:02:04.000Z</time>
      </trkpt>
      <trkpt lat="47.53179" lon="6.76783">
        <ele>378.3</ele>
        <time>2014-10-28T14:02:05.000Z</time>
      </trkpt>
      <trkpt lat="47.53179" lon="6.76779">
        <ele>379.1</ele>
        <time>2014-10-28T14:02:06.000Z</time>
      </trkpt>
      <trkpt lat="47.5318" lon="6.76776">
        <ele>379.5</ele>
        <time>2014-10-28T14:02:07.000Z</time>
      </trkpt>
      <trkpt lat="47.53179" lon="6.76772">
        <ele>378.5</ele>
        <time>2014-10-28T14:02:08.000Z</time>
      </trkpt>
      <trkpt lat="47.53179" lon="6.76768">
        <ele>379.8</ele>
        <time>2014-10-28T14:02:09.000Z</time>
      </trkpt>
      <trkpt lat="47.53178" lon="6.76763">
        <ele>380.8</ele>
        <time>2014-10-28T14:02:10.000Z</time>
      </trkpt>
      <trkpt lat="47.53177" lon="6.76759">
        <ele>380.8</ele>
        <time>2014-10-28T14:02:11.000Z</time>
      </trkpt>
      <trkpt lat="47.53176" lon="6.76756">
        <ele>380.4</ele>
        <time>2014-10-28T14:02:12.000Z</time>
      </trkpt>
      <trkpt lat="47.53175" lon="6.76752">
        <ele>380.2</ele>
        <time>2014-10-28T14:02:13.000Z</time>
      </trkpt>
      <trkpt lat="47.53174" lon="6.76749">
        <ele>380.2</ele>
        <time>2014-10-28T14:02:14.000Z</time>
      </trkpt>
      <trkpt lat="47.53167" lon="6.76736">
        <ele>376.8</ele>
        <time>2014-10-28T14:02:22.000Z</time>
      </trkpt>
      <trkpt lat="47.53164" lon="6.76737">
        <ele>374.6</ele>
        <time>2014-10-28T14:02:25.000Z</time>
      </trkpt>
      <trkpt lat="47.53162" lon="6.76737">
        <ele>375.2</ele>
        <time>2014-10-28T14:02:26.000Z</time>
      </trkpt>
      <trkpt lat="47.53159" lon="6.76738">
        <ele>376</ele>
        <time>2014-10-28T14:02:28.000Z</time>
      </trkpt>
      <trkpt lat="47.53158" lon="6.7674">
        <ele>376.5</ele>
        <time>2014-10-28T14:02:29.000Z</time>
      </trkpt>
      <trkpt lat="47.53154" lon="6.76741">
        <ele>381.2</ele>
        <time>2014-10-28T14:02:32.000Z</time>
      </trkpt>
      <trkpt lat="47.53152" lon="6.7674">
        <ele>381.3</ele>
        <time>2014-10-28T14:02:33.000Z</time>
      </trkpt>
      <trkpt lat="47.53148" lon="6.76739">
        <ele>382.2</ele>
        <time>2014-10-28T14:02:36.000Z</time>
      </trkpt>
      <trkpt lat="47.53147" lon="6.76738">
        <ele>383</ele>
        <time>2014-10-28T14:02:37.000Z</time>
      </trkpt>
      <trkpt lat="47.53143" lon="6.76735">
        <ele>386</ele>
        <time>2014-10-28T14:02:39.000Z</time>
      </trkpt>
      <trkpt lat="47.53141" lon="6.76734">
        <ele>388</ele>
        <time>2014-10-28T14:02:40.000Z</time>
      </trkpt>
      <trkpt lat="47.53137" lon="6.76733">
        <ele>389</ele>
        <time>2014-10-28T14:02:42.000Z</time>
      </trkpt>
      <trkpt lat="47.53135" lon="6.76732">
        <ele>388.8</ele>
        <time>2014-10-28T14:02:43.000Z</time>
      </trkpt>
      <trkpt lat="47.53133" lon="6.76732">
        <ele>387.7</ele>
        <time>2014-10-28T14:02:44.000Z</time>
      </trkpt>
      <trkpt lat="47.5313" lon="6.76732">
        <ele>386.1</ele>
        <time>2014-10-28T14:02:45.000Z</time>
      </trkpt>
      <trkpt lat="47.53127" lon="6.76733">
        <ele>385.6</ele>
        <time>2014-10-28T14:02:46.000Z</time>
      </trkpt>
      <trkpt lat="47.53124" lon="6.76733">
        <ele>384.7</ele>
        <time>2014-10-28T14:02:47.000Z</time>
      </trkpt>
      <trkpt lat="47.53121" lon="6.76734">
        <ele>382.2</ele>
        <time>2014-10-28T14:02:48.000Z</time>
      </trkpt>
      <trkpt lat="47.53118" lon="6.76735">
        <ele>381.8</ele>
        <time>2014-10-28T14:02:49.000Z</time>
      </trkpt>
      <trkpt lat="47.53116" lon="6.76735">
        <ele>382.4</ele>
        <time>2014-10-28T14:02:50.000Z</time>
      </trkpt>
      <trkpt lat="47.53114" lon="6.76737">
        <ele>381.8</ele>
        <time>2014-10-28T14:02:51.000Z</time>
      </trkpt>
      <trkpt lat="47.5311" lon="6.76737">
        <ele>383.7</ele>
        <time>2014-10-28T14:02:53.000Z</time>
      </trkpt>
      <trkpt lat="47.53108" lon="6.76737">
        <ele>383.5</ele>
        <time>2014-10-28T14:02:54.000Z</time>
      </trkpt>
      <trkpt lat="47.53104" lon="6.76737">
        <ele>382.4</ele>
        <time>2014-10-28T14:02:57.000Z</time>
      </trkpt>
      <trkpt lat="47.53103" lon="6.76738">
        <ele>382.2</ele>
        <time>2014-10-28T14:02:58.000Z</time>
      </trkpt>
      <trkpt lat="47.53101" lon="6.76744">
        <ele>383</ele>
        <time>2014-10-28T14:03:01.000Z</time>
      </trkpt>
      <trkpt lat="47.531" lon="6.76746">
        <ele>383.6</ele>
        <time>2014-10-28T14:03:02.000Z</time>
      </trkpt>
      <trkpt lat="47.531" lon="6.7675">
        <ele>384</ele>
        <time>2014-10-28T14:03:04.000Z</time>
      </trkpt>
      <trkpt lat="47.53099" lon="6.76753">
        <ele>383</ele>
        <time>2014-10-28T14:03:05.000Z</time>
      </trkpt>
      <trkpt lat="47.53097" lon="6.76758">
        <ele>384</ele>
        <time>2014-10-28T14:03:07.000Z</time>
      </trkpt>
      <trkpt lat="47.53097" lon="6.76761">
        <ele>384.3</ele>
        <time>2014-10-28T14:03:08.000Z</time>
      </trkpt>
      <trkpt lat="47.53095" lon="6.76766">
        <ele>384.6</ele>
        <time>2014-10-28T14:03:10.000Z</time>
      </trkpt>
      <trkpt lat="47.53094" lon="6.76769">
        <ele>384.5</ele>
        <time>2014-10-28T14:03:11.000Z</time>
      </trkpt>
      <trkpt lat="47.53092" lon="6.76771">
        <ele>384.9</ele>
        <time>2014-10-28T14:03:12.000Z</time>
      </trkpt>
      <trkpt lat="47.53091" lon="6.76773">
        <ele>384.9</ele>
        <time>2014-10-28T14:03:13.000Z</time>
      </trkpt>
      <trkpt lat="47.53076" lon="6.76789">
        <ele>384.1</ele>
        <time>2014-10-28T14:03:22.000Z</time>
      </trkpt>
      <trkpt lat="47.53074" lon="6.7679">
        <ele>382.5</ele>
        <time>2014-10-28T14:03:23.000Z</time>
      </trkpt>
      <trkpt lat="47.53071" lon="6.7679">
        <ele>383.5</ele>
        <time>2014-10-28T14:03:24.000Z</time>
      </trkpt>
      <trkpt lat="47.53068" lon="6.7679">
        <ele>382.5</ele>
        <time>2014-10-28T14:03:25.000Z</time>
      </trkpt>
      <trkpt lat="47.53065" lon="6.7679">
        <ele>382.9</ele>
        <time>2014-10-28T14:03:26.000Z</time>
      </trkpt>
      <trkpt lat="47.53062" lon="6.76792">
        <ele>382</ele>
        <time>2014-10-28T14:03:28.000Z</time>
      </trkpt>
      <trkpt lat="47.53061" lon="6.76794">
        <ele>381.1</ele>
        <time>2014-10-28T14:03:29.000Z</time>
      </trkpt>
      <trkpt lat="47.53064" lon="6.76798">
        <ele>377.9</ele>
        <time>2014-10-28T14:03:33.000Z</time>
      </trkpt>
      <trkpt lat="47.53066" lon="6.76797">
        <ele>378.5</ele>
        <time>2014-10-28T14:03:34.000Z</time>
      </trkpt>
      <trkpt lat="47.53069" lon="6.76796">
        <ele>378.1</ele>
        <time>2014-10-28T14:03:36.000Z</time>
      </trkpt>
      <trkpt lat="47.5307" lon="6.76795">
        <ele>378</ele>
        <time>2014-10-28T14:03:37.000Z</time>
      </trkpt>
      <trkpt lat="47.53074" lon="6.76792">
        <ele>376.5</ele>
        <time>2014-10-28T14:03:39.000Z</time>
      </trkpt>
      <trkpt lat="47.53075" lon="6.7679">
        <ele>375.5</ele>
        <time>2014-10-28T14:03:40.000Z</time>
      </trkpt>
      <trkpt lat="47.53079" lon="6.76788">
        <ele>374.5</ele>
        <time>2014-10-28T14:03:42.000Z</time>
      </trkpt>
      <trkpt lat="47.5308" lon="6.76787">
        <ele>375.1</ele>
        <time>2014-10-28T14:03:43.000Z</time>
      </trkpt>
      <trkpt lat="47.53083" lon="6.76785">
        <ele>374.9</ele>
        <time>2014-10-28T14:03:45.000Z</time>
      </trkpt>
      <trkpt lat="47.53085" lon="6.76784">
        <ele>374.2</ele>
        <time>2014-10-28T14:03:46.000Z</time>
      </trkpt>
      <trkpt lat="47.53089" lon="6.76785">
        <ele>373.6</ele>
        <time>2014-10-28T14:03:48.000Z</time>
      </trkpt>
      <trkpt lat="47.53091" lon="6.76787">
        <ele>373.3</ele>
        <time>2014-10-28T14:03:49.000Z</time>
      </trkpt>
      <trkpt lat="47.53095" lon="6.76791">
        <ele>373</ele>
        <time>2014-10-28T14:03:51.000Z</time>
      </trkpt>
      <trkpt lat="47.53096" lon="6.76793">
        <ele>373.3</ele>
        <time>2014-10-28T14:03:52.000Z</time>
      </trkpt>
      <trkpt lat="47.53097" lon="6.76799">
        <ele>370.2</ele>
        <time>2014-10-28T14:03:54.000Z</time>
      </trkpt>
      <trkpt lat="47.53098" lon="6.76802">
        <ele>370</ele>
        <time>2014-10-28T14:03:55.000Z</time>
      </trkpt>
      <trkpt lat="47.53098" lon="6.76805">
        <ele>369.7</ele>
        <time>2014-10-28T14:03:56.000Z</time>
      </trkpt>
      <trkpt lat="47.53099" lon="6.76809">
        <ele>372.2</ele>
        <time>2014-10-28T14:03:57.000Z</time>
      </trkpt>
      <trkpt lat="47.531" lon="6.76812">
        <ele>372.8</ele>
        <time>2014-10-28T14:03:58.000Z</time>
      </trkpt>
      <trkpt lat="47.53101" lon="6.76816">
        <ele>372.1</ele>
        <time>2014-10-28T14:03:59.000Z</time>
      </trkpt>
      <trkpt lat="47.53101" lon="6.76819">
        <ele>372.5</ele>
        <time>2014-10-28T14:04:00.000Z</time>
      </trkpt>
      <trkpt lat="47.53101" lon="6.76823">
        <ele>372.8</ele>
        <time>2014-10-28T14:04:01.000Z</time>
      </trkpt>
      <trkpt lat="47.531" lon="6.76827">
        <ele>372.6</ele>
        <time>2014-10-28T14:04:02.000Z</time>
      </trkpt>
      <trkpt lat="47.531" lon="6.7683">
        <ele>372.3</ele>
        <time>2014-10-28T14:04:03.000Z</time>
      </trkpt>
      <trkpt lat="47.53099" lon="6.76835">
        <ele>372.5</ele>
        <time>2014-10-28T14:04:05.000Z</time>
      </trkpt>
      <trkpt lat="47.53099" lon="6.76837">
        <ele>372.1</ele>
        <time>2014-10-28T14:04:06.000Z</time>
      </trkpt>
      <trkpt lat="47.53097" lon="6.76841">
        <ele>373.4</ele>
        <time>2014-10-28T14:04:08.000Z</time>
      </trkpt>
      <trkpt lat="47.53096" lon="6.76842">
        <ele>375.2</ele>
        <time>2014-10-28T14:04:09.000Z</time>
      </trkpt>
      <trkpt lat="47.53091" lon="6.76842">
        <ele>377.8</ele>
        <time>2014-10-28T14:04:12.000Z</time>
      </trkpt>
      <trkpt lat="47.5309" lon="6.76842">
        <ele>378.2</ele>
        <time>2014-10-28T14:04:13.000Z</time>
      </trkpt>
      <trkpt lat="47.53089" lon="6.76842">
        <ele>378.4</ele>
        <time>2014-10-28T14:04:14.000Z</time>
      </trkpt>
      <trkpt lat="47.53078" lon="6.76842">
        <ele>376.4</ele>
        <time>2014-10-28T14:04:22.000Z</time>
      </trkpt>
      <trkpt lat="47.53076" lon="6.76841">
        <ele>379</ele>
        <time>2014-10-28T14:04:24.000Z</time>
      </trkpt>
      <trkpt lat="47.53073" lon="6.76841">
        <ele>379</ele>
        <time>2014-10-28T14:04:25.000Z</time>
      </trkpt>
      <trkpt lat="47.53071" lon="6.7684">
        <ele>378.9</ele>
        <time>2014-10-28T14:04:26.000Z</time>
      </trkpt>
      <trkpt lat="47.53068" lon="6.76839">
        <ele>377.8</ele>
        <time>2014-10-28T14:04:27.000Z</time>
      </trkpt>
      <trkpt lat="47.53064" lon="6.76839">
        <ele>376.1</ele>
        <time>2014-10-28T14:04:28.000Z</time>
      </trkpt>
      <trkpt lat="47.53062" lon="6.76837">
        <ele>373.2</ele>
        <time>2014-10-28T14:04:29.000Z</time>
      </trkpt>
      <trkpt lat="47.5306" lon="6.76835">
        <ele>372.7</ele>
        <time>2014-10-28T14:04:30.000Z</time>
      </trkpt>
      <trkpt lat="47.53058" lon="6.76833">
        <ele>371.9</ele>
        <time>2014-10-28T14:04:31.000Z</time>
      </trkpt>
      <trkpt lat="47.53056" lon="6.76831">
        <ele>374.2</ele>
        <time>2014-10-28T14:04:32.000Z</time>
      </trkpt>
      <trkpt lat="47.53053" lon="6.7683">
        <ele>374.1</ele>
        <time>2014-10-28T14:04:33.000Z</time>
      </trkpt>
      <trkpt lat="47.53051" lon="6.7683">
        <ele>375.4</ele>
        <time>2014-10-28T14:04:34.000Z</time>
      </trkpt>
      <trkpt lat="47.53048" lon="6.7683">
        <ele>376.5</ele>
        <time>2014-10-28T14:04:35.000Z</time>
      </trkpt>
      <trkpt lat="47.53045" lon="6.7683">
        <ele>377.1</ele>
        <time>2014-10-28T14:04:36.000Z</time>
      </trkpt>
      <trkpt lat="47.53042" lon="6.7683">
        <ele>376.6</ele>
        <time>2014-10-28T14:04:37.000Z</time>
      </trkpt>
      <trkpt lat="47.5304" lon="6.76829">
        <ele>376.9</ele>
        <time>2014-10-28T14:04:38.000Z</time>
      </trkpt>
      <trkpt lat="47.53037" lon="6.76829">
        <ele>377.8</ele>
        <time>2014-10-28T14:04:39.000Z</time>
      </trkpt>
      <trkpt lat="47.53035" lon="6.76829">
        <ele>378.2</ele>
        <time>2014-10-28T14:04:40.000Z</time>
      </trkpt>
      <trkpt lat="47.53033" lon="6.76828">
        <ele>376.9</ele>
        <time>2014-10-28T14:04:41.000Z</time>
      </trkpt>
      <trkpt lat="47.5303" lon="6.76828">
        <ele>376.1</ele>
        <time>2014-10-28T14:04:42.000Z</time>
      </trkpt>
      <trkpt lat="47.53027" lon="6.76828">
        <ele>376.1</ele>
        <time>2014-10-28T14:04:43.000Z</time>
      </trkpt>
      <trkpt lat="47.53024" lon="6.7683">
        <ele>376.9</ele>
        <time>2014-10-28T14:04:45.000Z</time>
      </trkpt>
      <trkpt lat="47.53023" lon="6.76832">
        <ele>376.5</ele>
        <time>2014-10-28T14:04:46.000Z</time>
      </trkpt>
      <trkpt lat="47.53021" lon="6.76837">
        <ele>377.2</ele>
        <time>2014-10-28T14:04:48.000Z</time>
      </trkpt>
      <trkpt lat="47.53021" lon="6.7684">
        <ele>377.1</ele>
        <time>2014-10-28T14:04:49.000Z</time>
      </trkpt>
      <trkpt lat="47.53022" lon="6.76845">
        <ele>377.9</ele>
        <time>2014-10-28T14:04:51.000Z</time>
      </trkpt>
      <trkpt lat="47.53022" lon="6.76847">
        <ele>377.7</ele>
        <time>2014-10-28T14:04:52.000Z</time>
      </trkpt>
      <trkpt lat="47.53024" lon="6.76851">
        <ele>379.8</ele>
        <time>2014-10-28T14:04:54.000Z</time>
      </trkpt>
      <trkpt lat="47.53025" lon="6.76853">
        <ele>380</ele>
        <time>2014-10-28T14:04:55.000Z</time>
      </trkpt>
      <trkpt lat="47.53027" lon="6.76857">
        <ele>383.6</ele>
        <time>2014-10-28T14:04:58.000Z</time>
      </trkpt>
      <trkpt lat="47.53027" lon="6.76859">
        <ele>380.6</ele>
        <time>2014-10-28T14:04:59.000Z</time>
      </trkpt>
      <trkpt lat="47.53028" lon="6.76861">
        <ele>379.3</ele>
        <time>2014-10-28T14:05:00.049Z</time>
      </trkpt>
      <trkpt lat="47.53027" lon="6.76867">
        <ele>380.8</ele>
        <time>2014-10-28T14:05:01.000Z</time>
      </trkpt>
      <trkpt lat="47.53026" lon="6.76871">
        <ele>380.9</ele>
        <time>2014-10-28T14:05:02.000Z</time>
      </trkpt>
      <trkpt lat="47.53026" lon="6.76875">
        <ele>381.4</ele>
        <time>2014-10-28T14:05:03.000Z</time>
      </trkpt>
      <trkpt lat="47.53024" lon="6.76879">
        <ele>383.2</ele>
        <time>2014-10-28T14:05:05.000Z</time>
      </trkpt>
      <trkpt lat="47.53023" lon="6.7688">
        <ele>382.3</ele>
        <time>2014-10-28T14:05:06.000Z</time>
      </trkpt>
      <trkpt lat="47.53021" lon="6.76883">
        <ele>380.5</ele>
        <time>2014-10-28T14:05:07.000Z</time>
      </trkpt>
      <trkpt lat="47.53019" lon="6.76885">
        <ele>381.1</ele>
        <time>2014-10-28T14:05:08.000Z</time>
      </trkpt>
      <trkpt lat="47.53017" lon="6.76887">
        <ele>380</ele>
        <time>2014-10-28T14:05:09.000Z</time>
      </trkpt>
      <trkpt lat="47.53015" lon="6.76889">
        <ele>378.6</ele>
        <time>2014-10-28T14:05:10.000Z</time>
      </trkpt>
      <trkpt lat="47.53013" lon="6.76891">
        <ele>375</ele>
        <time>2014-10-28T14:05:11.000Z</time>
      </trkpt>
      <trkpt lat="47.53011" lon="6.76893">
        <ele>373.5</ele>
        <time>2014-10-28T14:05:12.000Z</time>
      </trkpt>
      <trkpt lat="47.53009" lon="6.76895">
        <ele>372.3</ele>
        <time>2014-10-28T14:05:13.000Z</time>
      </trkpt>
      <trkpt lat="47.53008" lon="6.76897">
        <ele>371.4</ele>
        <time>2014-10-28T14:05:14.000Z</time>
      </trkpt>
      <trkpt lat="47.53004" lon="6.76902">
        <ele>369.4</ele>
        <time>2014-10-28T14:05:17.000Z</time>
      </trkpt>
      <trkpt lat="47.53002" lon="6.76904">
        <ele>370.6</ele>
        <time>2014-10-28T14:05:18.000Z</time>
      </trkpt>
      <trkpt lat="47.52999" lon="6.76904">
        <ele>369.3</ele>
        <time>2014-10-28T14:05:19.000Z</time>
      </trkpt>
      <trkpt lat="47.52996" lon="6.76905">
        <ele>368.4</ele>
        <time>2014-10-28T14:05:20.000Z</time>
      </trkpt>
      <trkpt lat="47.52993" lon="6.76904">
        <ele>370.2</ele>
        <time>2014-10-28T14:05:21.000Z</time>
      </trkpt>
      <trkpt lat="47.5299" lon="6.76903">
        <ele>371.4</ele>
        <time>2014-10-28T14:05:22.000Z</time>
      </trkpt>
      <trkpt lat="47.52988" lon="6.76901">
        <ele>371</ele>
        <time>2014-10-28T14:05:23.000Z</time>
      </trkpt>
      <trkpt lat="47.52985" lon="6.76901">
        <ele>371.9</ele>
        <time>2014-10-28T14:05:24.000Z</time>
      </trkpt>
      <trkpt lat="47.52982" lon="6.769">
        <ele>372.9</ele>
        <time>2014-10-28T14:05:25.000Z</time>
      </trkpt>
      <trkpt lat="47.52979" lon="6.76901">
        <ele>373</ele>
        <time>2014-10-28T14:05:26.000Z</time>
      </trkpt>
      <trkpt lat="47.52976" lon="6.76901">
        <ele>373.4</ele>
        <time>2014-10-28T14:05:27.000Z</time>
      </trkpt>
      <trkpt lat="47.52973" lon="6.76901">
        <ele>373.3</ele>
        <time>2014-10-28T14:05:28.000Z</time>
      </trkpt>
      <trkpt lat="47.5297" lon="6.769">
        <ele>373.7</ele>
        <time>2014-10-28T14:05:29.000Z</time>
      </trkpt>
      <trkpt lat="47.52966" lon="6.76899">
        <ele>375.1</ele>
        <time>2014-10-28T14:05:31.000Z</time>
      </trkpt>
      <trkpt lat="47.52964" lon="6.76897">
        <ele>372.8</ele>
        <time>2014-10-28T14:05:32.000Z</time>
      </trkpt>
      <trkpt lat="47.52961" lon="6.76894">
        <ele>372.5</ele>
        <time>2014-10-28T14:05:34.000Z</time>
      </trkpt>
      <trkpt lat="47.52959" lon="6.76893">
        <ele>372.2</ele>
        <time>2014-10-28T14:05:35.000Z</time>
      </trkpt>
      <trkpt lat="47.52956" lon="6.76892">
        <ele>372.4</ele>
        <time>2014-10-28T14:05:37.000Z</time>
      </trkpt>
      <trkpt lat="47.52954" lon="6.76891">
        <ele>372.2</ele>
        <time>2014-10-28T14:05:38.000Z</time>
      </trkpt>
      <trkpt lat="47.52951" lon="6.7689">
        <ele>372.1</ele>
        <time>2014-10-28T14:05:40.000Z</time>
      </trkpt>
      <trkpt lat="47.52949" lon="6.76891">
        <ele>374.4</ele>
        <time>2014-10-28T14:05:41.000Z</time>
      </trkpt>
      <trkpt lat="47.52946" lon="6.76892">
        <ele>375.1</ele>
        <time>2014-10-28T14:05:42.000Z</time>
      </trkpt>
      <trkpt lat="47.52943" lon="6.76894">
        <ele>375.5</ele>
        <time>2014-10-28T14:05:43.000Z</time>
      </trkpt>
      <trkpt lat="47.5294" lon="6.76895">
        <ele>375.8</ele>
        <time>2014-10-28T14:05:44.000Z</time>
      </trkpt>
      <trkpt lat="47.52938" lon="6.76896">
        <ele>376.2</ele>
        <time>2014-10-28T14:05:45.000Z</time>
      </trkpt>
      <trkpt lat="47.52934" lon="6.76898">
        <ele>376.7</ele>
        <time>2014-10-28T14:05:47.000Z</time>
      </trkpt>
      <trkpt lat="47.52932" lon="6.76899">
        <ele>377.3</ele>
        <time>2014-10-28T14:05:48.000Z</time>
      </trkpt>
      <trkpt lat="47.52928" lon="6.76902">
        <ele>377.5</ele>
        <time>2014-10-28T14:05:51.000Z</time>
      </trkpt>
      <trkpt lat="47.52927" lon="6.76903">
        <ele>377</ele>
        <time>2014-10-28T14:05:52.000Z</time>
      </trkpt>
      <trkpt lat="47.52923" lon="6.76906">
        <ele>374.8</ele>
        <time>2014-10-28T14:05:54.000Z</time>
      </trkpt>
      <trkpt lat="47.52922" lon="6.76907">
        <ele>374.6</ele>
        <time>2014-10-28T14:05:55.000Z</time>
      </trkpt>
      <trkpt lat="47.52924" lon="6.76913">
        <ele>375.7</ele>
        <time>2014-10-28T14:05:59.000Z</time>
      </trkpt>
      <trkpt lat="47.52924" lon="6.76915">
        <ele>375.5</ele>
        <time>2014-10-28T14:06:00.000Z</time>
      </trkpt>
      <trkpt lat="47.52924" lon="6.76922">
        <ele>373.3</ele>
        <time>2014-10-28T14:06:03.000Z</time>
      </trkpt>
      <trkpt lat="47.52924" lon="6.76924">
        <ele>374.9</ele>
        <time>2014-10-28T14:06:04.000Z</time>
      </trkpt>
      <trkpt lat="47.52925" lon="6.76931">
        <ele>375.7</ele>
        <time>2014-10-28T14:06:07.000Z</time>
      </trkpt>
      <trkpt lat="47.52925" lon="6.76932">
        <ele>376</ele>
        <time>2014-10-28T14:06:08.000Z</time>
      </trkpt>
      <trkpt lat="47.52925" lon="6.76938">
        <ele>370.9</ele>
        <time>2014-10-28T14:06:20.000Z</time>
      </trkpt>
      <trkpt lat="47.52924" lon="6.76939">
        <ele>370.7</ele>
        <time>2014-10-28T14:06:21.000Z</time>
      </trkpt>
      <trkpt lat="47.5292" lon="6.76942">
        <ele>370.7</ele>
        <time>2014-10-28T14:06:45.000Z</time>
      </trkpt>
      <trkpt lat="47.5292" lon="6.76943">
        <ele>370.8</ele>
        <time>2014-10-28T14:06:46.000Z</time>
      </trkpt>
      <trkpt lat="47.52918" lon="6.76947">
        <ele>371.5</ele>
        <time>2014-10-28T14:07:03.000Z</time>
      </trkpt>
      <trkpt lat="47.52918" lon="6.76949">
        <ele>371.5</ele>
        <time>2014-10-28T14:07:04.000Z</time>
      </trkpt>
      <trkpt lat="47.52916" lon="6.76954">
        <ele>373.1</ele>
        <time>2014-10-28T14:07:14.000Z</time>
      </trkpt>
      <trkpt lat="47.52916" lon="6.76955">
        <ele>373.2</ele>
        <time>2014-10-28T14:07:15.000Z</time>
      </trkpt>
      <trkpt lat="47.52912" lon="6.76957">
        <ele>373.9</ele>
        <time>2014-10-28T14:09:01.000Z</time>
      </trkpt>
      <trkpt lat="47.52911" lon="6.76958">
        <ele>374.2</ele>
        <time>2014-10-28T14:09:02.000Z</time>
      </trkpt>
      <trkpt lat="47.52909" lon="6.76961">
        <ele>375.2</ele>
        <time>2014-10-28T14:09:14.000Z</time>
      </trkpt>
      <trkpt lat="47.52898" lon="6.76969">
        <ele>371.3</ele>
        <time>2014-10-28T14:09:22.000Z</time>
      </trkpt>
      <trkpt lat="47.52895" lon="6.76972">
        <ele>368.1</ele>
        <time>2014-10-28T14:09:40.000Z</time>
      </trkpt>
      <trkpt lat="47.52893" lon="6.76973">
        <ele>368.4</ele>
        <time>2014-10-28T14:09:41.000Z</time>
      </trkpt>
      <trkpt lat="47.52897" lon="6.76969">
        <ele>370.4</ele>
        <time>2014-10-28T14:09:46.000Z</time>
      </trkpt>
      <trkpt lat="47.52899" lon="6.76968">
        <ele>370.3</ele>
        <time>2014-10-28T14:09:47.000Z</time>
      </trkpt>
      <trkpt lat="47.52903" lon="6.76965">
        <ele>369.3</ele>
        <time>2014-10-28T14:09:49.000Z</time>
      </trkpt>
      <trkpt lat="47.52904" lon="6.76964">
        <ele>370.3</ele>
        <time>2014-10-28T14:09:50.000Z</time>
      </trkpt>
      <trkpt lat="47.52902" lon="6.76967">
        <ele>369.9</ele>
        <time>2014-10-28T14:09:55.000Z</time>
      </trkpt>
      <trkpt lat="47.529" lon="6.76967">
        <ele>369.9</ele>
        <time>2014-10-28T14:09:56.000Z</time>
      </trkpt>
      <trkpt lat="47.52896" lon="6.76969">
        <ele>369.6</ele>
        <time>2014-10-28T14:09:58.000Z</time>
      </trkpt>
      <trkpt lat="47.52894" lon="6.7697">
        <ele>370.3</ele>
        <time>2014-10-28T14:09:59.000Z</time>
      </trkpt>
      <trkpt lat="47.52898" lon="6.76967">
        <ele>368.5</ele>
        <time>2014-10-28T14:10:03.000Z</time>
      </trkpt>
      <trkpt lat="47.52901" lon="6.76967">
        <ele>369.2</ele>
        <time>2014-10-28T14:10:04.000Z</time>
      </trkpt>
      <trkpt lat="47.52904" lon="6.76967">
        <ele>369.8</ele>
        <time>2014-10-28T14:10:05.000Z</time>
      </trkpt>
      <trkpt lat="47.52906" lon="6.76966">
        <ele>369.7</ele>
        <time>2014-10-28T14:10:06.000Z</time>
      </trkpt>
      <trkpt lat="47.52908" lon="6.76972">
        <ele>369.4</ele>
        <time>2014-10-28T14:10:12.000Z</time>
      </trkpt>
      <trkpt lat="47.52907" lon="6.76974">
        <ele>368.8</ele>
        <time>2014-10-28T14:10:13.000Z</time>
      </trkpt>
      <trkpt lat="47.52907" lon="6.76977">
        <ele>368.7</ele>
        <time>2014-10-28T14:10:14.000Z</time>
      </trkpt>
      <trkpt lat="47.52908" lon="6.76997">
        <ele>368.6</ele>
        <time>2014-10-28T14:10:22.000Z</time>
      </trkpt>
      <trkpt lat="47.52908" lon="6.77003">
        <ele>368.1</ele>
        <time>2014-10-28T14:10:24.000Z</time>
      </trkpt>
      <trkpt lat="47.52909" lon="6.77005">
        <ele>371.9</ele>
        <time>2014-10-28T14:10:25.000Z</time>
      </trkpt>
      <trkpt lat="47.52911" lon="6.7701">
        <ele>373.8</ele>
        <time>2014-10-28T14:10:27.000Z</time>
      </trkpt>
      <trkpt lat="47.52912" lon="6.77011">
        <ele>374.5</ele>
        <time>2014-10-28T14:10:28.000Z</time>
      </trkpt>
      <trkpt lat="47.5291" lon="6.77015">
        <ele>372.5</ele>
        <time>2014-10-28T14:10:32.000Z</time>
      </trkpt>
      <trkpt lat="47.52908" lon="6.77015">
        <ele>372.3</ele>
        <time>2014-10-28T14:10:33.000Z</time>
      </trkpt>
      <trkpt lat="47.52904" lon="6.77015">
        <ele>371.4</ele>
        <time>2014-10-28T14:10:35.000Z</time>
      </trkpt>
      <trkpt lat="47.52902" lon="6.77016">
        <ele>371.4</ele>
        <time>2014-10-28T14:10:36.000Z</time>
      </trkpt>
      <trkpt lat="47.52897" lon="6.77017">
        <ele>372.6</ele>
        <time>2014-10-28T14:10:38.000Z</time>
      </trkpt>
      <trkpt lat="47.52895" lon="6.77018">
        <ele>370.8</ele>
        <time>2014-10-28T14:10:39.000Z</time>
      </trkpt>
      <trkpt lat="47.52892" lon="6.7702">
        <ele>369.5</ele>
        <time>2014-10-28T14:10:40.000Z</time>
      </trkpt>
      <trkpt lat="47.5289" lon="6.77021">
        <ele>367.5</ele>
        <time>2014-10-28T14:10:41.000Z</time>
      </trkpt>
      <trkpt lat="47.52888" lon="6.77023">
        <ele>367.3</ele>
        <time>2014-10-28T14:10:42.000Z</time>
      </trkpt>
      <trkpt lat="47.52885" lon="6.77026">
        <ele>367.5</ele>
        <time>2014-10-28T14:10:43.000Z</time>
      </trkpt>
      <trkpt lat="47.52883" lon="6.77028">
        <ele>366.9</ele>
        <time>2014-10-28T14:10:44.000Z</time>
      </trkpt>
      <trkpt lat="47.52881" lon="6.77031">
        <ele>367.2</ele>
        <time>2014-10-28T14:10:45.000Z</time>
      </trkpt>
      <trkpt lat="47.52879" lon="6.77036">
        <ele>367.5</ele>
        <time>2014-10-28T14:10:47.000Z</time>
      </trkpt>
      <trkpt lat="47.52878" lon="6.77038">
        <ele>367.9</ele>
        <time>2014-10-28T14:10:48.000Z</time>
      </trkpt>
      <trkpt lat="47.52878" lon="6.77044">
        <ele>369.4</ele>
        <time>2014-10-28T14:10:50.000Z</time>
      </trkpt>
      <trkpt lat="47.52877" lon="6.77047">
        <ele>369.7</ele>
        <time>2014-10-28T14:10:51.000Z</time>
      </trkpt>
      <trkpt lat="47.52877" lon="6.77053">
        <ele>369.2</ele>
        <time>2014-10-28T14:10:53.000Z</time>
      </trkpt>
      <trkpt lat="47.52877" lon="6.77056">
        <ele>369.7</ele>
        <time>2014-10-28T14:10:54.000Z</time>
      </trkpt>
      <trkpt lat="47.52877" lon="6.77059">
        <ele>370.4</ele>
        <time>2014-10-28T14:10:55.000Z</time>
      </trkpt>
      <trkpt lat="47.52877" lon="6.77062">
        <ele>371.6</ele>
        <time>2014-10-28T14:10:56.000Z</time>
      </trkpt>
      <trkpt lat="47.52877" lon="6.77066">
        <ele>372.1</ele>
        <time>2014-10-28T14:10:57.000Z</time>
      </trkpt>
      <trkpt lat="47.52877" lon="6.77069">
        <ele>371.6</ele>
        <time>2014-10-28T14:10:58.000Z</time>
      </trkpt>
      <trkpt lat="47.52877" lon="6.77072">
        <ele>374.3</ele>
        <time>2014-10-28T14:10:59.000Z</time>
      </trkpt>
      <trkpt lat="47.52878" lon="6.77076">
        <ele>375.5</ele>
        <time>2014-10-28T14:11:00.000Z</time>
      </trkpt>
      <trkpt lat="47.52879" lon="6.77079">
        <ele>374.9</ele>
        <time>2014-10-28T14:11:01.000Z</time>
      </trkpt>
      <trkpt lat="47.5288" lon="6.77082">
        <ele>375.3</ele>
        <time>2014-10-28T14:11:02.000Z</time>
      </trkpt>
      <trkpt lat="47.52881" lon="6.77085">
        <ele>374.9</ele>
        <time>2014-10-28T14:11:03.000Z</time>
      </trkpt>
      <trkpt lat="47.52882" lon="6.77089">
        <ele>374.8</ele>
        <time>2014-10-28T14:11:04.000Z</time>
      </trkpt>
      <trkpt lat="47.5288" lon="6.77094">
        <ele>373.9</ele>
        <time>2014-10-28T14:11:06.000Z</time>
      </trkpt>
      <trkpt lat="47.52879" lon="6.77097">
        <ele>372.3</ele>
        <time>2014-10-28T14:11:07.000Z</time>
      </trkpt>
      <trkpt lat="47.52876" lon="6.77099">
        <ele>371.2</ele>
        <time>2014-10-28T14:11:08.000Z</time>
      </trkpt>
      <trkpt lat="47.52874" lon="6.771">
        <ele>368</ele>
        <time>2014-10-28T14:11:09.000Z</time>
      </trkpt>
      <trkpt lat="47.52872" lon="6.77102">
        <ele>366.1</ele>
        <time>2014-10-28T14:11:10.000Z</time>
      </trkpt>
      <trkpt lat="47.52869" lon="6.77103">
        <ele>365.5</ele>
        <time>2014-10-28T14:11:11.000Z</time>
      </trkpt>
      <trkpt lat="47.52866" lon="6.77106">
        <ele>367.3</ele>
        <time>2014-10-28T14:11:13.000Z</time>
      </trkpt>
      <trkpt lat="47.52864" lon="6.77107">
        <ele>365.9</ele>
        <time>2014-10-28T14:11:14.000Z</time>
      </trkpt>
      <trkpt lat="47.52852" lon="6.77109">
        <ele>359.4</ele>
        <time>2014-10-28T14:11:22.000Z</time>
      </trkpt>
      <trkpt lat="47.52848" lon="6.77112">
        <ele>358.1</ele>
        <time>2014-10-28T14:11:25.000Z</time>
      </trkpt>
      <trkpt lat="47.52846" lon="6.77113">
        <ele>358.4</ele>
        <time>2014-10-28T14:11:26.000Z</time>
      </trkpt>
      <trkpt lat="47.52844" lon="6.77114">
        <ele>358.3</ele>
        <time>2014-10-28T14:11:27.000Z</time>
      </trkpt>
      <trkpt lat="47.52841" lon="6.77116">
        <ele>358.3</ele>
        <time>2014-10-28T14:11:28.000Z</time>
      </trkpt>
      <trkpt lat="47.52839" lon="6.77118">
        <ele>358.6</ele>
        <time>2014-10-28T14:11:29.000Z</time>
      </trkpt>
      <trkpt lat="47.52837" lon="6.7712">
        <ele>358.7</ele>
        <time>2014-10-28T14:11:30.000Z</time>
      </trkpt>
      <trkpt lat="47.52836" lon="6.77126">
        <ele>361.1</ele>
        <time>2014-10-28T14:11:35.000Z</time>
      </trkpt>
      <trkpt lat="47.52836" lon="6.77126">
        <ele>361.3</ele>
        <time>2014-10-28T14:11:36.000Z</time>
      </trkpt>
      <trkpt lat="47.52833" lon="6.7713">
        <ele>362.1</ele>
        <time>2014-10-28T14:11:46.000Z</time>
      </trkpt>
      <trkpt lat="47.52832" lon="6.77131">
        <ele>361.8</ele>
        <time>2014-10-28T14:11:47.000Z</time>
      </trkpt>
      <trkpt lat="47.52829" lon="6.77134">
        <ele>361.2</ele>
        <time>2014-10-28T14:11:51.000Z</time>
      </trkpt>
      <trkpt lat="47.52828" lon="6.77135">
        <ele>361.2</ele>
        <time>2014-10-28T14:11:52.000Z</time>
      </trkpt>
      <trkpt lat="47.52824" lon="6.7714">
        <ele>363.1</ele>
        <time>2014-10-28T14:11:55.000Z</time>
      </trkpt>
      <trkpt lat="47.52823" lon="6.77141">
        <ele>363.6</ele>
        <time>2014-10-28T14:11:56.000Z</time>
      </trkpt>
      <trkpt lat="47.52821" lon="6.77147">
        <ele>363.5</ele>
        <time>2014-10-28T14:11:59.000Z</time>
      </trkpt>
      <trkpt lat="47.5282" lon="6.77148">
        <ele>363.8</ele>
        <time>2014-10-28T14:12:00.000Z</time>
      </trkpt>
      <trkpt lat="47.5282" lon="6.77154">
        <ele>365.9</ele>
        <time>2014-10-28T14:12:05.000Z</time>
      </trkpt>
      <trkpt lat="47.5282" lon="6.77155">
        <ele>365.1</ele>
        <time>2014-10-28T14:12:06.000Z</time>
      </trkpt>
      <trkpt lat="47.5282" lon="6.77161">
        <ele>370.2</ele>
        <time>2014-10-28T14:12:44.000Z</time>
      </trkpt>
      <trkpt lat="47.5282" lon="6.77161">
        <ele>370.8</ele>
        <time>2014-10-28T14:12:45.000Z</time>
      </trkpt>
      <trkpt lat="47.52821" lon="6.77167">
        <ele>375.4</ele>
        <time>2014-10-28T14:13:04.000Z</time>
      </trkpt>
      <trkpt lat="47.52823" lon="6.77167">
        <ele>374.6</ele>
        <time>2014-10-28T14:13:05.000Z</time>
      </trkpt>
      <trkpt lat="47.52826" lon="6.77165">
        <ele>372.6</ele>
        <time>2014-10-28T14:13:07.000Z</time>
      </trkpt>
      <trkpt lat="47.52827" lon="6.77164">
        <ele>373.8</ele>
        <time>2014-10-28T14:13:08.000Z</time>
      </trkpt>
      <trkpt lat="47.52831" lon="6.77162">
        <ele>376.9</ele>
        <time>2014-10-28T14:13:10.000Z</time>
      </trkpt>
      <trkpt lat="47.52833" lon="6.77162">
        <ele>377</ele>
        <time>2014-10-28T14:13:11.000Z</time>
      </trkpt>
      <trkpt lat="47.52837" lon="6.77161">
        <ele>376.7</ele>
        <time>2014-10-28T14:13:13.000Z</time>
      </trkpt>
      <trkpt lat="47.52839" lon="6.77161">
        <ele>376.6</ele>
        <time>2014-10-28T14:13:14.000Z</time>
      </trkpt>
      <trkpt lat="47.52841" lon="6.77161">
        <ele>376.5</ele>
        <time>2014-10-28T14:13:15.000Z</time>
      </trkpt>
      <trkpt lat="47.52849" lon="6.77155">
        <ele>375.7</ele>
        <time>2014-10-28T14:13:24.000Z</time>
      </trkpt>
      <trkpt lat="47.52852" lon="6.77151">
        <ele>375.3</ele>
        <time>2014-10-28T14:13:26.000Z</time>
      </trkpt>
      <trkpt lat="47.52855" lon="6.77149">
        <ele>376.3</ele>
        <time>2014-10-28T14:13:27.000Z</time>
      </trkpt>
      <trkpt lat="47.52858" lon="6.77147">
        <ele>376.1</ele>
        <time>2014-10-28T14:13:28.000Z</time>
      </trkpt>
      <trkpt lat="47.5286" lon="6.77145">
        <ele>375.5</ele>
        <time>2014-10-28T14:13:29.000Z</time>
      </trkpt>
      <trkpt lat="47.52863" lon="6.77143">
        <ele>376.2</ele>
        <time>2014-10-28T14:13:30.000Z</time>
      </trkpt>
      <trkpt lat="47.52865" lon="6.7714">
        <ele>375</ele>
        <time>2014-10-28T14:13:31.000Z</time>
      </trkpt>
      <trkpt lat="47.52867" lon="6.77137">
        <ele>375.3</ele>
        <time>2014-10-28T14:13:32.000Z</time>
      </trkpt>
      <trkpt lat="47.52869" lon="6.77134">
        <ele>375.8</ele>
        <time>2014-10-28T14:13:33.000Z</time>
      </trkpt>
      <trkpt lat="47.52871" lon="6.77131">
        <ele>376</ele>
        <time>2014-10-28T14:13:34.000Z</time>
      </trkpt>
      <trkpt lat="47.52872" lon="6.77129">
        <ele>376.2</ele>
        <time>2014-10-28T14:13:35.000Z</time>
      </trkpt>
      <trkpt lat="47.52873" lon="6.77126">
        <ele>378.5</ele>
        <time>2014-10-28T14:13:36.000Z</time>
      </trkpt>
      <trkpt lat="47.52874" lon="6.77123">
        <ele>380.6</ele>
        <time>2014-10-28T14:13:37.000Z</time>
      </trkpt>
      <trkpt lat="47.52875" lon="6.77116">
        <ele>383.2</ele>
        <time>2014-10-28T14:13:39.000Z</time>
      </trkpt>
      <trkpt lat="47.52876" lon="6.77113">
        <ele>383.6</ele>
        <time>2014-10-28T14:13:40.000Z</time>
      </trkpt>
      <trkpt lat="47.52878" lon="6.77108">
        <ele>384.8</ele>
        <time>2014-10-28T14:13:42.000Z</time>
      </trkpt>
      <trkpt lat="47.52879" lon="6.77106">
        <ele>384.7</ele>
        <time>2014-10-28T14:13:43.000Z</time>
      </trkpt>
      <trkpt lat="47.52882" lon="6.77102">
        <ele>385.8</ele>
        <time>2014-10-28T14:13:45.000Z</time>
      </trkpt>
      <trkpt lat="47.52883" lon="6.77101">
        <ele>386.3</ele>
        <time>2014-10-28T14:13:46.000Z</time>
      </trkpt>
      <trkpt lat="47.52884" lon="6.77097">
        <ele>385.3</ele>
        <time>2014-10-28T14:13:48.000Z</time>
      </trkpt>
      <trkpt lat="47.52885" lon="6.77094">
        <ele>385</ele>
        <time>2014-10-28T14:13:49.000Z</time>
      </trkpt>
      <trkpt lat="47.52886" lon="6.77088">
        <ele>384.3</ele>
        <time>2014-10-28T14:13:51.000Z</time>
      </trkpt>
      <trkpt lat="47.52886" lon="6.77085">
        <ele>382.3</ele>
        <time>2014-10-28T14:13:52.000Z</time>
      </trkpt>
      <trkpt lat="47.52885" lon="6.77079">
        <ele>381.8</ele>
        <time>2014-10-28T14:13:54.000Z</time>
      </trkpt>
      <trkpt lat="47.52885" lon="6.77077">
        <ele>382.3</ele>
        <time>2014-10-28T14:13:55.000Z</time>
      </trkpt>
      <trkpt lat="47.52885" lon="6.77072">
        <ele>383</ele>
        <time>2014-10-28T14:13:57.000Z</time>
      </trkpt>
      <trkpt lat="47.52886" lon="6.77069">
        <ele>383.1</ele>
        <time>2014-10-28T14:13:58.000Z</time>
      </trkpt>
      <trkpt lat="47.52889" lon="6.77065">
        <ele>386.6</ele>
        <time>2014-10-28T14:14:01.000Z</time>
      </trkpt>
      <trkpt lat="47.5289" lon="6.77065">
        <ele>386.4</ele>
        <time>2014-10-28T14:14:02.000Z</time>
      </trkpt>
      <trkpt lat="47.52893" lon="6.77063">
        <ele>390.3</ele>
        <time>2014-10-28T14:14:04.000Z</time>
      </trkpt>
      <trkpt lat="47.52894" lon="6.77061">
        <ele>390.7</ele>
        <time>2014-10-28T14:14:05.000Z</time>
      </trkpt>
      <trkpt lat="47.52897" lon="6.77058">
        <ele>389.9</ele>
        <time>2014-10-28T14:14:07.000Z</time>
      </trkpt>
      <trkpt lat="47.52899" lon="6.77057">
        <ele>390.3</ele>
        <time>2014-10-28T14:14:08.000Z</time>
      </trkpt>
      <trkpt lat="47.52903" lon="6.77053">
        <ele>390.8</ele>
        <time>2014-10-28T14:14:10.000Z</time>
      </trkpt>
      <trkpt lat="47.52904" lon="6.77052">
        <ele>390.6</ele>
        <time>2014-10-28T14:14:11.000Z</time>
      </trkpt>
      <trkpt lat="47.52907" lon="6.7705">
        <ele>390.8</ele>
        <time>2014-10-28T14:14:12.000Z</time>
      </trkpt>
      <trkpt lat="47.52909" lon="6.77048">
        <ele>390.8</ele>
        <time>2014-10-28T14:14:13.000Z</time>
      </trkpt>
      <trkpt lat="47.52911" lon="6.77046">
        <ele>391.8</ele>
        <time>2014-10-28T14:14:14.000Z</time>
      </trkpt>
      <trkpt lat="47.52915" lon="6.7704">
        <ele>391.5</ele>
        <time>2014-10-28T14:14:17.000Z</time>
      </trkpt>
      <trkpt lat="47.52918" lon="6.77035">
        <ele>390.3</ele>
        <time>2014-10-28T14:14:19.000Z</time>
      </trkpt>
      <trkpt lat="47.5292" lon="6.77033">
        <ele>389.5</ele>
        <time>2014-10-28T14:14:20.000Z</time>
      </trkpt>
      <trkpt lat="47.52922" lon="6.77031">
        <ele>389.3</ele>
        <time>2014-10-28T14:14:21.000Z</time>
      </trkpt>
      <trkpt lat="47.52924" lon="6.77029">
        <ele>389.6</ele>
        <time>2014-10-28T14:14:22.000Z</time>
      </trkpt>
      <trkpt lat="47.52926" lon="6.77027">
        <ele>389.4</ele>
        <time>2014-10-28T14:14:23.000Z</time>
      </trkpt>
      <trkpt lat="47.52928" lon="6.77025">
        <ele>389.5</ele>
        <time>2014-10-28T14:14:24.000Z</time>
      </trkpt>
      <trkpt lat="47.52931" lon="6.77021">
        <ele>388.9</ele>
        <time>2014-10-28T14:14:26.000Z</time>
      </trkpt>
      <trkpt lat="47.52932" lon="6.77019">
        <ele>388.4</ele>
        <time>2014-10-28T14:14:26.998Z</time>
      </trkpt>
      <trkpt lat="47.52933" lon="6.77013">
        <ele>388</ele>
        <time>2014-10-28T14:14:29.000Z</time>
      </trkpt>
      <trkpt lat="47.52933" lon="6.7701">
        <ele>387.9</ele>
        <time>2014-10-28T14:14:30.000Z</time>
      </trkpt>
      <trkpt lat="47.52933" lon="6.77004">
        <ele>387.2</ele>
        <time>2014-10-28T14:14:33.000Z</time>
      </trkpt>
      <trkpt lat="47.52932" lon="6.77003">
        <ele>389.4</ele>
        <time>2014-10-28T14:14:34.000Z</time>
      </trkpt>
      <trkpt lat="47.52929" lon="6.76998">
        <ele>389.1</ele>
        <time>2014-10-28T14:14:37.000Z</time>
      </trkpt>
      <trkpt lat="47.52927" lon="6.76998">
        <ele>388.5</ele>
        <time>2014-10-28T14:14:38.000Z</time>
      </trkpt>
      <trkpt lat="47.52923" lon="6.76996">
        <ele>387.9</ele>
        <time>2014-10-28T14:14:41.000Z</time>
      </trkpt>
      <trkpt lat="47.52921" lon="6.76994">
        <ele>387.4</ele>
        <time>2014-10-28T14:14:42.000Z</time>
      </trkpt>
      <trkpt lat="47.52919" lon="6.7699">
        <ele>386.6</ele>
        <time>2014-10-28T14:14:44.000Z</time>
      </trkpt>
      <trkpt lat="47.52918" lon="6.76987">
        <ele>386.4</ele>
        <time>2014-10-28T14:14:45.000Z</time>
      </trkpt>
      <trkpt lat="47.52919" lon="6.76982">
        <ele>386.1</ele>
        <time>2014-10-28T14:14:47.000Z</time>
      </trkpt>
      <trkpt lat="47.52919" lon="6.76979">
        <ele>385.8</ele>
        <time>2014-10-28T14:14:48.000Z</time>
      </trkpt>
      <trkpt lat="47.52922" lon="6.76974">
        <ele>384.6</ele>
        <time>2014-10-28T14:14:50.000Z</time>
      </trkpt>
      <trkpt lat="47.52923" lon="6.76972">
        <ele>384.8</ele>
        <time>2014-10-28T14:14:51.000Z</time>
      </trkpt>
      <trkpt lat="47.52924" lon="6.76968">
        <ele>384.7</ele>
        <time>2014-10-28T14:14:52.000Z</time>
      </trkpt>
      <trkpt lat="47.52926" lon="6.76966">
        <ele>382.9</ele>
        <time>2014-10-28T14:14:53.000Z</time>
      </trkpt>
      <trkpt lat="47.52929" lon="6.76961">
        <ele>381.5</ele>
        <time>2014-10-28T14:14:55.000Z</time>
      </trkpt>
      <trkpt lat="47.5293" lon="6.76959">
        <ele>381.6</ele>
        <time>2014-10-28T14:14:56.000Z</time>
      </trkpt>
      <trkpt lat="47.52934" lon="6.76954">
        <ele>382</ele>
        <time>2014-10-28T14:14:58.000Z</time>
      </trkpt>
      <trkpt lat="47.52935" lon="6.76952">
        <ele>380.6</ele>
        <time>2014-10-28T14:14:59.000Z</time>
      </trkpt>
      <trkpt lat="47.52937" lon="6.76949">
        <ele>379.8</ele>
        <time>2014-10-28T14:15:00.000Z</time>
      </trkpt>
      <trkpt lat="47.52938" lon="6.76946">
        <ele>379.5</ele>
        <time>2014-10-28T14:15:01.000Z</time>
      </trkpt>
      <trkpt lat="47.52941" lon="6.76941">
        <ele>378.4</ele>
        <time>2014-10-28T14:15:03.000Z</time>
      </trkpt>
      <trkpt lat="47.52942" lon="6.76939">
        <ele>378.4</ele>
        <time>2014-10-28T14:15:04.000Z</time>
      </trkpt>
      <trkpt lat="47.52942" lon="6.76934">
        <ele>377.7</ele>
        <time>2014-10-28T14:15:06.000Z</time>
      </trkpt>
      <trkpt lat="47.52942" lon="6.76931">
        <ele>377</ele>
        <time>2014-10-28T14:15:07.000Z</time>
      </trkpt>
      <trkpt lat="47.52942" lon="6.76926">
        <ele>376.2</ele>
        <time>2014-10-28T14:15:09.000Z</time>
      </trkpt>
      <trkpt lat="47.52942" lon="6.76924">
        <ele>376.3</ele>
        <time>2014-10-28T14:15:10.000Z</time>
      </trkpt>
      <trkpt lat="47.52941" lon="6.76918">
        <ele>378.5</ele>
        <time>2014-10-28T14:15:13.000Z</time>
      </trkpt>
      <trkpt lat="47.52941" lon="6.76915">
        <ele>379.9</ele>
        <time>2014-10-28T14:15:14.000Z</time>
      </trkpt>
      <trkpt lat="47.52942" lon="6.76907">
        <ele>381.6</ele>
        <time>2014-10-28T14:15:17.000Z</time>
      </trkpt>
      <trkpt lat="47.52945" lon="6.76906">
        <ele>380.1</ele>
        <time>2014-10-28T14:15:19.000Z</time>
      </trkpt>
      <trkpt lat="47.52947" lon="6.76907">
        <ele>379.2</ele>
        <time>2014-10-28T14:15:20.000Z</time>
      </trkpt>
      <trkpt lat="47.52949" lon="6.76909">
        <ele>378.8</ele>
        <time>2014-10-28T14:15:21.000Z</time>
      </trkpt>
      <trkpt lat="47.52951" lon="6.76911">
        <ele>378.1</ele>
        <time>2014-10-28T14:15:22.000Z</time>
      </trkpt>
      <trkpt lat="47.52953" lon="6.76913">
        <ele>378.4</ele>
        <time>2014-10-28T14:15:23.000Z</time>
      </trkpt>
      <trkpt lat="47.52955" lon="6.76915">
        <ele>378.3</ele>
        <time>2014-10-28T14:15:24.000Z</time>
      </trkpt>
      <trkpt lat="47.52957" lon="6.76918">
        <ele>378.8</ele>
        <time>2014-10-28T14:15:25.000Z</time>
      </trkpt>
      <trkpt lat="47.52958" lon="6.7692">
        <ele>378.6</ele>
        <time>2014-10-28T14:15:26.000Z</time>
      </trkpt>
      <trkpt lat="47.5296" lon="6.76922">
        <ele>378.8</ele>
        <time>2014-10-28T14:15:27.000Z</time>
      </trkpt>
      <trkpt lat="47.52962" lon="6.76925">
        <ele>377.3</ele>
        <time>2014-10-28T14:15:28.000Z</time>
      </trkpt>
      <trkpt lat="47.52964" lon="6.76929">
        <ele>374.8</ele>
        <time>2014-10-28T14:15:30.000Z</time>
      </trkpt>
      <trkpt lat="47.52964" lon="6.76931">
        <ele>375.1</ele>
        <time>2014-10-28T14:15:31.000Z</time>
      </trkpt>
      <trkpt lat="47.52966" lon="6.76936">
        <ele>373.8</ele>
        <time>2014-10-28T14:15:33.000Z</time>
      </trkpt>
      <trkpt lat="47.52968" lon="6.76938">
        <ele>374.5</ele>
        <time>2014-10-28T14:15:34.000Z</time>
      </trkpt>
      <trkpt lat="47.52971" lon="6.76942">
        <ele>376.1</ele>
        <time>2014-10-28T14:15:36.000Z</time>
      </trkpt>
      <trkpt lat="47.52972" lon="6.76944">
        <ele>376.5</ele>
        <time>2014-10-28T14:15:37.000Z</time>
      </trkpt>
      <trkpt lat="47.52975" lon="6.76947">
        <ele>379.2</ele>
        <time>2014-10-28T14:15:39.000Z</time>
      </trkpt>
      <trkpt lat="47.52978" lon="6.76946">
        <ele>380</ele>
        <time>2014-10-28T14:15:40.000Z</time>
      </trkpt>
      <trkpt lat="47.5298" lon="6.76945">
        <ele>379.8</ele>
        <time>2014-10-28T14:15:41.000Z</time>
      </trkpt>
      <trkpt lat="47.52982" lon="6.76943">
        <ele>380.6</ele>
        <time>2014-10-28T14:15:42.000Z</time>
      </trkpt>
      <trkpt lat="47.52984" lon="6.76941">
        <ele>380.8</ele>
        <time>2014-10-28T14:15:43.000Z</time>
      </trkpt>
      <trkpt lat="47.52986" lon="6.76938">
        <ele>381.3</ele>
        <time>2014-10-28T14:15:44.000Z</time>
      </trkpt>
      <trkpt lat="47.52988" lon="6.76936">
        <ele>380.5</ele>
        <time>2014-10-28T14:15:45.000Z</time>
      </trkpt>
      <trkpt lat="47.5299" lon="6.76933">
        <ele>379.7</ele>
        <time>2014-10-28T14:15:46.000Z</time>
      </trkpt>
      <trkpt lat="47.52992" lon="6.76928">
        <ele>380.7</ele>
        <time>2014-10-28T14:15:48.000Z</time>
      </trkpt>
      <trkpt lat="47.52993" lon="6.76925">
        <ele>379.4</ele>
        <time>2014-10-28T14:15:49.000Z</time>
      </trkpt>
      <trkpt lat="47.52995" lon="6.7692">
        <ele>380.1</ele>
        <time>2014-10-28T14:15:51.000Z</time>
      </trkpt>
      <trkpt lat="47.52996" lon="6.76917">
        <ele>380.4</ele>
        <time>2014-10-28T14:15:52.000Z</time>
      </trkpt>
      <trkpt lat="47.52998" lon="6.76912">
        <ele>382.1</ele>
        <time>2014-10-28T14:15:54.000Z</time>
      </trkpt>
      <trkpt lat="47.53" lon="6.76911">
        <ele>382.7</ele>
        <time>2014-10-28T14:15:55.000Z</time>
      </trkpt>
      <trkpt lat="47.53003" lon="6.76911">
        <ele>383.8</ele>
        <time>2014-10-28T14:15:57.000Z</time>
      </trkpt>
      <trkpt lat="47.53004" lon="6.76912">
        <ele>383.7</ele>
        <time>2014-10-28T14:15:58.000Z</time>
      </trkpt>
      <trkpt lat="47.53007" lon="6.76915">
        <ele>383.7</ele>
        <time>2014-10-28T14:16:00.000Z</time>
      </trkpt>
      <trkpt lat="47.53007" lon="6.76919">
        <ele>383.7</ele>
        <time>2014-10-28T14:16:01.000Z</time>
      </trkpt>
      <trkpt lat="47.53008" lon="6.76923">
        <ele>380.6</ele>
        <time>2014-10-28T14:16:02.000Z</time>
      </trkpt>
      <trkpt lat="47.53007" lon="6.76926">
        <ele>379.3</ele>
        <time>2014-10-28T14:16:03.000Z</time>
      </trkpt>
      <trkpt lat="47.53005" lon="6.76931">
        <ele>378.7</ele>
        <time>2014-10-28T14:16:05.000Z</time>
      </trkpt>
      <trkpt lat="47.53004" lon="6.76933">
        <ele>378.6</ele>
        <time>2014-10-28T14:16:06.000Z</time>
      </trkpt>
      <trkpt lat="47.53003" lon="6.76936">
        <ele>376</ele>
        <time>2014-10-28T14:16:07.000Z</time>
      </trkpt>
      <trkpt lat="47.53001" lon="6.7694">
        <ele>375</ele>
        <time>2014-10-28T14:16:08.000Z</time>
      </trkpt>
      <trkpt lat="47.53" lon="6.76944">
        <ele>374.4</ele>
        <time>2014-10-28T14:16:09.000Z</time>
      </trkpt>
      <trkpt lat="47.52998" lon="6.76948">
        <ele>374.8</ele>
        <time>2014-10-28T14:16:10.000Z</time>
      </trkpt>
      <trkpt lat="47.52998" lon="6.76951">
        <ele>376</ele>
        <time>2014-10-28T14:16:11.000Z</time>
      </trkpt>
      <trkpt lat="47.52997" lon="6.76965">
        <ele>379.9</ele>
        <time>2014-10-28T14:16:12.000Z</time>
      </trkpt>
      <trkpt lat="47.52995" lon="6.7697">
        <ele>379.7</ele>
        <time>2014-10-28T14:16:13.000Z</time>
      </trkpt>
      <trkpt lat="47.52994" lon="6.76974">
        <ele>379.8</ele>
        <time>2014-10-28T14:16:14.000Z</time>
      </trkpt>
      <trkpt lat="47.52992" lon="6.76982">
        <ele>379.6</ele>
        <time>2014-10-28T14:16:17.000Z</time>
      </trkpt>
      <trkpt lat="47.5299" lon="6.76986">
        <ele>380.1</ele>
        <time>2014-10-28T14:16:19.000Z</time>
      </trkpt>
      <trkpt lat="47.5299" lon="6.76988">
        <ele>379.6</ele>
        <time>2014-10-28T14:16:20.000Z</time>
      </trkpt>
      <trkpt lat="47.52986" lon="6.7699">
        <ele>376.7</ele>
        <time>2014-10-28T14:16:24.000Z</time>
      </trkpt>
      <trkpt lat="47.52984" lon="6.76992">
        <ele>376.6</ele>
        <time>2014-10-28T14:16:25.000Z</time>
      </trkpt>
      <trkpt lat="47.52982" lon="6.76996">
        <ele>377.9</ele>
        <time>2014-10-28T14:16:27.000Z</time>
      </trkpt>
      <trkpt lat="47.52981" lon="6.76998">
        <ele>378.6</ele>
        <time>2014-10-28T14:16:28.000Z</time>
      </trkpt>
      <trkpt lat="47.52981" lon="6.77002">
        <ele>376.5</ele>
        <time>2014-10-28T14:16:30.000Z</time>
      </trkpt>
      <trkpt lat="47.52981" lon="6.77005">
        <ele>376.8</ele>
        <time>2014-10-28T14:16:31.000Z</time>
      </trkpt>
      <trkpt lat="47.52984" lon="6.77009">
        <ele>378</ele>
        <time>2014-10-28T14:16:33.000Z</time>
      </trkpt>
      <trkpt lat="47.52986" lon="6.77009">
        <ele>378</ele>
        <time>2014-10-28T14:16:34.000Z</time>
      </trkpt>
      <trkpt lat="47.52988" lon="6.7701">
        <ele>377.7</ele>
        <time>2014-10-28T14:16:35.000Z</time>
      </trkpt>
      <trkpt lat="47.52991" lon="6.77009">
        <ele>378.3</ele>
        <time>2014-10-28T14:16:36.000Z</time>
      </trkpt>
      <trkpt lat="47.52994" lon="6.77009">
        <ele>379.2</ele>
        <time>2014-10-28T14:16:37.000Z</time>
      </trkpt>
      <trkpt lat="47.52996" lon="6.77009">
        <ele>379.3</ele>
        <time>2014-10-28T14:16:38.000Z</time>
      </trkpt>
      <trkpt lat="47.52999" lon="6.77009">
        <ele>379.5</ele>
        <time>2014-10-28T14:16:39.000Z</time>
      </trkpt>
      <trkpt lat="47.53001" lon="6.77009">
        <ele>379.3</ele>
        <time>2014-10-28T14:16:40.000Z</time>
      </trkpt>
      <trkpt lat="47.53005" lon="6.77009">
        <ele>381.4</ele>
        <time>2014-10-28T14:16:42.000Z</time>
      </trkpt>
      <trkpt lat="47.53007" lon="6.77008">
        <ele>380.4</ele>
        <time>2014-10-28T14:16:43.000Z</time>
      </trkpt>
      <trkpt lat="47.53011" lon="6.77006">
        <ele>381.8</ele>
        <time>2014-10-28T14:16:45.000Z</time>
      </trkpt>
      <trkpt lat="47.53013" lon="6.77004">
        <ele>382.5</ele>
        <time>2014-10-28T14:16:46.000Z</time>
      </trkpt>
      <trkpt lat="47.53014" lon="6.76998">
        <ele>380</ele>
        <time>2014-10-28T14:16:50.000Z</time>
      </trkpt>
      <trkpt lat="47.53013" lon="6.76997">
        <ele>380.2</ele>
        <time>2014-10-28T14:16:51.000Z</time>
      </trkpt>
      <trkpt lat="47.53014" lon="6.76991">
        <ele>378.1</ele>
        <time>2014-10-28T14:16:55.000Z</time>
      </trkpt>
      <trkpt lat="47.53014" lon="6.76988">
        <ele>380.5</ele>
        <time>2014-10-28T14:16:56.000Z</time>
      </trkpt>
      <trkpt lat="47.53014" lon="6.76982">
        <ele>381.5</ele>
        <time>2014-10-28T14:16:58.000Z</time>
      </trkpt>
      <trkpt lat="47.53014" lon="6.7698">
        <ele>381.7</ele>
        <time>2014-10-28T14:16:59.000Z</time>
      </trkpt>
      <trkpt lat="47.53014" lon="6.76975">
        <ele>379.6</ele>
        <time>2014-10-28T14:17:02.000Z</time>
      </trkpt>
      <trkpt lat="47.53014" lon="6.76973">
        <ele>380.8</ele>
        <time>2014-10-28T14:17:03.000Z</time>
      </trkpt>
      <trkpt lat="47.53015" lon="6.76967">
        <ele>379.6</ele>
        <time>2014-10-28T14:17:05.000Z</time>
      </trkpt>
      <trkpt lat="47.53016" lon="6.76964">
        <ele>379.2</ele>
        <time>2014-10-28T14:17:06.000Z</time>
      </trkpt>
      <trkpt lat="47.53018" lon="6.76959">
        <ele>378.6</ele>
        <time>2014-10-28T14:17:08.000Z</time>
      </trkpt>
      <trkpt lat="47.53019" lon="6.76956">
        <ele>378.2</ele>
        <time>2014-10-28T14:17:09.000Z</time>
      </trkpt>
      <trkpt lat="47.53019" lon="6.7695">
        <ele>377.9</ele>
        <time>2014-10-28T14:17:11.000Z</time>
      </trkpt>
      <trkpt lat="47.53019" lon="6.76946">
        <ele>378.2</ele>
        <time>2014-10-28T14:17:12.000Z</time>
      </trkpt>
      <trkpt lat="47.53019" lon="6.76943">
        <ele>378.1</ele>
        <time>2014-10-28T14:17:13.000Z</time>
      </trkpt>
      <trkpt lat="47.53019" lon="6.76939">
        <ele>378.3</ele>
        <time>2014-10-28T14:17:14.000Z</time>
      </trkpt>
      <trkpt lat="47.53024" lon="6.7692">
        <ele>377.7</ele>
        <time>2014-10-28T14:17:22.000Z</time>
      </trkpt>
      <trkpt lat="47.53026" lon="6.76915">
        <ele>378.7</ele>
        <time>2014-10-28T14:17:24.000Z</time>
      </trkpt>
      <trkpt lat="47.53027" lon="6.76913">
        <ele>378</ele>
        <time>2014-10-28T14:17:25.000Z</time>
      </trkpt>
      <trkpt lat="47.53029" lon="6.76908">
        <ele>378.9</ele>
        <time>2014-10-28T14:17:27.000Z</time>
      </trkpt>
      <trkpt lat="47.53031" lon="6.76905">
        <ele>378.9</ele>
        <time>2014-10-28T14:17:28.000Z</time>
      </trkpt>
      <trkpt lat="47.53032" lon="6.76903">
        <ele>379.6</ele>
        <time>2014-10-28T14:17:29.000Z</time>
      </trkpt>
      <trkpt lat="47.53034" lon="6.769">
        <ele>380.8</ele>
        <time>2014-10-28T14:17:30.000Z</time>
      </trkpt>
      <trkpt lat="47.53036" lon="6.76898">
        <ele>381.4</ele>
        <time>2014-10-28T14:17:31.000Z</time>
      </trkpt>
      <trkpt lat="47.53038" lon="6.76896">
        <ele>381.8</ele>
        <time>2014-10-28T14:17:32.000Z</time>
      </trkpt>
      <trkpt lat="47.53041" lon="6.76895">
        <ele>381.8</ele>
        <time>2014-10-28T14:17:33.000Z</time>
      </trkpt>
      <trkpt lat="47.53043" lon="6.76893">
        <ele>383.1</ele>
        <time>2014-10-28T14:17:34.000Z</time>
      </trkpt>
      <trkpt lat="47.53045" lon="6.76889">
        <ele>384.2</ele>
        <time>2014-10-28T14:17:36.000Z</time>
      </trkpt>
      <trkpt lat="47.53046" lon="6.76887">
        <ele>384.2</ele>
        <time>2014-10-28T14:17:37.000Z</time>
      </trkpt>
      <trkpt lat="47.53048" lon="6.76882">
        <ele>385.4</ele>
        <time>2014-10-28T14:17:39.000Z</time>
      </trkpt>
      <trkpt lat="47.5305" lon="6.76879">
        <ele>385.7</ele>
        <time>2014-10-28T14:17:40.000Z</time>
      </trkpt>
      <trkpt lat="47.53051" lon="6.76876">
        <ele>385.7</ele>
        <time>2014-10-28T14:17:41.000Z</time>
      </trkpt>
      <trkpt lat="47.53053" lon="6.76872">
        <ele>385.9</ele>
        <time>2014-10-28T14:17:42.000Z</time>
      </trkpt>
      <trkpt lat="47.53055" lon="6.76869">
        <ele>385</ele>
        <time>2014-10-28T14:17:43.000Z</time>
      </trkpt>
      <trkpt lat="47.53057" lon="6.76866">
        <ele>387.2</ele>
        <time>2014-10-28T14:17:44.000Z</time>
      </trkpt>
      <trkpt lat="47.53059" lon="6.76863">
        <ele>386.9</ele>
        <time>2014-10-28T14:17:45.000Z</time>
      </trkpt>
      <trkpt lat="47.53062" lon="6.76861">
        <ele>388.1</ele>
        <time>2014-10-28T14:17:46.000Z</time>
      </trkpt>
      <trkpt lat="47.53064" lon="6.76859">
        <ele>388.8</ele>
        <time>2014-10-28T14:17:47.000Z</time>
      </trkpt>
      <trkpt lat="47.53066" lon="6.76857">
        <ele>389.6</ele>
        <time>2014-10-28T14:17:48.000Z</time>
      </trkpt>
      <trkpt lat="47.53068" lon="6.76856">
        <ele>390.3</ele>
        <time>2014-10-28T14:17:49.000Z</time>
      </trkpt>
      <trkpt lat="47.53071" lon="6.76855">
        <ele>390.7</ele>
        <time>2014-10-28T14:17:50.000Z</time>
      </trkpt>
      <trkpt lat="47.53073" lon="6.76854">
        <ele>390.3</ele>
        <time>2014-10-28T14:17:51.000Z</time>
      </trkpt>
      <trkpt lat="47.53075" lon="6.76853">
        <ele>389.7</ele>
        <time>2014-10-28T14:17:52.000Z</time>
      </trkpt>
      <trkpt lat="47.53078" lon="6.76852">
        <ele>389</ele>
        <time>2014-10-28T14:17:53.000Z</time>
      </trkpt>
      <trkpt lat="47.5308" lon="6.76851">
        <ele>388.7</ele>
        <time>2014-10-28T14:17:54.000Z</time>
      </trkpt>
      <trkpt lat="47.53083" lon="6.76849">
        <ele>388.4</ele>
        <time>2014-10-28T14:17:55.000Z</time>
      </trkpt>
      <trkpt lat="47.53085" lon="6.76848">
        <ele>387</ele>
        <time>2014-10-28T14:17:56.000Z</time>
      </trkpt>
      <trkpt lat="47.53088" lon="6.76847">
        <ele>386.5</ele>
        <time>2014-10-28T14:17:57.000Z</time>
      </trkpt>
      <trkpt lat="47.53091" lon="6.76845">
        <ele>385.4</ele>
        <time>2014-10-28T14:17:58.000Z</time>
      </trkpt>
      <trkpt lat="47.53093" lon="6.76844">
        <ele>385.3</ele>
        <time>2014-10-28T14:17:59.000Z</time>
      </trkpt>
      <trkpt lat="47.53096" lon="6.76843">
        <ele>384.9</ele>
        <time>2014-10-28T14:18:00.000Z</time>
      </trkpt>
      <trkpt lat="47.53099" lon="6.76842">
        <ele>384.7</ele>
        <time>2014-10-28T14:18:01.000Z</time>
      </trkpt>
      <trkpt lat="47.53101" lon="6.76841">
        <ele>385</ele>
        <time>2014-10-28T14:18:02.000Z</time>
      </trkpt>
      <trkpt lat="47.53104" lon="6.7684">
        <ele>385.1</ele>
        <time>2014-10-28T14:18:03.000Z</time>
      </trkpt>
      <trkpt lat="47.53106" lon="6.7684">
        <ele>385.7</ele>
        <time>2014-10-28T14:18:04.000Z</time>
      </trkpt>
      <trkpt lat="47.5311" lon="6.7684">
        <ele>385</ele>
        <time>2014-10-28T14:18:06.000Z</time>
      </trkpt>
      <trkpt lat="47.53112" lon="6.7684">
        <ele>385.2</ele>
        <time>2014-10-28T14:18:07.000Z</time>
      </trkpt>
      <trkpt lat="47.53114" lon="6.76841">
        <ele>386</ele>
        <time>2014-10-28T14:18:08.000Z</time>
      </trkpt>
      <trkpt lat="47.53117" lon="6.76843">
        <ele>386</ele>
        <time>2014-10-28T14:18:09.000Z</time>
      </trkpt>
      <trkpt lat="47.53119" lon="6.76845">
        <ele>385.7</ele>
        <time>2014-10-28T14:18:10.000Z</time>
      </trkpt>
      <trkpt lat="47.53121" lon="6.76847">
        <ele>385.8</ele>
        <time>2014-10-28T14:18:11.000Z</time>
      </trkpt>
      <trkpt lat="47.53122" lon="6.7685">
        <ele>384.2</ele>
        <time>2014-10-28T14:18:12.000Z</time>
      </trkpt>
      <trkpt lat="47.53123" lon="6.76854">
        <ele>384.4</ele>
        <time>2014-10-28T14:18:13.000Z</time>
      </trkpt>
      <trkpt lat="47.53123" lon="6.76858">
        <ele>384.3</ele>
        <time>2014-10-28T14:18:14.000Z</time>
      </trkpt>
      <trkpt lat="47.53126" lon="6.76874">
        <ele>388</ele>
        <time>2014-10-28T14:18:22.000Z</time>
      </trkpt>
      <trkpt lat="47.53127" lon="6.7688">
        <ele>390</ele>
        <time>2014-10-28T14:18:25.000Z</time>
      </trkpt>
      <trkpt lat="47.53128" lon="6.76883">
        <ele>391</ele>
        <time>2014-10-28T14:18:26.000Z</time>
      </trkpt>
      <trkpt lat="47.53129" lon="6.76886">
        <ele>391.6</ele>
        <time>2014-10-28T14:18:27.000Z</time>
      </trkpt>
      <trkpt lat="47.5313" lon="6.7689">
        <ele>393.1</ele>
        <time>2014-10-28T14:18:28.000Z</time>
      </trkpt>
      <trkpt lat="47.53131" lon="6.76896">
        <ele>393.5</ele>
        <time>2014-10-28T14:18:30.000Z</time>
      </trkpt>
      <trkpt lat="47.53131" lon="6.76898">
        <ele>394.5</ele>
        <time>2014-10-28T14:18:31.000Z</time>
      </trkpt>
      <trkpt lat="47.53132" lon="6.76903">
        <ele>394.7</ele>
        <time>2014-10-28T14:18:33.000Z</time>
      </trkpt>
      <trkpt lat="47.53132" lon="6.76905">
        <ele>394.1</ele>
        <time>2014-10-28T14:18:34.000Z</time>
      </trkpt>
      <trkpt lat="47.53133" lon="6.76911">
        <ele>390.8</ele>
        <time>2014-10-28T14:18:36.000Z</time>
      </trkpt>
      <trkpt lat="47.53134" lon="6.76914">
        <ele>394</ele>
        <time>2014-10-28T14:18:37.000Z</time>
      </trkpt>
      <trkpt lat="47.53135" lon="6.76919">
        <ele>393.8</ele>
        <time>2014-10-28T14:18:39.000Z</time>
      </trkpt>
      <trkpt lat="47.53136" lon="6.7692">
        <ele>391.9</ele>
        <time>2014-10-28T14:18:40.000Z</time>
      </trkpt>
      <trkpt lat="47.5314" lon="6.76921">
        <ele>387.8</ele>
        <time>2014-10-28T14:18:44.000Z</time>
      </trkpt>
      <trkpt lat="47.53141" lon="6.76921">
        <ele>387.6</ele>
        <time>2014-10-28T14:18:45.000Z</time>
      </trkpt>
      <trkpt lat="47.53145" lon="6.7692">
        <ele>387.5</ele>
        <time>2014-10-28T14:18:48.000Z</time>
      </trkpt>
      <trkpt lat="47.53147" lon="6.76919">
        <ele>387.2</ele>
        <time>2014-10-28T14:18:49.000Z</time>
      </trkpt>
      <trkpt lat="47.5315" lon="6.76915">
        <ele>387.5</ele>
        <time>2014-10-28T14:18:51.000Z</time>
      </trkpt>
      <trkpt lat="47.53151" lon="6.76913">
        <ele>387.8</ele>
        <time>2014-10-28T14:18:52.000Z</time>
      </trkpt>
      <trkpt lat="47.53151" lon="6.76908">
        <ele>388.6</ele>
        <time>2014-10-28T14:18:55.000Z</time>
      </trkpt>
      <trkpt lat="47.53151" lon="6.76906">
        <ele>388</ele>
        <time>2014-10-28T14:18:56.000Z</time>
      </trkpt>
      <trkpt lat="47.53151" lon="6.76901">
        <ele>389</ele>
        <time>2014-10-28T14:18:58.000Z</time>
      </trkpt>
      <trkpt lat="47.53152" lon="6.76899">
        <ele>389.7</ele>
        <time>2014-10-28T14:18:59.000Z</time>
      </trkpt>
      <trkpt lat="47.53154" lon="6.76895">
        <ele>390.5</ele>
        <time>2014-10-28T14:19:01.000Z</time>
      </trkpt>
      <trkpt lat="47.53155" lon="6.76892">
        <ele>389.7</ele>
        <time>2014-10-28T14:19:02.000Z</time>
      </trkpt>
      <trkpt lat="47.53158" lon="6.76888">
        <ele>389.9</ele>
        <time>2014-10-28T14:19:04.000Z</time>
      </trkpt>
      <trkpt lat="47.53158" lon="6.76886">
        <ele>390.1</ele>
        <time>2014-10-28T14:19:05.000Z</time>
      </trkpt>
      <trkpt lat="47.53158" lon="6.76881">
        <ele>387.2</ele>
        <time>2014-10-28T14:19:07.000Z</time>
      </trkpt>
      <trkpt lat="47.53158" lon="6.76879">
        <ele>386</ele>
        <time>2014-10-28T14:19:08.000Z</time>
      </trkpt>
      <trkpt lat="47.53157" lon="6.76873">
        <ele>385.8</ele>
        <time>2014-10-28T14:19:11.000Z</time>
      </trkpt>
      <trkpt lat="47.53156" lon="6.76871">
        <ele>384.9</ele>
        <time>2014-10-28T14:19:12.000Z</time>
      </trkpt>
      <trkpt lat="47.53156" lon="6.76869">
        <ele>384.5</ele>
        <time>2014-10-28T14:19:13.000Z</time>
      </trkpt>
      <trkpt lat="47.53153" lon="6.76862">
        <ele>383.3</ele>
        <time>2014-10-28T14:19:17.000Z</time>
      </trkpt>
      <trkpt lat="47.5315" lon="6.76857">
        <ele>384.3</ele>
        <time>2014-10-28T14:19:20.000Z</time>
      </trkpt>
      <trkpt lat="47.53148" lon="6.76855">
        <ele>383.4</ele>
        <time>2014-10-28T14:19:21.000Z</time>
      </trkpt>
      <trkpt lat="47.53146" lon="6.76852">
        <ele>382.5</ele>
        <time>2014-10-28T14:19:23.000Z</time>
      </trkpt>
      <trkpt lat="47.53145" lon="6.7685">
        <ele>382.6</ele>
        <time>2014-10-28T14:19:24.000Z</time>
      </trkpt>
      <trkpt lat="47.53145" lon="6.76845">
        <ele>382.2</ele>
        <time>2014-10-28T14:19:26.000Z</time>
      </trkpt>
      <trkpt lat="47.53146" lon="6.76842">
        <ele>381.4</ele>
        <time>2014-10-28T14:19:27.000Z</time>
      </trkpt>
      <trkpt lat="47.53149" lon="6.76838">
        <ele>380.8</ele>
        <time>2014-10-28T14:19:29.000Z</time>
      </trkpt>
      <trkpt lat="47.53151" lon="6.76838">
        <ele>381.4</ele>
        <time>2014-10-28T14:19:30.000Z</time>
      </trkpt>
      <trkpt lat="47.53154" lon="6.7684">
        <ele>380.1</ele>
        <time>2014-10-28T14:19:32.000Z</time>
      </trkpt>
      <trkpt lat="47.53155" lon="6.76841">
        <ele>379.7</ele>
        <time>2014-10-28T14:19:33.000Z</time>
      </trkpt>
      <trkpt lat="47.53158" lon="6.76844">
        <ele>378.3</ele>
        <time>2014-10-28T14:19:35.000Z</time>
      </trkpt>
      <trkpt lat="47.53159" lon="6.76846">
        <ele>377.7</ele>
        <time>2014-10-28T14:19:36.000Z</time>
      </trkpt>
      <trkpt lat="47.53162" lon="6.76848">
        <ele>379.8</ele>
        <time>2014-10-28T14:19:38.000Z</time>
      </trkpt>
      <trkpt lat="47.53164" lon="6.76849">
        <ele>380.7</ele>
        <time>2014-10-28T14:19:39.000Z</time>
      </trkpt>
      <trkpt lat="47.53166" lon="6.7685">
        <ele>380.4</ele>
        <time>2014-10-28T14:19:40.000Z</time>
      </trkpt>
      <trkpt lat="47.53168" lon="6.76851">
        <ele>380</ele>
        <time>2014-10-28T14:19:41.000Z</time>
      </trkpt>
      <trkpt lat="47.5317" lon="6.76852">
        <ele>380.4</ele>
        <time>2014-10-28T14:19:42.000Z</time>
      </trkpt>
      <trkpt lat="47.53172" lon="6.76854">
        <ele>381.1</ele>
        <time>2014-10-28T14:19:43.000Z</time>
      </trkpt>
      <trkpt lat="47.53176" lon="6.76856">
        <ele>381.6</ele>
        <time>2014-10-28T14:19:45.000Z</time>
      </trkpt>
      <trkpt lat="47.53178" lon="6.76857">
        <ele>381.9</ele>
        <time>2014-10-28T14:19:46.000Z</time>
      </trkpt>
      <trkpt lat="47.53181" lon="6.76858">
        <ele>381.2</ele>
        <time>2014-10-28T14:19:48.000Z</time>
      </trkpt>
      <trkpt lat="47.53182" lon="6.76858">
        <ele>382.3</ele>
        <time>2014-10-28T14:19:49.000Z</time>
      </trkpt>
      <trkpt lat="47.53185" lon="6.76857">
        <ele>383.5</ele>
        <time>2014-10-28T14:19:51.000Z</time>
      </trkpt>
      <trkpt lat="47.53187" lon="6.76856">
        <ele>383.6</ele>
        <time>2014-10-28T14:19:52.000Z</time>
      </trkpt>
      <trkpt lat="47.53189" lon="6.76852">
        <ele>385.3</ele>
        <time>2014-10-28T14:19:54.000Z</time>
      </trkpt>
      <trkpt lat="47.5319" lon="6.7685">
        <ele>385.3</ele>
        <time>2014-10-28T14:19:55.000Z</time>
      </trkpt>
      <trkpt lat="47.53192" lon="6.76844">
        <ele>386.3</ele>
        <time>2014-10-28T14:19:57.000Z</time>
      </trkpt>
      <trkpt lat="47.53193" lon="6.76841">
        <ele>386.5</ele>
        <time>2014-10-28T14:19:58.000Z</time>
      </trkpt>
      <trkpt lat="47.53195" lon="6.76836">
        <ele>387.9</ele>
        <time>2014-10-28T14:20:00.000Z</time>
      </trkpt>
      <trkpt lat="47.53195" lon="6.76832">
        <ele>388.1</ele>
        <time>2014-10-28T14:20:01.000Z</time>
      </trkpt>
      <trkpt lat="47.53196" lon="6.76829">
        <ele>388.5</ele>
        <time>2014-10-28T14:20:02.000Z</time>
      </trkpt>
      <trkpt lat="47.53196" lon="6.76826">
        <ele>389.2</ele>
        <time>2014-10-28T14:20:03.000Z</time>
      </trkpt>
      <trkpt lat="47.53196" lon="6.76819">
        <ele>390.2</ele>
        <time>2014-10-28T14:20:05.000Z</time>
      </trkpt>
      <trkpt lat="47.53195" lon="6.76817">
        <ele>390.4</ele>
        <time>2014-10-28T14:20:06.000Z</time>
      </trkpt>
      <trkpt lat="47.53192" lon="6.76813">
        <ele>391.3</ele>
        <time>2014-10-28T14:20:12.000Z</time>
      </trkpt>
      <trkpt lat="47.53192" lon="6.76812">
        <ele>391.1</ele>
        <time>2014-10-28T14:20:13.000Z</time>
      </trkpt>
      <trkpt lat="47.53191" lon="6.76812">
        <ele>391.4</ele>
        <time>2014-10-28T14:20:14.000Z</time>
      </trkpt>
      <trkpt lat="47.53182" lon="6.76803">
        <ele>394.4</ele>
        <time>2014-10-28T14:20:22.000Z</time>
      </trkpt>
      <trkpt lat="47.5318" lon="6.76798">
        <ele>388.1</ele>
        <time>2014-10-28T14:20:28.000Z</time>
      </trkpt>
      <trkpt lat="47.53179" lon="6.76796">
        <ele>387.8</ele>
        <time>2014-10-28T14:20:29.000Z</time>
      </trkpt>
      <trkpt lat="47.53179" lon="6.76792">
        <ele>387.1</ele>
        <time>2014-10-28T14:20:31.000Z</time>
      </trkpt>
      <trkpt lat="47.53178" lon="6.76789">
        <ele>386.6</ele>
        <time>2014-10-28T14:20:32.000Z</time>
      </trkpt>
      <trkpt lat="47.53178" lon="6.76784">
        <ele>385.5</ele>
        <time>2014-10-28T14:20:35.000Z</time>
      </trkpt>
      <trkpt lat="47.53178" lon="6.76781">
        <ele>385.6</ele>
        <time>2014-10-28T14:20:36.000Z</time>
      </trkpt>
      <trkpt lat="47.53177" lon="6.76777">
        <ele>387</ele>
        <time>2014-10-28T14:20:37.000Z</time>
      </trkpt>
      <trkpt lat="47.53177" lon="6.76774">
        <ele>387.9</ele>
        <time>2014-10-28T14:20:38.000Z</time>
      </trkpt>
      <trkpt lat="47.53176" lon="6.76771">
        <ele>388.2</ele>
        <time>2014-10-28T14:20:39.000Z</time>
      </trkpt>
      <trkpt lat="47.53175" lon="6.76767">
        <ele>387.7</ele>
        <time>2014-10-28T14:20:40.000Z</time>
      </trkpt>
      <trkpt lat="47.53174" lon="6.76764">
        <ele>388.5</ele>
        <time>2014-10-28T14:20:41.000Z</time>
      </trkpt>
      <trkpt lat="47.53174" lon="6.76761">
        <ele>387.5</ele>
        <time>2014-10-28T14:20:42.000Z</time>
      </trkpt>
      <trkpt lat="47.53171" lon="6.76756">
        <ele>387.1</ele>
        <time>2014-10-28T14:20:44.000Z</time>
      </trkpt>
      <trkpt lat="47.53169" lon="6.76753">
        <ele>386.2</ele>
        <time>2014-10-28T14:20:45.000Z</time>
      </trkpt>
      <trkpt lat="47.53168" lon="6.76751">
        <ele>386.2</ele>
        <time>2014-10-28T14:20:46.000Z</time>
      </trkpt>
      <trkpt lat="47.53166" lon="6.76747">
        <ele>386.3</ele>
        <time>2014-10-28T14:20:47.000Z</time>
      </trkpt>
      <trkpt lat="47.53165" lon="6.76743">
        <ele>386.8</ele>
        <time>2014-10-28T14:20:48.000Z</time>
      </trkpt>
      <trkpt lat="47.53164" lon="6.76739">
        <ele>386.8</ele>
        <time>2014-10-28T14:20:49.000Z</time>
      </trkpt>
      <trkpt lat="47.53163" lon="6.76734">
        <ele>387</ele>
        <time>2014-10-28T14:20:51.000Z</time>
      </trkpt>
      <trkpt lat="47.53162" lon="6.76732">
        <ele>387.1</ele>
        <time>2014-10-28T14:20:52.000Z</time>
      </trkpt>
      <trkpt lat="47.53157" lon="6.76731">
        <ele>385.8</ele>
        <time>2014-10-28T14:20:56.000Z</time>
      </trkpt>
      <trkpt lat="47.53156" lon="6.76732">
        <ele>385.3</ele>
        <time>2014-10-28T14:20:57.000Z</time>
      </trkpt>
      <trkpt lat="47.53153" lon="6.76733">
        <ele>385.7</ele>
        <time>2014-10-28T14:20:59.000Z</time>
      </trkpt>
      <trkpt lat="47.53151" lon="6.76733">
        <ele>385.8</ele>
        <time>2014-10-28T14:21:00.000Z</time>
      </trkpt>
      <trkpt lat="47.53147" lon="6.76733">
        <ele>385.5</ele>
        <time>2014-10-28T14:21:02.000Z</time>
      </trkpt>
      <trkpt lat="47.53145" lon="6.76732">
        <ele>385.5</ele>
        <time>2014-10-28T14:21:03.000Z</time>
      </trkpt>
      <trkpt lat="47.53141" lon="6.76731">
        <ele>385.8</ele>
        <time>2014-10-28T14:21:05.000Z</time>
      </trkpt>
      <trkpt lat="47.53138" lon="6.76731">
        <ele>387.1</ele>
        <time>2014-10-28T14:21:06.000Z</time>
      </trkpt>
      <trkpt lat="47.53136" lon="6.7673">
        <ele>387.8</ele>
        <time>2014-10-28T14:21:07.000Z</time>
      </trkpt>
      <trkpt lat="47.53133" lon="6.76729">
        <ele>388.3</ele>
        <time>2014-10-28T14:21:08.000Z</time>
      </trkpt>
      <trkpt lat="47.53131" lon="6.76728">
        <ele>388.1</ele>
        <time>2014-10-28T14:21:09.000Z</time>
      </trkpt>
      <trkpt lat="47.53129" lon="6.76727">
        <ele>388</ele>
        <time>2014-10-28T14:21:10.000Z</time>
      </trkpt>
      <trkpt lat="47.53125" lon="6.76726">
        <ele>388.5</ele>
        <time>2014-10-28T14:21:12.000Z</time>
      </trkpt>
      <trkpt lat="47.53124" lon="6.76726">
        <ele>389.2</ele>
        <time>2014-10-28T14:21:13.000Z</time>
      </trkpt>
      <trkpt lat="47.53112" lon="6.76728">
        <ele>391.1</ele>
        <time>2014-10-28T14:21:20.957Z</time>
      </trkpt>
      <trkpt lat="47.53109" lon="6.76732">
        <ele>390.9</ele>
        <time>2014-10-28T14:21:24.000Z</time>
      </trkpt>
      <trkpt lat="47.53107" lon="6.76734">
        <ele>391.2</ele>
        <time>2014-10-28T14:21:25.000Z</time>
      </trkpt>
      <trkpt lat="47.53105" lon="6.76739">
        <ele>391.1</ele>
        <time>2014-10-28T14:21:27.000Z</time>
      </trkpt>
      <trkpt lat="47.53104" lon="6.76741">
        <ele>392.1</ele>
        <time>2014-10-28T14:21:28.000Z</time>
      </trkpt>
      <trkpt lat="47.53103" lon="6.76746">
        <ele>392.9</ele>
        <time>2014-10-28T14:21:31.000Z</time>
      </trkpt>
      <trkpt lat="47.53103" lon="6.76748">
        <ele>391.4</ele>
        <time>2014-10-28T14:21:32.000Z</time>
      </trkpt>
      <trkpt lat="47.53102" lon="6.76752">
        <ele>391.1</ele>
        <time>2014-10-28T14:21:34.000Z</time>
      </trkpt>
      <trkpt lat="47.53102" lon="6.76755">
        <ele>392.9</ele>
        <time>2014-10-28T14:21:35.000Z</time>
      </trkpt>
      <trkpt lat="47.531" lon="6.7676">
        <ele>392.8</ele>
        <time>2014-10-28T14:21:37.000Z</time>
      </trkpt>
      <trkpt lat="47.53098" lon="6.76763">
        <ele>392</ele>
        <time>2014-10-28T14:21:38.000Z</time>
      </trkpt>
      <trkpt lat="47.53096" lon="6.76767">
        <ele>390.6</ele>
        <time>2014-10-28T14:21:40.000Z</time>
      </trkpt>
      <trkpt lat="47.53094" lon="6.76769">
        <ele>389.6</ele>
        <time>2014-10-28T14:21:41.000Z</time>
      </trkpt>
      <trkpt lat="47.53091" lon="6.76772">
        <ele>389.1</ele>
        <time>2014-10-28T14:21:43.000Z</time>
      </trkpt>
      <trkpt lat="47.53088" lon="6.76775">
        <ele>387.3</ele>
        <time>2014-10-28T14:21:44.000Z</time>
      </trkpt>
      <trkpt lat="47.53086" lon="6.76778">
        <ele>387</ele>
        <time>2014-10-28T14:21:45.000Z</time>
      </trkpt>
      <trkpt lat="47.53083" lon="6.7678">
        <ele>385</ele>
        <time>2014-10-28T14:21:46.000Z</time>
      </trkpt>
      <trkpt lat="47.53081" lon="6.76782">
        <ele>385.8</ele>
        <time>2014-10-28T14:21:47.000Z</time>
      </trkpt>
      <trkpt lat="47.5308" lon="6.76784">
        <ele>386.2</ele>
        <time>2014-10-28T14:21:48.000Z</time>
      </trkpt>
      <trkpt lat="47.53076" lon="6.76789">
        <ele>385.1</ele>
        <time>2014-10-28T14:21:50.000Z</time>
      </trkpt>
      <trkpt lat="47.53074" lon="6.7679">
        <ele>384</ele>
        <time>2014-10-28T14:21:51.000Z</time>
      </trkpt>
      <trkpt lat="47.53072" lon="6.76791">
        <ele>384.2</ele>
        <time>2014-10-28T14:21:52.000Z</time>
      </trkpt>
      <trkpt lat="47.53069" lon="6.76792">
        <ele>385.6</ele>
        <time>2014-10-28T14:21:53.000Z</time>
      </trkpt>
      <trkpt lat="47.53066" lon="6.76794">
        <ele>386.9</ele>
        <time>2014-10-28T14:21:55.000Z</time>
      </trkpt>
      <trkpt lat="47.53065" lon="6.76795">
        <ele>386.8</ele>
        <time>2014-10-28T14:21:56.000Z</time>
      </trkpt>
      <trkpt lat="47.53068" lon="6.76797">
        <ele>372.2</ele>
        <time>2014-10-28T14:22:05.000Z</time>
      </trkpt>
      <trkpt lat="47.53069" lon="6.76796">
        <ele>372</ele>
        <time>2014-10-28T14:22:06.000Z</time>
      </trkpt>
      <trkpt lat="47.53073" lon="6.76794">
        <ele>374.7</ele>
        <time>2014-10-28T14:22:09.000Z</time>
      </trkpt>
      <trkpt lat="47.53074" lon="6.76792">
        <ele>375.1</ele>
        <time>2014-10-28T14:22:10.000Z</time>
      </trkpt>
      <trkpt lat="47.53077" lon="6.76788">
        <ele>376</ele>
        <time>2014-10-28T14:22:12.000Z</time>
      </trkpt>
      <trkpt lat="47.53078" lon="6.76787">
        <ele>375.4</ele>
        <time>2014-10-28T14:22:13.000Z</time>
      </trkpt>
      <trkpt lat="47.5308" lon="6.76786">
        <ele>376.2</ele>
        <time>2014-10-28T14:22:14.000Z</time>
      </trkpt>
      <trkpt lat="47.53084" lon="6.76792">
        <ele>377.8</ele>
        <time>2014-10-28T14:22:22.000Z</time>
      </trkpt>
      <trkpt lat="47.53085" lon="6.76796">
        <ele>378.7</ele>
        <time>2014-10-28T14:22:24.000Z</time>
      </trkpt>
      <trkpt lat="47.53086" lon="6.76799">
        <ele>379.2</ele>
        <time>2014-10-28T14:22:25.000Z</time>
      </trkpt>
      <trkpt lat="47.53089" lon="6.76803">
        <ele>379.7</ele>
        <time>2014-10-28T14:22:27.000Z</time>
      </trkpt>
      <trkpt lat="47.53091" lon="6.76804">
        <ele>379.8</ele>
        <time>2014-10-28T14:22:28.000Z</time>
      </trkpt>
      <trkpt lat="47.53093" lon="6.76808">
        <ele>378.1</ele>
        <time>2014-10-28T14:22:31.000Z</time>
      </trkpt>
      <trkpt lat="47.53093" lon="6.76811">
        <ele>378.9</ele>
        <time>2014-10-28T14:22:32.000Z</time>
      </trkpt>
      <trkpt lat="47.53092" lon="6.76814">
        <ele>377.4</ele>
        <time>2014-10-28T14:22:33.000Z</time>
      </trkpt>
      <trkpt lat="47.53091" lon="6.76818">
        <ele>378.6</ele>
        <time>2014-10-28T14:22:34.000Z</time>
      </trkpt>
      <trkpt lat="47.5309" lon="6.76821">
        <ele>378.3</ele>
        <time>2014-10-28T14:22:35.000Z</time>
      </trkpt>
      <trkpt lat="47.53089" lon="6.76824">
        <ele>375.2</ele>
        <time>2014-10-28T14:22:36.000Z</time>
      </trkpt>
      <trkpt lat="47.53086" lon="6.76828">
        <ele>376.6</ele>
        <time>2014-10-28T14:22:38.000Z</time>
      </trkpt>
      <trkpt lat="47.53084" lon="6.7683">
        <ele>378.4</ele>
        <time>2014-10-28T14:22:39.000Z</time>
      </trkpt>
      <trkpt lat="47.5308" lon="6.76831">
        <ele>380.4</ele>
        <time>2014-10-28T14:22:41.000Z</time>
      </trkpt>
      <trkpt lat="47.53079" lon="6.76831">
        <ele>381.4</ele>
        <time>2014-10-28T14:22:42.000Z</time>
      </trkpt>
      <trkpt lat="47.53075" lon="6.76831">
        <ele>382.7</ele>
        <time>2014-10-28T14:22:46.000Z</time>
      </trkpt>
      <trkpt lat="47.53074" lon="6.76831">
        <ele>383.3</ele>
        <time>2014-10-28T14:22:47.000Z</time>
      </trkpt>
      <trkpt lat="47.53071" lon="6.76834">
        <ele>384.2</ele>
        <time>2014-10-28T14:22:50.000Z</time>
      </trkpt>
      <trkpt lat="47.5307" lon="6.76836">
        <ele>383.9</ele>
        <time>2014-10-28T14:22:51.000Z</time>
      </trkpt>
      <trkpt lat="47.53067" lon="6.76838">
        <ele>383.4</ele>
        <time>2014-10-28T14:22:53.000Z</time>
      </trkpt>
      <trkpt lat="47.53065" lon="6.76839">
        <ele>383</ele>
        <time>2014-10-28T14:22:54.000Z</time>
      </trkpt>
      <trkpt lat="47.5306" lon="6.76839">
        <ele>383.1</ele>
        <time>2014-10-28T14:22:56.000Z</time>
      </trkpt>
      <trkpt lat="47.53058" lon="6.76839">
        <ele>382</ele>
        <time>2014-10-28T14:22:57.000Z</time>
      </trkpt>
      <trkpt lat="47.53055" lon="6.76838">
        <ele>381.6</ele>
        <time>2014-10-28T14:22:58.000Z</time>
      </trkpt>
      <trkpt lat="47.53053" lon="6.76837">
        <ele>381.6</ele>
        <time>2014-10-28T14:22:59.000Z</time>
      </trkpt>
      <trkpt lat="47.5305" lon="6.76836">
        <ele>380.1</ele>
        <time>2014-10-28T14:23:00.000Z</time>
      </trkpt>
      <trkpt lat="47.53048" lon="6.76835">
        <ele>379.6</ele>
        <time>2014-10-28T14:23:01.000Z</time>
      </trkpt>
      <trkpt lat="47.53045" lon="6.76835">
        <ele>379</ele>
        <time>2014-10-28T14:23:02.000Z</time>
      </trkpt>
      <trkpt lat="47.53043" lon="6.76834">
        <ele>380.5</ele>
        <time>2014-10-28T14:23:03.000Z</time>
      </trkpt>
      <trkpt lat="47.53041" lon="6.76833">
        <ele>381.5</ele>
        <time>2014-10-28T14:23:04.000Z</time>
      </trkpt>
      <trkpt lat="47.53038" lon="6.76832">
        <ele>382.5</ele>
        <time>2014-10-28T14:23:05.000Z</time>
      </trkpt>
      <trkpt lat="47.53036" lon="6.76831">
        <ele>383.5</ele>
        <time>2014-10-28T14:23:06.000Z</time>
      </trkpt>
      <trkpt lat="47.53033" lon="6.7683">
        <ele>384.2</ele>
        <time>2014-10-28T14:23:07.000Z</time>
      </trkpt>
      <trkpt lat="47.53029" lon="6.76829">
        <ele>385.1</ele>
        <time>2014-10-28T14:23:09.000Z</time>
      </trkpt>
      <trkpt lat="47.53028" lon="6.76828">
        <ele>386.7</ele>
        <time>2014-10-28T14:23:10.000Z</time>
      </trkpt>
      <trkpt lat="47.53023" lon="6.76829">
        <ele>388.2</ele>
        <time>2014-10-28T14:23:13.000Z</time>
      </trkpt>
      <trkpt lat="47.53022" lon="6.7683">
        <ele>388.2</ele>
        <time>2014-10-28T14:23:14.000Z</time>
      </trkpt>
      <trkpt lat="47.53017" lon="6.76836">
        <ele>384.5</ele>
        <time>2014-10-28T14:23:17.000Z</time>
      </trkpt>
      <trkpt lat="47.53016" lon="6.7684">
        <ele>382.1</ele>
        <time>2014-10-28T14:23:19.000Z</time>
      </trkpt>
      <trkpt lat="47.53017" lon="6.76842">
        <ele>381.4</ele>
        <time>2014-10-28T14:23:20.000Z</time>
      </trkpt>
      <trkpt lat="47.53019" lon="6.76848">
        <ele>380.6</ele>
        <time>2014-10-28T14:23:22.000Z</time>
      </trkpt>
      <trkpt lat="47.5302" lon="6.76849">
        <ele>381</ele>
        <time>2014-10-28T14:23:23.000Z</time>
      </trkpt>
      <trkpt lat="47.53022" lon="6.76853">
        <ele>380.7</ele>
        <time>2014-10-28T14:23:26.000Z</time>
      </trkpt>
      <trkpt lat="47.53023" lon="6.76856">
        <ele>380.2</ele>
        <time>2014-10-28T14:23:27.000Z</time>
      </trkpt>
      <trkpt lat="47.53024" lon="6.76861">
        <ele>379.3</ele>
        <time>2014-10-28T14:23:29.000Z</time>
      </trkpt>
      <trkpt lat="47.53024" lon="6.76864">
        <ele>379.1</ele>
        <time>2014-10-28T14:23:30.000Z</time>
      </trkpt>
      <trkpt lat="47.53024" lon="6.7687">
        <ele>380.8</ele>
        <time>2014-10-28T14:23:32.000Z</time>
      </trkpt>
      <trkpt lat="47.53023" lon="6.76873">
        <ele>380.8</ele>
        <time>2014-10-28T14:23:33.000Z</time>
      </trkpt>
      <trkpt lat="47.53022" lon="6.76879">
        <ele>381.4</ele>
        <time>2014-10-28T14:23:35.000Z</time>
      </trkpt>
      <trkpt lat="47.53021" lon="6.76882">
        <ele>380.3</ele>
        <time>2014-10-28T14:23:36.000Z</time>
      </trkpt>
      <trkpt lat="47.53019" lon="6.76888">
        <ele>380.1</ele>
        <time>2014-10-28T14:23:38.000Z</time>
      </trkpt>
      <trkpt lat="47.53018" lon="6.7689">
        <ele>380.2</ele>
        <time>2014-10-28T14:23:39.000Z</time>
      </trkpt>
      <trkpt lat="47.53015" lon="6.76893">
        <ele>379.8</ele>
        <time>2014-10-28T14:23:41.000Z</time>
      </trkpt>
      <trkpt lat="47.53013" lon="6.76895">
        <ele>379.3</ele>
        <time>2014-10-28T14:23:42.000Z</time>
      </trkpt>
      <trkpt lat="47.53011" lon="6.76896">
        <ele>379.1</ele>
        <time>2014-10-28T14:23:43.000Z</time>
      </trkpt>
      <trkpt lat="47.53009" lon="6.76897">
        <ele>378.9</ele>
        <time>2014-10-28T14:23:44.000Z</time>
      </trkpt>
      <trkpt lat="47.53007" lon="6.76898">
        <ele>379.2</ele>
        <time>2014-10-28T14:23:45.000Z</time>
      </trkpt>
      <trkpt lat="47.53004" lon="6.76899">
        <ele>378.8</ele>
        <time>2014-10-28T14:23:46.000Z</time>
      </trkpt>
      <trkpt lat="47.53001" lon="6.76899">
        <ele>379.5</ele>
        <time>2014-10-28T14:23:47.000Z</time>
      </trkpt>
      <trkpt lat="47.52999" lon="6.76899">
        <ele>380.2</ele>
        <time>2014-10-28T14:23:48.000Z</time>
      </trkpt>
      <trkpt lat="47.52995" lon="6.76899">
        <ele>382</ele>
        <time>2014-10-28T14:23:50.000Z</time>
      </trkpt>
      <trkpt lat="47.52994" lon="6.76899">
        <ele>382.3</ele>
        <time>2014-10-28T14:23:51.000Z</time>
      </trkpt>
      <trkpt lat="47.5299" lon="6.76897">
        <ele>383.2</ele>
        <time>2014-10-28T14:23:53.000Z</time>
      </trkpt>
      <trkpt lat="47.52989" lon="6.76896">
        <ele>382.7</ele>
        <time>2014-10-28T14:23:54.000Z</time>
      </trkpt>
      <trkpt lat="47.52987" lon="6.76892">
        <ele>382.6</ele>
        <time>2014-10-28T14:23:56.000Z</time>
      </trkpt>
      <trkpt lat="47.52986" lon="6.7689">
        <ele>383.5</ele>
        <time>2014-10-28T14:23:57.000Z</time>
      </trkpt>
      <trkpt lat="47.52982" lon="6.76888">
        <ele>384.1</ele>
        <time>2014-10-28T14:23:59.000Z</time>
      </trkpt>
      <trkpt lat="47.5298" lon="6.76887">
        <ele>384</ele>
        <time>2014-10-28T14:24:00.000Z</time>
      </trkpt>
      <trkpt lat="47.52976" lon="6.76885">
        <ele>383.9</ele>
        <time>2014-10-28T14:24:02.000Z</time>
      </trkpt>
      <trkpt lat="47.52974" lon="6.76884">
        <ele>384.2</ele>
        <time>2014-10-28T14:24:03.000Z</time>
      </trkpt>
      <trkpt lat="47.5297" lon="6.76882">
        <ele>383.7</ele>
        <time>2014-10-28T14:24:05.000Z</time>
      </trkpt>
      <trkpt lat="47.52968" lon="6.76882">
        <ele>384.1</ele>
        <time>2014-10-28T14:24:06.000Z</time>
      </trkpt>
      <trkpt lat="47.52963" lon="6.76882">
        <ele>385.6</ele>
        <time>2014-10-28T14:24:08.000Z</time>
      </trkpt>
      <trkpt lat="47.52961" lon="6.76882">
        <ele>386.1</ele>
        <time>2014-10-28T14:24:09.000Z</time>
      </trkpt>
      <trkpt lat="47.52957" lon="6.76884">
        <ele>388.1</ele>
        <time>2014-10-28T14:24:11.000Z</time>
      </trkpt>
      <trkpt lat="47.52955" lon="6.76885">
        <ele>388.5</ele>
        <time>2014-10-28T14:24:12.000Z</time>
      </trkpt>
      <trkpt lat="47.52951" lon="6.76886">
        <ele>388.1</ele>
        <time>2014-10-28T14:24:14.000Z</time>
      </trkpt>
      <trkpt lat="47.52948" lon="6.76885">
        <ele>389.4</ele>
        <time>2014-10-28T14:24:17.000Z</time>
      </trkpt>
      <trkpt lat="47.52945" lon="6.76887">
        <ele>389.6</ele>
        <time>2014-10-28T14:24:19.000Z</time>
      </trkpt>
      <trkpt lat="47.52943" lon="6.76888">
        <ele>389</ele>
        <time>2014-10-28T14:24:20.000Z</time>
      </trkpt>
      <trkpt lat="47.52941" lon="6.76889">
        <ele>388.7</ele>
        <time>2014-10-28T14:24:21.000Z</time>
      </trkpt>
      <trkpt lat="47.52938" lon="6.7689">
        <ele>388.1</ele>
        <time>2014-10-28T14:24:22.000Z</time>
      </trkpt>
      <trkpt lat="47.52936" lon="6.76891">
        <ele>388.1</ele>
        <time>2014-10-28T14:24:23.000Z</time>
      </trkpt>
      <trkpt lat="47.52934" lon="6.76893">
        <ele>388.5</ele>
        <time>2014-10-28T14:24:24.000Z</time>
      </trkpt>
      <trkpt lat="47.52932" lon="6.76896">
        <ele>388.8</ele>
        <time>2014-10-28T14:24:26.000Z</time>
      </trkpt>
      <trkpt lat="47.52932" lon="6.76899">
        <ele>389</ele>
        <time>2014-10-28T14:24:27.000Z</time>
      </trkpt>
      <trkpt lat="47.52932" lon="6.76904">
        <ele>389.4</ele>
        <time>2014-10-28T14:24:29.000Z</time>
      </trkpt>
      <trkpt lat="47.52932" lon="6.76907">
        <ele>390</ele>
        <time>2014-10-28T14:24:30.000Z</time>
      </trkpt>
      <trkpt lat="47.52932" lon="6.7691">
        <ele>388.8</ele>
        <time>2014-10-28T14:24:31.000Z</time>
      </trkpt>
      <trkpt lat="47.52931" lon="6.76914">
        <ele>388.5</ele>
        <time>2014-10-28T14:24:32.000Z</time>
      </trkpt>
      <trkpt lat="47.52931" lon="6.76917">
        <ele>388.6</ele>
        <time>2014-10-28T14:24:33.000Z</time>
      </trkpt>
      <trkpt lat="47.52931" lon="6.76921">
        <ele>388.8</ele>
        <time>2014-10-28T14:24:34.000Z</time>
      </trkpt>
      <trkpt lat="47.5293" lon="6.76926">
        <ele>388.3</ele>
        <time>2014-10-28T14:24:36.000Z</time>
      </trkpt>
      <trkpt lat="47.5293" lon="6.76928">
        <ele>388.7</ele>
        <time>2014-10-28T14:24:37.000Z</time>
      </trkpt>
      <trkpt lat="47.52928" lon="6.76933">
        <ele>388.4</ele>
        <time>2014-10-28T14:24:39.000Z</time>
      </trkpt>
      <trkpt lat="47.52927" lon="6.76937">
        <ele>388.4</ele>
        <time>2014-10-28T14:24:40.000Z</time>
      </trkpt>
      <trkpt lat="47.52926" lon="6.7694">
        <ele>388.4</ele>
        <time>2014-10-28T14:24:41.000Z</time>
      </trkpt>
      <trkpt lat="47.52925" lon="6.76943">
        <ele>387.9</ele>
        <time>2014-10-28T14:24:42.000Z</time>
      </trkpt>
      <trkpt lat="47.52924" lon="6.76945">
        <ele>387.7</ele>
        <time>2014-10-28T14:24:43.000Z</time>
      </trkpt>
      <trkpt lat="47.52922" lon="6.76948">
        <ele>389.6</ele>
        <time>2014-10-28T14:24:44.000Z</time>
      </trkpt>
      <trkpt lat="47.52921" lon="6.76952">
        <ele>390.3</ele>
        <time>2014-10-28T14:24:45.000Z</time>
      </trkpt>
      <trkpt lat="47.52921" lon="6.76955">
        <ele>390.7</ele>
        <time>2014-10-28T14:24:46.000Z</time>
      </trkpt>
      <trkpt lat="47.5292" lon="6.76961">
        <ele>390</ele>
        <time>2014-10-28T14:24:48.000Z</time>
      </trkpt>
      <trkpt lat="47.5292" lon="6.76963">
        <ele>390.1</ele>
        <time>2014-10-28T14:24:49.000Z</time>
      </trkpt>
      <trkpt lat="47.5292" lon="6.76967">
        <ele>390.4</ele>
        <time>2014-10-28T14:24:51.000Z</time>
      </trkpt>
      <trkpt lat="47.5292" lon="6.7697">
        <ele>390.5</ele>
        <time>2014-10-28T14:24:52.000Z</time>
      </trkpt>
      <trkpt lat="47.52921" lon="6.76975">
        <ele>390.8</ele>
        <time>2014-10-28T14:24:54.000Z</time>
      </trkpt>
      <trkpt lat="47.52922" lon="6.76977">
        <ele>389.9</ele>
        <time>2014-10-28T14:24:55.000Z</time>
      </trkpt>
      <trkpt lat="47.52923" lon="6.76982">
        <ele>389.1</ele>
        <time>2014-10-28T14:24:57.000Z</time>
      </trkpt>
      <trkpt lat="47.52923" lon="6.76985">
        <ele>391</ele>
        <time>2014-10-28T14:24:58.000Z</time>
      </trkpt>
      <trkpt lat="47.52923" lon="6.76991">
        <ele>392.3</ele>
        <time>2014-10-28T14:25:00.000Z</time>
      </trkpt>
      <trkpt lat="47.52923" lon="6.76993">
        <ele>391.4</ele>
        <time>2014-10-28T14:25:01.000Z</time>
      </trkpt>
      <trkpt lat="47.52922" lon="6.76998">
        <ele>392.7</ele>
        <time>2014-10-28T14:25:03.000Z</time>
      </trkpt>
      <trkpt lat="47.52922" lon="6.77001">
        <ele>392.3</ele>
        <time>2014-10-28T14:25:04.000Z</time>
      </trkpt>
      <trkpt lat="47.5292" lon="6.77007">
        <ele>393.6</ele>
        <time>2014-10-28T14:25:06.000Z</time>
      </trkpt>
      <trkpt lat="47.52919" lon="6.7701">
        <ele>390.6</ele>
        <time>2014-10-28T14:25:07.000Z</time>
      </trkpt>
      <trkpt lat="47.52917" lon="6.77013">
        <ele>390.2</ele>
        <time>2014-10-28T14:25:08.000Z</time>
      </trkpt>
      <trkpt lat="47.52915" lon="6.77015">
        <ele>389</ele>
        <time>2014-10-28T14:25:09.000Z</time>
      </trkpt>
      <trkpt lat="47.52913" lon="6.77016">
        <ele>388.8</ele>
        <time>2014-10-28T14:25:10.000Z</time>
      </trkpt>
      <trkpt lat="47.52911" lon="6.77016">
        <ele>387.9</ele>
        <time>2014-10-28T14:25:11.000Z</time>
      </trkpt>
      <trkpt lat="47.52906" lon="6.77016">
        <ele>385.3</ele>
        <time>2014-10-28T14:25:13.000Z</time>
      </trkpt>
      <trkpt lat="47.52904" lon="6.77017">
        <ele>384.8</ele>
        <time>2014-10-28T14:25:14.000Z</time>
      </trkpt>
      <trkpt lat="47.5289" lon="6.77028">
        <ele>381.9</ele>
        <time>2014-10-28T14:25:22.000Z</time>
      </trkpt>
      <trkpt lat="47.52888" lon="6.77031">
        <ele>382.2</ele>
        <time>2014-10-28T14:25:24.000Z</time>
      </trkpt>
      <trkpt lat="47.52886" lon="6.77034">
        <ele>382.9</ele>
        <time>2014-10-28T14:25:25.000Z</time>
      </trkpt>
      <trkpt lat="47.52885" lon="6.77037">
        <ele>379.3</ele>
        <time>2014-10-28T14:25:26.000Z</time>
      </trkpt>
      <trkpt lat="47.52884" lon="6.7704">
        <ele>380.2</ele>
        <time>2014-10-28T14:25:27.000Z</time>
      </trkpt>
      <trkpt lat="47.52882" lon="6.77045">
        <ele>383.1</ele>
        <time>2014-10-28T14:25:29.000Z</time>
      </trkpt>
      <trkpt lat="47.52881" lon="6.77047">
        <ele>383.6</ele>
        <time>2014-10-28T14:25:30.000Z</time>
      </trkpt>
      <trkpt lat="47.5288" lon="6.77051">
        <ele>384.2</ele>
        <time>2014-10-28T14:25:32.000Z</time>
      </trkpt>
      <trkpt lat="47.52879" lon="6.77053">
        <ele>384.3</ele>
        <time>2014-10-28T14:25:33.000Z</time>
      </trkpt>
      <trkpt lat="47.5288" lon="6.77059">
        <ele>383.5</ele>
        <time>2014-10-28T14:25:35.000Z</time>
      </trkpt>
      <trkpt lat="47.52881" lon="6.77062">
        <ele>383.9</ele>
        <time>2014-10-28T14:25:36.000Z</time>
      </trkpt>
      <trkpt lat="47.52882" lon="6.77066">
        <ele>384.5</ele>
        <time>2014-10-28T14:25:37.000Z</time>
      </trkpt>
      <trkpt lat="47.52882" lon="6.77069">
        <ele>384.9</ele>
        <time>2014-10-28T14:25:38.000Z</time>
      </trkpt>
      <trkpt lat="47.52882" lon="6.77075">
        <ele>382.9</ele>
        <time>2014-10-28T14:25:40.000Z</time>
      </trkpt>
      <trkpt lat="47.52882" lon="6.7708">
        <ele>382</ele>
        <time>2014-10-28T14:25:41.000Z</time>
      </trkpt>
      <trkpt lat="47.52883" lon="6.77083">
        <ele>383.8</ele>
        <time>2014-10-28T14:25:42.000Z</time>
      </trkpt>
      <trkpt lat="47.52884" lon="6.77086">
        <ele>384.5</ele>
        <time>2014-10-28T14:25:43.000Z</time>
      </trkpt>
      <trkpt lat="47.52885" lon="6.77091">
        <ele>385.5</ele>
        <time>2014-10-28T14:25:45.000Z</time>
      </trkpt>
      <trkpt lat="47.52884" lon="6.77093">
        <ele>385.3</ele>
        <time>2014-10-28T14:25:46.000Z</time>
      </trkpt>
      <trkpt lat="47.52881" lon="6.77098">
        <ele>384.3</ele>
        <time>2014-10-28T14:25:48.000Z</time>
      </trkpt>
      <trkpt lat="47.52879" lon="6.771">
        <ele>382.8</ele>
        <time>2014-10-28T14:25:49.000Z</time>
      </trkpt>
      <trkpt lat="47.52877" lon="6.77103">
        <ele>382.4</ele>
        <time>2014-10-28T14:25:50.000Z</time>
      </trkpt>
      <trkpt lat="47.52875" lon="6.77105">
        <ele>381.7</ele>
        <time>2014-10-28T14:25:51.000Z</time>
      </trkpt>
      <trkpt lat="47.52873" lon="6.77108">
        <ele>381.6</ele>
        <time>2014-10-28T14:25:52.000Z</time>
      </trkpt>
      <trkpt lat="47.52871" lon="6.7711">
        <ele>381.4</ele>
        <time>2014-10-28T14:25:53.000Z</time>
      </trkpt>
      <trkpt lat="47.52869" lon="6.77112">
        <ele>382.5</ele>
        <time>2014-10-28T14:25:54.000Z</time>
      </trkpt>
      <trkpt lat="47.52867" lon="6.77114">
        <ele>382.7</ele>
        <time>2014-10-28T14:25:55.000Z</time>
      </trkpt>
      <trkpt lat="47.52864" lon="6.77118">
        <ele>382.6</ele>
        <time>2014-10-28T14:25:57.000Z</time>
      </trkpt>
      <trkpt lat="47.52863" lon="6.7712">
        <ele>382.6</ele>
        <time>2014-10-28T14:25:58.000Z</time>
      </trkpt>
      <trkpt lat="47.52859" lon="6.77124">
        <ele>383.6</ele>
        <time>2014-10-28T14:26:00.000Z</time>
      </trkpt>
      <trkpt lat="47.52858" lon="6.77126">
        <ele>383.9</ele>
        <time>2014-10-28T14:26:01.000Z</time>
      </trkpt>
      <trkpt lat="47.52855" lon="6.77129">
        <ele>383.6</ele>
        <time>2014-10-28T14:26:03.000Z</time>
      </trkpt>
      <trkpt lat="47.52854" lon="6.77131">
        <ele>384.3</ele>
        <time>2014-10-28T14:26:04.000Z</time>
      </trkpt>
      <trkpt lat="47.52852" lon="6.77132">
        <ele>383.7</ele>
        <time>2014-10-28T14:26:05.000Z</time>
      </trkpt>
      <trkpt lat="47.5285" lon="6.77135">
        <ele>383.3</ele>
        <time>2014-10-28T14:26:06.000Z</time>
      </trkpt>
      <trkpt lat="47.52847" lon="6.77137">
        <ele>383.4</ele>
        <time>2014-10-28T14:26:07.000Z</time>
      </trkpt>
      <trkpt lat="47.52845" lon="6.7714">
        <ele>383.9</ele>
        <time>2014-10-28T14:26:08.000Z</time>
      </trkpt>
      <trkpt lat="47.52842" lon="6.77143">
        <ele>383.9</ele>
        <time>2014-10-28T14:26:09.000Z</time>
      </trkpt>
      <trkpt lat="47.5284" lon="6.77145">
        <ele>384</ele>
        <time>2014-10-28T14:26:10.000Z</time>
      </trkpt>
      <trkpt lat="47.52836" lon="6.77148">
        <ele>383</ele>
        <time>2014-10-28T14:26:12.000Z</time>
      </trkpt>
      <trkpt lat="47.52834" lon="6.7715">
        <ele>382.3</ele>
        <time>2014-10-28T14:26:13.000Z</time>
      </trkpt>
      <trkpt lat="47.52831" lon="6.7715">
        <ele>381.9</ele>
        <time>2014-10-28T14:26:15.000Z</time>
      </trkpt>
      <trkpt lat="47.52822" lon="6.77157">
        <ele>372.6</ele>
        <time>2014-10-28T14:26:23.000Z</time>
      </trkpt>
      <trkpt lat="47.5282" lon="6.77162">
        <ele>375.7</ele>
        <time>2014-10-28T14:26:28.000Z</time>
      </trkpt>
      <trkpt lat="47.52819" lon="6.77163">
        <ele>374.2</ele>
        <time>2014-10-28T14:26:29.000Z</time>
      </trkpt>
      <trkpt lat="47.52817" lon="6.77166">
        <ele>374.9</ele>
        <time>2014-10-28T14:26:31.000Z</time>
      </trkpt>
      <trkpt lat="47.52816" lon="6.77168">
        <ele>374.7</ele>
        <time>2014-10-28T14:26:32.000Z</time>
      </trkpt>
      <trkpt lat="47.52813" lon="6.77173">
        <ele>374.6</ele>
        <time>2014-10-28T14:26:35.000Z</time>
      </trkpt>
      <trkpt lat="47.52813" lon="6.77174">
        <ele>374.9</ele>
        <time>2014-10-28T14:26:36.000Z</time>
      </trkpt>
      <trkpt lat="47.5281" lon="6.77178">
        <ele>377.2</ele>
        <time>2014-10-28T14:27:33.000Z</time>
      </trkpt>
      <trkpt lat="47.52809" lon="6.77179">
        <ele>376.6</ele>
        <time>2014-10-28T14:27:34.000Z</time>
      </trkpt>
      <trkpt lat="47.52805" lon="6.77181">
        <ele>378.6</ele>
        <time>2014-10-28T14:27:38.000Z</time>
      </trkpt>
      <trkpt lat="47.52804" lon="6.77182">
        <ele>378.4</ele>
        <time>2014-10-28T14:27:39.000Z</time>
      </trkpt>
      <trkpt lat="47.52801" lon="6.77185">
        <ele>377.4</ele>
        <time>2014-10-28T14:27:44.000Z</time>
      </trkpt>
      <trkpt lat="47.528" lon="6.77186">
        <ele>375.2</ele>
        <time>2014-10-28T14:27:45.000Z</time>
      </trkpt>
      <trkpt lat="47.52797" lon="6.7719">
        <ele>373.3</ele>
        <time>2014-10-28T14:28:44.000Z</time>
      </trkpt>
      <trkpt lat="47.52796" lon="6.77191">
        <ele>373</ele>
        <time>2014-10-28T14:28:45.000Z</time>
      </trkpt>
      <trkpt lat="47.52793" lon="6.77193">
        <ele>374.3</ele>
        <time>2014-10-28T14:31:05.000Z</time>
      </trkpt>
      <trkpt lat="47.52792" lon="6.77193">
        <ele>374.6</ele>
        <time>2014-10-28T14:31:06.000Z</time>
      </trkpt>
      <trkpt lat="47.52788" lon="6.77193">
        <ele>375.9</ele>
        <time>2014-10-28T14:31:36.000Z</time>
      </trkpt>
      <trkpt lat="47.52787" lon="6.77193">
        <ele>374.5</ele>
        <time>2014-10-28T14:31:37.000Z</time>
      </trkpt>
      <trkpt lat="47.52786" lon="6.77187">
        <ele>373.2</ele>
        <time>2014-10-28T14:31:53.000Z</time>
      </trkpt>
      <trkpt lat="47.52785" lon="6.77186">
        <ele>375.1</ele>
        <time>2014-10-28T14:31:54.000Z</time>
      </trkpt>
      <trkpt lat="47.52785" lon="6.7718">
        <ele>376.4</ele>
        <time>2014-10-28T14:31:58.000Z</time>
      </trkpt>
      <trkpt lat="47.52785" lon="6.77179">
        <ele>376.1</ele>
        <time>2014-10-28T14:31:59.000Z</time>
      </trkpt>
      <trkpt lat="47.52786" lon="6.77173">
        <ele>374.4</ele>
        <time>2014-10-28T14:32:01.000Z</time>
      </trkpt>
      <trkpt lat="47.52786" lon="6.77169">
        <ele>376.3</ele>
        <time>2014-10-28T14:32:02.000Z</time>
      </trkpt>
      <trkpt lat="47.52787" lon="6.77165">
        <ele>373.5</ele>
        <time>2014-10-28T14:32:03.000Z</time>
      </trkpt>
      <trkpt lat="47.52789" lon="6.77162">
        <ele>372.6</ele>
        <time>2014-10-28T14:32:04.000Z</time>
      </trkpt>
      <trkpt lat="47.5279" lon="6.77159">
        <ele>371.6</ele>
        <time>2014-10-28T14:32:05.000Z</time>
      </trkpt>
      <trkpt lat="47.52792" lon="6.77157">
        <ele>370.1</ele>
        <time>2014-10-28T14:32:06.000Z</time>
      </trkpt>
      <trkpt lat="47.52795" lon="6.77152">
        <ele>368.1</ele>
        <time>2014-10-28T14:32:08.000Z</time>
      </trkpt>
      <trkpt lat="47.52796" lon="6.7715">
        <ele>367.5</ele>
        <time>2014-10-28T14:32:09.000Z</time>
      </trkpt>
      <trkpt lat="47.52799" lon="6.77145">
        <ele>372.9</ele>
        <time>2014-10-28T14:32:11.000Z</time>
      </trkpt>
      <trkpt lat="47.52801" lon="6.77143">
        <ele>369.9</ele>
        <time>2014-10-28T14:32:12.000Z</time>
      </trkpt>
      <trkpt lat="47.52803" lon="6.7714">
        <ele>368.3</ele>
        <time>2014-10-28T14:32:13.000Z</time>
      </trkpt>
      <trkpt lat="47.52805" lon="6.77138">
        <ele>367.8</ele>
        <time>2014-10-28T14:32:14.000Z</time>
      </trkpt>
      <trkpt lat="47.52811" lon="6.77133">
        <ele>366.9</ele>
        <time>2014-10-28T14:32:17.000Z</time>
      </trkpt>
      <trkpt lat="47.52814" lon="6.77131">
        <ele>365.4</ele>
        <time>2014-10-28T14:32:19.000Z</time>
      </trkpt>
      <trkpt lat="47.52816" lon="6.7713">
        <ele>365.1</ele>
        <time>2014-10-28T14:32:20.000Z</time>
      </trkpt>
      <trkpt lat="47.52819" lon="6.77126">
        <ele>365.3</ele>
        <time>2014-10-28T14:32:22.000Z</time>
      </trkpt>
      <trkpt lat="47.52821" lon="6.77125">
        <ele>364.4</ele>
        <time>2014-10-28T14:32:23.000Z</time>
      </trkpt>
      <trkpt lat="47.52823" lon="6.77123">
        <ele>363.7</ele>
        <time>2014-10-28T14:32:23.999Z</time>
      </trkpt>
      <trkpt lat="47.52825" lon="6.77121">
        <ele>364.2</ele>
        <time>2014-10-28T14:32:25.000Z</time>
      </trkpt>
      <trkpt lat="47.52827" lon="6.77118">
        <ele>364.5</ele>
        <time>2014-10-28T14:32:26.000Z</time>
      </trkpt>
      <trkpt lat="47.52829" lon="6.77115">
        <ele>364.5</ele>
        <time>2014-10-28T14:32:27.000Z</time>
      </trkpt>
      <trkpt lat="47.52831" lon="6.77112">
        <ele>364.6</ele>
        <time>2014-10-28T14:32:28.000Z</time>
      </trkpt>
      <trkpt lat="47.52833" lon="6.7711">
        <ele>365.8</ele>
        <time>2014-10-28T14:32:29.000Z</time>
      </trkpt>
      <trkpt lat="47.52836" lon="6.77106">
        <ele>367.2</ele>
        <time>2014-10-28T14:32:31.000Z</time>
      </trkpt>
      <trkpt lat="47.52838" lon="6.77103">
        <ele>366.3</ele>
        <time>2014-10-28T14:32:32.000Z</time>
      </trkpt>
      <trkpt lat="47.5284" lon="6.77101">
        <ele>365.7</ele>
        <time>2014-10-28T14:32:33.000Z</time>
      </trkpt>
      <trkpt lat="47.52842" lon="6.77098">
        <ele>365.5</ele>
        <time>2014-10-28T14:32:34.000Z</time>
      </trkpt>
      <trkpt lat="47.52844" lon="6.77095">
        <ele>365.6</ele>
        <time>2014-10-28T14:32:35.000Z</time>
      </trkpt>
      <trkpt lat="47.52846" lon="6.77092">
        <ele>366</ele>
        <time>2014-10-28T14:32:36.000Z</time>
      </trkpt>
      <trkpt lat="47.52848" lon="6.77089">
        <ele>364.3</ele>
        <time>2014-10-28T14:32:37.000Z</time>
      </trkpt>
      <trkpt lat="47.5285" lon="6.77086">
        <ele>363.8</ele>
        <time>2014-10-28T14:32:38.000Z</time>
      </trkpt>
      <trkpt lat="47.52852" lon="6.77081">
        <ele>362.5</ele>
        <time>2014-10-28T14:32:40.000Z</time>
      </trkpt>
      <trkpt lat="47.52853" lon="6.77078">
        <ele>362.2</ele>
        <time>2014-10-28T14:32:41.000Z</time>
      </trkpt>
      <trkpt lat="47.52855" lon="6.77074">
        <ele>362.6</ele>
        <time>2014-10-28T14:32:43.000Z</time>
      </trkpt>
      <trkpt lat="47.52855" lon="6.77072">
        <ele>363</ele>
        <time>2014-10-28T14:32:44.000Z</time>
      </trkpt>
      <trkpt lat="47.52856" lon="6.77066">
        <ele>361.7</ele>
        <time>2014-10-28T14:32:48.000Z</time>
      </trkpt>
      <trkpt lat="47.52856" lon="6.77064">
        <ele>361</ele>
        <time>2014-10-28T14:32:49.000Z</time>
      </trkpt>
      <trkpt lat="47.52857" lon="6.77059">
        <ele>361.4</ele>
        <time>2014-10-28T14:32:53.000Z</time>
      </trkpt>
      <trkpt lat="47.52857" lon="6.77057">
        <ele>361.4</ele>
        <time>2014-10-28T14:32:54.000Z</time>
      </trkpt>
      <trkpt lat="47.52857" lon="6.77052">
        <ele>358.3</ele>
        <time>2014-10-28T14:32:57.000Z</time>
      </trkpt>
      <trkpt lat="47.52858" lon="6.7705">
        <ele>359.4</ele>
        <time>2014-10-28T14:32:58.000Z</time>
      </trkpt>
      <trkpt lat="47.52858" lon="6.77044">
        <ele>360.3</ele>
        <time>2014-10-28T14:33:01.000Z</time>
      </trkpt>
      <trkpt lat="47.52858" lon="6.77041">
        <ele>361</ele>
        <time>2014-10-28T14:33:02.000Z</time>
      </trkpt>
      <trkpt lat="47.52859" lon="6.77037">
        <ele>361.6</ele>
        <time>2014-10-28T14:33:04.000Z</time>
      </trkpt>
      <trkpt lat="47.5286" lon="6.77034">
        <ele>361.2</ele>
        <time>2014-10-28T14:33:05.000Z</time>
      </trkpt>
      <trkpt lat="47.5286" lon="6.7703">
        <ele>362</ele>
        <time>2014-10-28T14:33:07.000Z</time>
      </trkpt>
      <trkpt lat="47.5286" lon="6.77027">
        <ele>361.6</ele>
        <time>2014-10-28T14:33:08.000Z</time>
      </trkpt>
      <trkpt lat="47.52861" lon="6.77023">
        <ele>360.4</ele>
        <time>2014-10-28T14:33:10.000Z</time>
      </trkpt>
      <trkpt lat="47.52862" lon="6.77021">
        <ele>359.3</ele>
        <time>2014-10-28T14:33:11.000Z</time>
      </trkpt>
      <trkpt lat="47.52863" lon="6.77016">
        <ele>358.4</ele>
        <time>2014-10-28T14:33:13.000Z</time>
      </trkpt>
      <trkpt lat="47.52865" lon="6.77007">
        <ele>357.2</ele>
        <time>2014-10-28T14:33:17.000Z</time>
      </trkpt>
      <trkpt lat="47.52865" lon="6.77002">
        <ele>355.5</ele>
        <time>2014-10-28T14:33:19.000Z</time>
      </trkpt>
      <trkpt lat="47.52865" lon="6.77">
        <ele>355.5</ele>
        <time>2014-10-28T14:33:20.000Z</time>
      </trkpt>
      <trkpt lat="47.52867" lon="6.76994">
        <ele>356.2</ele>
        <time>2014-10-28T14:33:24.000Z</time>
      </trkpt>
      <trkpt lat="47.52867" lon="6.76992">
        <ele>356.1</ele>
        <time>2014-10-28T14:33:25.000Z</time>
      </trkpt>
      <trkpt lat="47.52867" lon="6.76987">
        <ele>356.4</ele>
        <time>2014-10-28T14:33:28.000Z</time>
      </trkpt>
      <trkpt lat="47.52867" lon="6.76985">
        <ele>356.4</ele>
        <time>2014-10-28T14:33:28.999Z</time>
      </trkpt>
      <trkpt lat="47.52868" lon="6.76979">
        <ele>357</ele>
        <time>2014-10-28T14:33:32.000Z</time>
      </trkpt>
      <trkpt lat="47.52868" lon="6.76978">
        <ele>356.4</ele>
        <time>2014-10-28T14:33:33.000Z</time>
      </trkpt>
      <trkpt lat="47.52869" lon="6.76971">
        <ele>356.4</ele>
        <time>2014-10-28T14:33:36.000Z</time>
      </trkpt>
      <trkpt lat="47.5287" lon="6.76969">
        <ele>357.1</ele>
        <time>2014-10-28T14:33:37.000Z</time>
      </trkpt>
      <trkpt lat="47.52871" lon="6.76964">
        <ele>357.7</ele>
        <time>2014-10-28T14:33:40.000Z</time>
      </trkpt>
      <trkpt lat="47.52871" lon="6.76962">
        <ele>357.9</ele>
        <time>2014-10-28T14:33:41.000Z</time>
      </trkpt>
      <trkpt lat="47.52872" lon="6.76957">
        <ele>358.3</ele>
        <time>2014-10-28T14:33:44.000Z</time>
      </trkpt>
      <trkpt lat="47.52872" lon="6.76955">
        <ele>358.1</ele>
        <time>2014-10-28T14:33:45.000Z</time>
      </trkpt>
      <trkpt lat="47.52872" lon="6.7695">
        <ele>358.2</ele>
        <time>2014-10-28T14:33:48.000Z</time>
      </trkpt>
      <trkpt lat="47.52873" lon="6.76948">
        <ele>358.2</ele>
        <time>2014-10-28T14:33:49.000Z</time>
      </trkpt>
      <trkpt lat="47.52873" lon="6.76941">
        <ele>358.2</ele>
        <time>2014-10-28T14:33:53.000Z</time>
      </trkpt>
      <trkpt lat="47.52873" lon="6.7694">
        <ele>358</ele>
        <time>2014-10-28T14:33:54.000Z</time>
      </trkpt>
      <trkpt lat="47.52874" lon="6.76935">
        <ele>358.5</ele>
        <time>2014-10-28T14:33:57.000Z</time>
      </trkpt>
      <trkpt lat="47.52875" lon="6.76933">
        <ele>358.9</ele>
        <time>2014-10-28T14:33:58.000Z</time>
      </trkpt>
      <trkpt lat="47.52875" lon="6.76928">
        <ele>359.2</ele>
        <time>2014-10-28T14:34:01.000Z</time>
      </trkpt>
      <trkpt lat="47.52875" lon="6.76926">
        <ele>359.1</ele>
        <time>2014-10-28T14:34:02.000Z</time>
      </trkpt>
      <trkpt lat="47.52876" lon="6.76921">
        <ele>358.7</ele>
        <time>2014-10-28T14:34:05.000Z</time>
      </trkpt>
      <trkpt lat="47.52876" lon="6.76919">
        <ele>358.8</ele>
        <time>2014-10-28T14:34:06.000Z</time>
      </trkpt>
      <trkpt lat="47.52876" lon="6.76914">
        <ele>359.1</ele>
        <time>2014-10-28T14:34:09.000Z</time>
      </trkpt>
      <trkpt lat="47.52876" lon="6.76912">
        <ele>359.3</ele>
        <time>2014-10-28T14:34:10.000Z</time>
      </trkpt>
      <trkpt lat="47.52877" lon="6.76907">
        <ele>358.6</ele>
        <time>2014-10-28T14:34:14.000Z</time>
      </trkpt>
      <trkpt lat="47.52879" lon="6.76896">
        <ele>358</ele>
        <time>2014-10-28T14:34:21.350Z</time>
      </trkpt>
      <trkpt lat="47.52881" lon="6.7689">
        <ele>357.9</ele>
        <time>2014-10-28T14:34:25.000Z</time>
      </trkpt>
      <trkpt lat="47.52881" lon="6.76888">
        <ele>357.4</ele>
        <time>2014-10-28T14:34:26.000Z</time>
      </trkpt>
      <trkpt lat="47.52883" lon="6.76884">
        <ele>356.4</ele>
        <time>2014-10-28T14:34:28.000Z</time>
      </trkpt>
      <trkpt lat="47.52884" lon="6.76882">
        <ele>355.8</ele>
        <time>2014-10-28T14:34:29.000Z</time>
      </trkpt>
      <trkpt lat="47.52885" lon="6.76877">
        <ele>354.6</ele>
        <time>2014-10-28T14:34:32.000Z</time>
      </trkpt>
      <trkpt lat="47.52885" lon="6.76875">
        <ele>355.5</ele>
        <time>2014-10-28T14:34:33.000Z</time>
      </trkpt>
      <trkpt lat="47.52886" lon="6.76869">
        <ele>355.4</ele>
        <time>2014-10-28T14:34:36.000Z</time>
      </trkpt>
      <trkpt lat="47.52887" lon="6.76867">
        <ele>354.8</ele>
        <time>2014-10-28T14:34:37.000Z</time>
      </trkpt>
      <trkpt lat="47.52888" lon="6.76862">
        <ele>357.5</ele>
        <time>2014-10-28T14:34:40.000Z</time>
      </trkpt>
      <trkpt lat="47.52888" lon="6.7686">
        <ele>355.3</ele>
        <time>2014-10-28T14:34:41.000Z</time>
      </trkpt>
      <trkpt lat="47.52889" lon="6.76855">
        <ele>355.4</ele>
        <time>2014-10-28T14:34:44.000Z</time>
      </trkpt>
      <trkpt lat="47.5289" lon="6.76853">
        <ele>355.1</ele>
        <time>2014-10-28T14:34:45.000Z</time>
      </trkpt>
      <trkpt lat="47.52891" lon="6.76847">
        <ele>355.1</ele>
        <time>2014-10-28T14:34:48.000Z</time>
      </trkpt>
      <trkpt lat="47.52892" lon="6.76845">
        <ele>354.4</ele>
        <time>2014-10-28T14:34:49.000Z</time>
      </trkpt>
      <trkpt lat="47.52892" lon="6.76839">
        <ele>354.4</ele>
        <time>2014-10-28T14:34:52.000Z</time>
      </trkpt>
      <trkpt lat="47.52893" lon="6.76837">
        <ele>354.1</ele>
        <time>2014-10-28T14:34:53.000Z</time>
      </trkpt>
      <trkpt lat="47.52894" lon="6.76833">
        <ele>353.5</ele>
        <time>2014-10-28T14:34:56.000Z</time>
      </trkpt>
      <trkpt lat="47.52895" lon="6.76831">
        <ele>353.4</ele>
        <time>2014-10-28T14:34:57.000Z</time>
      </trkpt>
      <trkpt lat="47.52898" lon="6.76826">
        <ele>356.1</ele>
        <time>2014-10-28T14:35:01.000Z</time>
      </trkpt>
      <trkpt lat="47.52898" lon="6.76825">
        <ele>356.8</ele>
        <time>2014-10-28T14:35:02.000Z</time>
      </trkpt>
      <trkpt lat="47.529" lon="6.7682">
        <ele>357.3</ele>
        <time>2014-10-28T14:35:07.000Z</time>
      </trkpt>
      <trkpt lat="47.529" lon="6.76819">
        <ele>356.3</ele>
        <time>2014-10-28T14:35:08.000Z</time>
      </trkpt>
      <trkpt lat="47.52901" lon="6.76813">
        <ele>356</ele>
        <time>2014-10-28T14:35:12.000Z</time>
      </trkpt>
      <trkpt lat="47.52901" lon="6.76812">
        <ele>355.6</ele>
        <time>2014-10-28T14:35:13.000Z</time>
      </trkpt>
      <trkpt lat="47.52901" lon="6.76811">
        <ele>355</ele>
        <time>2014-10-28T14:35:14.000Z</time>
      </trkpt>
      <trkpt lat="47.52903" lon="6.76801">
        <ele>355.2</ele>
        <time>2014-10-28T14:35:22.000Z</time>
      </trkpt>
      <trkpt lat="47.52905" lon="6.76797">
        <ele>354.8</ele>
        <time>2014-10-28T14:35:26.000Z</time>
      </trkpt>
      <trkpt lat="47.52906" lon="6.76796">
        <ele>354.8</ele>
        <time>2014-10-28T14:35:27.000Z</time>
      </trkpt>
      <trkpt lat="47.52908" lon="6.76791">
        <ele>355.7</ele>
        <time>2014-10-28T14:35:30.000Z</time>
      </trkpt>
      <trkpt lat="47.52908" lon="6.7679">
        <ele>355.4</ele>
        <time>2014-10-28T14:35:31.000Z</time>
      </trkpt>
      <trkpt lat="47.52911" lon="6.76785">
        <ele>358.4</ele>
        <time>2014-10-28T14:35:35.000Z</time>
      </trkpt>
      <trkpt lat="47.52911" lon="6.76783">
        <ele>358.6</ele>
        <time>2014-10-28T14:35:36.000Z</time>
      </trkpt>
      <trkpt lat="47.52912" lon="6.76778">
        <ele>358.7</ele>
        <time>2014-10-28T14:35:40.000Z</time>
      </trkpt>
      <trkpt lat="47.52912" lon="6.76777">
        <ele>358.4</ele>
        <time>2014-10-28T14:35:41.000Z</time>
      </trkpt>
      <trkpt lat="47.52913" lon="6.76771">
        <ele>360.3</ele>
        <time>2014-10-28T14:35:45.000Z</time>
      </trkpt>
      <trkpt lat="47.52913" lon="6.76769">
        <ele>361.2</ele>
        <time>2014-10-28T14:35:46.000Z</time>
      </trkpt>
      <trkpt lat="47.52913" lon="6.76763">
        <ele>361.7</ele>
        <time>2014-10-28T14:35:49.000Z</time>
      </trkpt>
      <trkpt lat="47.52913" lon="6.76761">
        <ele>361.8</ele>
        <time>2014-10-28T14:35:50.000Z</time>
      </trkpt>
      <trkpt lat="47.52915" lon="6.76757">
        <ele>359.1</ele>
        <time>2014-10-28T14:35:53.000Z</time>
      </trkpt>
      <trkpt lat="47.52916" lon="6.76755">
        <ele>358.3</ele>
        <time>2014-10-28T14:35:54.000Z</time>
      </trkpt>
      <trkpt lat="47.5292" lon="6.76752">
        <ele>356.2</ele>
        <time>2014-10-28T14:35:58.000Z</time>
      </trkpt>
      <trkpt lat="47.52922" lon="6.76751">
        <ele>356.1</ele>
        <time>2014-10-28T14:35:59.000Z</time>
      </trkpt>
      <trkpt lat="47.52925" lon="6.76748">
        <ele>355.9</ele>
        <time>2014-10-28T14:36:01.000Z</time>
      </trkpt>
      <trkpt lat="47.52926" lon="6.76746">
        <ele>356.3</ele>
        <time>2014-10-28T14:36:02.000Z</time>
      </trkpt>
      <trkpt lat="47.52928" lon="6.76742">
        <ele>356.5</ele>
        <time>2014-10-28T14:36:05.000Z</time>
      </trkpt>
      <trkpt lat="47.52928" lon="6.7674">
        <ele>356.7</ele>
        <time>2014-10-28T14:36:06.000Z</time>
      </trkpt>
      <trkpt lat="47.52929" lon="6.76735">
        <ele>356</ele>
        <time>2014-10-28T14:36:09.000Z</time>
      </trkpt>
      <trkpt lat="47.52928" lon="6.76733">
        <ele>356.7</ele>
        <time>2014-10-28T14:36:10.000Z</time>
      </trkpt>
      <trkpt lat="47.52929" lon="6.76727">
        <ele>355.1</ele>
        <time>2014-10-28T14:36:14.000Z</time>
      </trkpt>
      <trkpt lat="47.52932" lon="6.7672">
        <ele>352.6</ele>
        <time>2014-10-28T14:36:22.000Z</time>
      </trkpt>
      <trkpt lat="47.52931" lon="6.76714">
        <ele>353.9</ele>
        <time>2014-10-28T14:36:26.000Z</time>
      </trkpt>
      <trkpt lat="47.52931" lon="6.76713">
        <ele>353.7</ele>
        <time>2014-10-28T14:36:27.000Z</time>
      </trkpt>
      <trkpt lat="47.52931" lon="6.76708">
        <ele>356.3</ele>
        <time>2014-10-28T14:36:30.000Z</time>
      </trkpt>
      <trkpt lat="47.52931" lon="6.76705">
        <ele>357.1</ele>
        <time>2014-10-28T14:36:31.000Z</time>
      </trkpt>
      <trkpt lat="47.52932" lon="6.76699">
        <ele>359</ele>
        <time>2014-10-28T14:36:33.000Z</time>
      </trkpt>
      <trkpt lat="47.52933" lon="6.76695">
        <ele>359.4</ele>
        <time>2014-10-28T14:36:34.000Z</time>
      </trkpt>
      <trkpt lat="47.52934" lon="6.7669">
        <ele>362.1</ele>
        <time>2014-10-28T14:36:36.000Z</time>
      </trkpt>
      <trkpt lat="47.52935" lon="6.76688">
        <ele>362.5</ele>
        <time>2014-10-28T14:36:37.000Z</time>
      </trkpt>
      <trkpt lat="47.52937" lon="6.76682">
        <ele>364.4</ele>
        <time>2014-10-28T14:36:39.000Z</time>
      </trkpt>
      <trkpt lat="47.52938" lon="6.76678">
        <ele>365.4</ele>
        <time>2014-10-28T14:36:40.000Z</time>
      </trkpt>
      <trkpt lat="47.52938" lon="6.76674">
        <ele>365.9</ele>
        <time>2014-10-28T14:36:41.000Z</time>
      </trkpt>
      <trkpt lat="47.52939" lon="6.76669">
        <ele>366.7</ele>
        <time>2014-10-28T14:36:42.000Z</time>
      </trkpt>
      <trkpt lat="47.5294" lon="6.76664">
        <ele>366</ele>
        <time>2014-10-28T14:36:43.000Z</time>
      </trkpt>
      <trkpt lat="47.52941" lon="6.76659">
        <ele>365.6</ele>
        <time>2014-10-28T14:36:44.000Z</time>
      </trkpt>
      <trkpt lat="47.52941" lon="6.76655">
        <ele>365.2</ele>
        <time>2014-10-28T14:36:45.000Z</time>
      </trkpt>
      <trkpt lat="47.52942" lon="6.76651">
        <ele>365.4</ele>
        <time>2014-10-28T14:36:46.000Z</time>
      </trkpt>
      <trkpt lat="47.52944" lon="6.76647">
        <ele>366.2</ele>
        <time>2014-10-28T14:36:47.000Z</time>
      </trkpt>
      <trkpt lat="47.52944" lon="6.76644">
        <ele>366.2</ele>
        <time>2014-10-28T14:36:48.000Z</time>
      </trkpt>
      <trkpt lat="47.52945" lon="6.7664">
        <ele>365.8</ele>
        <time>2014-10-28T14:36:49.000Z</time>
      </trkpt>
      <trkpt lat="47.52946" lon="6.76635">
        <ele>365.6</ele>
        <time>2014-10-28T14:36:50.000Z</time>
      </trkpt>
      <trkpt lat="47.52946" lon="6.76631">
        <ele>365.7</ele>
        <time>2014-10-28T14:36:51.000Z</time>
      </trkpt>
      <trkpt lat="47.52947" lon="6.76628">
        <ele>365.4</ele>
        <time>2014-10-28T14:36:52.000Z</time>
      </trkpt>
      <trkpt lat="47.52948" lon="6.76624">
        <ele>365.9</ele>
        <time>2014-10-28T14:36:53.000Z</time>
      </trkpt>
      <trkpt lat="47.52948" lon="6.7662">
        <ele>366.7</ele>
        <time>2014-10-28T14:36:54.000Z</time>
      </trkpt>
      <trkpt lat="47.52949" lon="6.76615">
        <ele>367.9</ele>
        <time>2014-10-28T14:36:55.000Z</time>
      </trkpt>
      <trkpt lat="47.52949" lon="6.76611">
        <ele>368.2</ele>
        <time>2014-10-28T14:36:56.000Z</time>
      </trkpt>
      <trkpt lat="47.52949" lon="6.76607">
        <ele>370.6</ele>
        <time>2014-10-28T14:36:57.000Z</time>
      </trkpt>
      <trkpt lat="47.5295" lon="6.76603">
        <ele>371.8</ele>
        <time>2014-10-28T14:36:58.000Z</time>
      </trkpt>
      <trkpt lat="47.5295" lon="6.76599">
        <ele>372.1</ele>
        <time>2014-10-28T14:36:59.000Z</time>
      </trkpt>
      <trkpt lat="47.52951" lon="6.76595">
        <ele>371.8</ele>
        <time>2014-10-28T14:37:00.000Z</time>
      </trkpt>
      <trkpt lat="47.52952" lon="6.76591">
        <ele>373</ele>
        <time>2014-10-28T14:37:01.000Z</time>
      </trkpt>
      <trkpt lat="47.52953" lon="6.76588">
        <ele>373.6</ele>
        <time>2014-10-28T14:37:02.000Z</time>
      </trkpt>
      <trkpt lat="47.52954" lon="6.76584">
        <ele>373.8</ele>
        <time>2014-10-28T14:37:03.000Z</time>
      </trkpt>
      <trkpt lat="47.52954" lon="6.7658">
        <ele>375.6</ele>
        <time>2014-10-28T14:37:04.000Z</time>
      </trkpt>
      <trkpt lat="47.52955" lon="6.76574">
        <ele>376</ele>
        <time>2014-10-28T14:37:06.000Z</time>
      </trkpt>
      <trkpt lat="47.52956" lon="6.76571">
        <ele>376.4</ele>
        <time>2014-10-28T14:37:07.000Z</time>
      </trkpt>
      <trkpt lat="47.52957" lon="6.76565">
        <ele>376.3</ele>
        <time>2014-10-28T14:37:09.000Z</time>
      </trkpt>
      <trkpt lat="47.52958" lon="6.76562">
        <ele>375.2</ele>
        <time>2014-10-28T14:37:10.000Z</time>
      </trkpt>
      <trkpt lat="47.52959" lon="6.76558">
        <ele>374.2</ele>
        <time>2014-10-28T14:37:11.000Z</time>
      </trkpt>
      <trkpt lat="47.5296" lon="6.76554">
        <ele>374.1</ele>
        <time>2014-10-28T14:37:12.000Z</time>
      </trkpt>
      <trkpt lat="47.52962" lon="6.7655">
        <ele>373.7</ele>
        <time>2014-10-28T14:37:13.000Z</time>
      </trkpt>
      <trkpt lat="47.52964" lon="6.76546">
        <ele>373.6</ele>
        <time>2014-10-28T14:37:14.000Z</time>
      </trkpt>
      <trkpt lat="47.52974" lon="6.7653">
        <ele>373.2</ele>
        <time>2014-10-28T14:37:22.000Z</time>
      </trkpt>
      <trkpt lat="47.52977" lon="6.7653">
        <ele>372.5</ele>
        <time>2014-10-28T14:37:25.000Z</time>
      </trkpt>
      <trkpt lat="47.5298" lon="6.76529">
        <ele>366.6</ele>
        <time>2014-10-28T14:37:26.000Z</time>
      </trkpt>
      <trkpt lat="47.52982" lon="6.76527">
        <ele>364</ele>
        <time>2014-10-28T14:37:27.000Z</time>
      </trkpt>
      <trkpt lat="47.52985" lon="6.76525">
        <ele>362.6</ele>
        <time>2014-10-28T14:37:28.000Z</time>
      </trkpt>
      <trkpt lat="47.52987" lon="6.76522">
        <ele>362.2</ele>
        <time>2014-10-28T14:37:29.000Z</time>
      </trkpt>
      <trkpt lat="47.52989" lon="6.7652">
        <ele>362.7</ele>
        <time>2014-10-28T14:37:30.000Z</time>
      </trkpt>
      <trkpt lat="47.52991" lon="6.76516">
        <ele>361.7</ele>
        <time>2014-10-28T14:37:32.000Z</time>
      </trkpt>
      <trkpt lat="47.52992" lon="6.76515">
        <ele>360.3</ele>
        <time>2014-10-28T14:37:33.000Z</time>
      </trkpt>
      <trkpt lat="47.52993" lon="6.76512">
        <ele>362.4</ele>
        <time>2014-10-28T14:37:34.000Z</time>
      </trkpt>
      <trkpt lat="47.52993" lon="6.76508">
        <ele>361.7</ele>
        <time>2014-10-28T14:37:35.000Z</time>
      </trkpt>
      <trkpt lat="47.52993" lon="6.76504">
        <ele>362.7</ele>
        <time>2014-10-28T14:37:36.000Z</time>
      </trkpt>
      <trkpt lat="47.52992" lon="6.76499">
        <ele>364.2</ele>
        <time>2014-10-28T14:37:37.000Z</time>
      </trkpt>
      <trkpt lat="47.52991" lon="6.76494">
        <ele>365.2</ele>
        <time>2014-10-28T14:37:38.000Z</time>
      </trkpt>
      <trkpt lat="47.52991" lon="6.7649">
        <ele>365.4</ele>
        <time>2014-10-28T14:37:39.000Z</time>
      </trkpt>
      <trkpt lat="47.5299" lon="6.76485">
        <ele>365.1</ele>
        <time>2014-10-28T14:37:41.000Z</time>
      </trkpt>
      <trkpt lat="47.52989" lon="6.76482">
        <ele>365.6</ele>
        <time>2014-10-28T14:37:42.000Z</time>
      </trkpt>
      <trkpt lat="47.52988" lon="6.76479">
        <ele>365.4</ele>
        <time>2014-10-28T14:37:43.000Z</time>
      </trkpt>
      <trkpt lat="47.52987" lon="6.76475">
        <ele>365.5</ele>
        <time>2014-10-28T14:37:44.000Z</time>
      </trkpt>
      <trkpt lat="47.52986" lon="6.76471">
        <ele>365.9</ele>
        <time>2014-10-28T14:37:45.000Z</time>
      </trkpt>
      <trkpt lat="47.52985" lon="6.76467">
        <ele>365.8</ele>
        <time>2014-10-28T14:37:46.000Z</time>
      </trkpt>
      <trkpt lat="47.52984" lon="6.76463">
        <ele>366.3</ele>
        <time>2014-10-28T14:37:47.000Z</time>
      </trkpt>
      <trkpt lat="47.52983" lon="6.7646">
        <ele>367.5</ele>
        <time>2014-10-28T14:37:48.000Z</time>
      </trkpt>
      <trkpt lat="47.52982" lon="6.76456">
        <ele>367.9</ele>
        <time>2014-10-28T14:37:49.000Z</time>
      </trkpt>
      <trkpt lat="47.52982" lon="6.76453">
        <ele>368.3</ele>
        <time>2014-10-28T14:37:50.000Z</time>
      </trkpt>
      <trkpt lat="47.5298" lon="6.76447">
        <ele>370.3</ele>
        <time>2014-10-28T14:37:52.000Z</time>
      </trkpt>
      <trkpt lat="47.5298" lon="6.76443">
        <ele>371.1</ele>
        <time>2014-10-28T14:37:53.000Z</time>
      </trkpt>
      <trkpt lat="47.52979" lon="6.76438">
        <ele>371.4</ele>
        <time>2014-10-28T14:37:55.000Z</time>
      </trkpt>
      <trkpt lat="47.52979" lon="6.76435">
        <ele>371.7</ele>
        <time>2014-10-28T14:37:56.000Z</time>
      </trkpt>
      <trkpt lat="47.52979" lon="6.7643">
        <ele>372.4</ele>
        <time>2014-10-28T14:37:58.000Z</time>
      </trkpt>
      <trkpt lat="47.52979" lon="6.76428">
        <ele>373</ele>
        <time>2014-10-28T14:37:59.000Z</time>
      </trkpt>
      <trkpt lat="47.52979" lon="6.76424">
        <ele>373.5</ele>
        <time>2014-10-28T14:38:00.000Z</time>
      </trkpt>
      <trkpt lat="47.52979" lon="6.76421">
        <ele>375.6</ele>
        <time>2014-10-28T14:38:01.000Z</time>
      </trkpt>
      <trkpt lat="47.52979" lon="6.76417">
        <ele>375.8</ele>
        <time>2014-10-28T14:38:02.000Z</time>
      </trkpt>
      <trkpt lat="47.52979" lon="6.76413">
        <ele>375.8</ele>
        <time>2014-10-28T14:38:03.000Z</time>
      </trkpt>
      <trkpt lat="47.52978" lon="6.76409">
        <ele>375.8</ele>
        <time>2014-10-28T14:38:04.000Z</time>
      </trkpt>
      <trkpt lat="47.52978" lon="6.76405">
        <ele>377.4</ele>
        <time>2014-10-28T14:38:05.000Z</time>
      </trkpt>
      <trkpt lat="47.52977" lon="6.76401">
        <ele>377.4</ele>
        <time>2014-10-28T14:38:06.000Z</time>
      </trkpt>
      <trkpt lat="47.52976" lon="6.76397">
        <ele>378.3</ele>
        <time>2014-10-28T14:38:07.000Z</time>
      </trkpt>
      <trkpt lat="47.52976" lon="6.76392">
        <ele>378.1</ele>
        <time>2014-10-28T14:38:08.000Z</time>
      </trkpt>
      <trkpt lat="47.52975" lon="6.76388">
        <ele>378</ele>
        <time>2014-10-28T14:38:09.000Z</time>
      </trkpt>
      <trkpt lat="47.52975" lon="6.76384">
        <ele>379.1</ele>
        <time>2014-10-28T14:38:10.000Z</time>
      </trkpt>
      <trkpt lat="47.52974" lon="6.7638">
        <ele>378.4</ele>
        <time>2014-10-28T14:38:11.000Z</time>
      </trkpt>
      <trkpt lat="47.52973" lon="6.76377">
        <ele>376.9</ele>
        <time>2014-10-28T14:38:12.000Z</time>
      </trkpt>
      <trkpt lat="47.52973" lon="6.76374">
        <ele>377.3</ele>
        <time>2014-10-28T14:38:13.000Z</time>
      </trkpt>
      <trkpt lat="47.52972" lon="6.76371">
        <ele>377.2</ele>
        <time>2014-10-28T14:38:14.000Z</time>
      </trkpt>
      <trkpt lat="47.52973" lon="6.76356">
        <ele>371.7</ele>
        <time>2014-10-28T14:38:22.000Z</time>
      </trkpt>
      <trkpt lat="47.52974" lon="6.76351">
        <ele>372.4</ele>
        <time>2014-10-28T14:38:27.000Z</time>
      </trkpt>
      <trkpt lat="47.52974" lon="6.76349">
        <ele>372.2</ele>
        <time>2014-10-28T14:38:28.000Z</time>
      </trkpt>
      <trkpt lat="47.52974" lon="6.76343">
        <ele>373.3</ele>
        <time>2014-10-28T14:38:30.000Z</time>
      </trkpt>
      <trkpt lat="47.52974" lon="6.7634">
        <ele>373.3</ele>
        <time>2014-10-28T14:38:31.000Z</time>
      </trkpt>
      <trkpt lat="47.52975" lon="6.76336">
        <ele>372.1</ele>
        <time>2014-10-28T14:38:32.000Z</time>
      </trkpt>
      <trkpt lat="47.52976" lon="6.76333">
        <ele>373</ele>
        <time>2014-10-28T14:38:33.000Z</time>
      </trkpt>
      <trkpt lat="47.52978" lon="6.76328">
        <ele>371.2</ele>
        <time>2014-10-28T14:38:35.000Z</time>
      </trkpt>
      <trkpt lat="47.52979" lon="6.76326">
        <ele>370.2</ele>
        <time>2014-10-28T14:38:36.000Z</time>
      </trkpt>
      <trkpt lat="47.5298" lon="6.76323">
        <ele>369.9</ele>
        <time>2014-10-28T14:38:37.000Z</time>
      </trkpt>
      <trkpt lat="47.52982" lon="6.7632">
        <ele>369.5</ele>
        <time>2014-10-28T14:38:38.000Z</time>
      </trkpt>
      <trkpt lat="47.52984" lon="6.76316">
        <ele>367.8</ele>
        <time>2014-10-28T14:38:40.000Z</time>
      </trkpt>
      <trkpt lat="47.52985" lon="6.76314">
        <ele>367.9</ele>
        <time>2014-10-28T14:38:41.000Z</time>
      </trkpt>
      <trkpt lat="47.52985" lon="6.76309">
        <ele>367.9</ele>
        <time>2014-10-28T14:38:43.000Z</time>
      </trkpt>
      <trkpt lat="47.52984" lon="6.76306">
        <ele>368.4</ele>
        <time>2014-10-28T14:38:44.000Z</time>
      </trkpt>
      <trkpt lat="47.52984" lon="6.76302">
        <ele>371.1</ele>
        <time>2014-10-28T14:38:45.000Z</time>
      </trkpt>
      <trkpt lat="47.52983" lon="6.76298">
        <ele>372</ele>
        <time>2014-10-28T14:38:46.000Z</time>
      </trkpt>
      <trkpt lat="47.52982" lon="6.76294">
        <ele>372</ele>
        <time>2014-10-28T14:38:47.000Z</time>
      </trkpt>
      <trkpt lat="47.52982" lon="6.7629">
        <ele>371.5</ele>
        <time>2014-10-28T14:38:48.000Z</time>
      </trkpt>
      <trkpt lat="47.52981" lon="6.76286">
        <ele>371.2</ele>
        <time>2014-10-28T14:38:49.000Z</time>
      </trkpt>
      <trkpt lat="47.52981" lon="6.76283">
        <ele>371.7</ele>
        <time>2014-10-28T14:38:50.000Z</time>
      </trkpt>
      <trkpt lat="47.5298" lon="6.76276">
        <ele>371.9</ele>
        <time>2014-10-28T14:38:52.000Z</time>
      </trkpt>
      <trkpt lat="47.52981" lon="6.76273">
        <ele>371.6</ele>
        <time>2014-10-28T14:38:53.000Z</time>
      </trkpt>
      <trkpt lat="47.52981" lon="6.76267">
        <ele>372.1</ele>
        <time>2014-10-28T14:38:55.000Z</time>
      </trkpt>
      <trkpt lat="47.52981" lon="6.76263">
        <ele>371.5</ele>
        <time>2014-10-28T14:38:56.000Z</time>
      </trkpt>
      <trkpt lat="47.52982" lon="6.76258">
        <ele>370.1</ele>
        <time>2014-10-28T14:38:58.000Z</time>
      </trkpt>
      <trkpt lat="47.52982" lon="6.76255">
        <ele>368.3</ele>
        <time>2014-10-28T14:38:59.000Z</time>
      </trkpt>
      <trkpt lat="47.52982" lon="6.76248">
        <ele>366.8</ele>
        <time>2014-10-28T14:39:01.000Z</time>
      </trkpt>
      <trkpt lat="47.52982" lon="6.76245">
        <ele>366.2</ele>
        <time>2014-10-28T14:39:02.000Z</time>
      </trkpt>
      <trkpt lat="47.52983" lon="6.76241">
        <ele>365.8</ele>
        <time>2014-10-28T14:39:03.000Z</time>
      </trkpt>
      <trkpt lat="47.52983" lon="6.76238">
        <ele>366</ele>
        <time>2014-10-28T14:39:04.000Z</time>
      </trkpt>
      <trkpt lat="47.52983" lon="6.76234">
        <ele>366.3</ele>
        <time>2014-10-28T14:39:05.000Z</time>
      </trkpt>
      <trkpt lat="47.52983" lon="6.7623">
        <ele>366.6</ele>
        <time>2014-10-28T14:39:06.000Z</time>
      </trkpt>
      <trkpt lat="47.52983" lon="6.76226">
        <ele>366.8</ele>
        <time>2014-10-28T14:39:07.000Z</time>
      </trkpt>
      <trkpt lat="47.52983" lon="6.76222">
        <ele>366.6</ele>
        <time>2014-10-28T14:39:08.000Z</time>
      </trkpt>
      <trkpt lat="47.52982" lon="6.76218">
        <ele>367.5</ele>
        <time>2014-10-28T14:39:09.000Z</time>
      </trkpt>
      <trkpt lat="47.52982" lon="6.76215">
        <ele>367.2</ele>
        <time>2014-10-28T14:39:10.000Z</time>
      </trkpt>
      <trkpt lat="47.52981" lon="6.76212">
        <ele>366.6</ele>
        <time>2014-10-28T14:39:11.000Z</time>
      </trkpt>
      <trkpt lat="47.52979" lon="6.76208">
        <ele>365.2</ele>
        <time>2014-10-28T14:39:12.000Z</time>
      </trkpt>
      <trkpt lat="47.52978" lon="6.76204">
        <ele>366.2</ele>
        <time>2014-10-28T14:39:13.000Z</time>
      </trkpt>
      <trkpt lat="47.52977" lon="6.762">
        <ele>364.8</ele>
        <time>2014-10-28T14:39:14.000Z</time>
      </trkpt>
      <trkpt lat="47.52978" lon="6.76191">
        <ele>363.8</ele>
        <time>2014-10-28T14:39:22.000Z</time>
      </trkpt>
      <trkpt lat="47.52979" lon="6.76186">
        <ele>363</ele>
        <time>2014-10-28T14:39:59.000Z</time>
      </trkpt>
      <trkpt lat="47.52979" lon="6.76183">
        <ele>362.9</ele>
        <time>2014-10-28T14:40:00.000Z</time>
      </trkpt>
      <trkpt lat="47.52979" lon="6.76178">
        <ele>363.4</ele>
        <time>2014-10-28T14:40:02.000Z</time>
      </trkpt>
      <trkpt lat="47.5298" lon="6.76175">
        <ele>362.8</ele>
        <time>2014-10-28T14:40:03.000Z</time>
      </trkpt>
      <trkpt lat="47.5298" lon="6.76169">
        <ele>363.1</ele>
        <time>2014-10-28T14:40:05.000Z</time>
      </trkpt>
      <trkpt lat="47.52981" lon="6.76166">
        <ele>364.3</ele>
        <time>2014-10-28T14:40:06.000Z</time>
      </trkpt>
      <trkpt lat="47.52982" lon="6.7616">
        <ele>363.5</ele>
        <time>2014-10-28T14:40:08.000Z</time>
      </trkpt>
      <trkpt lat="47.52982" lon="6.76157">
        <ele>362.7</ele>
        <time>2014-10-28T14:40:09.000Z</time>
      </trkpt>
      <trkpt lat="47.52981" lon="6.7615">
        <ele>363.4</ele>
        <time>2014-10-28T14:40:11.000Z</time>
      </trkpt>
      <trkpt lat="47.5298" lon="6.76147">
        <ele>364.1</ele>
        <time>2014-10-28T14:40:12.000Z</time>
      </trkpt>
      <trkpt lat="47.52979" lon="6.76144">
        <ele>364.6</ele>
        <time>2014-10-28T14:40:13.000Z</time>
      </trkpt>
      <trkpt lat="47.52978" lon="6.76141">
        <ele>365.4</ele>
        <time>2014-10-28T14:40:14.000Z</time>
      </trkpt>
      <trkpt lat="47.52977" lon="6.76139">
        <ele>365.6</ele>
        <time>2014-10-28T14:40:15.000Z</time>
      </trkpt>
      <trkpt lat="47.52977" lon="6.76114">
        <ele>365.7</ele>
        <time>2014-10-28T14:40:23.000Z</time>
      </trkpt>
      <trkpt lat="47.52977" lon="6.76111">
        <ele>367.9</ele>
        <time>2014-10-28T14:40:24.000Z</time>
      </trkpt>
      <trkpt lat="47.52976" lon="6.76107">
        <ele>368.6</ele>
        <time>2014-10-28T14:40:25.000Z</time>
      </trkpt>
      <trkpt lat="47.52975" lon="6.76103">
        <ele>368.9</ele>
        <time>2014-10-28T14:40:26.000Z</time>
      </trkpt>
      <trkpt lat="47.52975" lon="6.761">
        <ele>368.9</ele>
        <time>2014-10-28T14:40:27.000Z</time>
      </trkpt>
      <trkpt lat="47.52973" lon="6.76095">
        <ele>368.5</ele>
        <time>2014-10-28T14:40:29.000Z</time>
      </trkpt>
      <trkpt lat="47.52973" lon="6.76092">
        <ele>369.3</ele>
        <time>2014-10-28T14:40:30.000Z</time>
      </trkpt>
      <trkpt lat="47.52971" lon="6.76087">
        <ele>368.3</ele>
        <time>2014-10-28T14:40:32.000Z</time>
      </trkpt>
      <trkpt lat="47.5297" lon="6.76085">
        <ele>366.7</ele>
        <time>2014-10-28T14:40:33.000Z</time>
      </trkpt>
      <trkpt lat="47.52967" lon="6.76081">
        <ele>367</ele>
        <time>2014-10-28T14:40:35.000Z</time>
      </trkpt>
      <trkpt lat="47.52966" lon="6.76079">
        <ele>367.1</ele>
        <time>2014-10-28T14:40:36.000Z</time>
      </trkpt>
      <trkpt lat="47.52964" lon="6.76073">
        <ele>368</ele>
        <time>2014-10-28T14:40:38.000Z</time>
      </trkpt>
      <trkpt lat="47.52964" lon="6.7607">
        <ele>368.1</ele>
        <time>2014-10-28T14:40:39.000Z</time>
      </trkpt>
      <trkpt lat="47.52963" lon="6.76064">
        <ele>371</ele>
        <time>2014-10-28T14:40:41.000Z</time>
      </trkpt>
      <trkpt lat="47.52963" lon="6.76061">
        <ele>371.3</ele>
        <time>2014-10-28T14:40:42.000Z</time>
      </trkpt>
      <trkpt lat="47.52963" lon="6.76057">
        <ele>372</ele>
        <time>2014-10-28T14:40:43.000Z</time>
      </trkpt>
      <trkpt lat="47.52963" lon="6.76053">
        <ele>371.7</ele>
        <time>2014-10-28T14:40:44.000Z</time>
      </trkpt>
      <trkpt lat="47.52964" lon="6.76049">
        <ele>371</ele>
        <time>2014-10-28T14:40:45.000Z</time>
      </trkpt>
      <trkpt lat="47.52966" lon="6.76046">
        <ele>371.7</ele>
        <time>2014-10-28T14:40:46.000Z</time>
      </trkpt>
      <trkpt lat="47.52967" lon="6.76044">
        <ele>371</ele>
        <time>2014-10-28T14:40:47.000Z</time>
      </trkpt>
      <trkpt lat="47.52969" lon="6.76041">
        <ele>370.3</ele>
        <time>2014-10-28T14:40:48.000Z</time>
      </trkpt>
      <trkpt lat="47.52971" lon="6.76037">
        <ele>370.9</ele>
        <time>2014-10-28T14:40:50.000Z</time>
      </trkpt>
      <trkpt lat="47.52973" lon="6.76034">
        <ele>371.7</ele>
        <time>2014-10-28T14:40:51.000Z</time>
      </trkpt>
      <trkpt lat="47.52976" lon="6.76029">
        <ele>372.2</ele>
        <time>2014-10-28T14:40:53.000Z</time>
      </trkpt>
      <trkpt lat="47.52978" lon="6.76027">
        <ele>372.5</ele>
        <time>2014-10-28T14:40:54.000Z</time>
      </trkpt>
      <trkpt lat="47.52981" lon="6.76023">
        <ele>372</ele>
        <time>2014-10-28T14:40:56.000Z</time>
      </trkpt>
      <trkpt lat="47.52983" lon="6.76022">
        <ele>373.1</ele>
        <time>2014-10-28T14:40:57.000Z</time>
      </trkpt>
      <trkpt lat="47.52986" lon="6.76019">
        <ele>373.6</ele>
        <time>2014-10-28T14:40:59.000Z</time>
      </trkpt>
      <trkpt lat="47.52987" lon="6.76018">
        <ele>373.3</ele>
        <time>2014-10-28T14:41:00.000Z</time>
      </trkpt>
      <trkpt lat="47.5299" lon="6.76017">
        <ele>373</ele>
        <time>2014-10-28T14:41:02.000Z</time>
      </trkpt>
      <trkpt lat="47.52992" lon="6.76016">
        <ele>372.9</ele>
        <time>2014-10-28T14:41:03.000Z</time>
      </trkpt>
      <trkpt lat="47.52996" lon="6.76014">
        <ele>374.2</ele>
        <time>2014-10-28T14:41:05.000Z</time>
      </trkpt>
      <trkpt lat="47.52998" lon="6.76013">
        <ele>374</ele>
        <time>2014-10-28T14:41:06.000Z</time>
      </trkpt>
      <trkpt lat="47.53001" lon="6.76009">
        <ele>373.3</ele>
        <time>2014-10-28T14:41:08.000Z</time>
      </trkpt>
      <trkpt lat="47.53002" lon="6.76007">
        <ele>372.6</ele>
        <time>2014-10-28T14:41:09.000Z</time>
      </trkpt>
      <trkpt lat="47.53004" lon="6.76004">
        <ele>372.1</ele>
        <time>2014-10-28T14:41:10.000Z</time>
      </trkpt>
      <trkpt lat="47.53005" lon="6.76001">
        <ele>371.6</ele>
        <time>2014-10-28T14:41:11.000Z</time>
      </trkpt>
      <trkpt lat="47.53007" lon="6.75998">
        <ele>371.7</ele>
        <time>2014-10-28T14:41:12.000Z</time>
      </trkpt>
      <trkpt lat="47.53009" lon="6.75996">
        <ele>370.2</ele>
        <time>2014-10-28T14:41:13.000Z</time>
      </trkpt>
      <trkpt lat="47.5301" lon="6.75993">
        <ele>371.1</ele>
        <time>2014-10-28T14:41:14.000Z</time>
      </trkpt>
      <trkpt lat="47.5302" lon="6.75981">
        <ele>373.4</ele>
        <time>2014-10-28T14:41:22.000Z</time>
      </trkpt>
      <trkpt lat="47.53023" lon="6.75978">
        <ele>372.4</ele>
        <time>2014-10-28T14:41:24.000Z</time>
      </trkpt>
      <trkpt lat="47.53025" lon="6.75976">
        <ele>371.8</ele>
        <time>2014-10-28T14:41:25.000Z</time>
      </trkpt>
      <trkpt lat="47.53026" lon="6.75972">
        <ele>369.4</ele>
        <time>2014-10-28T14:41:26.000Z</time>
      </trkpt>
      <trkpt lat="47.53027" lon="6.75969">
        <ele>369.2</ele>
        <time>2014-10-28T14:41:27.000Z</time>
      </trkpt>
      <trkpt lat="47.53028" lon="6.75963">
        <ele>369.6</ele>
        <time>2014-10-28T14:41:29.000Z</time>
      </trkpt>
      <trkpt lat="47.53029" lon="6.7596">
        <ele>367.9</ele>
        <time>2014-10-28T14:41:30.000Z</time>
      </trkpt>
      <trkpt lat="47.53032" lon="6.75956">
        <ele>366.1</ele>
        <time>2014-10-28T14:41:32.000Z</time>
      </trkpt>
      <trkpt lat="47.53034" lon="6.75954">
        <ele>365.2</ele>
        <time>2014-10-28T14:41:33.000Z</time>
      </trkpt>
      <trkpt lat="47.53035" lon="6.75952">
        <ele>364.7</ele>
        <time>2014-10-28T14:41:34.000Z</time>
      </trkpt>
      <trkpt lat="47.53037" lon="6.7595">
        <ele>364.1</ele>
        <time>2014-10-28T14:41:35.000Z</time>
      </trkpt>
      <trkpt lat="47.5304" lon="6.75948">
        <ele>363</ele>
        <time>2014-10-28T14:41:36.000Z</time>
      </trkpt>
      <trkpt lat="47.53041" lon="6.75947">
        <ele>363.7</ele>
        <time>2014-10-28T14:41:37.000Z</time>
      </trkpt>
      <trkpt lat="47.53044" lon="6.75943">
        <ele>366.7</ele>
        <time>2014-10-28T14:41:39.000Z</time>
      </trkpt>
      <trkpt lat="47.53045" lon="6.75942">
        <ele>366.4</ele>
        <time>2014-10-28T14:41:40.000Z</time>
      </trkpt>
      <trkpt lat="47.53048" lon="6.75939">
        <ele>366.9</ele>
        <time>2014-10-28T14:41:42.000Z</time>
      </trkpt>
      <trkpt lat="47.53049" lon="6.75938">
        <ele>367.2</ele>
        <time>2014-10-28T14:41:43.000Z</time>
      </trkpt>
      <trkpt lat="47.53053" lon="6.75936">
        <ele>367.1</ele>
        <time>2014-10-28T14:41:45.000Z</time>
      </trkpt>
      <trkpt lat="47.53055" lon="6.75935">
        <ele>366.2</ele>
        <time>2014-10-28T14:41:46.000Z</time>
      </trkpt>
      <trkpt lat="47.53057" lon="6.75934">
        <ele>366</ele>
        <time>2014-10-28T14:41:47.000Z</time>
      </trkpt>
      <trkpt lat="47.5306" lon="6.75933">
        <ele>366</ele>
        <time>2014-10-28T14:41:48.000Z</time>
      </trkpt>
      <trkpt lat="47.53064" lon="6.75931">
        <ele>365.6</ele>
        <time>2014-10-28T14:41:50.000Z</time>
      </trkpt>
      <trkpt lat="47.53066" lon="6.75931">
        <ele>365.4</ele>
        <time>2014-10-28T14:41:51.000Z</time>
      </trkpt>
      <trkpt lat="47.5307" lon="6.75929">
        <ele>365.6</ele>
        <time>2014-10-28T14:41:53.000Z</time>
      </trkpt>
      <trkpt lat="47.53073" lon="6.75929">
        <ele>365.8</ele>
        <time>2014-10-28T14:41:54.000Z</time>
      </trkpt>
      <trkpt lat="47.53075" lon="6.75928">
        <ele>365.7</ele>
        <time>2014-10-28T14:41:55.000Z</time>
      </trkpt>
      <trkpt lat="47.53078" lon="6.75928">
        <ele>365.7</ele>
        <time>2014-10-28T14:41:56.000Z</time>
      </trkpt>
      <trkpt lat="47.5308" lon="6.75926">
        <ele>368.5</ele>
        <time>2014-10-28T14:41:57.000Z</time>
      </trkpt>
      <trkpt lat="47.53084" lon="6.75925">
        <ele>368.6</ele>
        <time>2014-10-28T14:41:58.000Z</time>
      </trkpt>
      <trkpt lat="47.53087" lon="6.75924">
        <ele>368.9</ele>
        <time>2014-10-28T14:41:59.000Z</time>
      </trkpt>
      <trkpt lat="47.53089" lon="6.75922">
        <ele>371.7</ele>
        <time>2014-10-28T14:42:00.000Z</time>
      </trkpt>
      <trkpt lat="47.53092" lon="6.75921">
        <ele>372.6</ele>
        <time>2014-10-28T14:42:01.000Z</time>
      </trkpt>
      <trkpt lat="47.53094" lon="6.75919">
        <ele>372.9</ele>
        <time>2014-10-28T14:42:02.000Z</time>
      </trkpt>
      <trkpt lat="47.53098" lon="6.75916">
        <ele>373.3</ele>
        <time>2014-10-28T14:42:04.000Z</time>
      </trkpt>
      <trkpt lat="47.53099" lon="6.75915">
        <ele>373.7</ele>
        <time>2014-10-28T14:42:05.000Z</time>
      </trkpt>
      <trkpt lat="47.53102" lon="6.75912">
        <ele>372.7</ele>
        <time>2014-10-28T14:42:07.000Z</time>
      </trkpt>
      <trkpt lat="47.53103" lon="6.75911">
        <ele>373.3</ele>
        <time>2014-10-28T14:42:08.000Z</time>
      </trkpt>
      <trkpt lat="47.53106" lon="6.7591">
        <ele>373.3</ele>
        <time>2014-10-28T14:42:10.000Z</time>
      </trkpt>
      <trkpt lat="47.53108" lon="6.7591">
        <ele>372.9</ele>
        <time>2014-10-28T14:42:11.000Z</time>
      </trkpt>
      <trkpt lat="47.53112" lon="6.75909">
        <ele>369.1</ele>
        <time>2014-10-28T14:42:13.000Z</time>
      </trkpt>
      <trkpt lat="47.53114" lon="6.75909">
        <ele>369.5</ele>
        <time>2014-10-28T14:42:14.000Z</time>
      </trkpt>
      <trkpt lat="47.5312" lon="6.75907">
        <ele>369.3</ele>
        <time>2014-10-28T14:42:17.000Z</time>
      </trkpt>
      <trkpt lat="47.53123" lon="6.75905">
        <ele>368.6</ele>
        <time>2014-10-28T14:42:19.000Z</time>
      </trkpt>
      <trkpt lat="47.53125" lon="6.75902">
        <ele>372.6</ele>
        <time>2014-10-28T14:42:20.000Z</time>
      </trkpt>
      <trkpt lat="47.53127" lon="6.75899">
        <ele>374.3</ele>
        <time>2014-10-28T14:42:21.000Z</time>
      </trkpt>
      <trkpt lat="47.53129" lon="6.75896">
        <ele>372.9</ele>
        <time>2014-10-28T14:42:22.000Z</time>
      </trkpt>
      <trkpt lat="47.53132" lon="6.75893">
        <ele>372.4</ele>
        <time>2014-10-28T14:42:23.000Z</time>
      </trkpt>
      <trkpt lat="47.53134" lon="6.75892">
        <ele>373.5</ele>
        <time>2014-10-28T14:42:24.000Z</time>
      </trkpt>
      <trkpt lat="47.53138" lon="6.7589">
        <ele>374</ele>
        <time>2014-10-28T14:42:26.000Z</time>
      </trkpt>
      <trkpt lat="47.5314" lon="6.7589">
        <ele>374.3</ele>
        <time>2014-10-28T14:42:27.000Z</time>
      </trkpt>
      <trkpt lat="47.53144" lon="6.75889">
        <ele>374.5</ele>
        <time>2014-10-28T14:42:29.000Z</time>
      </trkpt>
      <trkpt lat="47.53146" lon="6.7589">
        <ele>374.4</ele>
        <time>2014-10-28T14:42:30.000Z</time>
      </trkpt>
      <trkpt lat="47.53149" lon="6.7589">
        <ele>374.1</ele>
        <time>2014-10-28T14:42:31.000Z</time>
      </trkpt>
      <trkpt lat="47.53151" lon="6.75891">
        <ele>373.3</ele>
        <time>2014-10-28T14:42:32.000Z</time>
      </trkpt>
      <trkpt lat="47.53155" lon="6.75889">
        <ele>374</ele>
        <time>2014-10-28T14:42:34.000Z</time>
      </trkpt>
      <trkpt lat="47.53157" lon="6.75888">
        <ele>374.9</ele>
        <time>2014-10-28T14:42:35.000Z</time>
      </trkpt>
      <trkpt lat="47.5316" lon="6.75886">
        <ele>374.7</ele>
        <time>2014-10-28T14:42:36.000Z</time>
      </trkpt>
      <trkpt lat="47.53162" lon="6.75885">
        <ele>374.4</ele>
        <time>2014-10-28T14:42:37.000Z</time>
      </trkpt>
      <trkpt lat="47.53164" lon="6.75884">
        <ele>373.8</ele>
        <time>2014-10-28T14:42:38.000Z</time>
      </trkpt>
      <trkpt lat="47.53166" lon="6.75883">
        <ele>373.6</ele>
        <time>2014-10-28T14:42:39.000Z</time>
      </trkpt>
      <trkpt lat="47.53171" lon="6.75881">
        <ele>377</ele>
        <time>2014-10-28T14:42:41.000Z</time>
      </trkpt>
      <trkpt lat="47.53173" lon="6.75881">
        <ele>378.3</ele>
        <time>2014-10-28T14:42:42.000Z</time>
      </trkpt>
      <trkpt lat="47.53175" lon="6.75881">
        <ele>377.8</ele>
        <time>2014-10-28T14:42:43.000Z</time>
      </trkpt>
      <trkpt lat="47.53178" lon="6.75881">
        <ele>377.8</ele>
        <time>2014-10-28T14:42:44.000Z</time>
      </trkpt>
      <trkpt lat="47.5318" lon="6.75882">
        <ele>377.4</ele>
        <time>2014-10-28T14:42:45.000Z</time>
      </trkpt>
      <trkpt lat="47.53182" lon="6.75883">
        <ele>376.4</ele>
        <time>2014-10-28T14:42:46.000Z</time>
      </trkpt>
      <trkpt lat="47.53185" lon="6.75886">
        <ele>376.9</ele>
        <time>2014-10-28T14:42:49.000Z</time>
      </trkpt>
      <trkpt lat="47.53185" lon="6.75888">
        <ele>377</ele>
        <time>2014-10-28T14:42:50.000Z</time>
      </trkpt>
      <trkpt lat="47.53186" lon="6.75894">
        <ele>376.7</ele>
        <time>2014-10-28T14:42:52.000Z</time>
      </trkpt>
      <trkpt lat="47.53187" lon="6.75897">
        <ele>376.4</ele>
        <time>2014-10-28T14:42:53.000Z</time>
      </trkpt>
      <trkpt lat="47.53187" lon="6.759">
        <ele>377.5</ele>
        <time>2014-10-28T14:42:54.000Z</time>
      </trkpt>
      <trkpt lat="47.53188" lon="6.75904">
        <ele>379.4</ele>
        <time>2014-10-28T14:42:55.000Z</time>
      </trkpt>
      <trkpt lat="47.53189" lon="6.75908">
        <ele>379.5</ele>
        <time>2014-10-28T14:42:56.000Z</time>
      </trkpt>
      <trkpt lat="47.5319" lon="6.75912">
        <ele>379.9</ele>
        <time>2014-10-28T14:42:57.000Z</time>
      </trkpt>
      <trkpt lat="47.53191" lon="6.75916">
        <ele>379.9</ele>
        <time>2014-10-28T14:42:58.000Z</time>
      </trkpt>
      <trkpt lat="47.53192" lon="6.75919">
        <ele>380</ele>
        <time>2014-10-28T14:42:59.000Z</time>
      </trkpt>
      <trkpt lat="47.53193" lon="6.75923">
        <ele>379.6</ele>
        <time>2014-10-28T14:43:00.000Z</time>
      </trkpt>
      <trkpt lat="47.53194" lon="6.75926">
        <ele>379.7</ele>
        <time>2014-10-28T14:43:01.000Z</time>
      </trkpt>
      <trkpt lat="47.53194" lon="6.7593">
        <ele>379.1</ele>
        <time>2014-10-28T14:43:02.000Z</time>
      </trkpt>
      <trkpt lat="47.53195" lon="6.75933">
        <ele>379.4</ele>
        <time>2014-10-28T14:43:03.000Z</time>
      </trkpt>
      <trkpt lat="47.53196" lon="6.75937">
        <ele>379.3</ele>
        <time>2014-10-28T14:43:04.000Z</time>
      </trkpt>
      <trkpt lat="47.53197" lon="6.75941">
        <ele>378</ele>
        <time>2014-10-28T14:43:05.000Z</time>
      </trkpt>
      <trkpt lat="47.53197" lon="6.75945">
        <ele>377.4</ele>
        <time>2014-10-28T14:43:06.000Z</time>
      </trkpt>
      <trkpt lat="47.53198" lon="6.75949">
        <ele>377.1</ele>
        <time>2014-10-28T14:43:07.000Z</time>
      </trkpt>
      <trkpt lat="47.53198" lon="6.75953">
        <ele>377.1</ele>
        <time>2014-10-28T14:43:08.000Z</time>
      </trkpt>
      <trkpt lat="47.53198" lon="6.75956">
        <ele>377.2</ele>
        <time>2014-10-28T14:43:09.000Z</time>
      </trkpt>
      <trkpt lat="47.53199" lon="6.7596">
        <ele>377.3</ele>
        <time>2014-10-28T14:43:10.000Z</time>
      </trkpt>
      <trkpt lat="47.532" lon="6.75963">
        <ele>379.6</ele>
        <time>2014-10-28T14:43:11.000Z</time>
      </trkpt>
      <trkpt lat="47.53203" lon="6.75967">
        <ele>380.5</ele>
        <time>2014-10-28T14:43:12.000Z</time>
      </trkpt>
      <trkpt lat="47.53205" lon="6.7597">
        <ele>380.9</ele>
        <time>2014-10-28T14:43:13.000Z</time>
      </trkpt>
      <trkpt lat="47.53207" lon="6.75974">
        <ele>380</ele>
        <time>2014-10-28T14:43:14.000Z</time>
      </trkpt>
      <trkpt lat="47.53209" lon="6.75982">
        <ele>381</ele>
        <time>2014-10-28T14:43:17.000Z</time>
      </trkpt>
      <trkpt lat="47.53209" lon="6.75988">
        <ele>381.5</ele>
        <time>2014-10-28T14:43:19.000Z</time>
      </trkpt>
      <trkpt lat="47.5321" lon="6.75991">
        <ele>381.5</ele>
        <time>2014-10-28T14:43:20.000Z</time>
      </trkpt>
      <trkpt lat="47.5321" lon="6.75997">
        <ele>381.3</ele>
        <time>2014-10-28T14:43:22.000Z</time>
      </trkpt>
      <trkpt lat="47.53211" lon="6.76001">
        <ele>381.2</ele>
        <time>2014-10-28T14:43:23.000Z</time>
      </trkpt>
      <trkpt lat="47.5321" lon="6.76005">
        <ele>376.7</ele>
        <time>2014-10-28T14:43:25.000Z</time>
      </trkpt>
      <trkpt lat="47.5321" lon="6.76008">
        <ele>376.1</ele>
        <time>2014-10-28T14:43:26.000Z</time>
      </trkpt>
      <trkpt lat="47.53211" lon="6.76014">
        <ele>375.7</ele>
        <time>2014-10-28T14:43:28.000Z</time>
      </trkpt>
      <trkpt lat="47.53212" lon="6.76018">
        <ele>375.8</ele>
        <time>2014-10-28T14:43:29.000Z</time>
      </trkpt>
      <trkpt lat="47.53212" lon="6.76022">
        <ele>375.7</ele>
        <time>2014-10-28T14:43:30.000Z</time>
      </trkpt>
      <trkpt lat="47.53211" lon="6.76026">
        <ele>372.8</ele>
        <time>2014-10-28T14:43:31.000Z</time>
      </trkpt>
      <trkpt lat="47.5321" lon="6.76029">
        <ele>370.9</ele>
        <time>2014-10-28T14:43:32.000Z</time>
      </trkpt>
      <trkpt lat="47.53209" lon="6.76032">
        <ele>370.1</ele>
        <time>2014-10-28T14:43:33.000Z</time>
      </trkpt>
      <trkpt lat="47.53208" lon="6.76036">
        <ele>367</ele>
        <time>2014-10-28T14:43:34.000Z</time>
      </trkpt>
      <trkpt lat="47.53209" lon="6.7604">
        <ele>368.6</ele>
        <time>2014-10-28T14:43:35.000Z</time>
      </trkpt>
      <trkpt lat="47.5321" lon="6.76044">
        <ele>368</ele>
        <time>2014-10-28T14:43:36.000Z</time>
      </trkpt>
      <trkpt lat="47.53211" lon="6.76049">
        <ele>367.3</ele>
        <time>2014-10-28T14:43:37.000Z</time>
      </trkpt>
      <trkpt lat="47.53213" lon="6.76052">
        <ele>367.5</ele>
        <time>2014-10-28T14:43:38.000Z</time>
      </trkpt>
      <trkpt lat="47.53213" lon="6.76056">
        <ele>367.7</ele>
        <time>2014-10-28T14:43:39.000Z</time>
      </trkpt>
      <trkpt lat="47.53214" lon="6.76061">
        <ele>367.1</ele>
        <time>2014-10-28T14:43:41.000Z</time>
      </trkpt>
      <trkpt lat="47.53215" lon="6.76065">
        <ele>366.6</ele>
        <time>2014-10-28T14:43:42.000Z</time>
      </trkpt>
      <trkpt lat="47.53215" lon="6.76068">
        <ele>366.6</ele>
        <time>2014-10-28T14:43:43.000Z</time>
      </trkpt>
      <trkpt lat="47.53215" lon="6.76071">
        <ele>366.8</ele>
        <time>2014-10-28T14:43:44.000Z</time>
      </trkpt>
      <trkpt lat="47.53215" lon="6.76075">
        <ele>367.2</ele>
        <time>2014-10-28T14:43:45.000Z</time>
      </trkpt>
      <trkpt lat="47.53216" lon="6.76078">
        <ele>367.7</ele>
        <time>2014-10-28T14:43:46.000Z</time>
      </trkpt>
      <trkpt lat="47.53216" lon="6.76082">
        <ele>365.4</ele>
        <time>2014-10-28T14:43:47.000Z</time>
      </trkpt>
      <trkpt lat="47.53216" lon="6.76086">
        <ele>364.2</ele>
        <time>2014-10-28T14:43:48.000Z</time>
      </trkpt>
      <trkpt lat="47.53216" lon="6.7609">
        <ele>363.8</ele>
        <time>2014-10-28T14:43:49.000Z</time>
      </trkpt>
      <trkpt lat="47.53215" lon="6.76093">
        <ele>364</ele>
        <time>2014-10-28T14:43:50.000Z</time>
      </trkpt>
      <trkpt lat="47.53215" lon="6.76097">
        <ele>364.3</ele>
        <time>2014-10-28T14:43:51.000Z</time>
      </trkpt>
      <trkpt lat="47.53214" lon="6.76102">
        <ele>364.6</ele>
        <time>2014-10-28T14:43:52.000Z</time>
      </trkpt>
      <trkpt lat="47.53214" lon="6.76106">
        <ele>364.9</ele>
        <time>2014-10-28T14:43:53.000Z</time>
      </trkpt>
      <trkpt lat="47.53214" lon="6.7611">
        <ele>365.5</ele>
        <time>2014-10-28T14:43:54.000Z</time>
      </trkpt>
      <trkpt lat="47.53214" lon="6.76115">
        <ele>363.3</ele>
        <time>2014-10-28T14:43:55.000Z</time>
      </trkpt>
      <trkpt lat="47.53214" lon="6.76119">
        <ele>363.2</ele>
        <time>2014-10-28T14:43:56.000Z</time>
      </trkpt>
      <trkpt lat="47.53215" lon="6.76125">
        <ele>366</ele>
        <time>2014-10-28T14:43:58.000Z</time>
      </trkpt>
      <trkpt lat="47.53216" lon="6.76128">
        <ele>365.3</ele>
        <time>2014-10-28T14:43:59.000Z</time>
      </trkpt>
      <trkpt lat="47.53216" lon="6.76131">
        <ele>365.4</ele>
        <time>2014-10-28T14:44:00.000Z</time>
      </trkpt>
      <trkpt lat="47.53217" lon="6.76135">
        <ele>366.4</ele>
        <time>2014-10-28T14:44:01.000Z</time>
      </trkpt>
      <trkpt lat="47.53218" lon="6.76139">
        <ele>366.1</ele>
        <time>2014-10-28T14:44:02.000Z</time>
      </trkpt>
      <trkpt lat="47.53218" lon="6.76143">
        <ele>365.7</ele>
        <time>2014-10-28T14:44:03.000Z</time>
      </trkpt>
      <trkpt lat="47.53219" lon="6.76147">
        <ele>365.9</ele>
        <time>2014-10-28T14:44:04.000Z</time>
      </trkpt>
      <trkpt lat="47.53219" lon="6.76151">
        <ele>366.7</ele>
        <time>2014-10-28T14:44:05.000Z</time>
      </trkpt>
      <trkpt lat="47.53219" lon="6.76155">
        <ele>366.9</ele>
        <time>2014-10-28T14:44:06.000Z</time>
      </trkpt>
      <trkpt lat="47.53219" lon="6.76159">
        <ele>366.5</ele>
        <time>2014-10-28T14:44:07.000Z</time>
      </trkpt>
      <trkpt lat="47.53219" lon="6.76163">
        <ele>365.9</ele>
        <time>2014-10-28T14:44:08.000Z</time>
      </trkpt>
      <trkpt lat="47.53219" lon="6.76168">
        <ele>365.1</ele>
        <time>2014-10-28T14:44:09.000Z</time>
      </trkpt>
      <trkpt lat="47.53219" lon="6.76172">
        <ele>365.4</ele>
        <time>2014-10-28T14:44:10.000Z</time>
      </trkpt>
      <trkpt lat="47.53219" lon="6.76176">
        <ele>365.6</ele>
        <time>2014-10-28T14:44:11.000Z</time>
      </trkpt>
      <trkpt lat="47.53219" lon="6.7618">
        <ele>364.7</ele>
        <time>2014-10-28T14:44:12.000Z</time>
      </trkpt>
      <trkpt lat="47.5322" lon="6.76183">
        <ele>364.8</ele>
        <time>2014-10-28T14:44:13.000Z</time>
      </trkpt>
      <trkpt lat="47.5322" lon="6.76187">
        <ele>364</ele>
        <time>2014-10-28T14:44:14.000Z</time>
      </trkpt>
      <trkpt lat="47.53216" lon="6.76208">
        <ele>363.9</ele>
        <time>2014-10-28T14:44:22.000Z</time>
      </trkpt>
      <trkpt lat="47.53216" lon="6.76212">
        <ele>365.9</ele>
        <time>2014-10-28T14:44:24.000Z</time>
      </trkpt>
      <trkpt lat="47.53216" lon="6.76215">
        <ele>366.9</ele>
        <time>2014-10-28T14:44:25.000Z</time>
      </trkpt>
      <trkpt lat="47.53216" lon="6.76218">
        <ele>368.9</ele>
        <time>2014-10-28T14:44:26.000Z</time>
      </trkpt>
      <trkpt lat="47.53217" lon="6.76222">
        <ele>369.2</ele>
        <time>2014-10-28T14:44:27.000Z</time>
      </trkpt>
      <trkpt lat="47.53217" lon="6.76225">
        <ele>368.8</ele>
        <time>2014-10-28T14:44:28.000Z</time>
      </trkpt>
      <trkpt lat="47.53217" lon="6.76229">
        <ele>370.3</ele>
        <time>2014-10-28T14:44:29.000Z</time>
      </trkpt>
      <trkpt lat="47.53217" lon="6.76232">
        <ele>370.9</ele>
        <time>2014-10-28T14:44:30.000Z</time>
      </trkpt>
      <trkpt lat="47.53217" lon="6.76236">
        <ele>370.6</ele>
        <time>2014-10-28T14:44:31.000Z</time>
      </trkpt>
      <trkpt lat="47.53217" lon="6.76239">
        <ele>370.8</ele>
        <time>2014-10-28T14:44:32.000Z</time>
      </trkpt>
      <trkpt lat="47.53217" lon="6.76243">
        <ele>370.8</ele>
        <time>2014-10-28T14:44:33.000Z</time>
      </trkpt>
      <trkpt lat="47.53216" lon="6.76249">
        <ele>371.5</ele>
        <time>2014-10-28T14:44:35.000Z</time>
      </trkpt>
      <trkpt lat="47.53216" lon="6.76252">
        <ele>372.4</ele>
        <time>2014-10-28T14:44:36.000Z</time>
      </trkpt>
      <trkpt lat="47.53216" lon="6.76258">
        <ele>373.6</ele>
        <time>2014-10-28T14:44:38.000Z</time>
      </trkpt>
      <trkpt lat="47.53216" lon="6.76261">
        <ele>373.1</ele>
        <time>2014-10-28T14:44:39.000Z</time>
      </trkpt>
      <trkpt lat="47.53215" lon="6.76267">
        <ele>375.3</ele>
        <time>2014-10-28T14:44:41.000Z</time>
      </trkpt>
      <trkpt lat="47.53215" lon="6.7627">
        <ele>375.2</ele>
        <time>2014-10-28T14:44:42.000Z</time>
      </trkpt>
      <trkpt lat="47.53214" lon="6.76276">
        <ele>375</ele>
        <time>2014-10-28T14:44:44.000Z</time>
      </trkpt>
      <trkpt lat="47.53214" lon="6.76279">
        <ele>375</ele>
        <time>2014-10-28T14:44:45.000Z</time>
      </trkpt>
      <trkpt lat="47.53214" lon="6.76285">
        <ele>375.9</ele>
        <time>2014-10-28T14:44:47.000Z</time>
      </trkpt>
      <trkpt lat="47.53214" lon="6.76288">
        <ele>375.9</ele>
        <time>2014-10-28T14:44:48.000Z</time>
      </trkpt>
      <trkpt lat="47.53215" lon="6.76294">
        <ele>374.7</ele>
        <time>2014-10-28T14:44:50.000Z</time>
      </trkpt>
      <trkpt lat="47.53215" lon="6.76298">
        <ele>374.9</ele>
        <time>2014-10-28T14:44:51.000Z</time>
      </trkpt>
      <trkpt lat="47.53214" lon="6.76301">
        <ele>377.6</ele>
        <time>2014-10-28T14:44:52.000Z</time>
      </trkpt>
      <trkpt lat="47.53213" lon="6.76304">
        <ele>378</ele>
        <time>2014-10-28T14:44:53.000Z</time>
      </trkpt>
      <trkpt lat="47.53212" lon="6.7631">
        <ele>377.9</ele>
        <time>2014-10-28T14:44:55.000Z</time>
      </trkpt>
      <trkpt lat="47.53211" lon="6.76313">
        <ele>378</ele>
        <time>2014-10-28T14:44:56.000Z</time>
      </trkpt>
      <trkpt lat="47.5321" lon="6.76317">
        <ele>378.2</ele>
        <time>2014-10-28T14:44:58.000Z</time>
      </trkpt>
      <trkpt lat="47.53212" lon="6.76322">
        <ele>379.1</ele>
        <time>2014-10-28T14:44:59.000Z</time>
      </trkpt>
      <trkpt lat="47.53212" lon="6.76325">
        <ele>379.7</ele>
        <time>2014-10-28T14:45:00.000Z</time>
      </trkpt>
      <trkpt lat="47.53213" lon="6.76329">
        <ele>379.5</ele>
        <time>2014-10-28T14:45:01.000Z</time>
      </trkpt>
      <trkpt lat="47.53213" lon="6.76332">
        <ele>379.9</ele>
        <time>2014-10-28T14:45:02.000Z</time>
      </trkpt>
      <trkpt lat="47.53213" lon="6.76335">
        <ele>379.8</ele>
        <time>2014-10-28T14:45:03.000Z</time>
      </trkpt>
      <trkpt lat="47.53212" lon="6.76339">
        <ele>379.7</ele>
        <time>2014-10-28T14:45:04.000Z</time>
      </trkpt>
      <trkpt lat="47.53212" lon="6.76342">
        <ele>381.1</ele>
        <time>2014-10-28T14:45:05.000Z</time>
      </trkpt>
      <trkpt lat="47.53212" lon="6.76346">
        <ele>381.5</ele>
        <time>2014-10-28T14:45:06.000Z</time>
      </trkpt>
      <trkpt lat="47.53211" lon="6.76349">
        <ele>381.8</ele>
        <time>2014-10-28T14:45:07.000Z</time>
      </trkpt>
      <trkpt lat="47.53211" lon="6.76355">
        <ele>381.3</ele>
        <time>2014-10-28T14:45:09.000Z</time>
      </trkpt>
      <trkpt lat="47.5321" lon="6.76358">
        <ele>381.1</ele>
        <time>2014-10-28T14:45:10.000Z</time>
      </trkpt>
      <trkpt lat="47.5321" lon="6.76363">
        <ele>380.8</ele>
        <time>2014-10-28T14:45:12.000Z</time>
      </trkpt>
      <trkpt lat="47.53209" lon="6.76366">
        <ele>380.6</ele>
        <time>2014-10-28T14:45:13.000Z</time>
      </trkpt>
      <trkpt lat="47.53209" lon="6.7637">
        <ele>380.1</ele>
        <time>2014-10-28T14:45:14.000Z</time>
      </trkpt>
      <trkpt lat="47.532" lon="6.76391">
        <ele>382.6</ele>
        <time>2014-10-28T14:45:22.000Z</time>
      </trkpt>
      <trkpt lat="47.53199" lon="6.76394">
        <ele>383.2</ele>
        <time>2014-10-28T14:45:23.000Z</time>
      </trkpt>
      <trkpt lat="47.53198" lon="6.76397">
        <ele>383.5</ele>
        <time>2014-10-28T14:45:24.000Z</time>
      </trkpt>
      <trkpt lat="47.53197" lon="6.764">
        <ele>383.1</ele>
        <time>2014-10-28T14:45:25.000Z</time>
      </trkpt>
      <trkpt lat="47.53196" lon="6.76403">
        <ele>382.5</ele>
        <time>2014-10-28T14:45:26.000Z</time>
      </trkpt>
      <trkpt lat="47.53195" lon="6.76407">
        <ele>382.7</ele>
        <time>2014-10-28T14:45:27.000Z</time>
      </trkpt>
      <trkpt lat="47.53194" lon="6.7641">
        <ele>382.8</ele>
        <time>2014-10-28T14:45:28.000Z</time>
      </trkpt>
      <trkpt lat="47.53193" lon="6.76414">
        <ele>382.2</ele>
        <time>2014-10-28T14:45:29.000Z</time>
      </trkpt>
      <trkpt lat="47.53192" lon="6.76417">
        <ele>382.1</ele>
        <time>2014-10-28T14:45:30.000Z</time>
      </trkpt>
      <trkpt lat="47.53191" lon="6.76421">
        <ele>382.2</ele>
        <time>2014-10-28T14:45:31.000Z</time>
      </trkpt>
      <trkpt lat="47.53191" lon="6.76424">
        <ele>381.2</ele>
        <time>2014-10-28T14:45:32.000Z</time>
      </trkpt>
      <trkpt lat="47.5319" lon="6.7643">
        <ele>380.4</ele>
        <time>2014-10-28T14:45:34.000Z</time>
      </trkpt>
      <trkpt lat="47.53189" lon="6.76432">
        <ele>379.4</ele>
        <time>2014-10-28T14:45:35.000Z</time>
      </trkpt>
      <trkpt lat="47.53188" lon="6.76434">
        <ele>379.3</ele>
        <time>2014-10-28T14:45:35.999Z</time>
      </trkpt>
      <trkpt lat="47.53185" lon="6.76438">
        <ele>381</ele>
        <time>2014-10-28T14:45:37.000Z</time>
      </trkpt>
      <trkpt lat="47.53184" lon="6.76441">
        <ele>380.4</ele>
        <time>2014-10-28T14:45:38.000Z</time>
      </trkpt>
      <trkpt lat="47.53183" lon="6.76445">
        <ele>380.7</ele>
        <time>2014-10-28T14:45:39.000Z</time>
      </trkpt>
      <trkpt lat="47.53183" lon="6.76448">
        <ele>380.7</ele>
        <time>2014-10-28T14:45:40.000Z</time>
      </trkpt>
      <trkpt lat="47.53183" lon="6.76452">
        <ele>380.4</ele>
        <time>2014-10-28T14:45:41.000Z</time>
      </trkpt>
      <trkpt lat="47.53183" lon="6.76458">
        <ele>380</ele>
        <time>2014-10-28T14:45:43.000Z</time>
      </trkpt>
      <trkpt lat="47.53182" lon="6.76461">
        <ele>379.6</ele>
        <time>2014-10-28T14:45:44.000Z</time>
      </trkpt>
      <trkpt lat="47.53181" lon="6.76467">
        <ele>379.7</ele>
        <time>2014-10-28T14:45:46.000Z</time>
      </trkpt>
      <trkpt lat="47.53181" lon="6.7647">
        <ele>378.8</ele>
        <time>2014-10-28T14:45:47.000Z</time>
      </trkpt>
      <trkpt lat="47.53179" lon="6.76476">
        <ele>378.4</ele>
        <time>2014-10-28T14:45:49.000Z</time>
      </trkpt>
      <trkpt lat="47.53178" lon="6.76479">
        <ele>378</ele>
        <time>2014-10-28T14:45:50.000Z</time>
      </trkpt>
      <trkpt lat="47.53176" lon="6.76484">
        <ele>377.5</ele>
        <time>2014-10-28T14:45:52.000Z</time>
      </trkpt>
      <trkpt lat="47.53174" lon="6.76487">
        <ele>378.1</ele>
        <time>2014-10-28T14:45:53.000Z</time>
      </trkpt>
      <trkpt lat="47.53172" lon="6.76493">
        <ele>378.3</ele>
        <time>2014-10-28T14:45:55.000Z</time>
      </trkpt>
      <trkpt lat="47.53171" lon="6.76495">
        <ele>378.2</ele>
        <time>2014-10-28T14:45:56.000Z</time>
      </trkpt>
      <trkpt lat="47.5317" lon="6.76501">
        <ele>376.3</ele>
        <time>2014-10-28T14:45:58.000Z</time>
      </trkpt>
      <trkpt lat="47.5317" lon="6.76503">
        <ele>376.6</ele>
        <time>2014-10-28T14:45:59.000Z</time>
      </trkpt>
      <trkpt lat="47.53168" lon="6.76509">
        <ele>376</ele>
        <time>2014-10-28T14:46:01.000Z</time>
      </trkpt>
      <trkpt lat="47.53168" lon="6.76511">
        <ele>376.3</ele>
        <time>2014-10-28T14:46:02.000Z</time>
      </trkpt>
      <trkpt lat="47.53166" lon="6.76516">
        <ele>376.7</ele>
        <time>2014-10-28T14:46:04.000Z</time>
      </trkpt>
      <trkpt lat="47.53165" lon="6.7652">
        <ele>376.7</ele>
        <time>2014-10-28T14:46:05.000Z</time>
      </trkpt>
      <trkpt lat="47.53164" lon="6.76523">
        <ele>376.1</ele>
        <time>2014-10-28T14:46:06.000Z</time>
      </trkpt>
      <trkpt lat="47.53164" lon="6.76526">
        <ele>376.4</ele>
        <time>2014-10-28T14:46:07.000Z</time>
      </trkpt>
      <trkpt lat="47.53162" lon="6.76531">
        <ele>376.3</ele>
        <time>2014-10-28T14:46:09.000Z</time>
      </trkpt>
      <trkpt lat="47.53161" lon="6.76534">
        <ele>377.1</ele>
        <time>2014-10-28T14:46:10.000Z</time>
      </trkpt>
      <trkpt lat="47.5316" lon="6.76539">
        <ele>377</ele>
        <time>2014-10-28T14:46:12.000Z</time>
      </trkpt>
      <trkpt lat="47.53159" lon="6.76542">
        <ele>377.1</ele>
        <time>2014-10-28T14:46:13.000Z</time>
      </trkpt>
      <trkpt lat="47.53159" lon="6.76545">
        <ele>377.1</ele>
        <time>2014-10-28T14:46:14.000Z</time>
      </trkpt>
      <trkpt lat="47.53156" lon="6.76567">
        <ele>377.4</ele>
        <time>2014-10-28T14:46:22.000Z</time>
      </trkpt>
      <trkpt lat="47.53156" lon="6.76573">
        <ele>376.3</ele>
        <time>2014-10-28T14:46:24.000Z</time>
      </trkpt>
      <trkpt lat="47.53155" lon="6.76577">
        <ele>373.6</ele>
        <time>2014-10-28T14:46:25.000Z</time>
      </trkpt>
      <trkpt lat="47.53154" lon="6.76581">
        <ele>374.4</ele>
        <time>2014-10-28T14:46:26.000Z</time>
      </trkpt>
      <trkpt lat="47.53152" lon="6.76586">
        <ele>374.5</ele>
        <time>2014-10-28T14:46:27.000Z</time>
      </trkpt>
      <trkpt lat="47.53151" lon="6.7659">
        <ele>373.9</ele>
        <time>2014-10-28T14:46:28.000Z</time>
      </trkpt>
      <trkpt lat="47.5315" lon="6.76594">
        <ele>372.4</ele>
        <time>2014-10-28T14:46:29.000Z</time>
      </trkpt>
      <trkpt lat="47.53149" lon="6.76598">
        <ele>371.8</ele>
        <time>2014-10-28T14:46:30.000Z</time>
      </trkpt>
      <trkpt lat="47.53148" lon="6.76602">
        <ele>371.6</ele>
        <time>2014-10-28T14:46:31.000Z</time>
      </trkpt>
      <trkpt lat="47.53148" lon="6.76605">
        <ele>371.5</ele>
        <time>2014-10-28T14:46:32.000Z</time>
      </trkpt>
      <trkpt lat="47.53147" lon="6.76608">
        <ele>371.5</ele>
        <time>2014-10-28T14:46:33.000Z</time>
      </trkpt>
      <trkpt lat="47.53146" lon="6.76614">
        <ele>366</ele>
        <time>2014-10-28T14:46:35.000Z</time>
      </trkpt>
      <trkpt lat="47.53147" lon="6.76617">
        <ele>365.3</ele>
        <time>2014-10-28T14:46:36.000Z</time>
      </trkpt>
      <trkpt lat="47.53148" lon="6.76622">
        <ele>366.7</ele>
        <time>2014-10-28T14:46:38.000Z</time>
      </trkpt>
      <trkpt lat="47.53148" lon="6.76626">
        <ele>365.5</ele>
        <time>2014-10-28T14:46:39.000Z</time>
      </trkpt>
      <trkpt lat="47.53149" lon="6.76632">
        <ele>365.4</ele>
        <time>2014-10-28T14:46:41.000Z</time>
      </trkpt>
      <trkpt lat="47.53149" lon="6.76634">
        <ele>364.8</ele>
        <time>2014-10-28T14:46:42.000Z</time>
      </trkpt>
      <trkpt lat="47.53151" lon="6.7664">
        <ele>363.9</ele>
        <time>2014-10-28T14:46:45.000Z</time>
      </trkpt>
      <trkpt lat="47.53152" lon="6.76642">
        <ele>362.7</ele>
        <time>2014-10-28T14:46:46.000Z</time>
      </trkpt>
      <trkpt lat="47.53155" lon="6.76645">
        <ele>362.9</ele>
        <time>2014-10-28T14:46:48.000Z</time>
      </trkpt>
      <trkpt lat="47.53157" lon="6.76647">
        <ele>362.7</ele>
        <time>2014-10-28T14:46:49.000Z</time>
      </trkpt>
      <trkpt lat="47.53158" lon="6.76648">
        <ele>363.3</ele>
        <time>2014-10-28T14:46:50.000Z</time>
      </trkpt>
      <trkpt lat="47.5316" lon="6.7665">
        <ele>362.5</ele>
        <time>2014-10-28T14:46:51.000Z</time>
      </trkpt>
      <trkpt lat="47.53162" lon="6.76652">
        <ele>361.7</ele>
        <time>2014-10-28T14:46:52.000Z</time>
      </trkpt>
      <trkpt lat="47.53164" lon="6.76654">
        <ele>360.8</ele>
        <time>2014-10-28T14:46:53.000Z</time>
      </trkpt>
      <trkpt lat="47.53167" lon="6.76658">
        <ele>366.5</ele>
        <time>2014-10-28T14:46:55.000Z</time>
      </trkpt>
      <trkpt lat="47.53168" lon="6.7666">
        <ele>368.8</ele>
        <time>2014-10-28T14:46:56.000Z</time>
      </trkpt>
      <trkpt lat="47.53171" lon="6.76664">
        <ele>366.8</ele>
        <time>2014-10-28T14:46:59.000Z</time>
      </trkpt>
      <trkpt lat="47.53173" lon="6.76665">
        <ele>365.8</ele>
        <time>2014-10-28T14:47:00.000Z</time>
      </trkpt>
      <trkpt lat="47.53176" lon="6.76666">
        <ele>365.9</ele>
        <time>2014-10-28T14:47:01.000Z</time>
      </trkpt>
      <trkpt lat="47.53178" lon="6.76667">
        <ele>366.2</ele>
        <time>2014-10-28T14:47:02.000Z</time>
      </trkpt>
      <trkpt lat="47.53181" lon="6.76669">
        <ele>368.1</ele>
        <time>2014-10-28T14:47:04.000Z</time>
      </trkpt>
      <trkpt lat="47.53183" lon="6.7667">
        <ele>367.6</ele>
        <time>2014-10-28T14:47:05.000Z</time>
      </trkpt>
      <trkpt lat="47.53185" lon="6.76672">
        <ele>368.1</ele>
        <time>2014-10-28T14:47:08.000Z</time>
      </trkpt>
      <trkpt lat="47.53187" lon="6.76674">
        <ele>367.6</ele>
        <time>2014-10-28T14:47:09.000Z</time>
      </trkpt>
      <trkpt lat="47.5319" lon="6.76679">
        <ele>368.1</ele>
        <time>2014-10-28T14:47:11.000Z</time>
      </trkpt>
      <trkpt lat="47.53191" lon="6.76682">
        <ele>367.8</ele>
        <time>2014-10-28T14:47:12.000Z</time>
      </trkpt>
      <trkpt lat="47.53192" lon="6.76684">
        <ele>367.4</ele>
        <time>2014-10-28T14:47:13.000Z</time>
      </trkpt>
      <trkpt lat="47.53194" lon="6.76687">
        <ele>367.2</ele>
        <time>2014-10-28T14:47:14.000Z</time>
      </trkpt>
      <trkpt lat="47.53199" lon="6.76692">
        <ele>366.6</ele>
        <time>2014-10-28T14:47:17.000Z</time>
      </trkpt>
      <trkpt lat="47.532" lon="6.76694">
        <ele>366.3</ele>
        <time>2014-10-28T14:47:18.000Z</time>
      </trkpt>
      <trkpt lat="47.53203" lon="6.76696">
        <ele>365.6</ele>
        <time>2014-10-28T14:47:19.000Z</time>
      </trkpt>
      <trkpt lat="47.53205" lon="6.76697">
        <ele>365.4</ele>
        <time>2014-10-28T14:47:20.000Z</time>
      </trkpt>
      <trkpt lat="47.53207" lon="6.767">
        <ele>363.8</ele>
        <time>2014-10-28T14:47:21.000Z</time>
      </trkpt>
      <trkpt lat="47.53209" lon="6.76702">
        <ele>362.8</ele>
        <time>2014-10-28T14:47:22.000Z</time>
      </trkpt>
      <trkpt lat="47.53211" lon="6.76704">
        <ele>362.5</ele>
        <time>2014-10-28T14:47:23.000Z</time>
      </trkpt>
      <trkpt lat="47.53213" lon="6.76706">
        <ele>363.2</ele>
        <time>2014-10-28T14:47:24.000Z</time>
      </trkpt>
      <trkpt lat="47.53215" lon="6.76708">
        <ele>363.1</ele>
        <time>2014-10-28T14:47:25.000Z</time>
      </trkpt>
      <trkpt lat="47.53217" lon="6.7671">
        <ele>362.9</ele>
        <time>2014-10-28T14:47:26.000Z</time>
      </trkpt>
      <trkpt lat="47.53219" lon="6.76712">
        <ele>363.3</ele>
        <time>2014-10-28T14:47:27.000Z</time>
      </trkpt>
      <trkpt lat="47.53223" lon="6.76715">
        <ele>361.6</ele>
        <time>2014-10-28T14:47:29.000Z</time>
      </trkpt>
      <trkpt lat="47.53224" lon="6.76717">
        <ele>362.4</ele>
        <time>2014-10-28T14:47:30.000Z</time>
      </trkpt>
      <trkpt lat="47.53228" lon="6.76721">
        <ele>362.8</ele>
        <time>2014-10-28T14:47:32.000Z</time>
      </trkpt>
      <trkpt lat="47.5323" lon="6.76723">
        <ele>362.6</ele>
        <time>2014-10-28T14:47:33.000Z</time>
      </trkpt>
      <trkpt lat="47.53232" lon="6.76725">
        <ele>362.9</ele>
        <time>2014-10-28T14:47:34.000Z</time>
      </trkpt>
      <trkpt lat="47.53234" lon="6.76727">
        <ele>361.4</ele>
        <time>2014-10-28T14:47:35.000Z</time>
      </trkpt>
      <trkpt lat="47.53237" lon="6.76728">
        <ele>360.1</ele>
        <time>2014-10-28T14:47:36.000Z</time>
      </trkpt>
      <trkpt lat="47.5324" lon="6.76729">
        <ele>360.2</ele>
        <time>2014-10-28T14:47:37.000Z</time>
      </trkpt>
      <trkpt lat="47.53242" lon="6.7673">
        <ele>360.2</ele>
        <time>2014-10-28T14:47:38.000Z</time>
      </trkpt>
      <trkpt lat="47.53245" lon="6.76732">
        <ele>360.5</ele>
        <time>2014-10-28T14:47:39.000Z</time>
      </trkpt>
      <trkpt lat="47.53247" lon="6.76733">
        <ele>362.1</ele>
        <time>2014-10-28T14:47:40.000Z</time>
      </trkpt>
      <trkpt lat="47.53249" lon="6.76734">
        <ele>361.3</ele>
        <time>2014-10-28T14:47:41.000Z</time>
      </trkpt>
      <trkpt lat="47.53253" lon="6.76736">
        <ele>361.8</ele>
        <time>2014-10-28T14:47:43.000Z</time>
      </trkpt>
      <trkpt lat="47.53255" lon="6.76736">
        <ele>362</ele>
        <time>2014-10-28T14:47:44.000Z</time>
      </trkpt>
      <trkpt lat="47.53259" lon="6.76738">
        <ele>363.1</ele>
        <time>2014-10-28T14:47:46.000Z</time>
      </trkpt>
      <trkpt lat="47.53261" lon="6.76739">
        <ele>362.4</ele>
        <time>2014-10-28T14:47:47.000Z</time>
      </trkpt>
      <trkpt lat="47.53263" lon="6.7674">
        <ele>361.1</ele>
        <time>2014-10-28T14:47:48.000Z</time>
      </trkpt>
      <trkpt lat="47.53265" lon="6.76741">
        <ele>359.9</ele>
        <time>2014-10-28T14:47:49.000Z</time>
      </trkpt>
      <trkpt lat="47.53269" lon="6.76742">
        <ele>359.6</ele>
        <time>2014-10-28T14:47:51.000Z</time>
      </trkpt>
      <trkpt lat="47.53271" lon="6.76743">
        <ele>360.3</ele>
        <time>2014-10-28T14:47:52.000Z</time>
      </trkpt>
      <trkpt lat="47.53274" lon="6.76744">
        <ele>360.4</ele>
        <time>2014-10-28T14:47:54.000Z</time>
      </trkpt>
      <trkpt lat="47.53276" lon="6.76745">
        <ele>360</ele>
        <time>2014-10-28T14:47:55.000Z</time>
      </trkpt>
      <trkpt lat="47.5328" lon="6.76746">
        <ele>360.6</ele>
        <time>2014-10-28T14:47:57.000Z</time>
      </trkpt>
      <trkpt lat="47.53282" lon="6.76746">
        <ele>360.3</ele>
        <time>2014-10-28T14:47:58.000Z</time>
      </trkpt>
      <trkpt lat="47.53286" lon="6.76749">
        <ele>360.2</ele>
        <time>2014-10-28T14:48:00.000Z</time>
      </trkpt>
      <trkpt lat="47.53288" lon="6.7675">
        <ele>360.9</ele>
        <time>2014-10-28T14:48:01.000Z</time>
      </trkpt>
      <trkpt lat="47.53292" lon="6.76752">
        <ele>363.3</ele>
        <time>2014-10-28T14:48:03.000Z</time>
      </trkpt>
      <trkpt lat="47.53294" lon="6.76753">
        <ele>364</ele>
        <time>2014-10-28T14:48:04.000Z</time>
      </trkpt>
      <trkpt lat="47.53298" lon="6.76756">
        <ele>363.9</ele>
        <time>2014-10-28T14:48:06.000Z</time>
      </trkpt>
      <trkpt lat="47.533" lon="6.76757">
        <ele>365</ele>
        <time>2014-10-28T14:48:07.000Z</time>
      </trkpt>
      <trkpt lat="47.53302" lon="6.76759">
        <ele>365.5</ele>
        <time>2014-10-28T14:48:08.000Z</time>
      </trkpt>
      <trkpt lat="47.53304" lon="6.76761">
        <ele>366.1</ele>
        <time>2014-10-28T14:48:09.000Z</time>
      </trkpt>
      <trkpt lat="47.53306" lon="6.76764">
        <ele>364.1</ele>
        <time>2014-10-28T14:48:11.000Z</time>
      </trkpt>
      <trkpt lat="47.53307" lon="6.76767">
        <ele>364.2</ele>
        <time>2014-10-28T14:48:12.000Z</time>
      </trkpt>
      <trkpt lat="47.5331" lon="6.76771">
        <ele>365.1</ele>
        <time>2014-10-28T14:48:14.000Z</time>
      </trkpt>
      <trkpt lat="47.53325" lon="6.76786">
        <ele>364.6</ele>
        <time>2014-10-28T14:48:22.000Z</time>
      </trkpt>
      <trkpt lat="47.53328" lon="6.76788">
        <ele>362.6</ele>
        <time>2014-10-28T14:48:24.000Z</time>
      </trkpt>
      <trkpt lat="47.5333" lon="6.76789">
        <ele>362.2</ele>
        <time>2014-10-28T14:48:25.000Z</time>
      </trkpt>
      <trkpt lat="47.53332" lon="6.76792">
        <ele>360.5</ele>
        <time>2014-10-28T14:48:27.000Z</time>
      </trkpt>
      <trkpt lat="47.53334" lon="6.76794">
        <ele>360.3</ele>
        <time>2014-10-28T14:48:28.000Z</time>
      </trkpt>
      <trkpt lat="47.53336" lon="6.76798">
        <ele>361.2</ele>
        <time>2014-10-28T14:48:30.000Z</time>
      </trkpt>
      <trkpt lat="47.53337" lon="6.768">
        <ele>361</ele>
        <time>2014-10-28T14:48:31.000Z</time>
      </trkpt>
      <trkpt lat="47.53339" lon="6.76805">
        <ele>360.9</ele>
        <time>2014-10-28T14:48:33.000Z</time>
      </trkpt>
      <trkpt lat="47.5334" lon="6.76808">
        <ele>361.5</ele>
        <time>2014-10-28T14:48:34.000Z</time>
      </trkpt>
      <trkpt lat="47.53343" lon="6.76813">
        <ele>362.5</ele>
        <time>2014-10-28T14:48:36.000Z</time>
      </trkpt>
      <trkpt lat="47.53344" lon="6.76816">
        <ele>362.3</ele>
        <time>2014-10-28T14:48:37.000Z</time>
      </trkpt>
      <trkpt lat="47.53346" lon="6.76819">
        <ele>362.3</ele>
        <time>2014-10-28T14:48:38.000Z</time>
      </trkpt>
      <trkpt lat="47.53347" lon="6.76823">
        <ele>362.8</ele>
        <time>2014-10-28T14:48:39.000Z</time>
      </trkpt>
      <trkpt lat="47.53347" lon="6.76828">
        <ele>364.2</ele>
        <time>2014-10-28T14:48:43.000Z</time>
      </trkpt>
      <trkpt lat="47.53347" lon="6.76829">
        <ele>364.4</ele>
        <time>2014-10-28T14:48:44.000Z</time>
      </trkpt>
      <trkpt lat="47.53349" lon="6.76833">
        <ele>364</ele>
        <time>2014-10-28T14:48:48.000Z</time>
      </trkpt>
      <trkpt lat="47.53351" lon="6.76834">
        <ele>364</ele>
        <time>2014-10-28T14:48:49.000Z</time>
      </trkpt>
      <trkpt lat="47.53355" lon="6.76833">
        <ele>364.1</ele>
        <time>2014-10-28T14:49:07.000Z</time>
      </trkpt>
      <trkpt lat="47.53356" lon="6.76832">
        <ele>364.5</ele>
        <time>2014-10-28T14:49:08.000Z</time>
      </trkpt>
      <trkpt lat="47.53359" lon="6.76829">
        <ele>364.7</ele>
        <time>2014-10-28T14:49:12.000Z</time>
      </trkpt>
      <trkpt lat="47.5336" lon="6.76828">
        <ele>364.7</ele>
        <time>2014-10-28T14:49:13.000Z</time>
      </trkpt>
      <trkpt lat="47.53361" lon="6.76822">
        <ele>366</ele>
        <time>2014-10-28T14:49:18.000Z</time>
      </trkpt>
      <trkpt lat="47.53362" lon="6.76821">
        <ele>365.7</ele>
        <time>2014-10-28T14:49:19.000Z</time>
      </trkpt>
      <trkpt lat="47.53364" lon="6.76816">
        <ele>366.6</ele>
        <time>2014-10-28T14:49:22.000Z</time>
      </trkpt>
      <trkpt lat="47.53365" lon="6.76813">
        <ele>366.7</ele>
        <time>2014-10-28T14:49:23.000Z</time>
      </trkpt>
      <trkpt lat="47.53366" lon="6.76808">
        <ele>367.9</ele>
        <time>2014-10-28T14:49:25.000Z</time>
      </trkpt>
      <trkpt lat="47.53366" lon="6.76806">
        <ele>367.2</ele>
        <time>2014-10-28T14:49:26.000Z</time>
      </trkpt>
      <trkpt lat="47.53368" lon="6.76802">
        <ele>367.1</ele>
        <time>2014-10-28T14:49:28.000Z</time>
      </trkpt>
      <trkpt lat="47.53368" lon="6.768">
        <ele>367</ele>
        <time>2014-10-28T14:49:29.000Z</time>
      </trkpt>
      <trkpt lat="47.5337" lon="6.76795">
        <ele>366.7</ele>
        <time>2014-10-28T14:49:31.000Z</time>
      </trkpt>
      <trkpt lat="47.53371" lon="6.76793">
        <ele>366.2</ele>
        <time>2014-10-28T14:49:32.000Z</time>
      </trkpt>
      <trkpt lat="47.53373" lon="6.76787">
        <ele>365.3</ele>
        <time>2014-10-28T14:49:34.000Z</time>
      </trkpt>
      <trkpt lat="47.53374" lon="6.76784">
        <ele>362.3</ele>
        <time>2014-10-28T14:49:35.000Z</time>
      </trkpt>
      <trkpt lat="47.53376" lon="6.7678">
        <ele>363.1</ele>
        <time>2014-10-28T14:49:37.000Z</time>
      </trkpt>
      <trkpt lat="47.53377" lon="6.76778">
        <ele>362.7</ele>
        <time>2014-10-28T14:49:38.000Z</time>
      </trkpt>
      <trkpt lat="47.5338" lon="6.76773">
        <ele>362.6</ele>
        <time>2014-10-28T14:49:40.000Z</time>
      </trkpt>
      <trkpt lat="47.53382" lon="6.76771">
        <ele>362.4</ele>
        <time>2014-10-28T14:49:41.000Z</time>
      </trkpt>
      <trkpt lat="47.53385" lon="6.76767">
        <ele>363.2</ele>
        <time>2014-10-28T14:49:43.000Z</time>
      </trkpt>
      <trkpt lat="47.53386" lon="6.76766">
        <ele>363.4</ele>
        <time>2014-10-28T14:49:44.000Z</time>
      </trkpt>
      <trkpt lat="47.53388" lon="6.76763">
        <ele>362</ele>
        <time>2014-10-28T14:49:46.000Z</time>
      </trkpt>
      <trkpt lat="47.5339" lon="6.76761">
        <ele>362.5</ele>
        <time>2014-10-28T14:49:47.000Z</time>
      </trkpt>
      <trkpt lat="47.53392" lon="6.76756">
        <ele>363.6</ele>
        <time>2014-10-28T14:49:49.000Z</time>
      </trkpt>
      <trkpt lat="47.53393" lon="6.76754">
        <ele>365.1</ele>
        <time>2014-10-28T14:49:50.000Z</time>
      </trkpt>
      <trkpt lat="47.53395" lon="6.76747">
        <ele>369.8</ele>
        <time>2014-10-28T14:49:52.000Z</time>
      </trkpt>
      <trkpt lat="47.53395" lon="6.76745">
        <ele>368.8</ele>
        <time>2014-10-28T14:49:53.000Z</time>
      </trkpt>
      <trkpt lat="47.53397" lon="6.7674">
        <ele>368.8</ele>
        <time>2014-10-28T14:49:56.000Z</time>
      </trkpt>
      <trkpt lat="47.53397" lon="6.76738">
        <ele>368.7</ele>
        <time>2014-10-28T14:49:57.000Z</time>
      </trkpt>
      <trkpt lat="47.53397" lon="6.76731">
        <ele>370.8</ele>
        <time>2014-10-28T14:50:00.000Z</time>
      </trkpt>
      <trkpt lat="47.53397" lon="6.76729">
        <ele>371.6</ele>
        <time>2014-10-28T14:50:01.000Z</time>
      </trkpt>
      <trkpt lat="47.53398" lon="6.76725">
        <ele>373.1</ele>
        <time>2014-10-28T14:50:03.000Z</time>
      </trkpt>
      <trkpt lat="47.53398" lon="6.76722">
        <ele>373</ele>
        <time>2014-10-28T14:50:04.000Z</time>
      </trkpt>
      <trkpt lat="47.53398" lon="6.76717">
        <ele>374.2</ele>
        <time>2014-10-28T14:50:06.000Z</time>
      </trkpt>
      <trkpt lat="47.53397" lon="6.76714">
        <ele>374.5</ele>
        <time>2014-10-28T14:50:07.000Z</time>
      </trkpt>
      <trkpt lat="47.53396" lon="6.76709">
        <ele>375</ele>
        <time>2014-10-28T14:50:10.000Z</time>
      </trkpt>
      <trkpt lat="47.53396" lon="6.76706">
        <ele>374</ele>
        <time>2014-10-28T14:50:11.000Z</time>
      </trkpt>
      <trkpt lat="47.53396" lon="6.76701">
        <ele>375.7</ele>
        <time>2014-10-28T14:50:13.000Z</time>
      </trkpt>
      <trkpt lat="47.53396" lon="6.76699">
        <ele>376.3</ele>
        <time>2014-10-28T14:50:14.000Z</time>
      </trkpt>
      <trkpt lat="47.53397" lon="6.76686">
        <ele>370.5</ele>
        <time>2014-10-28T14:50:22.000Z</time>
      </trkpt>
      <trkpt lat="47.53397" lon="6.7668">
        <ele>366.1</ele>
        <time>2014-10-28T14:50:25.000Z</time>
      </trkpt>
      <trkpt lat="47.53397" lon="6.76677">
        <ele>365.7</ele>
        <time>2014-10-28T14:50:26.000Z</time>
      </trkpt>
      <trkpt lat="47.53399" lon="6.76673">
        <ele>360.6</ele>
        <time>2014-10-28T14:50:28.000Z</time>
      </trkpt>
      <trkpt lat="47.534" lon="6.76671">
        <ele>360.5</ele>
        <time>2014-10-28T14:50:29.000Z</time>
      </trkpt>
      <trkpt lat="47.53403" lon="6.76668">
        <ele>361.8</ele>
        <time>2014-10-28T14:50:31.000Z</time>
      </trkpt>
      <trkpt lat="47.53404" lon="6.76665">
        <ele>363.5</ele>
        <time>2014-10-28T14:50:32.000Z</time>
      </trkpt>
      <trkpt lat="47.53406" lon="6.76661">
        <ele>363.9</ele>
        <time>2014-10-28T14:50:34.000Z</time>
      </trkpt>
      <trkpt lat="47.53407" lon="6.76659">
        <ele>365</ele>
        <time>2014-10-28T14:50:35.000Z</time>
      </trkpt>
      <trkpt lat="47.5341" lon="6.76654">
        <ele>368</ele>
        <time>2014-10-28T14:50:37.000Z</time>
      </trkpt>
      <trkpt lat="47.53411" lon="6.76652">
        <ele>368.6</ele>
        <time>2014-10-28T14:50:38.000Z</time>
      </trkpt>
      <trkpt lat="47.53414" lon="6.76647">
        <ele>367.9</ele>
        <time>2014-10-28T14:50:40.000Z</time>
      </trkpt>
      <trkpt lat="47.53415" lon="6.76646">
        <ele>367.4</ele>
        <time>2014-10-28T14:50:41.000Z</time>
      </trkpt>
      <trkpt lat="47.53418" lon="6.76642">
        <ele>365.9</ele>
        <time>2014-10-28T14:50:43.000Z</time>
      </trkpt>
      <trkpt lat="47.5342" lon="6.7664">
        <ele>365.8</ele>
        <time>2014-10-28T14:50:44.000Z</time>
      </trkpt>
      <trkpt lat="47.53423" lon="6.76638">
        <ele>364.6</ele>
        <time>2014-10-28T14:50:46.000Z</time>
      </trkpt>
      <trkpt lat="47.53425" lon="6.76637">
        <ele>365.6</ele>
        <time>2014-10-28T14:50:47.000Z</time>
      </trkpt>
      <trkpt lat="47.53428" lon="6.76635">
        <ele>367.4</ele>
        <time>2014-10-28T14:50:49.000Z</time>
      </trkpt>
      <trkpt lat="47.53429" lon="6.76633">
        <ele>367.2</ele>
        <time>2014-10-28T14:50:50.000Z</time>
      </trkpt>
      <trkpt lat="47.53431" lon="6.76629">
        <ele>368.2</ele>
        <time>2014-10-28T14:50:52.000Z</time>
      </trkpt>
      <trkpt lat="47.53433" lon="6.76626">
        <ele>369</ele>
        <time>2014-10-28T14:50:53.000Z</time>
      </trkpt>
      <trkpt lat="47.53435" lon="6.76622">
        <ele>368.6</ele>
        <time>2014-10-28T14:50:55.000Z</time>
      </trkpt>
      <trkpt lat="47.53436" lon="6.7662">
        <ele>369.4</ele>
        <time>2014-10-28T14:50:56.000Z</time>
      </trkpt>
      <trkpt lat="47.53438" lon="6.76617">
        <ele>368.3</ele>
        <time>2014-10-28T14:50:58.000Z</time>
      </trkpt>
      <trkpt lat="47.53439" lon="6.76615">
        <ele>369.5</ele>
        <time>2014-10-28T14:50:59.000Z</time>
      </trkpt>
      <trkpt lat="47.53443" lon="6.76611">
        <ele>375.1</ele>
        <time>2014-10-28T14:51:02.000Z</time>
      </trkpt>
      <trkpt lat="47.53444" lon="6.7661">
        <ele>375.2</ele>
        <time>2014-10-28T14:51:03.000Z</time>
      </trkpt>
      <trkpt lat="47.53447" lon="6.76606">
        <ele>375.8</ele>
        <time>2014-10-28T14:51:06.000Z</time>
      </trkpt>
      <trkpt lat="47.53448" lon="6.76604">
        <ele>376.9</ele>
        <time>2014-10-28T14:51:07.000Z</time>
      </trkpt>
      <trkpt lat="47.5345" lon="6.76599">
        <ele>376.7</ele>
        <time>2014-10-28T14:51:25.000Z</time>
      </trkpt>
      <trkpt lat="47.53451" lon="6.76598">
        <ele>377.1</ele>
        <time>2014-10-28T14:51:26.000Z</time>
      </trkpt>
      <trkpt lat="47.53452" lon="6.76594">
        <ele>379.1</ele>
        <time>2014-10-28T14:51:28.000Z</time>
      </trkpt>
      <trkpt lat="47.53454" lon="6.76593">
        <ele>380.3</ele>
        <time>2014-10-28T14:51:29.000Z</time>
      </trkpt>
      <trkpt lat="47.53457" lon="6.76589">
        <ele>379.3</ele>
        <time>2014-10-28T14:51:31.000Z</time>
      </trkpt>
      <trkpt lat="47.53459" lon="6.76588">
        <ele>379</ele>
        <time>2014-10-28T14:51:32.000Z</time>
      </trkpt>
      <trkpt lat="47.53462" lon="6.76585">
        <ele>378.7</ele>
        <time>2014-10-28T14:51:35.000Z</time>
      </trkpt>
      <trkpt lat="47.53464" lon="6.76584">
        <ele>379.2</ele>
        <time>2014-10-28T14:51:36.000Z</time>
      </trkpt>
      <trkpt lat="47.53467" lon="6.7658">
        <ele>378.5</ele>
        <time>2014-10-28T14:51:39.000Z</time>
      </trkpt>
      <trkpt lat="47.53468" lon="6.76579">
        <ele>378.4</ele>
        <time>2014-10-28T14:51:40.000Z</time>
      </trkpt>
      <trkpt lat="47.53471" lon="6.76576">
        <ele>375.5</ele>
        <time>2014-10-28T14:51:43.000Z</time>
      </trkpt>
      <trkpt lat="47.53473" lon="6.76576">
        <ele>375.4</ele>
        <time>2014-10-28T14:51:44.000Z</time>
      </trkpt>
      <trkpt lat="47.53475" lon="6.76572">
        <ele>376.5</ele>
        <time>2014-10-28T14:51:46.000Z</time>
      </trkpt>
      <trkpt lat="47.53476" lon="6.7657">
        <ele>377</ele>
        <time>2014-10-28T14:51:47.000Z</time>
      </trkpt>
      <trkpt lat="47.53479" lon="6.76567">
        <ele>376.9</ele>
        <time>2014-10-28T14:51:49.000Z</time>
      </trkpt>
      <trkpt lat="47.5348" lon="6.76566">
        <ele>376.7</ele>
        <time>2014-10-28T14:51:50.000Z</time>
      </trkpt>
      <trkpt lat="47.53483" lon="6.76563">
        <ele>377.3</ele>
        <time>2014-10-28T14:51:52.000Z</time>
      </trkpt>
      <trkpt lat="47.53485" lon="6.76561">
        <ele>377.9</ele>
        <time>2014-10-28T14:51:53.000Z</time>
      </trkpt>
      <trkpt lat="47.53488" lon="6.76558">
        <ele>378.6</ele>
        <time>2014-10-28T14:51:55.000Z</time>
      </trkpt>
      <trkpt lat="47.53489" lon="6.76556">
        <ele>378</ele>
        <time>2014-10-28T14:51:56.000Z</time>
      </trkpt>
      <trkpt lat="47.53491" lon="6.76554">
        <ele>377.9</ele>
        <time>2014-10-28T14:51:57.000Z</time>
      </trkpt>
      <trkpt lat="47.53493" lon="6.76552">
        <ele>378.1</ele>
        <time>2014-10-28T14:51:58.000Z</time>
      </trkpt>
      <trkpt lat="47.53496" lon="6.76548">
        <ele>378.3</ele>
        <time>2014-10-28T14:52:00.000Z</time>
      </trkpt>
      <trkpt lat="47.53497" lon="6.76546">
        <ele>378.7</ele>
        <time>2014-10-28T14:52:01.000Z</time>
      </trkpt>
      <trkpt lat="47.53499" lon="6.76544">
        <ele>378.8</ele>
        <time>2014-10-28T14:52:02.000Z</time>
      </trkpt>
      <trkpt lat="47.53501" lon="6.76542">
        <ele>379.4</ele>
        <time>2014-10-28T14:52:03.000Z</time>
      </trkpt>
      <trkpt lat="47.53503" lon="6.7654">
        <ele>380.2</ele>
        <time>2014-10-28T14:52:04.000Z</time>
      </trkpt>
      <trkpt lat="47.53506" lon="6.76538">
        <ele>380.9</ele>
        <time>2014-10-28T14:52:05.000Z</time>
      </trkpt>
      <trkpt lat="47.53508" lon="6.76536">
        <ele>380.8</ele>
        <time>2014-10-28T14:52:06.000Z</time>
      </trkpt>
      <trkpt lat="47.5351" lon="6.76535">
        <ele>381.7</ele>
        <time>2014-10-28T14:52:07.000Z</time>
      </trkpt>
      <trkpt lat="47.53513" lon="6.76532">
        <ele>380.6</ele>
        <time>2014-10-28T14:52:09.000Z</time>
      </trkpt>
      <trkpt lat="47.53515" lon="6.76531">
        <ele>381.1</ele>
        <time>2014-10-28T14:52:10.000Z</time>
      </trkpt>
      <trkpt lat="47.53517" lon="6.7653">
        <ele>382.2</ele>
        <time>2014-10-28T14:52:11.000Z</time>
      </trkpt>
      <trkpt lat="47.5352" lon="6.76529">
        <ele>382.8</ele>
        <time>2014-10-28T14:52:12.000Z</time>
      </trkpt>
      <trkpt lat="47.53522" lon="6.76527">
        <ele>382.6</ele>
        <time>2014-10-28T14:52:13.000Z</time>
      </trkpt>
      <trkpt lat="47.53524" lon="6.76525">
        <ele>382.1</ele>
        <time>2014-10-28T14:52:14.000Z</time>
      </trkpt>
      <trkpt lat="47.53538" lon="6.76512">
        <ele>397.6</ele>
        <time>2014-10-28T14:52:22.000Z</time>
      </trkpt>
      <trkpt lat="47.53542" lon="6.76511">
        <ele>396.6</ele>
        <time>2014-10-28T14:52:25.000Z</time>
      </trkpt>
      <trkpt lat="47.53543" lon="6.7651">
        <ele>397.1</ele>
        <time>2014-10-28T14:52:26.000Z</time>
      </trkpt>
      <trkpt lat="47.53546" lon="6.76508">
        <ele>397.3</ele>
        <time>2014-10-28T14:52:28.000Z</time>
      </trkpt>
      <trkpt lat="47.53548" lon="6.76508">
        <ele>397.4</ele>
        <time>2014-10-28T14:52:29.000Z</time>
      </trkpt>
      <trkpt lat="47.53552" lon="6.76506">
        <ele>398.1</ele>
        <time>2014-10-28T14:52:31.000Z</time>
      </trkpt>
      <trkpt lat="47.53554" lon="6.76505">
        <ele>398.8</ele>
        <time>2014-10-28T14:52:32.000Z</time>
      </trkpt>
      <trkpt lat="47.53558" lon="6.76502">
        <ele>398.2</ele>
        <time>2014-10-28T14:52:34.000Z</time>
      </trkpt>
      <trkpt lat="47.53559" lon="6.76501">
        <ele>397.8</ele>
        <time>2014-10-28T14:52:35.000Z</time>
      </trkpt>
      <trkpt lat="47.53563" lon="6.76499">
        <ele>399.8</ele>
        <time>2014-10-28T14:52:37.000Z</time>
      </trkpt>
      <trkpt lat="47.53564" lon="6.76498">
        <ele>399.5</ele>
        <time>2014-10-28T14:52:38.000Z</time>
      </trkpt>
      <trkpt lat="47.53568" lon="6.76495">
        <ele>399.8</ele>
        <time>2014-10-28T14:52:40.000Z</time>
      </trkpt>
      <trkpt lat="47.53569" lon="6.76494">
        <ele>400.2</ele>
        <time>2014-10-28T14:52:41.000Z</time>
      </trkpt>
      <trkpt lat="47.53573" lon="6.76493">
        <ele>399.8</ele>
        <time>2014-10-28T14:52:43.000Z</time>
      </trkpt>
      <trkpt lat="47.53574" lon="6.76492">
        <ele>399.8</ele>
        <time>2014-10-28T14:52:44.000Z</time>
      </trkpt>
      <trkpt lat="47.53578" lon="6.76491">
        <ele>399.9</ele>
        <time>2014-10-28T14:52:47.000Z</time>
      </trkpt>
      <trkpt lat="47.5358" lon="6.76491">
        <ele>400</ele>
        <time>2014-10-28T14:52:48.000Z</time>
      </trkpt>
      <trkpt lat="47.53584" lon="6.76491">
        <ele>399.1</ele>
        <time>2014-10-28T14:52:51.000Z</time>
      </trkpt>
      <trkpt lat="47.53585" lon="6.76492">
        <ele>400.2</ele>
        <time>2014-10-28T14:52:52.000Z</time>
      </trkpt>
      <trkpt lat="47.53588" lon="6.76493">
        <ele>401.6</ele>
        <time>2014-10-28T14:52:54.000Z</time>
      </trkpt>
      <trkpt lat="47.5359" lon="6.76493">
        <ele>401.8</ele>
        <time>2014-10-28T14:52:55.000Z</time>
      </trkpt>
      <trkpt lat="47.53594" lon="6.76492">
        <ele>402.6</ele>
        <time>2014-10-28T14:52:57.000Z</time>
      </trkpt>
      <trkpt lat="47.53596" lon="6.76491">
        <ele>402.8</ele>
        <time>2014-10-28T14:52:58.000Z</time>
      </trkpt>
      <trkpt lat="47.536" lon="6.76489">
        <ele>403.2</ele>
        <time>2014-10-28T14:53:00.000Z</time>
      </trkpt>
      <trkpt lat="47.53602" lon="6.76489">
        <ele>403.5</ele>
        <time>2014-10-28T14:53:01.000Z</time>
      </trkpt>
      <trkpt lat="47.53605" lon="6.76487">
        <ele>403.8</ele>
        <time>2014-10-28T14:53:03.000Z</time>
      </trkpt>
      <trkpt lat="47.53607" lon="6.76486">
        <ele>404.3</ele>
        <time>2014-10-28T14:53:04.000Z</time>
      </trkpt>
      <trkpt lat="47.53611" lon="6.76484">
        <ele>402.9</ele>
        <time>2014-10-28T14:53:06.000Z</time>
      </trkpt>
      <trkpt lat="47.53612" lon="6.76484">
        <ele>402.7</ele>
        <time>2014-10-28T14:53:07.000Z</time>
      </trkpt>
      <trkpt lat="47.53616" lon="6.76483">
        <ele>402.7</ele>
        <time>2014-10-28T14:53:09.000Z</time>
      </trkpt>
      <trkpt lat="47.53617" lon="6.76482">
        <ele>403.1</ele>
        <time>2014-10-28T14:53:10.000Z</time>
      </trkpt>
      <trkpt lat="47.53621" lon="6.76482">
        <ele>404.1</ele>
        <time>2014-10-28T14:53:13.000Z</time>
      </trkpt>
      <trkpt lat="47.53623" lon="6.76482">
        <ele>404.2</ele>
        <time>2014-10-28T14:53:13.998Z</time>
      </trkpt>
      <trkpt lat="47.53632" lon="6.76488">
        <ele>402.6</ele>
        <time>2014-10-28T14:53:22.000Z</time>
      </trkpt>
      <trkpt lat="47.53636" lon="6.7649">
        <ele>402.7</ele>
        <time>2014-10-28T14:53:26.000Z</time>
      </trkpt>
      <trkpt lat="47.53637" lon="6.76491">
        <ele>403.3</ele>
        <time>2014-10-28T14:53:27.000Z</time>
      </trkpt>
      <trkpt lat="47.5364" lon="6.76492">
        <ele>404.1</ele>
        <time>2014-10-28T14:53:30.000Z</time>
      </trkpt>
      <trkpt lat="47.53641" lon="6.76492">
        <ele>404</ele>
        <time>2014-10-28T14:53:31.000Z</time>
      </trkpt>
      <trkpt lat="47.53645" lon="6.76492">
        <ele>404.2</ele>
        <time>2014-10-28T14:53:34.000Z</time>
      </trkpt>
      <trkpt lat="47.53646" lon="6.76493">
        <ele>404.5</ele>
        <time>2014-10-28T14:53:35.000Z</time>
      </trkpt>
      <trkpt lat="47.5365" lon="6.76494">
        <ele>406.1</ele>
        <time>2014-10-28T14:53:39.000Z</time>
      </trkpt>
      <trkpt lat="47.53651" lon="6.76495">
        <ele>405.9</ele>
        <time>2014-10-28T14:53:40.000Z</time>
      </trkpt>
      <trkpt lat="47.53655" lon="6.76496">
        <ele>406.6</ele>
        <time>2014-10-28T14:53:44.000Z</time>
      </trkpt>
      <trkpt lat="47.53656" lon="6.76496">
        <ele>406.9</ele>
        <time>2014-10-28T14:53:45.000Z</time>
      </trkpt>
      <trkpt lat="47.5366" lon="6.76498">
        <ele>407.3</ele>
        <time>2014-10-28T14:53:50.000Z</time>
      </trkpt>
      <trkpt lat="47.53661" lon="6.76498">
        <ele>406.6</ele>
        <time>2014-10-28T14:53:51.000Z</time>
      </trkpt>
      <trkpt lat="47.53664" lon="6.76501">
        <ele>407.8</ele>
        <time>2014-10-28T14:54:00.000Z</time>
      </trkpt>
      <trkpt lat="47.53665" lon="6.76501">
        <ele>407.7</ele>
        <time>2014-10-28T14:54:01.000Z</time>
      </trkpt>
      <trkpt lat="47.53668" lon="6.76503">
        <ele>407.7</ele>
        <time>2014-10-28T14:54:05.000Z</time>
      </trkpt>
      <trkpt lat="47.53669" lon="6.76503">
        <ele>407.6</ele>
        <time>2014-10-28T14:54:06.000Z</time>
      </trkpt>
      <trkpt lat="47.53673" lon="6.76503">
        <ele>406.7</ele>
        <time>2014-10-28T14:54:11.000Z</time>
      </trkpt>
      <trkpt lat="47.53674" lon="6.76503">
        <ele>406.9</ele>
        <time>2014-10-28T14:54:12.000Z</time>
      </trkpt>
      <trkpt lat="47.53677" lon="6.76505">
        <ele>406.3</ele>
        <time>2014-10-28T14:54:24.000Z</time>
      </trkpt>
      <trkpt lat="47.53679" lon="6.76505">
        <ele>406.6</ele>
        <time>2014-10-28T14:54:25.000Z</time>
      </trkpt>
      <trkpt lat="47.53683" lon="6.76506">
        <ele>408.3</ele>
        <time>2014-10-28T14:54:29.000Z</time>
      </trkpt>
      <trkpt lat="47.53684" lon="6.76507">
        <ele>408.3</ele>
        <time>2014-10-28T14:54:30.000Z</time>
      </trkpt>
      <trkpt lat="47.53687" lon="6.76511">
        <ele>410</ele>
        <time>2014-10-28T14:54:37.999Z</time>
      </trkpt>
      <trkpt lat="47.53688" lon="6.76511">
        <ele>410.5</ele>
        <time>2014-10-28T14:54:39.000Z</time>
      </trkpt>
      <trkpt lat="47.53692" lon="6.76512">
        <ele>411.6</ele>
        <time>2014-10-28T14:54:43.000Z</time>
      </trkpt>
      <trkpt lat="47.53693" lon="6.76512">
        <ele>412.1</ele>
        <time>2014-10-28T14:54:44.000Z</time>
      </trkpt>
      <trkpt lat="47.53697" lon="6.76513">
        <ele>413.9</ele>
        <time>2014-10-28T14:54:48.000Z</time>
      </trkpt>
      <trkpt lat="47.53698" lon="6.76514">
        <ele>414.3</ele>
        <time>2014-10-28T14:54:48.999Z</time>
      </trkpt>
      <trkpt lat="47.537" lon="6.76514">
        <ele>414.1</ele>
        <time>2014-10-28T14:54:50.999Z</time>
      </trkpt>
      <trkpt lat="47.53702" lon="6.76514">
        <ele>415</ele>
        <time>2014-10-28T14:54:52.000Z</time>
      </trkpt>
      <trkpt lat="47.53705" lon="6.76513">
        <ele>416</ele>
        <time>2014-10-28T14:54:53.999Z</time>
      </trkpt>
      <trkpt lat="47.53708" lon="6.76514">
        <ele>417</ele>
        <time>2014-10-28T14:54:55.000Z</time>
      </trkpt>
      <trkpt lat="47.5371" lon="6.76515">
        <ele>417.8</ele>
        <time>2014-10-28T14:54:55.999Z</time>
      </trkpt>
      <trkpt lat="47.53713" lon="6.76517">
        <ele>418.3</ele>
        <time>2014-10-28T14:54:57.000Z</time>
      </trkpt>
      <trkpt lat="47.53715" lon="6.76517">
        <ele>418.8</ele>
        <time>2014-10-28T14:54:57.999Z</time>
      </trkpt>
      <trkpt lat="47.53717" lon="6.76519">
        <ele>419.8</ele>
        <time>2014-10-28T14:54:59.000Z</time>
      </trkpt>
      <trkpt lat="47.53721" lon="6.76521">
        <ele>419.3</ele>
        <time>2014-10-28T14:55:01.000Z</time>
      </trkpt>
      <trkpt lat="47.53723" lon="6.76522">
        <ele>419.3</ele>
        <time>2014-10-28T14:55:02.000Z</time>
      </trkpt>
      <trkpt lat="47.53727" lon="6.76523">
        <ele>420.9</ele>
        <time>2014-10-28T14:55:04.000Z</time>
      </trkpt>
      <trkpt lat="47.53728" lon="6.76523">
        <ele>421.4</ele>
        <time>2014-10-28T14:55:04.999Z</time>
      </trkpt>
      <trkpt lat="47.53731" lon="6.76524">
        <ele>423.1</ele>
        <time>2014-10-28T14:55:06.000Z</time>
      </trkpt>
      <trkpt lat="47.53733" lon="6.76526">
        <ele>422.3</ele>
        <time>2014-10-28T14:55:07.000Z</time>
      </trkpt>
      <trkpt lat="47.53735" lon="6.76529">
        <ele>421.9</ele>
        <time>2014-10-28T14:55:09.000Z</time>
      </trkpt>
      <trkpt lat="47.53736" lon="6.7653">
        <ele>421.8</ele>
        <time>2014-10-28T14:55:09.999Z</time>
      </trkpt>
      <trkpt lat="47.53741" lon="6.76531">
        <ele>420.1</ele>
        <time>2014-10-28T14:55:13.000Z</time>
      </trkpt>
      <trkpt lat="47.53743" lon="6.76531">
        <ele>420.4</ele>
        <time>2014-10-28T14:55:14.000Z</time>
      </trkpt>
      <trkpt lat="47.53748" lon="6.76532">
        <ele>413.6</ele>
        <time>2014-10-28T14:55:17.000Z</time>
      </trkpt>
      <trkpt lat="47.53752" lon="6.76533">
        <ele>413.2</ele>
        <time>2014-10-28T14:55:19.000Z</time>
      </trkpt>
      <trkpt lat="47.53754" lon="6.76534">
        <ele>413.2</ele>
        <time>2014-10-28T14:55:20.000Z</time>
      </trkpt>
      <trkpt lat="47.53756" lon="6.76534">
        <ele>413.2</ele>
        <time>2014-10-28T14:55:21.000Z</time>
      </trkpt>
      <trkpt lat="47.53759" lon="6.76535">
        <ele>413.4</ele>
        <time>2014-10-28T14:55:22.000Z</time>
      </trkpt>
      <trkpt lat="47.53761" lon="6.76535">
        <ele>413.5</ele>
        <time>2014-10-28T14:55:23.000Z</time>
      </trkpt>
      <trkpt lat="47.53763" lon="6.76535">
        <ele>413.7</ele>
        <time>2014-10-28T14:55:24.000Z</time>
      </trkpt>
      <trkpt lat="47.53767" lon="6.76536">
        <ele>413.1</ele>
        <time>2014-10-28T14:55:28.000Z</time>
      </trkpt>
      <trkpt lat="47.53769" lon="6.76537">
        <ele>413.2</ele>
        <time>2014-10-28T14:55:29.000Z</time>
      </trkpt>
      <trkpt lat="47.53772" lon="6.76539">
        <ele>412.6</ele>
        <time>2014-10-28T14:55:31.000Z</time>
      </trkpt>
      <trkpt lat="47.53774" lon="6.7654">
        <ele>412.7</ele>
        <time>2014-10-28T14:55:32.000Z</time>
      </trkpt>
      <trkpt lat="47.53776" lon="6.76541">
        <ele>410.6</ele>
        <time>2014-10-28T14:55:33.000Z</time>
      </trkpt>
      <trkpt lat="47.53779" lon="6.76543">
        <ele>410.5</ele>
        <time>2014-10-28T14:55:34.000Z</time>
      </trkpt>
      <trkpt lat="47.53783" lon="6.76545">
        <ele>410.7</ele>
        <time>2014-10-28T14:55:36.000Z</time>
      </trkpt>
      <trkpt lat="47.53785" lon="6.76545">
        <ele>410.3</ele>
        <time>2014-10-28T14:55:37.000Z</time>
      </trkpt>
      <trkpt lat="47.53787" lon="6.76546">
        <ele>410.8</ele>
        <time>2014-10-28T14:55:38.000Z</time>
      </trkpt>
      <trkpt lat="47.53789" lon="6.76548">
        <ele>410.8</ele>
        <time>2014-10-28T14:55:39.000Z</time>
      </trkpt>
      <trkpt lat="47.53792" lon="6.76549">
        <ele>410.9</ele>
        <time>2014-10-28T14:55:40.000Z</time>
      </trkpt>
      <trkpt lat="47.53794" lon="6.7655">
        <ele>411.1</ele>
        <time>2014-10-28T14:55:41.000Z</time>
      </trkpt>
      <trkpt lat="47.53797" lon="6.76551">
        <ele>414.1</ele>
        <time>2014-10-28T14:55:42.000Z</time>
      </trkpt>
      <trkpt lat="47.53799" lon="6.76551">
        <ele>415.3</ele>
        <time>2014-10-28T14:55:43.000Z</time>
      </trkpt>
      <trkpt lat="47.53802" lon="6.76552">
        <ele>415.9</ele>
        <time>2014-10-28T14:55:44.000Z</time>
      </trkpt>
      <trkpt lat="47.53804" lon="6.76552">
        <ele>416.7</ele>
        <time>2014-10-28T14:55:45.000Z</time>
      </trkpt>
      <trkpt lat="47.53808" lon="6.76553">
        <ele>416.6</ele>
        <time>2014-10-28T14:55:47.000Z</time>
      </trkpt>
      <trkpt lat="47.5381" lon="6.76553">
        <ele>417.1</ele>
        <time>2014-10-28T14:55:48.000Z</time>
      </trkpt>
      <trkpt lat="47.53814" lon="6.76555">
        <ele>416.9</ele>
        <time>2014-10-28T14:55:51.000Z</time>
      </trkpt>
      <trkpt lat="47.53816" lon="6.76556">
        <ele>416.8</ele>
        <time>2014-10-28T14:55:52.000Z</time>
      </trkpt>
      <trkpt lat="47.53819" lon="6.76558">
        <ele>415.8</ele>
        <time>2014-10-28T14:55:54.000Z</time>
      </trkpt>
      <trkpt lat="47.5382" lon="6.76559">
        <ele>416.5</ele>
        <time>2014-10-28T14:55:55.000Z</time>
      </trkpt>
      <trkpt lat="47.53824" lon="6.7656">
        <ele>416.8</ele>
        <time>2014-10-28T14:55:58.000Z</time>
      </trkpt>
      <trkpt lat="47.53825" lon="6.76561">
        <ele>416.9</ele>
        <time>2014-10-28T14:55:59.000Z</time>
      </trkpt>
      <trkpt lat="47.53829" lon="6.7656">
        <ele>416.6</ele>
        <time>2014-10-28T14:56:02.000Z</time>
      </trkpt>
      <trkpt lat="47.5383" lon="6.7656">
        <ele>416.5</ele>
        <time>2014-10-28T14:56:03.000Z</time>
      </trkpt>
      <trkpt lat="47.53834" lon="6.76559">
        <ele>418</ele>
        <time>2014-10-28T14:56:09.000Z</time>
      </trkpt>
      <trkpt lat="47.53834" lon="6.7656">
        <ele>417.3</ele>
        <time>2014-10-28T14:56:10.000Z</time>
      </trkpt>
      <trkpt lat="47.53838" lon="6.76563">
        <ele>417.1</ele>
        <time>2014-10-28T14:56:14.000Z</time>
      </trkpt>
      <trkpt lat="47.53844" lon="6.76567">
        <ele>407.7</ele>
        <time>2014-10-28T14:56:22.000Z</time>
      </trkpt>
      <trkpt lat="47.53848" lon="6.76568">
        <ele>409.2</ele>
        <time>2014-10-28T14:56:26.000Z</time>
      </trkpt>
      <trkpt lat="47.53849" lon="6.76569">
        <ele>408.8</ele>
        <time>2014-10-28T14:56:27.000Z</time>
      </trkpt>
      <trkpt lat="47.5385" lon="6.76575">
        <ele>410.3</ele>
        <time>2014-10-28T14:56:31.000Z</time>
      </trkpt>
      <trkpt lat="47.5385" lon="6.76577">
        <ele>410.3</ele>
        <time>2014-10-28T14:56:32.000Z</time>
      </trkpt>
      <trkpt lat="47.53851" lon="6.76582">
        <ele>411.3</ele>
        <time>2014-10-28T14:56:37.000Z</time>
      </trkpt>
      <trkpt lat="47.53851" lon="6.76583">
        <ele>411.2</ele>
        <time>2014-10-28T14:56:38.000Z</time>
      </trkpt>
      <trkpt lat="47.53853" lon="6.76588">
        <ele>410.6</ele>
        <time>2014-10-28T14:56:42.000Z</time>
      </trkpt>
      <trkpt lat="47.53854" lon="6.76589">
        <ele>410.8</ele>
        <time>2014-10-28T14:56:43.000Z</time>
      </trkpt>
      <trkpt lat="47.53858" lon="6.76591">
        <ele>410.5</ele>
        <time>2014-10-28T14:56:46.000Z</time>
      </trkpt>
      <trkpt lat="47.53859" lon="6.76592">
        <ele>410.5</ele>
        <time>2014-10-28T14:56:47.000Z</time>
      </trkpt>
      <trkpt lat="47.53863" lon="6.76595">
        <ele>411.8</ele>
        <time>2014-10-28T14:56:51.000Z</time>
      </trkpt>
      <trkpt lat="47.53863" lon="6.76595">
        <ele>412</ele>
        <time>2014-10-28T14:56:52.000Z</time>
      </trkpt>
      <trkpt lat="47.53866" lon="6.76599">
        <ele>414.2</ele>
        <time>2014-10-28T14:56:56.000Z</time>
      </trkpt>
      <trkpt lat="47.53867" lon="6.76599">
        <ele>413.8</ele>
        <time>2014-10-28T14:56:57.000Z</time>
      </trkpt>
      <trkpt lat="47.5387" lon="6.76603">
        <ele>415.6</ele>
        <time>2014-10-28T14:57:01.000Z</time>
      </trkpt>
      <trkpt lat="47.53871" lon="6.76604">
        <ele>416.3</ele>
        <time>2014-10-28T14:57:02.000Z</time>
      </trkpt>
      <trkpt lat="47.53871" lon="6.76609">
        <ele>417.5</ele>
        <time>2014-10-28T14:57:05.000Z</time>
      </trkpt>
      <trkpt lat="47.53871" lon="6.76611">
        <ele>417.9</ele>
        <time>2014-10-28T14:57:06.000Z</time>
      </trkpt>
      <trkpt lat="47.53869" lon="6.76615">
        <ele>418.2</ele>
        <time>2014-10-28T14:57:08.000Z</time>
      </trkpt>
      <trkpt lat="47.53868" lon="6.76617">
        <ele>418.5</ele>
        <time>2014-10-28T14:57:09.000Z</time>
      </trkpt>
      <trkpt lat="47.53866" lon="6.76619">
        <ele>418.9</ele>
        <time>2014-10-28T14:57:10.000Z</time>
      </trkpt>
      <trkpt lat="47.53865" lon="6.76622">
        <ele>419.1</ele>
        <time>2014-10-28T14:57:11.000Z</time>
      </trkpt>
      <trkpt lat="47.53863" lon="6.76625">
        <ele>419.7</ele>
        <time>2014-10-28T14:57:12.000Z</time>
      </trkpt>
      <trkpt lat="47.5386" lon="6.76628">
        <ele>420.8</ele>
        <time>2014-10-28T14:57:13.000Z</time>
      </trkpt>
      <trkpt lat="47.53859" lon="6.76631">
        <ele>421.2</ele>
        <time>2014-10-28T14:57:14.000Z</time>
      </trkpt>
      <trkpt lat="47.53854" lon="6.76639">
        <ele>411.1</ele>
        <time>2014-10-28T14:57:17.000Z</time>
      </trkpt>
      <trkpt lat="47.53852" lon="6.76642">
        <ele>411.3</ele>
        <time>2014-10-28T14:57:18.000Z</time>
      </trkpt>
      <trkpt lat="47.53851" lon="6.76645">
        <ele>412.4</ele>
        <time>2014-10-28T14:57:19.000Z</time>
      </trkpt>
      <trkpt lat="47.53849" lon="6.76648">
        <ele>416.3</ele>
        <time>2014-10-28T14:57:20.000Z</time>
      </trkpt>
      <trkpt lat="47.53847" lon="6.76651">
        <ele>415.9</ele>
        <time>2014-10-28T14:57:21.000Z</time>
      </trkpt>
      <trkpt lat="47.53845" lon="6.76654">
        <ele>417.3</ele>
        <time>2014-10-28T14:57:22.000Z</time>
      </trkpt>
      <trkpt lat="47.53843" lon="6.76656">
        <ele>417.3</ele>
        <time>2014-10-28T14:57:23.000Z</time>
      </trkpt>
      <trkpt lat="47.53841" lon="6.76658">
        <ele>417.5</ele>
        <time>2014-10-28T14:57:24.000Z</time>
      </trkpt>
      <trkpt lat="47.53839" lon="6.7666">
        <ele>417.3</ele>
        <time>2014-10-28T14:57:25.000Z</time>
      </trkpt>
      <trkpt lat="47.53837" lon="6.76662">
        <ele>416.9</ele>
        <time>2014-10-28T14:57:26.000Z</time>
      </trkpt>
      <trkpt lat="47.53835" lon="6.76664">
        <ele>417</ele>
        <time>2014-10-28T14:57:27.000Z</time>
      </trkpt>
      <trkpt lat="47.53833" lon="6.76666">
        <ele>416.9</ele>
        <time>2014-10-28T14:57:28.000Z</time>
      </trkpt>
      <trkpt lat="47.53831" lon="6.76668">
        <ele>418</ele>
        <time>2014-10-28T14:57:29.000Z</time>
      </trkpt>
      <trkpt lat="47.53829" lon="6.76671">
        <ele>418.6</ele>
        <time>2014-10-28T14:57:30.000Z</time>
      </trkpt>
      <trkpt lat="47.53827" lon="6.76673">
        <ele>419.6</ele>
        <time>2014-10-28T14:57:31.000Z</time>
      </trkpt>
      <trkpt lat="47.53825" lon="6.76676">
        <ele>419.7</ele>
        <time>2014-10-28T14:57:32.000Z</time>
      </trkpt>
      <trkpt lat="47.53822" lon="6.7668">
        <ele>420.4</ele>
        <time>2014-10-28T14:57:33.000Z</time>
      </trkpt>
      <trkpt lat="47.5382" lon="6.76683">
        <ele>420.8</ele>
        <time>2014-10-28T14:57:34.000Z</time>
      </trkpt>
      <trkpt lat="47.53818" lon="6.76687">
        <ele>421.4</ele>
        <time>2014-10-28T14:57:35.000Z</time>
      </trkpt>
      <trkpt lat="47.53816" lon="6.76691">
        <ele>421.7</ele>
        <time>2014-10-28T14:57:36.000Z</time>
      </trkpt>
      <trkpt lat="47.53814" lon="6.76694">
        <ele>422.6</ele>
        <time>2014-10-28T14:57:37.000Z</time>
      </trkpt>
      <trkpt lat="47.53813" lon="6.76699">
        <ele>425.1</ele>
        <time>2014-10-28T14:57:38.000Z</time>
      </trkpt>
      <trkpt lat="47.53812" lon="6.76703">
        <ele>425.5</ele>
        <time>2014-10-28T14:57:39.000Z</time>
      </trkpt>
      <trkpt lat="47.53811" lon="6.76707">
        <ele>425.4</ele>
        <time>2014-10-28T14:57:40.000Z</time>
      </trkpt>
      <trkpt lat="47.53811" lon="6.7671">
        <ele>425.4</ele>
        <time>2014-10-28T14:57:41.000Z</time>
      </trkpt>
      <trkpt lat="47.5381" lon="6.76714">
        <ele>425.4</ele>
        <time>2014-10-28T14:57:42.000Z</time>
      </trkpt>
      <trkpt lat="47.53809" lon="6.76717">
        <ele>425.4</ele>
        <time>2014-10-28T14:57:43.000Z</time>
      </trkpt>
      <trkpt lat="47.53808" lon="6.76722">
        <ele>424.9</ele>
        <time>2014-10-28T14:57:45.000Z</time>
      </trkpt>
      <trkpt lat="47.53807" lon="6.76725">
        <ele>424.9</ele>
        <time>2014-10-28T14:57:46.000Z</time>
      </trkpt>
      <trkpt lat="47.53806" lon="6.76731">
        <ele>424.7</ele>
        <time>2014-10-28T14:57:48.000Z</time>
      </trkpt>
      <trkpt lat="47.53805" lon="6.76734">
        <ele>425.4</ele>
        <time>2014-10-28T14:57:49.000Z</time>
      </trkpt>
      <trkpt lat="47.53804" lon="6.76737">
        <ele>425.7</ele>
        <time>2014-10-28T14:57:50.000Z</time>
      </trkpt>
      <trkpt lat="47.53803" lon="6.7674">
        <ele>425.6</ele>
        <time>2014-10-28T14:57:51.000Z</time>
      </trkpt>
      <trkpt lat="47.53802" lon="6.76743">
        <ele>426.4</ele>
        <time>2014-10-28T14:57:52.000Z</time>
      </trkpt>
      <trkpt lat="47.538" lon="6.76746">
        <ele>426.5</ele>
        <time>2014-10-28T14:57:53.000Z</time>
      </trkpt>
      <trkpt lat="47.53799" lon="6.76749">
        <ele>426</ele>
        <time>2014-10-28T14:57:54.000Z</time>
      </trkpt>
      <trkpt lat="47.53797" lon="6.76752">
        <ele>425.3</ele>
        <time>2014-10-28T14:57:55.000Z</time>
      </trkpt>
      <trkpt lat="47.53795" lon="6.76755">
        <ele>425.8</ele>
        <time>2014-10-28T14:57:56.000Z</time>
      </trkpt>
      <trkpt lat="47.53794" lon="6.76758">
        <ele>426.1</ele>
        <time>2014-10-28T14:57:57.000Z</time>
      </trkpt>
      <trkpt lat="47.53793" lon="6.76762">
        <ele>426.4</ele>
        <time>2014-10-28T14:57:58.000Z</time>
      </trkpt>
      <trkpt lat="47.53793" lon="6.76765">
        <ele>426.4</ele>
        <time>2014-10-28T14:57:59.000Z</time>
      </trkpt>
      <trkpt lat="47.53792" lon="6.7677">
        <ele>426.5</ele>
        <time>2014-10-28T14:58:01.000Z</time>
      </trkpt>
      <trkpt lat="47.53791" lon="6.76773">
        <ele>425.9</ele>
        <time>2014-10-28T14:58:02.000Z</time>
      </trkpt>
      <trkpt lat="47.53791" lon="6.76779">
        <ele>428.3</ele>
        <time>2014-10-28T14:58:04.000Z</time>
      </trkpt>
      <trkpt lat="47.53791" lon="6.76782">
        <ele>429.4</ele>
        <time>2014-10-28T14:58:05.000Z</time>
      </trkpt>
      <trkpt lat="47.53791" lon="6.76785">
        <ele>429.9</ele>
        <time>2014-10-28T14:58:06.000Z</time>
      </trkpt>
      <trkpt lat="47.5379" lon="6.76788">
        <ele>430</ele>
        <time>2014-10-28T14:58:07.000Z</time>
      </trkpt>
      <trkpt lat="47.53789" lon="6.76792">
        <ele>430.9</ele>
        <time>2014-10-28T14:58:08.000Z</time>
      </trkpt>
      <trkpt lat="47.53788" lon="6.76795">
        <ele>431.1</ele>
        <time>2014-10-28T14:58:09.000Z</time>
      </trkpt>
      <trkpt lat="47.53787" lon="6.76798">
        <ele>431.7</ele>
        <time>2014-10-28T14:58:10.000Z</time>
      </trkpt>
      <trkpt lat="47.53787" lon="6.76802">
        <ele>432</ele>
        <time>2014-10-28T14:58:11.000Z</time>
      </trkpt>
      <trkpt lat="47.53786" lon="6.76806">
        <ele>431.6</ele>
        <time>2014-10-28T14:58:12.000Z</time>
      </trkpt>
      <trkpt lat="47.53786" lon="6.76809">
        <ele>432.4</ele>
        <time>2014-10-28T14:58:13.000Z</time>
      </trkpt>
      <trkpt lat="47.53785" lon="6.76813">
        <ele>432.9</ele>
        <time>2014-10-28T14:58:14.000Z</time>
      </trkpt>
      <trkpt lat="47.53785" lon="6.76817">
        <ele>432.2</ele>
        <time>2014-10-28T14:58:15.000Z</time>
      </trkpt>
      <trkpt lat="47.53782" lon="6.76838">
        <ele>384.3</ele>
        <time>2014-10-28T14:58:23.000Z</time>
      </trkpt>
      <trkpt lat="47.5378" lon="6.76843">
        <ele>384.5</ele>
        <time>2014-10-28T14:58:25.000Z</time>
      </trkpt>
      <trkpt lat="47.5378" lon="6.76846">
        <ele>384.9</ele>
        <time>2014-10-28T14:58:26.000Z</time>
      </trkpt>
      <trkpt lat="47.53779" lon="6.76851">
        <ele>385.4</ele>
        <time>2014-10-28T14:58:27.000Z</time>
      </trkpt>
      <trkpt lat="47.53779" lon="6.76855">
        <ele>385.7</ele>
        <time>2014-10-28T14:58:28.000Z</time>
      </trkpt>
      <trkpt lat="47.53779" lon="6.76859">
        <ele>386.2</ele>
        <time>2014-10-28T14:58:29.000Z</time>
      </trkpt>
      <trkpt lat="47.53778" lon="6.76862">
        <ele>386.4</ele>
        <time>2014-10-28T14:58:30.000Z</time>
      </trkpt>
      <trkpt lat="47.53777" lon="6.76868">
        <ele>386.9</ele>
        <time>2014-10-28T14:58:32.001Z</time>
      </trkpt>
      <trkpt lat="47.53776" lon="6.76874">
        <ele>386.9</ele>
        <time>2014-10-28T14:58:33.000Z</time>
      </trkpt>
      <trkpt lat="47.53776" lon="6.76877">
        <ele>387</ele>
        <time>2014-10-28T14:58:34.000Z</time>
      </trkpt>
      <trkpt lat="47.53776" lon="6.76882">
        <ele>387.5</ele>
        <time>2014-10-28T14:58:35.000Z</time>
      </trkpt>
      <trkpt lat="47.53775" lon="6.76886">
        <ele>387.7</ele>
        <time>2014-10-28T14:58:36.000Z</time>
      </trkpt>
      <trkpt lat="47.53775" lon="6.7689">
        <ele>387.5</ele>
        <time>2014-10-28T14:58:37.000Z</time>
      </trkpt>
      <trkpt lat="47.53775" lon="6.76894">
        <ele>387.9</ele>
        <time>2014-10-28T14:58:38.000Z</time>
      </trkpt>
      <trkpt lat="47.53775" lon="6.76898">
        <ele>388.4</ele>
        <time>2014-10-28T14:58:39.000Z</time>
      </trkpt>
      <trkpt lat="47.53775" lon="6.76901">
        <ele>389.2</ele>
        <time>2014-10-28T14:58:40.000Z</time>
      </trkpt>
      <trkpt lat="47.53775" lon="6.76905">
        <ele>390.2</ele>
        <time>2014-10-28T14:58:41.000Z</time>
      </trkpt>
      <trkpt lat="47.53775" lon="6.76909">
        <ele>390.9</ele>
        <time>2014-10-28T14:58:42.000Z</time>
      </trkpt>
      <trkpt lat="47.53775" lon="6.76912">
        <ele>390.7</ele>
        <time>2014-10-28T14:58:43.000Z</time>
      </trkpt>
      <trkpt lat="47.53775" lon="6.76918">
        <ele>392.3</ele>
        <time>2014-10-28T14:58:45.000Z</time>
      </trkpt>
      <trkpt lat="47.53775" lon="6.76923">
        <ele>396.1</ele>
        <time>2014-10-28T14:58:46.000Z</time>
      </trkpt>
      <trkpt lat="47.53776" lon="6.76928">
        <ele>397.6</ele>
        <time>2014-10-28T14:58:47.000Z</time>
      </trkpt>
      <trkpt lat="47.53776" lon="6.76933">
        <ele>397.8</ele>
        <time>2014-10-28T14:58:48.000Z</time>
      </trkpt>
      <trkpt lat="47.53777" lon="6.76937">
        <ele>399.7</ele>
        <time>2014-10-28T14:58:49.000Z</time>
      </trkpt>
      <trkpt lat="47.53778" lon="6.76942">
        <ele>400.7</ele>
        <time>2014-10-28T14:58:50.000Z</time>
      </trkpt>
      <trkpt lat="47.53779" lon="6.76945">
        <ele>401.3</ele>
        <time>2014-10-28T14:58:51.000Z</time>
      </trkpt>
      <trkpt lat="47.53779" lon="6.76949">
        <ele>401.4</ele>
        <time>2014-10-28T14:58:52.000Z</time>
      </trkpt>
      <trkpt lat="47.53779" lon="6.76953">
        <ele>402</ele>
        <time>2014-10-28T14:58:53.000Z</time>
      </trkpt>
      <trkpt lat="47.53779" lon="6.76957">
        <ele>403.4</ele>
        <time>2014-10-28T14:58:54.000Z</time>
      </trkpt>
      <trkpt lat="47.5378" lon="6.7696">
        <ele>403.6</ele>
        <time>2014-10-28T14:58:55.000Z</time>
      </trkpt>
      <trkpt lat="47.5378" lon="6.76964">
        <ele>404.1</ele>
        <time>2014-10-28T14:58:56.000Z</time>
      </trkpt>
      <trkpt lat="47.53781" lon="6.7697">
        <ele>405.4</ele>
        <time>2014-10-28T14:58:58.000Z</time>
      </trkpt>
      <trkpt lat="47.53781" lon="6.76973">
        <ele>405.7</ele>
        <time>2014-10-28T14:58:59.000Z</time>
      </trkpt>
      <trkpt lat="47.53781" lon="6.76978">
        <ele>404.8</ele>
        <time>2014-10-28T14:59:01.000Z</time>
      </trkpt>
      <trkpt lat="47.53782" lon="6.76981">
        <ele>405.2</ele>
        <time>2014-10-28T14:59:02.000Z</time>
      </trkpt>
      <trkpt lat="47.53782" lon="6.76984">
        <ele>405.5</ele>
        <time>2014-10-28T14:59:03.000Z</time>
      </trkpt>
      <trkpt lat="47.53782" lon="6.76988">
        <ele>406.8</ele>
        <time>2014-10-28T14:59:04.000Z</time>
      </trkpt>
      <trkpt lat="47.53783" lon="6.76992">
        <ele>408.5</ele>
        <time>2014-10-28T14:59:05.000Z</time>
      </trkpt>
      <trkpt lat="47.53783" lon="6.76996">
        <ele>408.8</ele>
        <time>2014-10-28T14:59:06.000Z</time>
      </trkpt>
      <trkpt lat="47.53783" lon="6.76999">
        <ele>408.3</ele>
        <time>2014-10-28T14:59:07.000Z</time>
      </trkpt>
      <trkpt lat="47.53783" lon="6.77003">
        <ele>408.5</ele>
        <time>2014-10-28T14:59:08.000Z</time>
      </trkpt>
      <trkpt lat="47.53783" lon="6.77007">
        <ele>408.6</ele>
        <time>2014-10-28T14:59:09.000Z</time>
      </trkpt>
      <trkpt lat="47.53784" lon="6.7701">
        <ele>408.5</ele>
        <time>2014-10-28T14:59:10.000Z</time>
      </trkpt>
      <trkpt lat="47.53784" lon="6.77014">
        <ele>408.7</ele>
        <time>2014-10-28T14:59:11.000Z</time>
      </trkpt>
      <trkpt lat="47.53783" lon="6.77017">
        <ele>409.5</ele>
        <time>2014-10-28T14:59:12.000Z</time>
      </trkpt>
      <trkpt lat="47.53783" lon="6.7702">
        <ele>406.4</ele>
        <time>2014-10-28T14:59:13.000Z</time>
      </trkpt>
      <trkpt lat="47.53783" lon="6.77024">
        <ele>405.1</ele>
        <time>2014-10-28T14:59:14.000Z</time>
      </trkpt>
      <trkpt lat="47.5378" lon="6.77032">
        <ele>393.4</ele>
        <time>2014-10-28T14:59:17.000Z</time>
      </trkpt>
      <trkpt lat="47.5378" lon="6.77035">
        <ele>393.7</ele>
        <time>2014-10-28T14:59:18.000Z</time>
      </trkpt>
      <trkpt lat="47.53779" lon="6.77039">
        <ele>393.8</ele>
        <time>2014-10-28T14:59:19.000Z</time>
      </trkpt>
      <trkpt lat="47.53779" lon="6.77043">
        <ele>392.5</ele>
        <time>2014-10-28T14:59:20.000Z</time>
      </trkpt>
      <trkpt lat="47.53778" lon="6.77047">
        <ele>391.7</ele>
        <time>2014-10-28T14:59:21.000Z</time>
      </trkpt>
      <trkpt lat="47.53777" lon="6.77051">
        <ele>391.8</ele>
        <time>2014-10-28T14:59:22.000Z</time>
      </trkpt>
      <trkpt lat="47.53776" lon="6.77055">
        <ele>391.8</ele>
        <time>2014-10-28T14:59:23.000Z</time>
      </trkpt>
      <trkpt lat="47.53775" lon="6.77059">
        <ele>392.6</ele>
        <time>2014-10-28T14:59:24.000Z</time>
      </trkpt>
      <trkpt lat="47.53775" lon="6.77062">
        <ele>393.1</ele>
        <time>2014-10-28T14:59:25.000Z</time>
      </trkpt>
      <trkpt lat="47.53774" lon="6.77066">
        <ele>393.3</ele>
        <time>2014-10-28T14:59:26.000Z</time>
      </trkpt>
      <trkpt lat="47.53774" lon="6.77069">
        <ele>393.9</ele>
        <time>2014-10-28T14:59:27.000Z</time>
      </trkpt>
      <trkpt lat="47.53774" lon="6.77073">
        <ele>394.7</ele>
        <time>2014-10-28T14:59:28.000Z</time>
      </trkpt>
      <trkpt lat="47.53775" lon="6.77076">
        <ele>395.3</ele>
        <time>2014-10-28T14:59:29.000Z</time>
      </trkpt>
      <trkpt lat="47.53776" lon="6.77083">
        <ele>396.3</ele>
        <time>2014-10-28T14:59:31.000Z</time>
      </trkpt>
      <trkpt lat="47.53776" lon="6.77086">
        <ele>396.5</ele>
        <time>2014-10-28T14:59:32.000Z</time>
      </trkpt>
      <trkpt lat="47.53776" lon="6.77091">
        <ele>397.5</ele>
        <time>2014-10-28T14:59:34.000Z</time>
      </trkpt>
      <trkpt lat="47.53776" lon="6.77095">
        <ele>398</ele>
        <time>2014-10-28T14:59:35.000Z</time>
      </trkpt>
      <trkpt lat="47.53776" lon="6.77098">
        <ele>398.8</ele>
        <time>2014-10-28T14:59:36.000Z</time>
      </trkpt>
      <trkpt lat="47.53775" lon="6.77102">
        <ele>398.9</ele>
        <time>2014-10-28T14:59:37.000Z</time>
      </trkpt>
      <trkpt lat="47.53775" lon="6.77105">
        <ele>399.3</ele>
        <time>2014-10-28T14:59:38.000Z</time>
      </trkpt>
      <trkpt lat="47.53774" lon="6.77109">
        <ele>400.6</ele>
        <time>2014-10-28T14:59:39.000Z</time>
      </trkpt>
      <trkpt lat="47.53774" lon="6.77113">
        <ele>398.4</ele>
        <time>2014-10-28T14:59:40.000Z</time>
      </trkpt>
      <trkpt lat="47.53774" lon="6.77117">
        <ele>398.3</ele>
        <time>2014-10-28T14:59:41.000Z</time>
      </trkpt>
      <trkpt lat="47.53773" lon="6.77123">
        <ele>396.9</ele>
        <time>2014-10-28T14:59:43.000Z</time>
      </trkpt>
      <trkpt lat="47.53773" lon="6.77125">
        <ele>396.6</ele>
        <time>2014-10-28T14:59:44.000Z</time>
      </trkpt>
      <trkpt lat="47.53773" lon="6.7713">
        <ele>397.7</ele>
        <time>2014-10-28T14:59:46.000Z</time>
      </trkpt>
      <trkpt lat="47.53773" lon="6.77133">
        <ele>398.6</ele>
        <time>2014-10-28T14:59:47.000Z</time>
      </trkpt>
      <trkpt lat="47.53773" lon="6.77136">
        <ele>399.4</ele>
        <time>2014-10-28T14:59:48.000Z</time>
      </trkpt>
      <trkpt lat="47.53773" lon="6.77139">
        <ele>399.9</ele>
        <time>2014-10-28T14:59:49.000Z</time>
      </trkpt>
      <trkpt lat="47.53773" lon="6.77145">
        <ele>402.1</ele>
        <time>2014-10-28T14:59:51.000Z</time>
      </trkpt>
      <trkpt lat="47.53773" lon="6.77148">
        <ele>402.4</ele>
        <time>2014-10-28T14:59:52.000Z</time>
      </trkpt>
      <trkpt lat="47.53773" lon="6.77153">
        <ele>403.4</ele>
        <time>2014-10-28T14:59:54.000Z</time>
      </trkpt>
      <trkpt lat="47.53774" lon="6.77156">
        <ele>403.9</ele>
        <time>2014-10-28T14:59:55.000Z</time>
      </trkpt>
      <trkpt lat="47.53774" lon="6.77162">
        <ele>403.8</ele>
        <time>2014-10-28T14:59:57.000Z</time>
      </trkpt>
      <trkpt lat="47.53774" lon="6.77165">
        <ele>406.1</ele>
        <time>2014-10-28T14:59:58.000Z</time>
      </trkpt>
      <trkpt lat="47.53774" lon="6.77169">
        <ele>406.8</ele>
        <time>2014-10-28T14:59:59.000Z</time>
      </trkpt>
      <trkpt lat="47.53775" lon="6.77172">
        <ele>406.9</ele>
        <time>2014-10-28T15:00:00.000Z</time>
      </trkpt>
      <trkpt lat="47.53775" lon="6.77176">
        <ele>406.9</ele>
        <time>2014-10-28T15:00:01.000Z</time>
      </trkpt>
      <trkpt lat="47.53775" lon="6.7718">
        <ele>406.9</ele>
        <time>2014-10-28T15:00:02.000Z</time>
      </trkpt>
      <trkpt lat="47.53775" lon="6.77183">
        <ele>406.2</ele>
        <time>2014-10-28T15:00:03.000Z</time>
      </trkpt>
      <trkpt lat="47.53775" lon="6.77186">
        <ele>405.9</ele>
        <time>2014-10-28T15:00:04.000Z</time>
      </trkpt>
      <trkpt lat="47.53774" lon="6.77193">
        <ele>406.9</ele>
        <time>2014-10-28T15:00:06.000Z</time>
      </trkpt>
      <trkpt lat="47.53773" lon="6.77196">
        <ele>407</ele>
        <time>2014-10-28T15:00:07.000Z</time>
      </trkpt>
      <trkpt lat="47.53771" lon="6.77201">
        <ele>406.6</ele>
        <time>2014-10-28T15:00:09.000Z</time>
      </trkpt>
      <trkpt lat="47.5377" lon="6.77204">
        <ele>406.3</ele>
        <time>2014-10-28T15:00:10.000Z</time>
      </trkpt>
      <trkpt lat="47.53768" lon="6.7721">
        <ele>406.4</ele>
        <time>2014-10-28T15:00:12.000Z</time>
      </trkpt>
      <trkpt lat="47.53768" lon="6.77212">
        <ele>406.6</ele>
        <time>2014-10-28T15:00:13.000Z</time>
      </trkpt>
      <trkpt lat="47.53767" lon="6.77215">
        <ele>407.2</ele>
        <time>2014-10-28T15:00:14.000Z</time>
      </trkpt>
      <trkpt lat="47.53766" lon="6.77223">
        <ele>390.6</ele>
        <time>2014-10-28T15:00:17.000Z</time>
      </trkpt>
      <trkpt lat="47.53764" lon="6.77229">
        <ele>391.7</ele>
        <time>2014-10-28T15:00:19.000Z</time>
      </trkpt>
      <trkpt lat="47.53764" lon="6.77232">
        <ele>392.5</ele>
        <time>2014-10-28T15:00:20.000Z</time>
      </trkpt>
      <trkpt lat="47.53762" lon="6.77237">
        <ele>393.5</ele>
        <time>2014-10-28T15:00:23.000Z</time>
      </trkpt>
      <trkpt lat="47.53761" lon="6.77238">
        <ele>393.6</ele>
        <time>2014-10-28T15:00:24.000Z</time>
      </trkpt>
      <trkpt lat="47.53759" lon="6.77243">
        <ele>394.1</ele>
        <time>2014-10-28T15:00:29.000Z</time>
      </trkpt>
      <trkpt lat="47.53759" lon="6.77245">
        <ele>394</ele>
        <time>2014-10-28T15:00:30.000Z</time>
      </trkpt>
      <trkpt lat="47.53758" lon="6.7725">
        <ele>394.2</ele>
        <time>2014-10-28T15:00:35.000Z</time>
      </trkpt>
      <trkpt lat="47.53758" lon="6.77251">
        <ele>394.4</ele>
        <time>2014-10-28T15:00:36.000Z</time>
      </trkpt>
      <trkpt lat="47.53758" lon="6.77257">
        <ele>397.5</ele>
        <time>2014-10-28T15:01:12.000Z</time>
      </trkpt>
      <trkpt lat="47.53758" lon="6.77258">
        <ele>398.3</ele>
        <time>2014-10-28T15:01:13.000Z</time>
      </trkpt>
      <trkpt lat="47.53755" lon="6.77262">
        <ele>399</ele>
        <time>2014-10-28T15:01:15.000Z</time>
      </trkpt>
      <trkpt lat="47.53746" lon="6.77278">
        <ele>398.8</ele>
        <time>2014-10-28T15:01:23.000Z</time>
      </trkpt>
      <trkpt lat="47.53744" lon="6.77281">
        <ele>396.5</ele>
        <time>2014-10-28T15:01:26.000Z</time>
      </trkpt>
      <trkpt lat="47.53743" lon="6.77284">
        <ele>396.1</ele>
        <time>2014-10-28T15:01:27.000Z</time>
      </trkpt>
      <trkpt lat="47.53741" lon="6.77286">
        <ele>395.8</ele>
        <time>2014-10-28T15:01:28.000Z</time>
      </trkpt>
      <trkpt lat="47.5374" lon="6.7729">
        <ele>395.6</ele>
        <time>2014-10-28T15:01:29.000Z</time>
      </trkpt>
      <trkpt lat="47.53738" lon="6.77293">
        <ele>395.8</ele>
        <time>2014-10-28T15:01:30.000Z</time>
      </trkpt>
      <trkpt lat="47.53737" lon="6.77297">
        <ele>396.2</ele>
        <time>2014-10-28T15:01:31.000Z</time>
      </trkpt>
      <trkpt lat="47.53735" lon="6.773">
        <ele>396.9</ele>
        <time>2014-10-28T15:01:32.000Z</time>
      </trkpt>
      <trkpt lat="47.53733" lon="6.77304">
        <ele>397.8</ele>
        <time>2014-10-28T15:01:33.000Z</time>
      </trkpt>
      <trkpt lat="47.53732" lon="6.77307">
        <ele>397.7</ele>
        <time>2014-10-28T15:01:34.000Z</time>
      </trkpt>
      <trkpt lat="47.5373" lon="6.7731">
        <ele>397.9</ele>
        <time>2014-10-28T15:01:35.000Z</time>
      </trkpt>
      <trkpt lat="47.53728" lon="6.77313">
        <ele>398.8</ele>
        <time>2014-10-28T15:01:36.000Z</time>
      </trkpt>
      <trkpt lat="47.53726" lon="6.77316">
        <ele>399</ele>
        <time>2014-10-28T15:01:37.000Z</time>
      </trkpt>
      <trkpt lat="47.53724" lon="6.77319">
        <ele>395.9</ele>
        <time>2014-10-28T15:01:38.000Z</time>
      </trkpt>
      <trkpt lat="47.53721" lon="6.77321">
        <ele>395.2</ele>
        <time>2014-10-28T15:01:39.000Z</time>
      </trkpt>
      <trkpt lat="47.53719" lon="6.77323">
        <ele>395.3</ele>
        <time>2014-10-28T15:01:40.000Z</time>
      </trkpt>
      <trkpt lat="47.53717" lon="6.77325">
        <ele>395.1</ele>
        <time>2014-10-28T15:01:41.000Z</time>
      </trkpt>
      <trkpt lat="47.53715" lon="6.77326">
        <ele>393.2</ele>
        <time>2014-10-28T15:01:42.000Z</time>
      </trkpt>
      <trkpt lat="47.53712" lon="6.77327">
        <ele>393.3</ele>
        <time>2014-10-28T15:01:43.000Z</time>
      </trkpt>
      <trkpt lat="47.5371" lon="6.77328">
        <ele>393.6</ele>
        <time>2014-10-28T15:01:44.000Z</time>
      </trkpt>
      <trkpt lat="47.53708" lon="6.7733">
        <ele>394</ele>
        <time>2014-10-28T15:01:45.000Z</time>
      </trkpt>
      <trkpt lat="47.53704" lon="6.77333">
        <ele>394.2</ele>
        <time>2014-10-28T15:01:47.000Z</time>
      </trkpt>
      <trkpt lat="47.53702" lon="6.77334">
        <ele>394.2</ele>
        <time>2014-10-28T15:01:48.000Z</time>
      </trkpt>
      <trkpt lat="47.53698" lon="6.77336">
        <ele>393</ele>
        <time>2014-10-28T15:01:50.000Z</time>
      </trkpt>
      <trkpt lat="47.53696" lon="6.77337">
        <ele>393</ele>
        <time>2014-10-28T15:01:51.000Z</time>
      </trkpt>
      <trkpt lat="47.53693" lon="6.77337">
        <ele>392.8</ele>
        <time>2014-10-28T15:01:52.000Z</time>
      </trkpt>
      <trkpt lat="47.53691" lon="6.77337">
        <ele>392</ele>
        <time>2014-10-28T15:01:53.000Z</time>
      </trkpt>
      <trkpt lat="47.53689" lon="6.77336">
        <ele>391.3</ele>
        <time>2014-10-28T15:01:54.000Z</time>
      </trkpt>
      <trkpt lat="47.53686" lon="6.77335">
        <ele>388.7</ele>
        <time>2014-10-28T15:01:55.000Z</time>
      </trkpt>
      <trkpt lat="47.53683" lon="6.77334">
        <ele>387.9</ele>
        <time>2014-10-28T15:01:56.000Z</time>
      </trkpt>
      <trkpt lat="47.53681" lon="6.77332">
        <ele>387.6</ele>
        <time>2014-10-28T15:01:57.000Z</time>
      </trkpt>
      <trkpt lat="47.53678" lon="6.77331">
        <ele>385.9</ele>
        <time>2014-10-28T15:01:58.000Z</time>
      </trkpt>
      <trkpt lat="47.53675" lon="6.7733">
        <ele>386.5</ele>
        <time>2014-10-28T15:01:59.000Z</time>
      </trkpt>
      <trkpt lat="47.53673" lon="6.77329">
        <ele>386.3</ele>
        <time>2014-10-28T15:02:00.000Z</time>
      </trkpt>
      <trkpt lat="47.53671" lon="6.77329">
        <ele>385.4</ele>
        <time>2014-10-28T15:02:01.000Z</time>
      </trkpt>
      <trkpt lat="47.53667" lon="6.77326">
        <ele>384.4</ele>
        <time>2014-10-28T15:02:03.000Z</time>
      </trkpt>
      <trkpt lat="47.53665" lon="6.77325">
        <ele>383.5</ele>
        <time>2014-10-28T15:02:04.000Z</time>
      </trkpt>
      <trkpt lat="47.53661" lon="6.77323">
        <ele>382.3</ele>
        <time>2014-10-28T15:02:06.000Z</time>
      </trkpt>
      <trkpt lat="47.53658" lon="6.77322">
        <ele>382.2</ele>
        <time>2014-10-28T15:02:07.000Z</time>
      </trkpt>
      <trkpt lat="47.53656" lon="6.7732">
        <ele>382.2</ele>
        <time>2014-10-28T15:02:08.000Z</time>
      </trkpt>
      <trkpt lat="47.53654" lon="6.77319">
        <ele>382.3</ele>
        <time>2014-10-28T15:02:09.000Z</time>
      </trkpt>
      <trkpt lat="47.53652" lon="6.77317">
        <ele>382.8</ele>
        <time>2014-10-28T15:02:10.000Z</time>
      </trkpt>
      <trkpt lat="47.5365" lon="6.77315">
        <ele>382.5</ele>
        <time>2014-10-28T15:02:11.000Z</time>
      </trkpt>
      <trkpt lat="47.53648" lon="6.77313">
        <ele>382.3</ele>
        <time>2014-10-28T15:02:12.000Z</time>
      </trkpt>
      <trkpt lat="47.53646" lon="6.77311">
        <ele>381.5</ele>
        <time>2014-10-28T15:02:13.000Z</time>
      </trkpt>
      <trkpt lat="47.53644" lon="6.77309">
        <ele>380.5</ele>
        <time>2014-10-28T15:02:14.000Z</time>
      </trkpt>
      <trkpt lat="47.53627" lon="6.77297">
        <ele>366.6</ele>
        <time>2014-10-28T15:02:22.000Z</time>
      </trkpt>
      <trkpt lat="47.53623" lon="6.77297">
        <ele>374.8</ele>
        <time>2014-10-28T15:02:27.000Z</time>
      </trkpt>
      <trkpt lat="47.53622" lon="6.77297">
        <ele>374.3</ele>
        <time>2014-10-28T15:02:28.000Z</time>
      </trkpt>
      <trkpt lat="47.53618" lon="6.77296">
        <ele>373.6</ele>
        <time>2014-10-28T15:02:30.000Z</time>
      </trkpt>
      <trkpt lat="47.53616" lon="6.77295">
        <ele>374.6</ele>
        <time>2014-10-28T15:02:31.000Z</time>
      </trkpt>
      <trkpt lat="47.53611" lon="6.77294">
        <ele>375.4</ele>
        <time>2014-10-28T15:02:33.000Z</time>
      </trkpt>
      <trkpt lat="47.53609" lon="6.77294">
        <ele>375.2</ele>
        <time>2014-10-28T15:02:34.000Z</time>
      </trkpt>
      <trkpt lat="47.53605" lon="6.77293">
        <ele>375.5</ele>
        <time>2014-10-28T15:02:36.000Z</time>
      </trkpt>
      <trkpt lat="47.53603" lon="6.77292">
        <ele>375.6</ele>
        <time>2014-10-28T15:02:37.000Z</time>
      </trkpt>
      <trkpt lat="47.53599" lon="6.77291">
        <ele>379.1</ele>
        <time>2014-10-28T15:02:39.000Z</time>
      </trkpt>
      <trkpt lat="47.53597" lon="6.7729">
        <ele>380</ele>
        <time>2014-10-28T15:02:40.000Z</time>
      </trkpt>
      <trkpt lat="47.53593" lon="6.77289">
        <ele>380.9</ele>
        <time>2014-10-28T15:02:42.000Z</time>
      </trkpt>
      <trkpt lat="47.53591" lon="6.77289">
        <ele>378.7</ele>
        <time>2014-10-28T15:02:43.000Z</time>
      </trkpt>
      <trkpt lat="47.53587" lon="6.77288">
        <ele>377.9</ele>
        <time>2014-10-28T15:02:45.000Z</time>
      </trkpt>
      <trkpt lat="47.53584" lon="6.77288">
        <ele>377.3</ele>
        <time>2014-10-28T15:02:46.000Z</time>
      </trkpt>
      <trkpt lat="47.53582" lon="6.77287">
        <ele>376.6</ele>
        <time>2014-10-28T15:02:47.000Z</time>
      </trkpt>
      <trkpt lat="47.5358" lon="6.77286">
        <ele>376</ele>
        <time>2014-10-28T15:02:48.000Z</time>
      </trkpt>
      <trkpt lat="47.53578" lon="6.77285">
        <ele>375.8</ele>
        <time>2014-10-28T15:02:49.000Z</time>
      </trkpt>
      <trkpt lat="47.53575" lon="6.77283">
        <ele>375.7</ele>
        <time>2014-10-28T15:02:50.000Z</time>
      </trkpt>
      <trkpt lat="47.53573" lon="6.77282">
        <ele>376</ele>
        <time>2014-10-28T15:02:51.000Z</time>
      </trkpt>
      <trkpt lat="47.53571" lon="6.77281">
        <ele>375.5</ele>
        <time>2014-10-28T15:02:52.000Z</time>
      </trkpt>
      <trkpt lat="47.53566" lon="6.7728">
        <ele>375.8</ele>
        <time>2014-10-28T15:02:54.000Z</time>
      </trkpt>
      <trkpt lat="47.53564" lon="6.7728">
        <ele>374.9</ele>
        <time>2014-10-28T15:02:55.000Z</time>
      </trkpt>
      <trkpt lat="47.53561" lon="6.77279">
        <ele>373.5</ele>
        <time>2014-10-28T15:02:57.000Z</time>
      </trkpt>
      <trkpt lat="47.53558" lon="6.77278">
        <ele>373.8</ele>
        <time>2014-10-28T15:02:58.000Z</time>
      </trkpt>
      <trkpt lat="47.53556" lon="6.77277">
        <ele>372.8</ele>
        <time>2014-10-28T15:02:59.000Z</time>
      </trkpt>
      <trkpt lat="47.53553" lon="6.77276">
        <ele>372.7</ele>
        <time>2014-10-28T15:03:00.000Z</time>
      </trkpt>
      <trkpt lat="47.53551" lon="6.77276">
        <ele>372.2</ele>
        <time>2014-10-28T15:03:01.000Z</time>
      </trkpt>
      <trkpt lat="47.53548" lon="6.77275">
        <ele>372.6</ele>
        <time>2014-10-28T15:03:02.000Z</time>
      </trkpt>
      <trkpt lat="47.53546" lon="6.77274">
        <ele>370.9</ele>
        <time>2014-10-28T15:03:03.000Z</time>
      </trkpt>
      <trkpt lat="47.53544" lon="6.77274">
        <ele>370.4</ele>
        <time>2014-10-28T15:03:04.000Z</time>
      </trkpt>
      <trkpt lat="47.5354" lon="6.77272">
        <ele>371.2</ele>
        <time>2014-10-28T15:03:06.000Z</time>
      </trkpt>
      <trkpt lat="47.53538" lon="6.77271">
        <ele>371.4</ele>
        <time>2014-10-28T15:03:07.000Z</time>
      </trkpt>
      <trkpt lat="47.53533" lon="6.7727">
        <ele>370.1</ele>
        <time>2014-10-28T15:03:09.000Z</time>
      </trkpt>
      <trkpt lat="47.53531" lon="6.77269">
        <ele>369.5</ele>
        <time>2014-10-28T15:03:10.000Z</time>
      </trkpt>
      <trkpt lat="47.53529" lon="6.77269">
        <ele>369.7</ele>
        <time>2014-10-28T15:03:11.000Z</time>
      </trkpt>
      <trkpt lat="47.53526" lon="6.77268">
        <ele>369.5</ele>
        <time>2014-10-28T15:03:12.000Z</time>
      </trkpt>
      <trkpt lat="47.53511" lon="6.77283">
        <ele>369.6</ele>
        <time>2014-10-28T15:03:13.000Z</time>
      </trkpt>
      <trkpt lat="47.53507" lon="6.77284">
        <ele>367.6</ele>
        <time>2014-10-28T15:03:15.000Z</time>
      </trkpt>
      <trkpt lat="47.53497" lon="6.77276">
        <ele>360.9</ele>
        <time>2014-10-28T15:03:23.000Z</time>
      </trkpt>
      <trkpt lat="47.53493" lon="6.77274">
        <ele>360.7</ele>
        <time>2014-10-28T15:03:25.000Z</time>
      </trkpt>
      <trkpt lat="47.53491" lon="6.77274">
        <ele>360.1</ele>
        <time>2014-10-28T15:03:26.000Z</time>
      </trkpt>
      <trkpt lat="47.53487" lon="6.77272">
        <ele>359.9</ele>
        <time>2014-10-28T15:03:28.000Z</time>
      </trkpt>
      <trkpt lat="47.53486" lon="6.7727">
        <ele>359.8</ele>
        <time>2014-10-28T15:03:29.000Z</time>
      </trkpt>
      <trkpt lat="47.53484" lon="6.77266">
        <ele>359.4</ele>
        <time>2014-10-28T15:03:30.000Z</time>
      </trkpt>
      <trkpt lat="47.53483" lon="6.77263">
        <ele>358.7</ele>
        <time>2014-10-28T15:03:31.000Z</time>
      </trkpt>
      <trkpt lat="47.5348" lon="6.77258">
        <ele>358.4</ele>
        <time>2014-10-28T15:03:33.000Z</time>
      </trkpt>
      <trkpt lat="47.53478" lon="6.77258">
        <ele>358.9</ele>
        <time>2014-10-28T15:03:34.000Z</time>
      </trkpt>
      <trkpt lat="47.53475" lon="6.77256">
        <ele>358.6</ele>
        <time>2014-10-28T15:03:36.000Z</time>
      </trkpt>
      <trkpt lat="47.53473" lon="6.77255">
        <ele>358.9</ele>
        <time>2014-10-28T15:03:37.000Z</time>
      </trkpt>
      <trkpt lat="47.5347" lon="6.77251">
        <ele>358.7</ele>
        <time>2014-10-28T15:03:39.000Z</time>
      </trkpt>
      <trkpt lat="47.53469" lon="6.7725">
        <ele>357.7</ele>
        <time>2014-10-28T15:03:40.000Z</time>
      </trkpt>
      <trkpt lat="47.53466" lon="6.77247">
        <ele>355.7</ele>
        <time>2014-10-28T15:03:42.000Z</time>
      </trkpt>
      <trkpt lat="47.53464" lon="6.77246">
        <ele>354.6</ele>
        <time>2014-10-28T15:03:43.000Z</time>
      </trkpt>
      <trkpt lat="47.53461" lon="6.77245">
        <ele>352.3</ele>
        <time>2014-10-28T15:03:45.000Z</time>
      </trkpt>
      <trkpt lat="47.53459" lon="6.77245">
        <ele>351.6</ele>
        <time>2014-10-28T15:03:46.000Z</time>
      </trkpt>
      <trkpt lat="47.53456" lon="6.77245">
        <ele>351.5</ele>
        <time>2014-10-28T15:03:47.000Z</time>
      </trkpt>
      <trkpt lat="47.53454" lon="6.77246">
        <ele>351.1</ele>
        <time>2014-10-28T15:03:48.000Z</time>
      </trkpt>
      <trkpt lat="47.5345" lon="6.77244">
        <ele>349.5</ele>
        <time>2014-10-28T15:03:50.000Z</time>
      </trkpt>
      <trkpt lat="47.53449" lon="6.77243">
        <ele>349.1</ele>
        <time>2014-10-28T15:03:51.000Z</time>
      </trkpt>
      <trkpt lat="47.53446" lon="6.7724">
        <ele>349.3</ele>
        <time>2014-10-28T15:03:53.000Z</time>
      </trkpt>
      <trkpt lat="47.53445" lon="6.77238">
        <ele>349.1</ele>
        <time>2014-10-28T15:03:54.000Z</time>
      </trkpt>
      <trkpt lat="47.53442" lon="6.77237">
        <ele>349.9</ele>
        <time>2014-10-28T15:03:56.000Z</time>
      </trkpt>
      <trkpt lat="47.5344" lon="6.77236">
        <ele>349.1</ele>
        <time>2014-10-28T15:03:57.000Z</time>
      </trkpt>
      <trkpt lat="47.53436" lon="6.77235">
        <ele>345.8</ele>
        <time>2014-10-28T15:03:59.000Z</time>
      </trkpt>
      <trkpt lat="47.53434" lon="6.77235">
        <ele>346.5</ele>
        <time>2014-10-28T15:04:00.000Z</time>
      </trkpt>
      <trkpt lat="47.53431" lon="6.77235">
        <ele>346.7</ele>
        <time>2014-10-28T15:04:01.000Z</time>
      </trkpt>
      <trkpt lat="47.53429" lon="6.77234">
        <ele>346.5</ele>
        <time>2014-10-28T15:04:02.000Z</time>
      </trkpt>
      <trkpt lat="47.53425" lon="6.77234">
        <ele>346.4</ele>
        <time>2014-10-28T15:04:04.000Z</time>
      </trkpt>
      <trkpt lat="47.53423" lon="6.77233">
        <ele>346.1</ele>
        <time>2014-10-28T15:04:05.000Z</time>
      </trkpt>
      <trkpt lat="47.53419" lon="6.77232">
        <ele>346.1</ele>
        <time>2014-10-28T15:04:07.000Z</time>
      </trkpt>
      <trkpt lat="47.53417" lon="6.77231">
        <ele>342.9</ele>
        <time>2014-10-28T15:04:08.000Z</time>
      </trkpt>
      <trkpt lat="47.53414" lon="6.77229">
        <ele>341.5</ele>
        <time>2014-10-28T15:04:11.000Z</time>
      </trkpt>
      <trkpt lat="47.53413" lon="6.77228">
        <ele>341.2</ele>
        <time>2014-10-28T15:04:12.000Z</time>
      </trkpt>
      <trkpt lat="47.5341" lon="6.77223">
        <ele>340.2</ele>
        <time>2014-10-28T15:04:14.000Z</time>
      </trkpt>
      <trkpt lat="47.53405" lon="6.77219">
        <ele>337.9</ele>
        <time>2014-10-28T15:04:17.000Z</time>
      </trkpt>
      <trkpt lat="47.53403" lon="6.77217">
        <ele>338</ele>
        <time>2014-10-28T15:04:18.000Z</time>
      </trkpt>
      <trkpt lat="47.534" lon="6.77216">
        <ele>337.9</ele>
        <time>2014-10-28T15:04:19.000Z</time>
      </trkpt>
      <trkpt lat="47.53397" lon="6.77215">
        <ele>337.5</ele>
        <time>2014-10-28T15:04:20.000Z</time>
      </trkpt>
      <trkpt lat="47.53385" lon="6.77232">
        <ele>336.6</ele>
        <time>2014-10-28T15:04:21.000Z</time>
      </trkpt>
      <trkpt lat="47.53382" lon="6.77231">
        <ele>336</ele>
        <time>2014-10-28T15:04:22.000Z</time>
      </trkpt>
      <trkpt lat="47.5338" lon="6.77231">
        <ele>335.8</ele>
        <time>2014-10-28T15:04:23.000Z</time>
      </trkpt>
      <trkpt lat="47.53377" lon="6.77233">
        <ele>335.5</ele>
        <time>2014-10-28T15:04:28.000Z</time>
      </trkpt>
      <trkpt lat="47.53376" lon="6.77236">
        <ele>335.7</ele>
        <time>2014-10-28T15:04:29.000Z</time>
      </trkpt>
      <trkpt lat="47.53373" lon="6.7724">
        <ele>336.3</ele>
        <time>2014-10-28T15:04:31.000Z</time>
      </trkpt>
      <trkpt lat="47.53371" lon="6.77242">
        <ele>337.1</ele>
        <time>2014-10-28T15:04:32.000Z</time>
      </trkpt>
      <trkpt lat="47.53368" lon="6.77244">
        <ele>338.2</ele>
        <time>2014-10-28T15:04:34.000Z</time>
      </trkpt>
      <trkpt lat="47.53367" lon="6.77245">
        <ele>338.9</ele>
        <time>2014-10-28T15:04:35.000Z</time>
      </trkpt>
      <trkpt lat="47.53364" lon="6.77248">
        <ele>340.8</ele>
        <time>2014-10-28T15:04:37.000Z</time>
      </trkpt>
      <trkpt lat="47.53362" lon="6.7725">
        <ele>340.8</ele>
        <time>2014-10-28T15:04:38.000Z</time>
      </trkpt>
      <trkpt lat="47.53359" lon="6.77254">
        <ele>341.4</ele>
        <time>2014-10-28T15:04:40.000Z</time>
      </trkpt>
      <trkpt lat="47.53358" lon="6.77255">
        <ele>341.4</ele>
        <time>2014-10-28T15:04:41.000Z</time>
      </trkpt>
      <trkpt lat="47.53356" lon="6.7726">
        <ele>342.8</ele>
        <time>2014-10-28T15:04:44.000Z</time>
      </trkpt>
      <trkpt lat="47.53356" lon="6.77262">
        <ele>343.2</ele>
        <time>2014-10-28T15:04:45.000Z</time>
      </trkpt>
      <trkpt lat="47.53355" lon="6.77267">
        <ele>345.2</ele>
        <time>2014-10-28T15:04:47.000Z</time>
      </trkpt>
      <trkpt lat="47.53355" lon="6.77269">
        <ele>346.1</ele>
        <time>2014-10-28T15:04:48.000Z</time>
      </trkpt>
      <trkpt lat="47.53354" lon="6.77273">
        <ele>345.8</ele>
        <time>2014-10-28T15:04:50.000Z</time>
      </trkpt>
      <trkpt lat="47.53353" lon="6.77275">
        <ele>346.1</ele>
        <time>2014-10-28T15:04:51.000Z</time>
      </trkpt>
      <trkpt lat="47.53351" lon="6.77281">
        <ele>347.5</ele>
        <time>2014-10-28T15:04:54.000Z</time>
      </trkpt>
      <trkpt lat="47.5335" lon="6.77282">
        <ele>347.4</ele>
        <time>2014-10-28T15:04:55.000Z</time>
      </trkpt>
      <trkpt lat="47.53348" lon="6.77288">
        <ele>348.3</ele>
        <time>2014-10-28T15:04:58.000Z</time>
      </trkpt>
      <trkpt lat="47.53347" lon="6.7729">
        <ele>348.4</ele>
        <time>2014-10-28T15:04:59.000Z</time>
      </trkpt>
      <trkpt lat="47.53345" lon="6.77295">
        <ele>351.6</ele>
        <time>2014-10-28T15:05:02.000Z</time>
      </trkpt>
      <trkpt lat="47.53344" lon="6.77297">
        <ele>352.7</ele>
        <time>2014-10-28T15:05:03.000Z</time>
      </trkpt>
      <trkpt lat="47.53343" lon="6.77301">
        <ele>352.4</ele>
        <time>2014-10-28T15:05:05.000Z</time>
      </trkpt>
      <trkpt lat="47.53343" lon="6.77303">
        <ele>351.9</ele>
        <time>2014-10-28T15:05:06.000Z</time>
      </trkpt>
      <trkpt lat="47.53343" lon="6.77309">
        <ele>351</ele>
        <time>2014-10-28T15:05:09.000Z</time>
      </trkpt>
      <trkpt lat="47.53342" lon="6.7731">
        <ele>350.5</ele>
        <time>2014-10-28T15:05:10.000Z</time>
      </trkpt>
      <trkpt lat="47.53338" lon="6.77314">
        <ele>343</ele>
        <time>2014-10-28T15:05:13.000Z</time>
      </trkpt>
      <trkpt lat="47.53337" lon="6.77315">
        <ele>343.7</ele>
        <time>2014-10-28T15:05:14.000Z</time>
      </trkpt>
      <trkpt lat="47.53327" lon="6.77322">
        <ele>343.4</ele>
        <time>2014-10-28T15:05:22.000Z</time>
      </trkpt>
      <trkpt lat="47.53324" lon="6.77325">
        <ele>342.5</ele>
        <time>2014-10-28T15:05:24.000Z</time>
      </trkpt>
      <trkpt lat="47.53323" lon="6.77326">
        <ele>342.9</ele>
        <time>2014-10-28T15:05:25.000Z</time>
      </trkpt>
      <trkpt lat="47.5332" lon="6.77329">
        <ele>342.3</ele>
        <time>2014-10-28T15:05:27.000Z</time>
      </trkpt>
      <trkpt lat="47.53319" lon="6.77331">
        <ele>341.6</ele>
        <time>2014-10-28T15:05:28.000Z</time>
      </trkpt>
      <trkpt lat="47.53315" lon="6.77335">
        <ele>341.4</ele>
        <time>2014-10-28T15:05:30.000Z</time>
      </trkpt>
      <trkpt lat="47.53314" lon="6.77336">
        <ele>341.3</ele>
        <time>2014-10-28T15:05:31.000Z</time>
      </trkpt>
      <trkpt lat="47.53311" lon="6.77338">
        <ele>344.1</ele>
        <time>2014-10-28T15:05:38.000Z</time>
      </trkpt>
      <trkpt lat="47.5331" lon="6.77339">
        <ele>343.9</ele>
        <time>2014-10-28T15:05:39.000Z</time>
      </trkpt>
      <trkpt lat="47.53307" lon="6.77342">
        <ele>342.6</ele>
        <time>2014-10-28T15:05:42.000Z</time>
      </trkpt>
      <trkpt lat="47.53305" lon="6.77344">
        <ele>342.9</ele>
        <time>2014-10-28T15:05:43.000Z</time>
      </trkpt>
      <trkpt lat="47.53303" lon="6.77347">
        <ele>343.3</ele>
        <time>2014-10-28T15:05:45.000Z</time>
      </trkpt>
      <trkpt lat="47.53302" lon="6.77349">
        <ele>343.1</ele>
        <time>2014-10-28T15:05:46.000Z</time>
      </trkpt>
      <trkpt lat="47.533" lon="6.77352">
        <ele>346.6</ele>
        <time>2014-10-28T15:05:48.000Z</time>
      </trkpt>
      <trkpt lat="47.53299" lon="6.77354">
        <ele>348.5</ele>
        <time>2014-10-28T15:05:49.000Z</time>
      </trkpt>
      <trkpt lat="47.53298" lon="6.77359">
        <ele>350.2</ele>
        <time>2014-10-28T15:05:51.000Z</time>
      </trkpt>
      <trkpt lat="47.53297" lon="6.7736">
        <ele>351.6</ele>
        <time>2014-10-28T15:05:52.000Z</time>
      </trkpt>
      <trkpt lat="47.53294" lon="6.77364">
        <ele>351.3</ele>
        <time>2014-10-28T15:05:55.000Z</time>
      </trkpt>
      <trkpt lat="47.53294" lon="6.77366">
        <ele>352.4</ele>
        <time>2014-10-28T15:05:56.000Z</time>
      </trkpt>
      <trkpt lat="47.53292" lon="6.77371">
        <ele>355.3</ele>
        <time>2014-10-28T15:05:58.000Z</time>
      </trkpt>
      <trkpt lat="47.53291" lon="6.77373">
        <ele>356.6</ele>
        <time>2014-10-28T15:05:59.000Z</time>
      </trkpt>
      <trkpt lat="47.53289" lon="6.77378">
        <ele>356.8</ele>
        <time>2014-10-28T15:06:02.000Z</time>
      </trkpt>
      <trkpt lat="47.53288" lon="6.7738">
        <ele>356.9</ele>
        <time>2014-10-28T15:06:03.000Z</time>
      </trkpt>
      <trkpt lat="47.53285" lon="6.77384">
        <ele>356.9</ele>
        <time>2014-10-28T15:06:05.000Z</time>
      </trkpt>
      <trkpt lat="47.53284" lon="6.77385">
        <ele>356.9</ele>
        <time>2014-10-28T15:06:06.000Z</time>
      </trkpt>
      <trkpt lat="47.53281" lon="6.77387">
        <ele>357.3</ele>
        <time>2014-10-28T15:06:10.000Z</time>
      </trkpt>
      <trkpt lat="47.5328" lon="6.77388">
        <ele>357.1</ele>
        <time>2014-10-28T15:06:11.000Z</time>
      </trkpt>
      <trkpt lat="47.53277" lon="6.77391">
        <ele>357.8</ele>
        <time>2014-10-28T15:06:13.000Z</time>
      </trkpt>
      <trkpt lat="47.53276" lon="6.77392">
        <ele>357.7</ele>
        <time>2014-10-28T15:06:14.000Z</time>
      </trkpt>
      <trkpt lat="47.53272" lon="6.77394">
        <ele>357.8</ele>
        <time>2014-10-28T15:06:17.000Z</time>
      </trkpt>
      <trkpt lat="47.5327" lon="6.77395">
        <ele>357.9</ele>
        <time>2014-10-28T15:06:18.000Z</time>
      </trkpt>
      <trkpt lat="47.53268" lon="6.77396">
        <ele>358.6</ele>
        <time>2014-10-28T15:06:19.000Z</time>
      </trkpt>
      <trkpt lat="47.53266" lon="6.77397">
        <ele>357.4</ele>
        <time>2014-10-28T15:06:20.000Z</time>
      </trkpt>
      <trkpt lat="47.53263" lon="6.77399">
        <ele>356.6</ele>
        <time>2014-10-28T15:06:21.000Z</time>
      </trkpt>
      <trkpt lat="47.53261" lon="6.77402">
        <ele>354.9</ele>
        <time>2014-10-28T15:06:22.000Z</time>
      </trkpt>
      <trkpt lat="47.53258" lon="6.77405">
        <ele>354.5</ele>
        <time>2014-10-28T15:06:23.000Z</time>
      </trkpt>
      <trkpt lat="47.53256" lon="6.77409">
        <ele>356.9</ele>
        <time>2014-10-28T15:06:24.000Z</time>
      </trkpt>
      <trkpt lat="47.53254" lon="6.77411">
        <ele>358.4</ele>
        <time>2014-10-28T15:06:25.000Z</time>
      </trkpt>
      <trkpt lat="47.53253" lon="6.77414">
        <ele>358.6</ele>
        <time>2014-10-28T15:06:26.000Z</time>
      </trkpt>
      <trkpt lat="47.5325" lon="6.77419">
        <ele>360.6</ele>
        <time>2014-10-28T15:06:28.000Z</time>
      </trkpt>
      <trkpt lat="47.53249" lon="6.77421">
        <ele>361.1</ele>
        <time>2014-10-28T15:06:29.000Z</time>
      </trkpt>
      <trkpt lat="47.53247" lon="6.77425">
        <ele>361.1</ele>
        <time>2014-10-28T15:06:31.000Z</time>
      </trkpt>
      <trkpt lat="47.53245" lon="6.77427">
        <ele>361.8</ele>
        <time>2014-10-28T15:06:32.000Z</time>
      </trkpt>
      <trkpt lat="47.53244" lon="6.77432">
        <ele>363</ele>
        <time>2014-10-28T15:06:34.000Z</time>
      </trkpt>
      <trkpt lat="47.53243" lon="6.77435">
        <ele>363.5</ele>
        <time>2014-10-28T15:06:35.000Z</time>
      </trkpt>
      <trkpt lat="47.53242" lon="6.77441">
        <ele>363.5</ele>
        <time>2014-10-28T15:06:37.000Z</time>
      </trkpt>
      <trkpt lat="47.53241" lon="6.77444">
        <ele>363.8</ele>
        <time>2014-10-28T15:06:38.000Z</time>
      </trkpt>
      <trkpt lat="47.53239" lon="6.77449">
        <ele>358.7</ele>
        <time>2014-10-28T15:06:40.000Z</time>
      </trkpt>
      <trkpt lat="47.53238" lon="6.77451">
        <ele>357.7</ele>
        <time>2014-10-28T15:06:41.000Z</time>
      </trkpt>
      <trkpt lat="47.53237" lon="6.77456">
        <ele>357.1</ele>
        <time>2014-10-28T15:06:43.000Z</time>
      </trkpt>
      <trkpt lat="47.53235" lon="6.77458">
        <ele>361.7</ele>
        <time>2014-10-28T15:06:44.000Z</time>
      </trkpt>
      <trkpt lat="47.53232" lon="6.77462">
        <ele>364.4</ele>
        <time>2014-10-28T15:06:46.000Z</time>
      </trkpt>
      <trkpt lat="47.5323" lon="6.77464">
        <ele>363.2</ele>
        <time>2014-10-28T15:06:47.000Z</time>
      </trkpt>
      <trkpt lat="47.53229" lon="6.77469">
        <ele>365.4</ele>
        <time>2014-10-28T15:06:49.000Z</time>
      </trkpt>
      <trkpt lat="47.53228" lon="6.77471">
        <ele>365.3</ele>
        <time>2014-10-28T15:06:50.000Z</time>
      </trkpt>
      <trkpt lat="47.53227" lon="6.77476">
        <ele>369.3</ele>
        <time>2014-10-28T15:06:52.000Z</time>
      </trkpt>
      <trkpt lat="47.53226" lon="6.77479">
        <ele>370.8</ele>
        <time>2014-10-28T15:06:53.000Z</time>
      </trkpt>
      <trkpt lat="47.53225" lon="6.77483">
        <ele>372.8</ele>
        <time>2014-10-28T15:06:55.000Z</time>
      </trkpt>
      <trkpt lat="47.53224" lon="6.77486">
        <ele>373.9</ele>
        <time>2014-10-28T15:06:56.000Z</time>
      </trkpt>
      <trkpt lat="47.53223" lon="6.7749">
        <ele>374.3</ele>
        <time>2014-10-28T15:06:58.000Z</time>
      </trkpt>
      <trkpt lat="47.53223" lon="6.77492">
        <ele>377.1</ele>
        <time>2014-10-28T15:06:59.000Z</time>
      </trkpt>
      <trkpt lat="47.53221" lon="6.77496">
        <ele>374.4</ele>
        <time>2014-10-28T15:07:01.000Z</time>
      </trkpt>
      <trkpt lat="47.5322" lon="6.77498">
        <ele>374.6</ele>
        <time>2014-10-28T15:07:02.000Z</time>
      </trkpt>
      <trkpt lat="47.53217" lon="6.77503">
        <ele>378.2</ele>
        <time>2014-10-28T15:07:05.000Z</time>
      </trkpt>
      <trkpt lat="47.53216" lon="6.77506">
        <ele>382.2</ele>
        <time>2014-10-28T15:07:06.000Z</time>
      </trkpt>
      <trkpt lat="47.53215" lon="6.7751">
        <ele>384.3</ele>
        <time>2014-10-28T15:07:07.000Z</time>
      </trkpt>
      <trkpt lat="47.53214" lon="6.77514">
        <ele>386</ele>
        <time>2014-10-28T15:07:08.000Z</time>
      </trkpt>
      <trkpt lat="47.53212" lon="6.77518">
        <ele>388.7</ele>
        <time>2014-10-28T15:07:09.000Z</time>
      </trkpt>
      <trkpt lat="47.53211" lon="6.77521">
        <ele>387.4</ele>
        <time>2014-10-28T15:07:10.000Z</time>
      </trkpt>
      <trkpt lat="47.53209" lon="6.77524">
        <ele>387.1</ele>
        <time>2014-10-28T15:07:12.000Z</time>
      </trkpt>
      <trkpt lat="47.53207" lon="6.77524">
        <ele>386.4</ele>
        <time>2014-10-28T15:07:13.000Z</time>
      </trkpt>
      <trkpt lat="47.53205" lon="6.77526">
        <ele>386.4</ele>
        <time>2014-10-28T15:07:14.000Z</time>
      </trkpt>
      <trkpt lat="47.53193" lon="6.77536">
        <ele>379.7</ele>
        <time>2014-10-28T15:07:22.000Z</time>
      </trkpt>
      <trkpt lat="47.5319" lon="6.77538">
        <ele>379.4</ele>
        <time>2014-10-28T15:07:25.000Z</time>
      </trkpt>
      <trkpt lat="47.53189" lon="6.77539">
        <ele>380</ele>
        <time>2014-10-28T15:07:26.000Z</time>
      </trkpt>
      <trkpt lat="47.53184" lon="6.77541">
        <ele>379.8</ele>
        <time>2014-10-28T15:07:28.000Z</time>
      </trkpt>
      <trkpt lat="47.53182" lon="6.77542">
        <ele>379.3</ele>
        <time>2014-10-28T15:07:29.000Z</time>
      </trkpt>
      <trkpt lat="47.5318" lon="6.77544">
        <ele>379.6</ele>
        <time>2014-10-28T15:07:30.000Z</time>
      </trkpt>
      <trkpt lat="47.53178" lon="6.77545">
        <ele>379.6</ele>
        <time>2014-10-28T15:07:31.000Z</time>
      </trkpt>
      <trkpt lat="47.53174" lon="6.77548">
        <ele>381.1</ele>
        <time>2014-10-28T15:07:32.998Z</time>
      </trkpt>
      <trkpt lat="47.53172" lon="6.7755">
        <ele>380.9</ele>
        <time>2014-10-28T15:07:34.000Z</time>
      </trkpt>
      <trkpt lat="47.5317" lon="6.77554">
        <ele>380.7</ele>
        <time>2014-10-28T15:07:37.000Z</time>
      </trkpt>
      <trkpt lat="47.53169" lon="6.77555">
        <ele>380.6</ele>
        <time>2014-10-28T15:07:38.000Z</time>
      </trkpt>
      <trkpt lat="47.53168" lon="6.77556">
        <ele>380.3</ele>
        <time>2014-10-28T15:07:39.000Z</time>
      </trkpt>
      <trkpt lat="47.53152" lon="6.77579">
        <ele>385.6</ele>
        <time>2014-10-28T15:07:40.000Z</time>
      </trkpt>
      <trkpt lat="47.53148" lon="6.77584">
        <ele>386.2</ele>
        <time>2014-10-28T15:07:41.000Z</time>
      </trkpt>
      <trkpt lat="47.53143" lon="6.7759">
        <ele>386.1</ele>
        <time>2014-10-28T15:07:42.000Z</time>
      </trkpt>
      <trkpt lat="47.53141" lon="6.77595">
        <ele>386.1</ele>
        <time>2014-10-28T15:07:43.000Z</time>
      </trkpt>
      <trkpt lat="47.5314" lon="6.77598">
        <ele>386.2</ele>
        <time>2014-10-28T15:07:44.000Z</time>
      </trkpt>
      <trkpt lat="47.53142" lon="6.77591">
        <ele>387.2</ele>
        <time>2014-10-28T15:07:45.000Z</time>
      </trkpt>
      <trkpt lat="47.5314" lon="6.77597">
        <ele>388.5</ele>
        <time>2014-10-28T15:07:52.000Z</time>
      </trkpt>
      <trkpt lat="47.53139" lon="6.77598">
        <ele>388.6</ele>
        <time>2014-10-28T15:07:53.000Z</time>
      </trkpt>
      <trkpt lat="47.53135" lon="6.77602">
        <ele>388.9</ele>
        <time>2014-10-28T15:07:56.000Z</time>
      </trkpt>
      <trkpt lat="47.53134" lon="6.77603">
        <ele>388</ele>
        <time>2014-10-28T15:07:57.000Z</time>
      </trkpt>
      <trkpt lat="47.5313" lon="6.77604">
        <ele>388.5</ele>
        <time>2014-10-28T15:07:59.000Z</time>
      </trkpt>
      <trkpt lat="47.53128" lon="6.77604">
        <ele>388.4</ele>
        <time>2014-10-28T15:08:00.000Z</time>
      </trkpt>
      <trkpt lat="47.53125" lon="6.77605">
        <ele>388.1</ele>
        <time>2014-10-28T15:08:01.985Z</time>
      </trkpt>
      <trkpt lat="47.53123" lon="6.77605">
        <ele>389.3</ele>
        <time>2014-10-28T15:08:03.000Z</time>
      </trkpt>
      <trkpt lat="47.53121" lon="6.77608">
        <ele>390.5</ele>
        <time>2014-10-28T15:08:05.000Z</time>
      </trkpt>
      <trkpt lat="47.53119" lon="6.77609">
        <ele>390.3</ele>
        <time>2014-10-28T15:08:06.000Z</time>
      </trkpt>
      <trkpt lat="47.53115" lon="6.7761">
        <ele>389.6</ele>
        <time>2014-10-28T15:08:09.000Z</time>
      </trkpt>
      <trkpt lat="47.53113" lon="6.77609">
        <ele>388.9</ele>
        <time>2014-10-28T15:08:10.000Z</time>
      </trkpt>
      <trkpt lat="47.53109" lon="6.77608">
        <ele>389</ele>
        <time>2014-10-28T15:08:12.000Z</time>
      </trkpt>
      <trkpt lat="47.53107" lon="6.77607">
        <ele>389.3</ele>
        <time>2014-10-28T15:08:13.000Z</time>
      </trkpt>
      <trkpt lat="47.53105" lon="6.77607">
        <ele>389.3</ele>
        <time>2014-10-28T15:08:14.000Z</time>
      </trkpt>
      <trkpt lat="47.531" lon="6.77607">
        <ele>388.7</ele>
        <time>2014-10-28T15:08:17.000Z</time>
      </trkpt>
      <trkpt lat="47.53098" lon="6.77607">
        <ele>387.6</ele>
        <time>2014-10-28T15:08:18.000Z</time>
      </trkpt>
      <trkpt lat="47.53095" lon="6.77606">
        <ele>386.8</ele>
        <time>2014-10-28T15:08:19.000Z</time>
      </trkpt>
      <trkpt lat="47.53092" lon="6.77606">
        <ele>386.1</ele>
        <time>2014-10-28T15:08:20.000Z</time>
      </trkpt>
      <trkpt lat="47.53089" lon="6.77606">
        <ele>385.4</ele>
        <time>2014-10-28T15:08:21.000Z</time>
      </trkpt>
      <trkpt lat="47.53086" lon="6.77605">
        <ele>384.6</ele>
        <time>2014-10-28T15:08:22.000Z</time>
      </trkpt>
      <trkpt lat="47.53084" lon="6.77605">
        <ele>384.1</ele>
        <time>2014-10-28T15:08:23.000Z</time>
      </trkpt>
      <trkpt lat="47.53082" lon="6.77604">
        <ele>384.7</ele>
        <time>2014-10-28T15:08:24.000Z</time>
      </trkpt>
      <trkpt lat="47.53079" lon="6.77604">
        <ele>385.3</ele>
        <time>2014-10-28T15:08:25.000Z</time>
      </trkpt>
      <trkpt lat="47.53076" lon="6.77604">
        <ele>385.9</ele>
        <time>2014-10-28T15:08:26.000Z</time>
      </trkpt>
      <trkpt lat="47.53073" lon="6.77605">
        <ele>386.1</ele>
        <time>2014-10-28T15:08:27.000Z</time>
      </trkpt>
      <trkpt lat="47.5307" lon="6.77605">
        <ele>386.2</ele>
        <time>2014-10-28T15:08:28.000Z</time>
      </trkpt>
      <trkpt lat="47.53068" lon="6.77605">
        <ele>386.4</ele>
        <time>2014-10-28T15:08:29.000Z</time>
      </trkpt>
      <trkpt lat="47.53064" lon="6.77605">
        <ele>389.6</ele>
        <time>2014-10-28T15:08:31.000Z</time>
      </trkpt>
      <trkpt lat="47.53062" lon="6.77605">
        <ele>389.5</ele>
        <time>2014-10-28T15:08:32.000Z</time>
      </trkpt>
      <trkpt lat="47.53059" lon="6.77606">
        <ele>390.2</ele>
        <time>2014-10-28T15:08:33.000Z</time>
      </trkpt>
      <trkpt lat="47.53056" lon="6.77607">
        <ele>389.8</ele>
        <time>2014-10-28T15:08:34.000Z</time>
      </trkpt>
      <trkpt lat="47.53053" lon="6.77607">
        <ele>389.3</ele>
        <time>2014-10-28T15:08:35.000Z</time>
      </trkpt>
      <trkpt lat="47.53051" lon="6.77607">
        <ele>388.8</ele>
        <time>2014-10-28T15:08:36.000Z</time>
      </trkpt>
      <trkpt lat="47.53046" lon="6.77607">
        <ele>389.5</ele>
        <time>2014-10-28T15:08:38.000Z</time>
      </trkpt>
      <trkpt lat="47.53044" lon="6.77608">
        <ele>389.3</ele>
        <time>2014-10-28T15:08:39.000Z</time>
      </trkpt>
      <trkpt lat="47.5304" lon="6.77608">
        <ele>389.5</ele>
        <time>2014-10-28T15:08:40.000Z</time>
      </trkpt>
      <trkpt lat="47.53037" lon="6.77609">
        <ele>389.3</ele>
        <time>2014-10-28T15:08:41.000Z</time>
      </trkpt>
      <trkpt lat="47.53034" lon="6.77609">
        <ele>389.8</ele>
        <time>2014-10-28T15:08:42.000Z</time>
      </trkpt>
      <trkpt lat="47.53031" lon="6.77608">
        <ele>389.6</ele>
        <time>2014-10-28T15:08:43.000Z</time>
      </trkpt>
      <trkpt lat="47.53027" lon="6.77607">
        <ele>390</ele>
        <time>2014-10-28T15:08:45.000Z</time>
      </trkpt>
      <trkpt lat="47.53025" lon="6.77606">
        <ele>390.5</ele>
        <time>2014-10-28T15:08:46.000Z</time>
      </trkpt>
      <trkpt lat="47.53021" lon="6.77605">
        <ele>388.6</ele>
        <time>2014-10-28T15:08:48.000Z</time>
      </trkpt>
      <trkpt lat="47.53019" lon="6.77604">
        <ele>388.4</ele>
        <time>2014-10-28T15:08:49.000Z</time>
      </trkpt>
      <trkpt lat="47.53015" lon="6.77603">
        <ele>388.2</ele>
        <time>2014-10-28T15:08:51.000Z</time>
      </trkpt>
      <trkpt lat="47.53013" lon="6.77602">
        <ele>387.9</ele>
        <time>2014-10-28T15:08:52.000Z</time>
      </trkpt>
      <trkpt lat="47.5301" lon="6.776">
        <ele>387.3</ele>
        <time>2014-10-28T15:08:54.000Z</time>
      </trkpt>
      <trkpt lat="47.53009" lon="6.77599">
        <ele>387.2</ele>
        <time>2014-10-28T15:08:55.000Z</time>
      </trkpt>
      <trkpt lat="47.53005" lon="6.77597">
        <ele>388.4</ele>
        <time>2014-10-28T15:08:57.000Z</time>
      </trkpt>
      <trkpt lat="47.53003" lon="6.77596">
        <ele>388.6</ele>
        <time>2014-10-28T15:08:58.000Z</time>
      </trkpt>
      <trkpt lat="47.52999" lon="6.77595">
        <ele>390.8</ele>
        <time>2014-10-28T15:09:00.000Z</time>
      </trkpt>
      <trkpt lat="47.52997" lon="6.77594">
        <ele>390.4</ele>
        <time>2014-10-28T15:09:01.000Z</time>
      </trkpt>
      <trkpt lat="47.52995" lon="6.77593">
        <ele>390.3</ele>
        <time>2014-10-28T15:09:02.000Z</time>
      </trkpt>
      <trkpt lat="47.52993" lon="6.77592">
        <ele>388</ele>
        <time>2014-10-28T15:09:03.000Z</time>
      </trkpt>
      <trkpt lat="47.5299" lon="6.77591">
        <ele>387.7</ele>
        <time>2014-10-28T15:09:04.000Z</time>
      </trkpt>
      <trkpt lat="47.52988" lon="6.7759">
        <ele>387.4</ele>
        <time>2014-10-28T15:09:05.000Z</time>
      </trkpt>
      <trkpt lat="47.52985" lon="6.77588">
        <ele>387.3</ele>
        <time>2014-10-28T15:09:06.000Z</time>
      </trkpt>
      <trkpt lat="47.52983" lon="6.77587">
        <ele>387.2</ele>
        <time>2014-10-28T15:09:07.000Z</time>
      </trkpt>
      <trkpt lat="47.52979" lon="6.77585">
        <ele>387.8</ele>
        <time>2014-10-28T15:09:09.000Z</time>
      </trkpt>
      <trkpt lat="47.52977" lon="6.77583">
        <ele>388.5</ele>
        <time>2014-10-28T15:09:10.000Z</time>
      </trkpt>
      <trkpt lat="47.52973" lon="6.77582">
        <ele>388.4</ele>
        <time>2014-10-28T15:09:12.000Z</time>
      </trkpt>
      <trkpt lat="47.52971" lon="6.77582">
        <ele>388.5</ele>
        <time>2014-10-28T15:09:13.000Z</time>
      </trkpt>
      <trkpt lat="47.52969" lon="6.77582">
        <ele>388.3</ele>
        <time>2014-10-28T15:09:14.000Z</time>
      </trkpt>
      <trkpt lat="47.52955" lon="6.77577">
        <ele>391.2</ele>
        <time>2014-10-28T15:09:22.000Z</time>
      </trkpt>
      <trkpt lat="47.52952" lon="6.77575">
        <ele>391.3</ele>
        <time>2014-10-28T15:09:24.000Z</time>
      </trkpt>
      <trkpt lat="47.5295" lon="6.77573">
        <ele>390.6</ele>
        <time>2014-10-28T15:09:25.000Z</time>
      </trkpt>
      <trkpt lat="47.52948" lon="6.77571">
        <ele>390.9</ele>
        <time>2014-10-28T15:09:26.000Z</time>
      </trkpt>
      <trkpt lat="47.52946" lon="6.77569">
        <ele>390.4</ele>
        <time>2014-10-28T15:09:27.000Z</time>
      </trkpt>
      <trkpt lat="47.52944" lon="6.77568">
        <ele>390.7</ele>
        <time>2014-10-28T15:09:28.000Z</time>
      </trkpt>
      <trkpt lat="47.52941" lon="6.77566">
        <ele>391.7</ele>
        <time>2014-10-28T15:09:29.000Z</time>
      </trkpt>
      <trkpt lat="47.52939" lon="6.77565">
        <ele>391.4</ele>
        <time>2014-10-28T15:09:30.000Z</time>
      </trkpt>
      <trkpt lat="47.52937" lon="6.77563">
        <ele>392.8</ele>
        <time>2014-10-28T15:09:31.000Z</time>
      </trkpt>
      <trkpt lat="47.52934" lon="6.77562">
        <ele>389.7</ele>
        <time>2014-10-28T15:09:32.000Z</time>
      </trkpt>
      <trkpt lat="47.52932" lon="6.77561">
        <ele>387.9</ele>
        <time>2014-10-28T15:09:33.000Z</time>
      </trkpt>
      <trkpt lat="47.52929" lon="6.77561">
        <ele>386.3</ele>
        <time>2014-10-28T15:09:34.000Z</time>
      </trkpt>
      <trkpt lat="47.52926" lon="6.7756">
        <ele>386.3</ele>
        <time>2014-10-28T15:09:35.000Z</time>
      </trkpt>
      <trkpt lat="47.52923" lon="6.7756">
        <ele>386.2</ele>
        <time>2014-10-28T15:09:36.000Z</time>
      </trkpt>
      <trkpt lat="47.52921" lon="6.7756">
        <ele>386.2</ele>
        <time>2014-10-28T15:09:37.000Z</time>
      </trkpt>
      <trkpt lat="47.52916" lon="6.77559">
        <ele>385.8</ele>
        <time>2014-10-28T15:09:39.000Z</time>
      </trkpt>
      <trkpt lat="47.52914" lon="6.77559">
        <ele>385.8</ele>
        <time>2014-10-28T15:09:40.000Z</time>
      </trkpt>
      <trkpt lat="47.5291" lon="6.77561">
        <ele>385.5</ele>
        <time>2014-10-28T15:09:42.000Z</time>
      </trkpt>
      <trkpt lat="47.52909" lon="6.77562">
        <ele>385.8</ele>
        <time>2014-10-28T15:09:43.000Z</time>
      </trkpt>
      <trkpt lat="47.52905" lon="6.77565">
        <ele>386.6</ele>
        <time>2014-10-28T15:09:45.000Z</time>
      </trkpt>
      <trkpt lat="47.52902" lon="6.77565">
        <ele>386</ele>
        <time>2014-10-28T15:09:46.000Z</time>
      </trkpt>
      <trkpt lat="47.529" lon="6.77565">
        <ele>385.4</ele>
        <time>2014-10-28T15:09:47.000Z</time>
      </trkpt>
      <trkpt lat="47.52898" lon="6.77564">
        <ele>385.4</ele>
        <time>2014-10-28T15:09:48.000Z</time>
      </trkpt>
      <trkpt lat="47.52895" lon="6.77565">
        <ele>387.1</ele>
        <time>2014-10-28T15:09:49.000Z</time>
      </trkpt>
      <trkpt lat="47.52893" lon="6.77565">
        <ele>387.3</ele>
        <time>2014-10-28T15:09:50.000Z</time>
      </trkpt>
      <trkpt lat="47.52888" lon="6.77565">
        <ele>388.7</ele>
        <time>2014-10-28T15:09:52.000Z</time>
      </trkpt>
      <trkpt lat="47.52887" lon="6.77565">
        <ele>389</ele>
        <time>2014-10-28T15:09:53.000Z</time>
      </trkpt>
      <trkpt lat="47.52884" lon="6.77564">
        <ele>387</ele>
        <time>2014-10-28T15:09:55.000Z</time>
      </trkpt>
      <trkpt lat="47.52882" lon="6.77564">
        <ele>386.9</ele>
        <time>2014-10-28T15:09:56.000Z</time>
      </trkpt>
      <trkpt lat="47.5288" lon="6.77564">
        <ele>388.1</ele>
        <time>2014-10-28T15:09:57.000Z</time>
      </trkpt>
      <trkpt lat="47.52877" lon="6.77564">
        <ele>388.3</ele>
        <time>2014-10-28T15:09:58.000Z</time>
      </trkpt>
      <trkpt lat="47.52875" lon="6.77565">
        <ele>388.6</ele>
        <time>2014-10-28T15:09:59.000Z</time>
      </trkpt>
      <trkpt lat="47.52872" lon="6.77565">
        <ele>388.3</ele>
        <time>2014-10-28T15:10:00.000Z</time>
      </trkpt>
      <trkpt lat="47.52868" lon="6.77564">
        <ele>388.8</ele>
        <time>2014-10-28T15:10:02.000Z</time>
      </trkpt>
      <trkpt lat="47.52866" lon="6.77564">
        <ele>385.7</ele>
        <time>2014-10-28T15:10:03.000Z</time>
      </trkpt>
      <trkpt lat="47.52863" lon="6.77563">
        <ele>385.1</ele>
        <time>2014-10-28T15:10:04.000Z</time>
      </trkpt>
      <trkpt lat="47.52861" lon="6.77562">
        <ele>384.6</ele>
        <time>2014-10-28T15:10:05.000Z</time>
      </trkpt>
      <trkpt lat="47.52858" lon="6.77562">
        <ele>383.9</ele>
        <time>2014-10-28T15:10:06.000Z</time>
      </trkpt>
      <trkpt lat="47.52855" lon="6.77562">
        <ele>385.1</ele>
        <time>2014-10-28T15:10:07.000Z</time>
      </trkpt>
      <trkpt lat="47.52852" lon="6.77561">
        <ele>385.9</ele>
        <time>2014-10-28T15:10:08.000Z</time>
      </trkpt>
      <trkpt lat="47.5285" lon="6.77561">
        <ele>386.2</ele>
        <time>2014-10-28T15:10:09.000Z</time>
      </trkpt>
      <trkpt lat="47.52845" lon="6.7756">
        <ele>385.8</ele>
        <time>2014-10-28T15:10:11.000Z</time>
      </trkpt>
      <trkpt lat="47.52843" lon="6.77559">
        <ele>385.4</ele>
        <time>2014-10-28T15:10:12.000Z</time>
      </trkpt>
      <trkpt lat="47.52841" lon="6.77559">
        <ele>384.6</ele>
        <time>2014-10-28T15:10:13.000Z</time>
      </trkpt>
      <trkpt lat="47.52839" lon="6.77558">
        <ele>384.5</ele>
        <time>2014-10-28T15:10:14.000Z</time>
      </trkpt>
      <trkpt lat="47.52825" lon="6.77544">
        <ele>380.6</ele>
        <time>2014-10-28T15:10:22.000Z</time>
      </trkpt>
      <trkpt lat="47.52822" lon="6.77541">
        <ele>382.6</ele>
        <time>2014-10-28T15:10:25.000Z</time>
      </trkpt>
      <trkpt lat="47.52821" lon="6.7754">
        <ele>386.7</ele>
        <time>2014-10-28T15:10:26.000Z</time>
      </trkpt>
      <trkpt lat="47.52817" lon="6.77537">
        <ele>389.9</ele>
        <time>2014-10-28T15:10:29.000Z</time>
      </trkpt>
      <trkpt lat="47.52816" lon="6.77537">
        <ele>390.1</ele>
        <time>2014-10-28T15:10:30.000Z</time>
      </trkpt>
      <trkpt lat="47.52811" lon="6.77536">
        <ele>390.5</ele>
        <time>2014-10-28T15:10:32.000Z</time>
      </trkpt>
      <trkpt lat="47.52809" lon="6.77535">
        <ele>390.3</ele>
        <time>2014-10-28T15:10:33.000Z</time>
      </trkpt>
      <trkpt lat="47.52806" lon="6.77534">
        <ele>390.4</ele>
        <time>2014-10-28T15:10:34.000Z</time>
      </trkpt>
      <trkpt lat="47.52803" lon="6.77533">
        <ele>390.7</ele>
        <time>2014-10-28T15:10:35.000Z</time>
      </trkpt>
      <trkpt lat="47.528" lon="6.77531">
        <ele>391.3</ele>
        <time>2014-10-28T15:10:36.000Z</time>
      </trkpt>
      <trkpt lat="47.52798" lon="6.7753">
        <ele>390.7</ele>
        <time>2014-10-28T15:10:37.000Z</time>
      </trkpt>
      <trkpt lat="47.52795" lon="6.77529">
        <ele>391</ele>
        <time>2014-10-28T15:10:38.000Z</time>
      </trkpt>
      <trkpt lat="47.52792" lon="6.77528">
        <ele>390.5</ele>
        <time>2014-10-28T15:10:39.000Z</time>
      </trkpt>
      <trkpt lat="47.52789" lon="6.77526">
        <ele>389.8</ele>
        <time>2014-10-28T15:10:40.000Z</time>
      </trkpt>
      <trkpt lat="47.52787" lon="6.77524">
        <ele>389.2</ele>
        <time>2014-10-28T15:10:41.000Z</time>
      </trkpt>
      <trkpt lat="47.52784" lon="6.77521">
        <ele>389</ele>
        <time>2014-10-28T15:10:42.000Z</time>
      </trkpt>
      <trkpt lat="47.52782" lon="6.7752">
        <ele>387.6</ele>
        <time>2014-10-28T15:10:43.000Z</time>
      </trkpt>
      <trkpt lat="47.52778" lon="6.77517">
        <ele>387.4</ele>
        <time>2014-10-28T15:10:45.000Z</time>
      </trkpt>
      <trkpt lat="47.52776" lon="6.77517">
        <ele>387.4</ele>
        <time>2014-10-28T15:10:46.000Z</time>
      </trkpt>
      <trkpt lat="47.52774" lon="6.77515">
        <ele>387.4</ele>
        <time>2014-10-28T15:10:47.000Z</time>
      </trkpt>
      <trkpt lat="47.52771" lon="6.77514">
        <ele>387.4</ele>
        <time>2014-10-28T15:10:48.000Z</time>
      </trkpt>
      <trkpt lat="47.52768" lon="6.77513">
        <ele>387.7</ele>
        <time>2014-10-28T15:10:49.000Z</time>
      </trkpt>
      <trkpt lat="47.52765" lon="6.77512">
        <ele>387.2</ele>
        <time>2014-10-28T15:10:50.000Z</time>
      </trkpt>
      <trkpt lat="47.52761" lon="6.77511">
        <ele>387.4</ele>
        <time>2014-10-28T15:10:51.000Z</time>
      </trkpt>
      <trkpt lat="47.52758" lon="6.77509">
        <ele>387.4</ele>
        <time>2014-10-28T15:10:52.000Z</time>
      </trkpt>
      <trkpt lat="47.52756" lon="6.77508">
        <ele>387</ele>
        <time>2014-10-28T15:10:53.000Z</time>
      </trkpt>
      <trkpt lat="47.52754" lon="6.77507">
        <ele>387.3</ele>
        <time>2014-10-28T15:10:54.000Z</time>
      </trkpt>
      <trkpt lat="47.5275" lon="6.77504">
        <ele>389.1</ele>
        <time>2014-10-28T15:10:57.000Z</time>
      </trkpt>
      <trkpt lat="47.52749" lon="6.77503">
        <ele>389</ele>
        <time>2014-10-28T15:10:58.000Z</time>
      </trkpt>
      <trkpt lat="47.52747" lon="6.77503">
        <ele>389</ele>
        <time>2014-10-28T15:10:59.000Z</time>
      </trkpt>
      <trkpt lat="47.52735" lon="6.77509">
        <ele>385.7</ele>
        <time>2014-10-28T15:11:00.000Z</time>
      </trkpt>
      <trkpt lat="47.52734" lon="6.77506">
        <ele>385.5</ele>
        <time>2014-10-28T15:11:01.000Z</time>
      </trkpt>
      <trkpt lat="47.52732" lon="6.77503">
        <ele>385.2</ele>
        <time>2014-10-28T15:11:02.000Z</time>
      </trkpt>
      <trkpt lat="47.5273" lon="6.775">
        <ele>385.2</ele>
        <time>2014-10-28T15:11:03.000Z</time>
      </trkpt>
      <trkpt lat="47.52727" lon="6.77501">
        <ele>384.3</ele>
        <time>2014-10-28T15:11:04.000Z</time>
      </trkpt>
      <trkpt lat="47.52725" lon="6.77499">
        <ele>385</ele>
        <time>2014-10-28T15:11:05.000Z</time>
      </trkpt>
      <trkpt lat="47.52723" lon="6.775">
        <ele>385.1</ele>
        <time>2014-10-28T15:11:06.000Z</time>
      </trkpt>
      <trkpt lat="47.5272" lon="6.77497">
        <ele>385.8</ele>
        <time>2014-10-28T15:11:08.000Z</time>
      </trkpt>
      <trkpt lat="47.52718" lon="6.77496">
        <ele>385.7</ele>
        <time>2014-10-28T15:11:09.000Z</time>
      </trkpt>
      <trkpt lat="47.52715" lon="6.77493">
        <ele>388.8</ele>
        <time>2014-10-28T15:11:12.000Z</time>
      </trkpt>
      <trkpt lat="47.52714" lon="6.77492">
        <ele>390.3</ele>
        <time>2014-10-28T15:11:13.000Z</time>
      </trkpt>
      <trkpt lat="47.5271" lon="6.77488">
        <ele>388.4</ele>
        <time>2014-10-28T15:11:15.000Z</time>
      </trkpt>
      <trkpt lat="47.52697" lon="6.77476">
        <ele>390.8</ele>
        <time>2014-10-28T15:11:23.000Z</time>
      </trkpt>
      <trkpt lat="47.52693" lon="6.77472">
        <ele>389.7</ele>
        <time>2014-10-28T15:11:26.000Z</time>
      </trkpt>
      <trkpt lat="47.52691" lon="6.77469">
        <ele>388.7</ele>
        <time>2014-10-28T15:11:27.000Z</time>
      </trkpt>
      <trkpt lat="47.52688" lon="6.77467">
        <ele>388</ele>
        <time>2014-10-28T15:11:28.000Z</time>
      </trkpt>
      <trkpt lat="47.52685" lon="6.77465">
        <ele>387.8</ele>
        <time>2014-10-28T15:11:29.000Z</time>
      </trkpt>
      <trkpt lat="47.52683" lon="6.77462">
        <ele>388</ele>
        <time>2014-10-28T15:11:30.000Z</time>
      </trkpt>
      <trkpt lat="47.5268" lon="6.7746">
        <ele>388.5</ele>
        <time>2014-10-28T15:11:31.000Z</time>
      </trkpt>
      <trkpt lat="47.52678" lon="6.77458">
        <ele>388.2</ele>
        <time>2014-10-28T15:11:32.000Z</time>
      </trkpt>
      <trkpt lat="47.52676" lon="6.77456">
        <ele>388.2</ele>
        <time>2014-10-28T15:11:33.000Z</time>
      </trkpt>
      <trkpt lat="47.52673" lon="6.77454">
        <ele>387.6</ele>
        <time>2014-10-28T15:11:34.000Z</time>
      </trkpt>
      <trkpt lat="47.5267" lon="6.77452">
        <ele>381.8</ele>
        <time>2014-10-28T15:11:35.000Z</time>
      </trkpt>
      <trkpt lat="47.52668" lon="6.77451">
        <ele>380.2</ele>
        <time>2014-10-28T15:11:36.000Z</time>
      </trkpt>
      <trkpt lat="47.52665" lon="6.77449">
        <ele>377.2</ele>
        <time>2014-10-28T15:11:37.000Z</time>
      </trkpt>
      <trkpt lat="47.52663" lon="6.77448">
        <ele>376.6</ele>
        <time>2014-10-28T15:11:38.000Z</time>
      </trkpt>
      <trkpt lat="47.52661" lon="6.77446">
        <ele>375.8</ele>
        <time>2014-10-28T15:11:39.000Z</time>
      </trkpt>
      <trkpt lat="47.52658" lon="6.77445">
        <ele>375.3</ele>
        <time>2014-10-28T15:11:40.000Z</time>
      </trkpt>
      <trkpt lat="47.52656" lon="6.77444">
        <ele>375.7</ele>
        <time>2014-10-28T15:11:41.000Z</time>
      </trkpt>
      <trkpt lat="47.52654" lon="6.77444">
        <ele>376</ele>
        <time>2014-10-28T15:11:42.000Z</time>
      </trkpt>
      <trkpt lat="47.52651" lon="6.77445">
        <ele>376.8</ele>
        <time>2014-10-28T15:11:43.000Z</time>
      </trkpt>
      <trkpt lat="47.52649" lon="6.77446">
        <ele>377.3</ele>
        <time>2014-10-28T15:11:44.000Z</time>
      </trkpt>
      <trkpt lat="47.52647" lon="6.77447">
        <ele>377.8</ele>
        <time>2014-10-28T15:11:45.000Z</time>
      </trkpt>
      <trkpt lat="47.52644" lon="6.77449">
        <ele>378.2</ele>
        <time>2014-10-28T15:11:46.000Z</time>
      </trkpt>
      <trkpt lat="47.52642" lon="6.7745">
        <ele>378.6</ele>
        <time>2014-10-28T15:11:47.000Z</time>
      </trkpt>
      <trkpt lat="47.52639" lon="6.77452">
        <ele>377.6</ele>
        <time>2014-10-28T15:11:48.000Z</time>
      </trkpt>
      <trkpt lat="47.52637" lon="6.77454">
        <ele>381.1</ele>
        <time>2014-10-28T15:11:49.000Z</time>
      </trkpt>
      <trkpt lat="47.52635" lon="6.77457">
        <ele>382.5</ele>
        <time>2014-10-28T15:11:50.000Z</time>
      </trkpt>
      <trkpt lat="47.52628" lon="6.77464">
        <ele>389.1</ele>
        <time>2014-10-28T15:11:51.000Z</time>
      </trkpt>
      <trkpt lat="47.52625" lon="6.77468">
        <ele>390.3</ele>
        <time>2014-10-28T15:11:52.000Z</time>
      </trkpt>
      <trkpt lat="47.52624" lon="6.7747">
        <ele>388.9</ele>
        <time>2014-10-28T15:11:53.000Z</time>
      </trkpt>
      <trkpt lat="47.52622" lon="6.77473">
        <ele>388.2</ele>
        <time>2014-10-28T15:11:55.000Z</time>
      </trkpt>
      <trkpt lat="47.52621" lon="6.77475">
        <ele>388.4</ele>
        <time>2014-10-28T15:11:56.000Z</time>
      </trkpt>
      <trkpt lat="47.52618" lon="6.7748">
        <ele>389.9</ele>
        <time>2014-10-28T15:11:58.000Z</time>
      </trkpt>
      <trkpt lat="47.52617" lon="6.77482">
        <ele>389.7</ele>
        <time>2014-10-28T15:11:59.000Z</time>
      </trkpt>
      <trkpt lat="47.52616" lon="6.77484">
        <ele>389.8</ele>
        <time>2014-10-28T15:12:00.000Z</time>
      </trkpt>
      <trkpt lat="47.52614" lon="6.77487">
        <ele>390.9</ele>
        <time>2014-10-28T15:12:01.000Z</time>
      </trkpt>
      <trkpt lat="47.52611" lon="6.7749">
        <ele>391.2</ele>
        <time>2014-10-28T15:12:03.000Z</time>
      </trkpt>
      <trkpt lat="47.52609" lon="6.77492">
        <ele>391.3</ele>
        <time>2014-10-28T15:12:04.000Z</time>
      </trkpt>
      <trkpt lat="47.52607" lon="6.77493">
        <ele>392.4</ele>
        <time>2014-10-28T15:12:05.000Z</time>
      </trkpt>
      <trkpt lat="47.52605" lon="6.77494">
        <ele>393.1</ele>
        <time>2014-10-28T15:12:06.000Z</time>
      </trkpt>
      <trkpt lat="47.52602" lon="6.77495">
        <ele>393.7</ele>
        <time>2014-10-28T15:12:07.000Z</time>
      </trkpt>
      <trkpt lat="47.52598" lon="6.77495">
        <ele>392.9</ele>
        <time>2014-10-28T15:12:08.000Z</time>
      </trkpt>
      <trkpt lat="47.52595" lon="6.77494">
        <ele>391.1</ele>
        <time>2014-10-28T15:12:09.000Z</time>
      </trkpt>
      <trkpt lat="47.52592" lon="6.77493">
        <ele>390.2</ele>
        <time>2014-10-28T15:12:10.000Z</time>
      </trkpt>
      <trkpt lat="47.5259" lon="6.77491">
        <ele>389.8</ele>
        <time>2014-10-28T15:12:11.000Z</time>
      </trkpt>
      <trkpt lat="47.52588" lon="6.77489">
        <ele>390.4</ele>
        <time>2014-10-28T15:12:12.000Z</time>
      </trkpt>
      <trkpt lat="47.52586" lon="6.77486">
        <ele>390.8</ele>
        <time>2014-10-28T15:12:13.000Z</time>
      </trkpt>
      <trkpt lat="47.52585" lon="6.77483">
        <ele>391.5</ele>
        <time>2014-10-28T15:12:14.000Z</time>
      </trkpt>
      <trkpt lat="47.52572" lon="6.77481">
        <ele>391.2</ele>
        <time>2014-10-28T15:12:22.000Z</time>
      </trkpt>
      <trkpt lat="47.52568" lon="6.77477">
        <ele>391.4</ele>
        <time>2014-10-28T15:12:25.000Z</time>
      </trkpt>
      <trkpt lat="47.52566" lon="6.77476">
        <ele>391.2</ele>
        <time>2014-10-28T15:12:26.000Z</time>
      </trkpt>
      <trkpt lat="47.52564" lon="6.77474">
        <ele>390.6</ele>
        <time>2014-10-28T15:12:27.000Z</time>
      </trkpt>
      <trkpt lat="47.52562" lon="6.77473">
        <ele>389.4</ele>
        <time>2014-10-28T15:12:28.000Z</time>
      </trkpt>
      <trkpt lat="47.52559" lon="6.77472">
        <ele>389</ele>
        <time>2014-10-28T15:12:29.000Z</time>
      </trkpt>
      <trkpt lat="47.52556" lon="6.7747">
        <ele>388.9</ele>
        <time>2014-10-28T15:12:30.000Z</time>
      </trkpt>
      <trkpt lat="47.52554" lon="6.77469">
        <ele>388.4</ele>
        <time>2014-10-28T15:12:31.000Z</time>
      </trkpt>
      <trkpt lat="47.52551" lon="6.77469">
        <ele>388.7</ele>
        <time>2014-10-28T15:12:32.000Z</time>
      </trkpt>
      <trkpt lat="47.52549" lon="6.77468">
        <ele>388.4</ele>
        <time>2014-10-28T15:12:33.000Z</time>
      </trkpt>
      <trkpt lat="47.52547" lon="6.77468">
        <ele>388</ele>
        <time>2014-10-28T15:12:34.000Z</time>
      </trkpt>
      <trkpt lat="47.52544" lon="6.77469">
        <ele>389.6</ele>
        <time>2014-10-28T15:12:35.000Z</time>
      </trkpt>
      <trkpt lat="47.52541" lon="6.7747">
        <ele>388.7</ele>
        <time>2014-10-28T15:12:36.000Z</time>
      </trkpt>
      <trkpt lat="47.52539" lon="6.77471">
        <ele>388.3</ele>
        <time>2014-10-28T15:12:37.000Z</time>
      </trkpt>
      <trkpt lat="47.52537" lon="6.77473">
        <ele>388.7</ele>
        <time>2014-10-28T15:12:38.000Z</time>
      </trkpt>
      <trkpt lat="47.52534" lon="6.77475">
        <ele>389.2</ele>
        <time>2014-10-28T15:12:39.000Z</time>
      </trkpt>
      <trkpt lat="47.52532" lon="6.77477">
        <ele>389.3</ele>
        <time>2014-10-28T15:12:40.000Z</time>
      </trkpt>
      <trkpt lat="47.5253" lon="6.77478">
        <ele>389.7</ele>
        <time>2014-10-28T15:12:41.000Z</time>
      </trkpt>
      <trkpt lat="47.52527" lon="6.7748">
        <ele>389.8</ele>
        <time>2014-10-28T15:12:42.000Z</time>
      </trkpt>
      <trkpt lat="47.52525" lon="6.7748">
        <ele>390.4</ele>
        <time>2014-10-28T15:12:43.000Z</time>
      </trkpt>
      <trkpt lat="47.52522" lon="6.77481">
        <ele>389.8</ele>
        <time>2014-10-28T15:12:44.000Z</time>
      </trkpt>
      <trkpt lat="47.52519" lon="6.77481">
        <ele>389.6</ele>
        <time>2014-10-28T15:12:45.000Z</time>
      </trkpt>
      <trkpt lat="47.52516" lon="6.77481">
        <ele>389.6</ele>
        <time>2014-10-28T15:12:46.000Z</time>
      </trkpt>
      <trkpt lat="47.52514" lon="6.7748">
        <ele>388.5</ele>
        <time>2014-10-28T15:12:47.000Z</time>
      </trkpt>
      <trkpt lat="47.52511" lon="6.7748">
        <ele>388</ele>
        <time>2014-10-28T15:12:48.000Z</time>
      </trkpt>
      <trkpt lat="47.52508" lon="6.77479">
        <ele>389.5</ele>
        <time>2014-10-28T15:12:49.000Z</time>
      </trkpt>
      <trkpt lat="47.52505" lon="6.77478">
        <ele>389.3</ele>
        <time>2014-10-28T15:12:50.000Z</time>
      </trkpt>
      <trkpt lat="47.52502" lon="6.77477">
        <ele>384.5</ele>
        <time>2014-10-28T15:12:51.000Z</time>
      </trkpt>
      <trkpt lat="47.52499" lon="6.77476">
        <ele>382</ele>
        <time>2014-10-28T15:12:52.000Z</time>
      </trkpt>
      <trkpt lat="47.52497" lon="6.77475">
        <ele>381.7</ele>
        <time>2014-10-28T15:12:53.000Z</time>
      </trkpt>
      <trkpt lat="47.52495" lon="6.77474">
        <ele>381.5</ele>
        <time>2014-10-28T15:12:54.000Z</time>
      </trkpt>
      <trkpt lat="47.52492" lon="6.77473">
        <ele>381.2</ele>
        <time>2014-10-28T15:12:55.000Z</time>
      </trkpt>
      <trkpt lat="47.52489" lon="6.77472">
        <ele>381.1</ele>
        <time>2014-10-28T15:12:56.000Z</time>
      </trkpt>
      <trkpt lat="47.52487" lon="6.77471">
        <ele>380.9</ele>
        <time>2014-10-28T15:12:57.000Z</time>
      </trkpt>
      <trkpt lat="47.52484" lon="6.77471">
        <ele>381.2</ele>
        <time>2014-10-28T15:12:58.000Z</time>
      </trkpt>
      <trkpt lat="47.52482" lon="6.77472">
        <ele>387.1</ele>
        <time>2014-10-28T15:12:59.000Z</time>
      </trkpt>
      <trkpt lat="47.52479" lon="6.77473">
        <ele>388.4</ele>
        <time>2014-10-28T15:13:00.000Z</time>
      </trkpt>
      <trkpt lat="47.52477" lon="6.77474">
        <ele>388.8</ele>
        <time>2014-10-28T15:13:01.000Z</time>
      </trkpt>
      <trkpt lat="47.52474" lon="6.77475">
        <ele>389</ele>
        <time>2014-10-28T15:13:02.000Z</time>
      </trkpt>
      <trkpt lat="47.52472" lon="6.77476">
        <ele>389.1</ele>
        <time>2014-10-28T15:13:03.000Z</time>
      </trkpt>
      <trkpt lat="47.5247" lon="6.77476">
        <ele>389</ele>
        <time>2014-10-28T15:13:04.000Z</time>
      </trkpt>
      <trkpt lat="47.52465" lon="6.77476">
        <ele>389.1</ele>
        <time>2014-10-28T15:13:06.000Z</time>
      </trkpt>
      <trkpt lat="47.52463" lon="6.77476">
        <ele>387.8</ele>
        <time>2014-10-28T15:13:07.000Z</time>
      </trkpt>
      <trkpt lat="47.52461" lon="6.77475">
        <ele>387.4</ele>
        <time>2014-10-28T15:13:08.000Z</time>
      </trkpt>
      <trkpt lat="47.52458" lon="6.77473">
        <ele>387.2</ele>
        <time>2014-10-28T15:13:09.000Z</time>
      </trkpt>
      <trkpt lat="47.52456" lon="6.77472">
        <ele>386.2</ele>
        <time>2014-10-28T15:13:10.000Z</time>
      </trkpt>
      <trkpt lat="47.52453" lon="6.7747">
        <ele>385.2</ele>
        <time>2014-10-28T15:13:11.000Z</time>
      </trkpt>
      <trkpt lat="47.5245" lon="6.77469">
        <ele>385</ele>
        <time>2014-10-28T15:13:12.000Z</time>
      </trkpt>
      <trkpt lat="47.52447" lon="6.77468">
        <ele>384.6</ele>
        <time>2014-10-28T15:13:13.000Z</time>
      </trkpt>
      <trkpt lat="47.52444" lon="6.77467">
        <ele>389</ele>
        <time>2014-10-28T15:13:14.000Z</time>
      </trkpt>
      <trkpt lat="47.52435" lon="6.77464">
        <ele>390.6</ele>
        <time>2014-10-28T15:13:17.000Z</time>
      </trkpt>
      <trkpt lat="47.52433" lon="6.77463">
        <ele>390.5</ele>
        <time>2014-10-28T15:13:18.000Z</time>
      </trkpt>
      <trkpt lat="47.5243" lon="6.77463">
        <ele>390.1</ele>
        <time>2014-10-28T15:13:19.000Z</time>
      </trkpt>
      <trkpt lat="47.52426" lon="6.77462">
        <ele>392.9</ele>
        <time>2014-10-28T15:13:21.000Z</time>
      </trkpt>
      <trkpt lat="47.52424" lon="6.77461">
        <ele>392.8</ele>
        <time>2014-10-28T15:13:22.000Z</time>
      </trkpt>
      <trkpt lat="47.5242" lon="6.77461">
        <ele>390.6</ele>
        <time>2014-10-28T15:13:24.000Z</time>
      </trkpt>
      <trkpt lat="47.52418" lon="6.77461">
        <ele>390.5</ele>
        <time>2014-10-28T15:13:25.000Z</time>
      </trkpt>
      <trkpt lat="47.52415" lon="6.77461">
        <ele>390.1</ele>
        <time>2014-10-28T15:13:27.000Z</time>
      </trkpt>
      <trkpt lat="47.52414" lon="6.77462">
        <ele>389.2</ele>
        <time>2014-10-28T15:13:28.000Z</time>
      </trkpt>
      <trkpt lat="47.5241" lon="6.77464">
        <ele>388.3</ele>
        <time>2014-10-28T15:13:30.000Z</time>
      </trkpt>
      <trkpt lat="47.52407" lon="6.77465">
        <ele>388.3</ele>
        <time>2014-10-28T15:13:31.000Z</time>
      </trkpt>
      <trkpt lat="47.52405" lon="6.77468">
        <ele>385.7</ele>
        <time>2014-10-28T15:13:32.000Z</time>
      </trkpt>
      <trkpt lat="47.52402" lon="6.7747">
        <ele>385.2</ele>
        <time>2014-10-28T15:13:33.000Z</time>
      </trkpt>
      <trkpt lat="47.524" lon="6.77472">
        <ele>383.9</ele>
        <time>2014-10-28T15:13:34.000Z</time>
      </trkpt>
      <trkpt lat="47.52397" lon="6.77474">
        <ele>383.9</ele>
        <time>2014-10-28T15:13:35.000Z</time>
      </trkpt>
      <trkpt lat="47.52393" lon="6.77476">
        <ele>382.8</ele>
        <time>2014-10-28T15:13:37.000Z</time>
      </trkpt>
      <trkpt lat="47.52392" lon="6.77477">
        <ele>383.4</ele>
        <time>2014-10-28T15:13:38.000Z</time>
      </trkpt>
      <trkpt lat="47.52389" lon="6.77479">
        <ele>385.1</ele>
        <time>2014-10-28T15:13:40.000Z</time>
      </trkpt>
      <trkpt lat="47.52387" lon="6.7748">
        <ele>385.4</ele>
        <time>2014-10-28T15:13:41.000Z</time>
      </trkpt>
      <trkpt lat="47.52384" lon="6.77483">
        <ele>385.5</ele>
        <time>2014-10-28T15:13:43.000Z</time>
      </trkpt>
      <trkpt lat="47.52382" lon="6.77484">
        <ele>386.5</ele>
        <time>2014-10-28T15:13:44.000Z</time>
      </trkpt>
      <trkpt lat="47.52378" lon="6.77486">
        <ele>384.9</ele>
        <time>2014-10-28T15:13:46.000Z</time>
      </trkpt>
      <trkpt lat="47.52376" lon="6.77487">
        <ele>385.7</ele>
        <time>2014-10-28T15:13:47.000Z</time>
      </trkpt>
      <trkpt lat="47.52372" lon="6.77488">
        <ele>387.2</ele>
        <time>2014-10-28T15:13:49.000Z</time>
      </trkpt>
      <trkpt lat="47.5237" lon="6.77489">
        <ele>386.8</ele>
        <time>2014-10-28T15:13:50.000Z</time>
      </trkpt>
      <trkpt lat="47.52366" lon="6.77491">
        <ele>385.8</ele>
        <time>2014-10-28T15:13:52.000Z</time>
      </trkpt>
      <trkpt lat="47.52364" lon="6.77492">
        <ele>386.7</ele>
        <time>2014-10-28T15:13:53.000Z</time>
      </trkpt>
      <trkpt lat="47.52361" lon="6.77493">
        <ele>386.5</ele>
        <time>2014-10-28T15:13:55.000Z</time>
      </trkpt>
      <trkpt lat="47.52359" lon="6.77494">
        <ele>385.9</ele>
        <time>2014-10-28T15:13:56.000Z</time>
      </trkpt>
      <trkpt lat="47.52355" lon="6.77495">
        <ele>383.7</ele>
        <time>2014-10-28T15:13:58.000Z</time>
      </trkpt>
      <trkpt lat="47.52352" lon="6.77496">
        <ele>384.1</ele>
        <time>2014-10-28T15:13:59.000Z</time>
      </trkpt>
      <trkpt lat="47.52348" lon="6.77498">
        <ele>383.9</ele>
        <time>2014-10-28T15:14:01.000Z</time>
      </trkpt>
      <trkpt lat="47.52346" lon="6.77499">
        <ele>384</ele>
        <time>2014-10-28T15:14:02.000Z</time>
      </trkpt>
      <trkpt lat="47.52343" lon="6.77501">
        <ele>383.6</ele>
        <time>2014-10-28T15:14:04.000Z</time>
      </trkpt>
      <trkpt lat="47.52341" lon="6.77502">
        <ele>383.4</ele>
        <time>2014-10-28T15:14:05.000Z</time>
      </trkpt>
      <trkpt lat="47.52337" lon="6.77504">
        <ele>383.3</ele>
        <time>2014-10-28T15:14:07.000Z</time>
      </trkpt>
      <trkpt lat="47.52335" lon="6.77505">
        <ele>383.4</ele>
        <time>2014-10-28T15:14:08.000Z</time>
      </trkpt>
      <trkpt lat="47.52332" lon="6.77506">
        <ele>382.9</ele>
        <time>2014-10-28T15:14:10.000Z</time>
      </trkpt>
      <trkpt lat="47.5233" lon="6.77507">
        <ele>382.7</ele>
        <time>2014-10-28T15:14:11.000Z</time>
      </trkpt>
      <trkpt lat="47.52327" lon="6.77509">
        <ele>382.1</ele>
        <time>2014-10-28T15:14:13.000Z</time>
      </trkpt>
      <trkpt lat="47.52325" lon="6.77511">
        <ele>382.2</ele>
        <time>2014-10-28T15:14:14.000Z</time>
      </trkpt>
      <trkpt lat="47.52319" lon="6.77514">
        <ele>382.3</ele>
        <time>2014-10-28T15:14:17.000Z</time>
      </trkpt>
      <trkpt lat="47.52316" lon="6.77516">
        <ele>381.9</ele>
        <time>2014-10-28T15:14:19.000Z</time>
      </trkpt>
      <trkpt lat="47.52314" lon="6.77518">
        <ele>381.8</ele>
        <time>2014-10-28T15:14:20.000Z</time>
      </trkpt>
      <trkpt lat="47.5231" lon="6.7752">
        <ele>381.2</ele>
        <time>2014-10-28T15:14:22.000Z</time>
      </trkpt>
      <trkpt lat="47.52308" lon="6.77522">
        <ele>381.6</ele>
        <time>2014-10-28T15:14:23.000Z</time>
      </trkpt>
      <trkpt lat="47.52306" lon="6.77524">
        <ele>381.5</ele>
        <time>2014-10-28T15:14:24.000Z</time>
      </trkpt>
      <trkpt lat="47.52304" lon="6.77526">
        <ele>381.3</ele>
        <time>2014-10-28T15:14:25.000Z</time>
      </trkpt>
      <trkpt lat="47.52302" lon="6.77528">
        <ele>381.2</ele>
        <time>2014-10-28T15:14:26.000Z</time>
      </trkpt>
      <trkpt lat="47.523" lon="6.7753">
        <ele>381.1</ele>
        <time>2014-10-28T15:14:27.000Z</time>
      </trkpt>
      <trkpt lat="47.52297" lon="6.77531">
        <ele>381.2</ele>
        <time>2014-10-28T15:14:28.000Z</time>
      </trkpt>
      <trkpt lat="47.52295" lon="6.77533">
        <ele>381.5</ele>
        <time>2014-10-28T15:14:29.000Z</time>
      </trkpt>
      <trkpt lat="47.52292" lon="6.77535">
        <ele>381.6</ele>
        <time>2014-10-28T15:14:30.000Z</time>
      </trkpt>
      <trkpt lat="47.52289" lon="6.77536">
        <ele>382</ele>
        <time>2014-10-28T15:14:31.000Z</time>
      </trkpt>
      <trkpt lat="47.52287" lon="6.77538">
        <ele>382.2</ele>
        <time>2014-10-28T15:14:32.000Z</time>
      </trkpt>
      <trkpt lat="47.52284" lon="6.77539">
        <ele>382.3</ele>
        <time>2014-10-28T15:14:33.000Z</time>
      </trkpt>
      <trkpt lat="47.52282" lon="6.7754">
        <ele>382</ele>
        <time>2014-10-28T15:14:34.000Z</time>
      </trkpt>
      <trkpt lat="47.5228" lon="6.77542">
        <ele>382.2</ele>
        <time>2014-10-28T15:14:35.000Z</time>
      </trkpt>
      <trkpt lat="47.52278" lon="6.77543">
        <ele>382.5</ele>
        <time>2014-10-28T15:14:36.000Z</time>
      </trkpt>
      <trkpt lat="47.52275" lon="6.77545">
        <ele>382.9</ele>
        <time>2014-10-28T15:14:37.000Z</time>
      </trkpt>
      <trkpt lat="47.52273" lon="6.77547">
        <ele>383.1</ele>
        <time>2014-10-28T15:14:38.000Z</time>
      </trkpt>
      <trkpt lat="47.5227" lon="6.77549">
        <ele>383.5</ele>
        <time>2014-10-28T15:14:39.000Z</time>
      </trkpt>
      <trkpt lat="47.52268" lon="6.77551">
        <ele>383.8</ele>
        <time>2014-10-28T15:14:40.000Z</time>
      </trkpt>
      <trkpt lat="47.52265" lon="6.77553">
        <ele>384.3</ele>
        <time>2014-10-28T15:14:41.000Z</time>
      </trkpt>
      <trkpt lat="47.52263" lon="6.77555">
        <ele>384.2</ele>
        <time>2014-10-28T15:14:42.000Z</time>
      </trkpt>
      <trkpt lat="47.5226" lon="6.77557">
        <ele>384.7</ele>
        <time>2014-10-28T15:14:43.000Z</time>
      </trkpt>
      <trkpt lat="47.52258" lon="6.77558">
        <ele>385.3</ele>
        <time>2014-10-28T15:14:44.000Z</time>
      </trkpt>
      <trkpt lat="47.52255" lon="6.7756">
        <ele>386</ele>
        <time>2014-10-28T15:14:45.000Z</time>
      </trkpt>
      <trkpt lat="47.52253" lon="6.77562">
        <ele>385.8</ele>
        <time>2014-10-28T15:14:46.000Z</time>
      </trkpt>
      <trkpt lat="47.5225" lon="6.77564">
        <ele>385.7</ele>
        <time>2014-10-28T15:14:47.000Z</time>
      </trkpt>
      <trkpt lat="47.52248" lon="6.77565">
        <ele>385.9</ele>
        <time>2014-10-28T15:14:48.000Z</time>
      </trkpt>
      <trkpt lat="47.52245" lon="6.77567">
        <ele>386</ele>
        <time>2014-10-28T15:14:49.000Z</time>
      </trkpt>
      <trkpt lat="47.52243" lon="6.77569">
        <ele>386.1</ele>
        <time>2014-10-28T15:14:50.000Z</time>
      </trkpt>
      <trkpt lat="47.52241" lon="6.77571">
        <ele>385.9</ele>
        <time>2014-10-28T15:14:51.000Z</time>
      </trkpt>
      <trkpt lat="47.52238" lon="6.77573">
        <ele>386</ele>
        <time>2014-10-28T15:14:52.000Z</time>
      </trkpt>
      <trkpt lat="47.52236" lon="6.77575">
        <ele>386.2</ele>
        <time>2014-10-28T15:14:53.000Z</time>
      </trkpt>
      <trkpt lat="47.52233" lon="6.77577">
        <ele>385.7</ele>
        <time>2014-10-28T15:14:54.000Z</time>
      </trkpt>
      <trkpt lat="47.52231" lon="6.77578">
        <ele>385.4</ele>
        <time>2014-10-28T15:14:55.000Z</time>
      </trkpt>
      <trkpt lat="47.52229" lon="6.77579">
        <ele>385.3</ele>
        <time>2014-10-28T15:14:56.000Z</time>
      </trkpt>
      <trkpt lat="47.52227" lon="6.7758">
        <ele>385.2</ele>
        <time>2014-10-28T15:14:57.000Z</time>
      </trkpt>
      <trkpt lat="47.52225" lon="6.77582">
        <ele>385.5</ele>
        <time>2014-10-28T15:14:58.000Z</time>
      </trkpt>
      <trkpt lat="47.52222" lon="6.77583">
        <ele>385.6</ele>
        <time>2014-10-28T15:14:59.000Z</time>
      </trkpt>
      <trkpt lat="47.52219" lon="6.77586">
        <ele>386.4</ele>
        <time>2014-10-28T15:15:01.000Z</time>
      </trkpt>
      <trkpt lat="47.52217" lon="6.77587">
        <ele>386.4</ele>
        <time>2014-10-28T15:15:02.000Z</time>
      </trkpt>
      <trkpt lat="47.52214" lon="6.7759">
        <ele>386.6</ele>
        <time>2014-10-28T15:15:04.000Z</time>
      </trkpt>
      <trkpt lat="47.52212" lon="6.77591">
        <ele>385.7</ele>
        <time>2014-10-28T15:15:05.000Z</time>
      </trkpt>
      <trkpt lat="47.52209" lon="6.77592">
        <ele>385.3</ele>
        <time>2014-10-28T15:15:06.000Z</time>
      </trkpt>
      <trkpt lat="47.52207" lon="6.77594">
        <ele>384.4</ele>
        <time>2014-10-28T15:15:07.000Z</time>
      </trkpt>
      <trkpt lat="47.52205" lon="6.77595">
        <ele>383.1</ele>
        <time>2014-10-28T15:15:08.000Z</time>
      </trkpt>
      <trkpt lat="47.52202" lon="6.77597">
        <ele>382.7</ele>
        <time>2014-10-28T15:15:09.000Z</time>
      </trkpt>
      <trkpt lat="47.522" lon="6.77598">
        <ele>382.6</ele>
        <time>2014-10-28T15:15:10.000Z</time>
      </trkpt>
      <trkpt lat="47.52198" lon="6.776">
        <ele>382.1</ele>
        <time>2014-10-28T15:15:11.000Z</time>
      </trkpt>
      <trkpt lat="47.52196" lon="6.77602">
        <ele>382.6</ele>
        <time>2014-10-28T15:15:12.000Z</time>
      </trkpt>
      <trkpt lat="47.52194" lon="6.77604">
        <ele>382.3</ele>
        <time>2014-10-28T15:15:13.000Z</time>
      </trkpt>
      <trkpt lat="47.52191" lon="6.77606">
        <ele>382.3</ele>
        <time>2014-10-28T15:15:14.000Z</time>
      </trkpt>
      <trkpt lat="47.52189" lon="6.77608">
        <ele>381.8</ele>
        <time>2014-10-28T15:15:15.000Z</time>
      </trkpt>
      <trkpt lat="47.52172" lon="6.77619">
        <ele>380.2</ele>
        <time>2014-10-28T15:15:23.000Z</time>
      </trkpt>
      <trkpt lat="47.52169" lon="6.7762">
        <ele>380.4</ele>
        <time>2014-10-28T15:15:25.000Z</time>
      </trkpt>
      <trkpt lat="47.52167" lon="6.7762">
        <ele>380.2</ele>
        <time>2014-10-28T15:15:26.000Z</time>
      </trkpt>
      <trkpt lat="47.52165" lon="6.77621">
        <ele>381.4</ele>
        <time>2014-10-28T15:15:27.000Z</time>
      </trkpt>
      <trkpt lat="47.52163" lon="6.77623">
        <ele>380.2</ele>
        <time>2014-10-28T15:15:28.000Z</time>
      </trkpt>
      <trkpt lat="47.5216" lon="6.77625">
        <ele>380.4</ele>
        <time>2014-10-28T15:15:29.000Z</time>
      </trkpt>
      <trkpt lat="47.52158" lon="6.77627">
        <ele>380.8</ele>
        <time>2014-10-28T15:15:30.000Z</time>
      </trkpt>
      <trkpt lat="47.52156" lon="6.77628">
        <ele>380.6</ele>
        <time>2014-10-28T15:15:31.000Z</time>
      </trkpt>
      <trkpt lat="47.52154" lon="6.7763">
        <ele>380.8</ele>
        <time>2014-10-28T15:15:32.000Z</time>
      </trkpt>
      <trkpt lat="47.52152" lon="6.77632">
        <ele>380.7</ele>
        <time>2014-10-28T15:15:33.000Z</time>
      </trkpt>
      <trkpt lat="47.52149" lon="6.77634">
        <ele>381.1</ele>
        <time>2014-10-28T15:15:34.000Z</time>
      </trkpt>
      <trkpt lat="47.52147" lon="6.77636">
        <ele>381</ele>
        <time>2014-10-28T15:15:35.000Z</time>
      </trkpt>
      <trkpt lat="47.52145" lon="6.77637">
        <ele>377.8</ele>
        <time>2014-10-28T15:15:36.000Z</time>
      </trkpt>
      <trkpt lat="47.52141" lon="6.7764">
        <ele>377.3</ele>
        <time>2014-10-28T15:15:38.000Z</time>
      </trkpt>
      <trkpt lat="47.52139" lon="6.7764">
        <ele>376.7</ele>
        <time>2014-10-28T15:15:39.000Z</time>
      </trkpt>
      <trkpt lat="47.52135" lon="6.77642">
        <ele>375.9</ele>
        <time>2014-10-28T15:15:41.000Z</time>
      </trkpt>
      <trkpt lat="47.52134" lon="6.77642">
        <ele>375.2</ele>
        <time>2014-10-28T15:15:42.000Z</time>
      </trkpt>
      <trkpt lat="47.5213" lon="6.77645">
        <ele>375.5</ele>
        <time>2014-10-28T15:15:45.000Z</time>
      </trkpt>
      <trkpt lat="47.52129" lon="6.77646">
        <ele>377</ele>
        <time>2014-10-28T15:15:46.000Z</time>
      </trkpt>
      <trkpt lat="47.52125" lon="6.77648">
        <ele>378.1</ele>
        <time>2014-10-28T15:15:48.000Z</time>
      </trkpt>
      <trkpt lat="47.52122" lon="6.77649">
        <ele>378.1</ele>
        <time>2014-10-28T15:15:49.000Z</time>
      </trkpt>
      <trkpt lat="47.5212" lon="6.77651">
        <ele>378.2</ele>
        <time>2014-10-28T15:15:50.000Z</time>
      </trkpt>
      <trkpt lat="47.52117" lon="6.77653">
        <ele>378.4</ele>
        <time>2014-10-28T15:15:51.000Z</time>
      </trkpt>
      <trkpt lat="47.52114" lon="6.77656">
        <ele>379.4</ele>
        <time>2014-10-28T15:15:52.000Z</time>
      </trkpt>
      <trkpt lat="47.52111" lon="6.77658">
        <ele>379.4</ele>
        <time>2014-10-28T15:15:53.000Z</time>
      </trkpt>
      <trkpt lat="47.52109" lon="6.77661">
        <ele>380.9</ele>
        <time>2014-10-28T15:15:54.000Z</time>
      </trkpt>
      <trkpt lat="47.52106" lon="6.77664">
        <ele>382</ele>
        <time>2014-10-28T15:15:55.000Z</time>
      </trkpt>
      <trkpt lat="47.52103" lon="6.77666">
        <ele>383</ele>
        <time>2014-10-28T15:15:56.000Z</time>
      </trkpt>
      <trkpt lat="47.52101" lon="6.77668">
        <ele>383.4</ele>
        <time>2014-10-28T15:15:57.000Z</time>
      </trkpt>
      <trkpt lat="47.52097" lon="6.77671">
        <ele>381.9</ele>
        <time>2014-10-28T15:15:59.000Z</time>
      </trkpt>
      <trkpt lat="47.52095" lon="6.77672">
        <ele>382.1</ele>
        <time>2014-10-28T15:16:00.000Z</time>
      </trkpt>
      <trkpt lat="47.52092" lon="6.7767">
        <ele>383</ele>
        <time>2014-10-28T15:16:02.000Z</time>
      </trkpt>
      <trkpt lat="47.52091" lon="6.77667">
        <ele>383.9</ele>
        <time>2014-10-28T15:16:03.000Z</time>
      </trkpt>
      <trkpt lat="47.52091" lon="6.77664">
        <ele>382.8</ele>
        <time>2014-10-28T15:16:04.000Z</time>
      </trkpt>
      <trkpt lat="47.52091" lon="6.7766">
        <ele>382.8</ele>
        <time>2014-10-28T15:16:05.000Z</time>
      </trkpt>
      <trkpt lat="47.52091" lon="6.77655">
        <ele>383.5</ele>
        <time>2014-10-28T15:16:06.000Z</time>
      </trkpt>
      <trkpt lat="47.52091" lon="6.77651">
        <ele>384</ele>
        <time>2014-10-28T15:16:07.000Z</time>
      </trkpt>
      <trkpt lat="47.52092" lon="6.77646">
        <ele>383.9</ele>
        <time>2014-10-28T15:16:08.000Z</time>
      </trkpt>
      <trkpt lat="47.52092" lon="6.77641">
        <ele>383.5</ele>
        <time>2014-10-28T15:16:09.000Z</time>
      </trkpt>
      <trkpt lat="47.52092" lon="6.77637">
        <ele>383.6</ele>
        <time>2014-10-28T15:16:10.000Z</time>
      </trkpt>
      <trkpt lat="47.52092" lon="6.77633">
        <ele>383.6</ele>
        <time>2014-10-28T15:16:11.000Z</time>
      </trkpt>
      <trkpt lat="47.52092" lon="6.77629">
        <ele>383.9</ele>
        <time>2014-10-28T15:16:12.000Z</time>
      </trkpt>
      <trkpt lat="47.52092" lon="6.77625">
        <ele>384.1</ele>
        <time>2014-10-28T15:16:13.000Z</time>
      </trkpt>
      <trkpt lat="47.52092" lon="6.77622">
        <ele>384.2</ele>
        <time>2014-10-28T15:16:14.000Z</time>
      </trkpt>
      <trkpt lat="47.52092" lon="6.77612">
        <ele>383.1</ele>
        <time>2014-10-28T15:16:17.000Z</time>
      </trkpt>
      <trkpt lat="47.52092" lon="6.77609">
        <ele>382.9</ele>
        <time>2014-10-28T15:16:18.000Z</time>
      </trkpt>
      <trkpt lat="47.52092" lon="6.77605">
        <ele>382.8</ele>
        <time>2014-10-28T15:16:19.000Z</time>
      </trkpt>
      <trkpt lat="47.52092" lon="6.77601">
        <ele>383</ele>
        <time>2014-10-28T15:16:20.000Z</time>
      </trkpt>
      <trkpt lat="47.52092" lon="6.77598">
        <ele>382.5</ele>
        <time>2014-10-28T15:16:21.000Z</time>
      </trkpt>
      <trkpt lat="47.52092" lon="6.77594">
        <ele>383.9</ele>
        <time>2014-10-28T15:16:22.000Z</time>
      </trkpt>
      <trkpt lat="47.52092" lon="6.7759">
        <ele>383.2</ele>
        <time>2014-10-28T15:16:23.000Z</time>
      </trkpt>
      <trkpt lat="47.52092" lon="6.77586">
        <ele>383.7</ele>
        <time>2014-10-28T15:16:24.000Z</time>
      </trkpt>
      <trkpt lat="47.52092" lon="6.77583">
        <ele>383.3</ele>
        <time>2014-10-28T15:16:25.000Z</time>
      </trkpt>
      <trkpt lat="47.52092" lon="6.77579">
        <ele>382.8</ele>
        <time>2014-10-28T15:16:26.000Z</time>
      </trkpt>
      <trkpt lat="47.52091" lon="6.77576">
        <ele>382.9</ele>
        <time>2014-10-28T15:16:27.000Z</time>
      </trkpt>
      <trkpt lat="47.52091" lon="6.77572">
        <ele>383.1</ele>
        <time>2014-10-28T15:16:28.000Z</time>
      </trkpt>
      <trkpt lat="47.52091" lon="6.77569">
        <ele>382.9</ele>
        <time>2014-10-28T15:16:29.000Z</time>
      </trkpt>
      <trkpt lat="47.5209" lon="6.77565">
        <ele>382.3</ele>
        <time>2014-10-28T15:16:30.000Z</time>
      </trkpt>
      <trkpt lat="47.5209" lon="6.77562">
        <ele>382.4</ele>
        <time>2014-10-28T15:16:31.000Z</time>
      </trkpt>
      <trkpt lat="47.52089" lon="6.77558">
        <ele>382.6</ele>
        <time>2014-10-28T15:16:32.000Z</time>
      </trkpt>
      <trkpt lat="47.52088" lon="6.77556">
        <ele>381.7</ele>
        <time>2014-10-28T15:16:33.000Z</time>
      </trkpt>
      <trkpt lat="47.52085" lon="6.7755">
        <ele>382.5</ele>
        <time>2014-10-28T15:16:35.000Z</time>
      </trkpt>
      <trkpt lat="47.52083" lon="6.77548">
        <ele>381.4</ele>
        <time>2014-10-28T15:16:36.000Z</time>
      </trkpt>
      <trkpt lat="47.52081" lon="6.77546">
        <ele>381.8</ele>
        <time>2014-10-28T15:16:37.000Z</time>
      </trkpt>
      <trkpt lat="47.52078" lon="6.77544">
        <ele>382.7</ele>
        <time>2014-10-28T15:16:38.000Z</time>
      </trkpt>
      <trkpt lat="47.52076" lon="6.77543">
        <ele>384</ele>
        <time>2014-10-28T15:16:39.000Z</time>
      </trkpt>
      <trkpt lat="47.52073" lon="6.77542">
        <ele>383.1</ele>
        <time>2014-10-28T15:16:40.000Z</time>
      </trkpt>
      <trkpt lat="47.52071" lon="6.77542">
        <ele>382.5</ele>
        <time>2014-10-28T15:16:41.000Z</time>
      </trkpt>
      <trkpt lat="47.52068" lon="6.77542">
        <ele>381.3</ele>
        <time>2014-10-28T15:16:42.000Z</time>
      </trkpt>
      <trkpt lat="47.52065" lon="6.77541">
        <ele>380.4</ele>
        <time>2014-10-28T15:16:44.000Z</time>
      </trkpt>
      <trkpt lat="47.52063" lon="6.77541">
        <ele>380.1</ele>
        <time>2014-10-28T15:16:45.000Z</time>
      </trkpt>
      <trkpt lat="47.52061" lon="6.77541">
        <ele>380.3</ele>
        <time>2014-10-28T15:16:46.000Z</time>
      </trkpt>
      <trkpt lat="47.52058" lon="6.7754">
        <ele>380.8</ele>
        <time>2014-10-28T15:16:47.000Z</time>
      </trkpt>
      <trkpt lat="47.52056" lon="6.7754">
        <ele>381.6</ele>
        <time>2014-10-28T15:16:48.000Z</time>
      </trkpt>
      <trkpt lat="47.52053" lon="6.77539">
        <ele>381.6</ele>
        <time>2014-10-28T15:16:49.000Z</time>
      </trkpt>
      <trkpt lat="47.52051" lon="6.77539">
        <ele>382.4</ele>
        <time>2014-10-28T15:16:50.000Z</time>
      </trkpt>
      <trkpt lat="47.52048" lon="6.77539">
        <ele>382.9</ele>
        <time>2014-10-28T15:16:51.000Z</time>
      </trkpt>
      <trkpt lat="47.52046" lon="6.77539">
        <ele>384</ele>
        <time>2014-10-28T15:16:52.000Z</time>
      </trkpt>
      <trkpt lat="47.52043" lon="6.77539">
        <ele>384.1</ele>
        <time>2014-10-28T15:16:53.000Z</time>
      </trkpt>
      <trkpt lat="47.52041" lon="6.77539">
        <ele>384.4</ele>
        <time>2014-10-28T15:16:54.000Z</time>
      </trkpt>
      <trkpt lat="47.52038" lon="6.77538">
        <ele>384.8</ele>
        <time>2014-10-28T15:16:55.000Z</time>
      </trkpt>
      <trkpt lat="47.52036" lon="6.77538">
        <ele>384.7</ele>
        <time>2014-10-28T15:16:56.000Z</time>
      </trkpt>
      <trkpt lat="47.52034" lon="6.77537">
        <ele>384.8</ele>
        <time>2014-10-28T15:16:57.000Z</time>
      </trkpt>
      <trkpt lat="47.52031" lon="6.77536">
        <ele>383.7</ele>
        <time>2014-10-28T15:16:58.000Z</time>
      </trkpt>
      <trkpt lat="47.52029" lon="6.77536">
        <ele>383.9</ele>
        <time>2014-10-28T15:16:59.000Z</time>
      </trkpt>
      <trkpt lat="47.52026" lon="6.77535">
        <ele>383.4</ele>
        <time>2014-10-28T15:17:00.000Z</time>
      </trkpt>
      <trkpt lat="47.52024" lon="6.77534">
        <ele>382.7</ele>
        <time>2014-10-28T15:17:01.000Z</time>
      </trkpt>
      <trkpt lat="47.5202" lon="6.77532">
        <ele>381.9</ele>
        <time>2014-10-28T15:17:03.000Z</time>
      </trkpt>
      <trkpt lat="47.52017" lon="6.77532">
        <ele>382.1</ele>
        <time>2014-10-28T15:17:04.000Z</time>
      </trkpt>
      <trkpt lat="47.52015" lon="6.77531">
        <ele>382.5</ele>
        <time>2014-10-28T15:17:05.000Z</time>
      </trkpt>
      <trkpt lat="47.52012" lon="6.77531">
        <ele>378.3</ele>
        <time>2014-10-28T15:17:06.000Z</time>
      </trkpt>
      <trkpt lat="47.52008" lon="6.77531">
        <ele>376.7</ele>
        <time>2014-10-28T15:17:08.000Z</time>
      </trkpt>
      <trkpt lat="47.52006" lon="6.7753">
        <ele>376.9</ele>
        <time>2014-10-28T15:17:09.000Z</time>
      </trkpt>
      <trkpt lat="47.52004" lon="6.77529">
        <ele>377.2</ele>
        <time>2014-10-28T15:17:10.000Z</time>
      </trkpt>
      <trkpt lat="47.52001" lon="6.77528">
        <ele>377.6</ele>
        <time>2014-10-28T15:17:11.000Z</time>
      </trkpt>
      <trkpt lat="47.51999" lon="6.77527">
        <ele>378.1</ele>
        <time>2014-10-28T15:17:12.000Z</time>
      </trkpt>
      <trkpt lat="47.51996" lon="6.77526">
        <ele>373.7</ele>
        <time>2014-10-28T15:17:13.000Z</time>
      </trkpt>
      <trkpt lat="47.51994" lon="6.77524">
        <ele>372.8</ele>
        <time>2014-10-28T15:17:14.000Z</time>
      </trkpt>
      <trkpt lat="47.51987" lon="6.77522">
        <ele>372.6</ele>
        <time>2014-10-28T15:17:17.000Z</time>
      </trkpt>
      <trkpt lat="47.51984" lon="6.77523">
        <ele>372.4</ele>
        <time>2014-10-28T15:17:18.000Z</time>
      </trkpt>
      <trkpt lat="47.51981" lon="6.77522">
        <ele>372.5</ele>
        <time>2014-10-28T15:17:19.000Z</time>
      </trkpt>
      <trkpt lat="47.51979" lon="6.77522">
        <ele>372.8</ele>
        <time>2014-10-28T15:17:20.000Z</time>
      </trkpt>
      <trkpt lat="47.51976" lon="6.77521">
        <ele>372.8</ele>
        <time>2014-10-28T15:17:21.000Z</time>
      </trkpt>
      <trkpt lat="47.51973" lon="6.7752">
        <ele>373.3</ele>
        <time>2014-10-28T15:17:22.000Z</time>
      </trkpt>
      <trkpt lat="47.5197" lon="6.7752">
        <ele>373.5</ele>
        <time>2014-10-28T15:17:23.000Z</time>
      </trkpt>
      <trkpt lat="47.51967" lon="6.7752">
        <ele>374.1</ele>
        <time>2014-10-28T15:17:24.000Z</time>
      </trkpt>
      <trkpt lat="47.51965" lon="6.7752">
        <ele>372.3</ele>
        <time>2014-10-28T15:17:25.000Z</time>
      </trkpt>
      <trkpt lat="47.51962" lon="6.7752">
        <ele>373.3</ele>
        <time>2014-10-28T15:17:26.000Z</time>
      </trkpt>
      <trkpt lat="47.5196" lon="6.7752">
        <ele>373.7</ele>
        <time>2014-10-28T15:17:27.000Z</time>
      </trkpt>
      <trkpt lat="47.51955" lon="6.7752">
        <ele>375.2</ele>
        <time>2014-10-28T15:17:29.000Z</time>
      </trkpt>
      <trkpt lat="47.51953" lon="6.7752">
        <ele>376</ele>
        <time>2014-10-28T15:17:30.000Z</time>
      </trkpt>
      <trkpt lat="47.5195" lon="6.77519">
        <ele>376.5</ele>
        <time>2014-10-28T15:17:31.000Z</time>
      </trkpt>
      <trkpt lat="47.51948" lon="6.77519">
        <ele>377.3</ele>
        <time>2014-10-28T15:17:32.000Z</time>
      </trkpt>
      <trkpt lat="47.51945" lon="6.77519">
        <ele>376.2</ele>
        <time>2014-10-28T15:17:33.000Z</time>
      </trkpt>
      <trkpt lat="47.51943" lon="6.77518">
        <ele>377.1</ele>
        <time>2014-10-28T15:17:34.000Z</time>
      </trkpt>
      <trkpt lat="47.5194" lon="6.77518">
        <ele>377.6</ele>
        <time>2014-10-28T15:17:35.000Z</time>
      </trkpt>
      <trkpt lat="47.51938" lon="6.77517">
        <ele>378.1</ele>
        <time>2014-10-28T15:17:36.000Z</time>
      </trkpt>
      <trkpt lat="47.51936" lon="6.77517">
        <ele>379.8</ele>
        <time>2014-10-28T15:17:37.000Z</time>
      </trkpt>
      <trkpt lat="47.51933" lon="6.77517">
        <ele>378.6</ele>
        <time>2014-10-28T15:17:38.000Z</time>
      </trkpt>
      <trkpt lat="47.51931" lon="6.77517">
        <ele>378.2</ele>
        <time>2014-10-28T15:17:39.000Z</time>
      </trkpt>
      <trkpt lat="47.51929" lon="6.77517">
        <ele>378.3</ele>
        <time>2014-10-28T15:17:40.000Z</time>
      </trkpt>
      <trkpt lat="47.51926" lon="6.77517">
        <ele>378.7</ele>
        <time>2014-10-28T15:17:41.000Z</time>
      </trkpt>
      <trkpt lat="47.51924" lon="6.77517">
        <ele>379.3</ele>
        <time>2014-10-28T15:17:42.000Z</time>
      </trkpt>
      <trkpt lat="47.51922" lon="6.77517">
        <ele>380.1</ele>
        <time>2014-10-28T15:17:43.000Z</time>
      </trkpt>
      <trkpt lat="47.51919" lon="6.77516">
        <ele>378.9</ele>
        <time>2014-10-28T15:17:44.000Z</time>
      </trkpt>
      <trkpt lat="47.51917" lon="6.77516">
        <ele>378.7</ele>
        <time>2014-10-28T15:17:45.000Z</time>
      </trkpt>
      <trkpt lat="47.51914" lon="6.77515">
        <ele>379.7</ele>
        <time>2014-10-28T15:17:46.000Z</time>
      </trkpt>
      <trkpt lat="47.51912" lon="6.77514">
        <ele>380.3</ele>
        <time>2014-10-28T15:17:47.000Z</time>
      </trkpt>
      <trkpt lat="47.51909" lon="6.77513">
        <ele>380.6</ele>
        <time>2014-10-28T15:17:48.000Z</time>
      </trkpt>
      <trkpt lat="47.51906" lon="6.77513">
        <ele>381</ele>
        <time>2014-10-28T15:17:49.000Z</time>
      </trkpt>
      <trkpt lat="47.51903" lon="6.77512">
        <ele>381.8</ele>
        <time>2014-10-28T15:17:50.000Z</time>
      </trkpt>
      <trkpt lat="47.51901" lon="6.77511">
        <ele>382.2</ele>
        <time>2014-10-28T15:17:51.000Z</time>
      </trkpt>
      <trkpt lat="47.51898" lon="6.7751">
        <ele>382.6</ele>
        <time>2014-10-28T15:17:52.000Z</time>
      </trkpt>
      <trkpt lat="47.51896" lon="6.77509">
        <ele>382.9</ele>
        <time>2014-10-28T15:17:53.000Z</time>
      </trkpt>
      <trkpt lat="47.51893" lon="6.77508">
        <ele>383</ele>
        <time>2014-10-28T15:17:54.000Z</time>
      </trkpt>
      <trkpt lat="47.5189" lon="6.77507">
        <ele>382.3</ele>
        <time>2014-10-28T15:17:55.000Z</time>
      </trkpt>
      <trkpt lat="47.51888" lon="6.77506">
        <ele>382.2</ele>
        <time>2014-10-28T15:17:56.000Z</time>
      </trkpt>
      <trkpt lat="47.51885" lon="6.77505">
        <ele>382</ele>
        <time>2014-10-28T15:17:57.000Z</time>
      </trkpt>
      <trkpt lat="47.51883" lon="6.77504">
        <ele>382.6</ele>
        <time>2014-10-28T15:17:58.000Z</time>
      </trkpt>
      <trkpt lat="47.51881" lon="6.77503">
        <ele>382.6</ele>
        <time>2014-10-28T15:17:59.000Z</time>
      </trkpt>
      <trkpt lat="47.51878" lon="6.77503">
        <ele>382.3</ele>
        <time>2014-10-28T15:18:00.000Z</time>
      </trkpt>
      <trkpt lat="47.51875" lon="6.77502">
        <ele>382.3</ele>
        <time>2014-10-28T15:18:01.000Z</time>
      </trkpt>
      <trkpt lat="47.51872" lon="6.77502">
        <ele>382.4</ele>
        <time>2014-10-28T15:18:02.000Z</time>
      </trkpt>
      <trkpt lat="47.5187" lon="6.77501">
        <ele>382.9</ele>
        <time>2014-10-28T15:18:03.000Z</time>
      </trkpt>
      <trkpt lat="47.51867" lon="6.775">
        <ele>383.6</ele>
        <time>2014-10-28T15:18:04.000Z</time>
      </trkpt>
      <trkpt lat="47.51864" lon="6.775">
        <ele>384</ele>
        <time>2014-10-28T15:18:05.000Z</time>
      </trkpt>
      <trkpt lat="47.51862" lon="6.77499">
        <ele>384.3</ele>
        <time>2014-10-28T15:18:06.000Z</time>
      </trkpt>
      <trkpt lat="47.51859" lon="6.77499">
        <ele>385.1</ele>
        <time>2014-10-28T15:18:07.000Z</time>
      </trkpt>
      <trkpt lat="47.51856" lon="6.775">
        <ele>385.3</ele>
        <time>2014-10-28T15:18:08.000Z</time>
      </trkpt>
      <trkpt lat="47.51854" lon="6.775">
        <ele>385.6</ele>
        <time>2014-10-28T15:18:09.000Z</time>
      </trkpt>
      <trkpt lat="47.51851" lon="6.775">
        <ele>385.8</ele>
        <time>2014-10-28T15:18:10.000Z</time>
      </trkpt>
      <trkpt lat="47.51849" lon="6.775">
        <ele>385.2</ele>
        <time>2014-10-28T15:18:11.000Z</time>
      </trkpt>
      <trkpt lat="47.51846" lon="6.775">
        <ele>385</ele>
        <time>2014-10-28T15:18:12.000Z</time>
      </trkpt>
      <trkpt lat="47.51843" lon="6.775">
        <ele>385</ele>
        <time>2014-10-28T15:18:13.000Z</time>
      </trkpt>
      <trkpt lat="47.5184" lon="6.77499">
        <ele>384.9</ele>
        <time>2014-10-28T15:18:14.000Z</time>
      </trkpt>
      <trkpt lat="47.51832" lon="6.77499">
        <ele>384.5</ele>
        <time>2014-10-28T15:18:17.000Z</time>
      </trkpt>
      <trkpt lat="47.51829" lon="6.77498">
        <ele>384.4</ele>
        <time>2014-10-28T15:18:18.000Z</time>
      </trkpt>
      <trkpt lat="47.51827" lon="6.77497">
        <ele>384.4</ele>
        <time>2014-10-28T15:18:19.000Z</time>
      </trkpt>
      <trkpt lat="47.51824" lon="6.77496">
        <ele>384.8</ele>
        <time>2014-10-28T15:18:20.000Z</time>
      </trkpt>
      <trkpt lat="47.51822" lon="6.77496">
        <ele>385.3</ele>
        <time>2014-10-28T15:18:21.000Z</time>
      </trkpt>
      <trkpt lat="47.51819" lon="6.77495">
        <ele>385.3</ele>
        <time>2014-10-28T15:18:22.000Z</time>
      </trkpt>
      <trkpt lat="47.51817" lon="6.77495">
        <ele>385.5</ele>
        <time>2014-10-28T15:18:23.000Z</time>
      </trkpt>
      <trkpt lat="47.51814" lon="6.77494">
        <ele>385.7</ele>
        <time>2014-10-28T15:18:24.050Z</time>
      </trkpt>
      <trkpt lat="47.51812" lon="6.77494">
        <ele>385.8</ele>
        <time>2014-10-28T15:18:25.000Z</time>
      </trkpt>
      <trkpt lat="47.51808" lon="6.77492">
        <ele>385.5</ele>
        <time>2014-10-28T15:18:27.000Z</time>
      </trkpt>
      <trkpt lat="47.51806" lon="6.77491">
        <ele>385.6</ele>
        <time>2014-10-28T15:18:28.000Z</time>
      </trkpt>
      <trkpt lat="47.51804" lon="6.77486">
        <ele>386.2</ele>
        <time>2014-10-28T15:18:31.000Z</time>
      </trkpt>
      <trkpt lat="47.51803" lon="6.77485">
        <ele>386.3</ele>
        <time>2014-10-28T15:18:32.000Z</time>
      </trkpt>
      <trkpt lat="47.51802" lon="6.77479">
        <ele>385.8</ele>
        <time>2014-10-28T15:18:35.054Z</time>
      </trkpt>
      <trkpt lat="47.51802" lon="6.77478">
        <ele>385.6</ele>
        <time>2014-10-28T15:18:36.000Z</time>
      </trkpt>
      <trkpt lat="47.51798" lon="6.77477">
        <ele>384</ele>
        <time>2014-10-28T15:18:40.053Z</time>
      </trkpt>
      <trkpt lat="47.51797" lon="6.77478">
        <ele>383.9</ele>
        <time>2014-10-28T15:18:41.000Z</time>
      </trkpt>
      <trkpt lat="47.51793" lon="6.77475">
        <ele>382</ele>
        <time>2014-10-28T15:18:45.000Z</time>
      </trkpt>
      <trkpt lat="47.51793" lon="6.77474">
        <ele>382.3</ele>
        <time>2014-10-28T15:18:46.000Z</time>
      </trkpt>
      <trkpt lat="47.51792" lon="6.7747">
        <ele>380.1</ele>
        <time>2014-10-28T15:20:29.000Z</time>
      </trkpt>
    </trkseg>
  </trk>
</gpx>